<?xml version="1.0" encoding="UTF-8" standalone="no" ?>
<gpx xmlns="http://www.topografix.com/GPX/1/1" xmlns:xsi="http://www.w3.org/2001/XMLSchema-instance" xsi:schemaLocation="http://www.topografix.com/GPX/1/1 http://www.topografix.com/GPX/1/1/gpx.xsd" version="1.1" creator="VisuGPX - https://www.visugpx.com">
  <metadata>
    <name>Lundi 21 juin</name>
  </metadata>
  <trk>
    <name><![CDATA[Lundi 21 juin_1]]></name>
    <trkseg>
      <trkpt lat="48.0844" lon="7.27047">
        <ele>239</ele>
        <time>2021-06-21T05:31:34Z</time>
      </trkpt>
      <trkpt lat="48.0844" lon="7.27047">
        <ele>239.2</ele>
        <time>2021-06-21T05:31:35Z</time>
      </trkpt>
      <trkpt lat="48.0844" lon="7.27048">
        <ele>240</ele>
        <time>2021-06-21T05:31:53Z</time>
      </trkpt>
      <trkpt lat="48.08446" lon="7.27048">
        <ele>240.2</ele>
        <time>2021-06-21T05:31:56Z</time>
      </trkpt>
      <trkpt lat="48.08465" lon="7.27047">
        <ele>240.4</ele>
        <time>2021-06-21T05:32:02Z</time>
      </trkpt>
      <trkpt lat="48.08478" lon="7.27051">
        <ele>240.4</ele>
        <time>2021-06-21T05:32:06Z</time>
      </trkpt>
      <trkpt lat="48.0848" lon="7.27055">
        <ele>240.4</ele>
        <time>2021-06-21T05:32:07Z</time>
      </trkpt>
      <trkpt lat="48.08489" lon="7.27068">
        <ele>240.6</ele>
        <time>2021-06-21T05:32:11Z</time>
      </trkpt>
      <trkpt lat="48.08498" lon="7.27076">
        <ele>240.4</ele>
        <time>2021-06-21T05:32:14Z</time>
      </trkpt>
      <trkpt lat="48.085" lon="7.27088">
        <ele>240.4</ele>
        <time>2021-06-21T05:32:16Z</time>
      </trkpt>
      <trkpt lat="48.08489" lon="7.27128">
        <ele>240</ele>
        <time>2021-06-21T05:32:22Z</time>
      </trkpt>
      <trkpt lat="48.08474" lon="7.27189">
        <ele>239.4</ele>
        <time>2021-06-21T05:32:31Z</time>
      </trkpt>
      <trkpt lat="48.08472" lon="7.27208">
        <ele>239.4</ele>
        <time>2021-06-21T05:32:34Z</time>
      </trkpt>
      <trkpt lat="48.08475" lon="7.2722">
        <ele>239.4</ele>
        <time>2021-06-21T05:32:36Z</time>
      </trkpt>
      <trkpt lat="48.08482" lon="7.27226">
        <ele>239.4</ele>
        <time>2021-06-21T05:32:38Z</time>
      </trkpt>
      <trkpt lat="48.08487" lon="7.27228">
        <ele>239.4</ele>
        <time>2021-06-21T05:32:39Z</time>
      </trkpt>
      <trkpt lat="48.085" lon="7.27236">
        <ele>239.2</ele>
        <time>2021-06-21T05:32:42Z</time>
      </trkpt>
      <trkpt lat="48.08509" lon="7.27246">
        <ele>239.2</ele>
        <time>2021-06-21T05:32:45Z</time>
      </trkpt>
      <trkpt lat="48.08513" lon="7.2725">
        <ele>239.2</ele>
        <time>2021-06-21T05:32:47Z</time>
      </trkpt>
      <trkpt lat="48.08517" lon="7.2725">
        <ele>239.2</ele>
        <time>2021-06-21T05:32:49Z</time>
      </trkpt>
      <trkpt lat="48.08529" lon="7.27253">
        <ele>239.2</ele>
        <time>2021-06-21T05:32:54Z</time>
      </trkpt>
      <trkpt lat="48.08531" lon="7.27255">
        <ele>239.2</ele>
        <time>2021-06-21T05:32:55Z</time>
      </trkpt>
      <trkpt lat="48.08534" lon="7.27259">
        <ele>239</ele>
        <time>2021-06-21T05:32:57Z</time>
      </trkpt>
      <trkpt lat="48.08535" lon="7.27271">
        <ele>239</ele>
        <time>2021-06-21T05:33:00Z</time>
      </trkpt>
      <trkpt lat="48.08536" lon="7.2729">
        <ele>239</ele>
        <time>2021-06-21T05:33:03Z</time>
      </trkpt>
      <trkpt lat="48.08536" lon="7.27296">
        <ele>239</ele>
        <time>2021-06-21T05:33:04Z</time>
      </trkpt>
      <trkpt lat="48.08536" lon="7.27349">
        <ele>238.6</ele>
        <time>2021-06-21T05:33:11Z</time>
      </trkpt>
      <trkpt lat="48.08534" lon="7.27389">
        <ele>238.2</ele>
        <time>2021-06-21T05:33:16Z</time>
      </trkpt>
      <trkpt lat="48.08535" lon="7.27405">
        <ele>238</ele>
        <time>2021-06-21T05:33:18Z</time>
      </trkpt>
      <trkpt lat="48.08535" lon="7.27455">
        <ele>237.8</ele>
        <time>2021-06-21T05:33:24Z</time>
      </trkpt>
      <trkpt lat="48.08536" lon="7.2751">
        <ele>237.4</ele>
        <time>2021-06-21T05:33:31Z</time>
      </trkpt>
      <trkpt lat="48.08537" lon="7.27523">
        <ele>237.6</ele>
        <time>2021-06-21T05:33:33Z</time>
      </trkpt>
      <trkpt lat="48.08538" lon="7.27548">
        <ele>238</ele>
        <time>2021-06-21T05:33:37Z</time>
      </trkpt>
      <trkpt lat="48.08538" lon="7.27564">
        <ele>238</ele>
        <time>2021-06-21T05:33:39Z</time>
      </trkpt>
      <trkpt lat="48.08538" lon="7.27597">
        <ele>237.4</ele>
        <time>2021-06-21T05:33:43Z</time>
      </trkpt>
      <trkpt lat="48.08539" lon="7.27605">
        <ele>236.8</ele>
        <time>2021-06-21T05:33:44Z</time>
      </trkpt>
      <trkpt lat="48.08542" lon="7.27659">
        <ele>236.4</ele>
        <time>2021-06-21T05:33:51Z</time>
      </trkpt>
      <trkpt lat="48.08547" lon="7.27715">
        <ele>236.4</ele>
        <time>2021-06-21T05:33:58Z</time>
      </trkpt>
      <trkpt lat="48.08555" lon="7.27781">
        <ele>236</ele>
        <time>2021-06-21T05:34:07Z</time>
      </trkpt>
      <trkpt lat="48.08558" lon="7.27804">
        <ele>236</ele>
        <time>2021-06-21T05:34:10Z</time>
      </trkpt>
      <trkpt lat="48.0856" lon="7.27828">
        <ele>236.2</ele>
        <time>2021-06-21T05:34:13Z</time>
      </trkpt>
      <trkpt lat="48.08571" lon="7.27897">
        <ele>236.2</ele>
        <time>2021-06-21T05:34:22Z</time>
      </trkpt>
      <trkpt lat="48.08572" lon="7.27911">
        <ele>236</ele>
        <time>2021-06-21T05:34:24Z</time>
      </trkpt>
      <trkpt lat="48.08578" lon="7.27942">
        <ele>236</ele>
        <time>2021-06-21T05:34:29Z</time>
      </trkpt>
      <trkpt lat="48.08581" lon="7.2796">
        <ele>236.2</ele>
        <time>2021-06-21T05:34:33Z</time>
      </trkpt>
      <trkpt lat="48.08581" lon="7.2798">
        <ele>236.4</ele>
        <time>2021-06-21T05:34:39Z</time>
      </trkpt>
      <trkpt lat="48.08581" lon="7.27996">
        <ele>236.4</ele>
        <time>2021-06-21T05:34:44Z</time>
      </trkpt>
      <trkpt lat="48.08579" lon="7.28001">
        <ele>236.2</ele>
        <time>2021-06-21T05:34:46Z</time>
      </trkpt>
      <trkpt lat="48.08577" lon="7.28007">
        <ele>236</ele>
        <time>2021-06-21T05:34:49Z</time>
      </trkpt>
      <trkpt lat="48.08576" lon="7.28011">
        <ele>236</ele>
        <time>2021-06-21T05:34:51Z</time>
      </trkpt>
      <trkpt lat="48.08576" lon="7.28013">
        <ele>236</ele>
        <time>2021-06-21T05:34:52Z</time>
      </trkpt>
      <trkpt lat="48.08577" lon="7.28015">
        <ele>235.6</ele>
        <time>2021-06-21T05:34:56Z</time>
      </trkpt>
      <trkpt lat="48.08581" lon="7.28022">
        <ele>235.4</ele>
        <time>2021-06-21T05:35:00Z</time>
      </trkpt>
      <trkpt lat="48.08589" lon="7.28036">
        <ele>235.4</ele>
        <time>2021-06-21T05:35:04Z</time>
      </trkpt>
      <trkpt lat="48.08597" lon="7.28068">
        <ele>235.2</ele>
        <time>2021-06-21T05:35:10Z</time>
      </trkpt>
      <trkpt lat="48.08599" lon="7.28079">
        <ele>235</ele>
        <time>2021-06-21T05:35:12Z</time>
      </trkpt>
      <trkpt lat="48.08604" lon="7.28098">
        <ele>235</ele>
        <time>2021-06-21T05:35:16Z</time>
      </trkpt>
      <trkpt lat="48.08603" lon="7.28101">
        <ele>234.8</ele>
        <time>2021-06-21T05:35:17Z</time>
      </trkpt>
      <trkpt lat="48.08601" lon="7.2811">
        <ele>234.8</ele>
        <time>2021-06-21T05:35:20Z</time>
      </trkpt>
      <trkpt lat="48.08604" lon="7.28133">
        <ele>234.6</ele>
        <time>2021-06-21T05:35:24Z</time>
      </trkpt>
      <trkpt lat="48.08611" lon="7.28176">
        <ele>234.2</ele>
        <time>2021-06-21T05:35:30Z</time>
      </trkpt>
      <trkpt lat="48.08616" lon="7.282">
        <ele>234</ele>
        <time>2021-06-21T05:35:33Z</time>
      </trkpt>
      <trkpt lat="48.08619" lon="7.28223">
        <ele>233.8</ele>
        <time>2021-06-21T05:35:36Z</time>
      </trkpt>
      <trkpt lat="48.08631" lon="7.28298">
        <ele>233</ele>
        <time>2021-06-21T05:35:47Z</time>
      </trkpt>
      <trkpt lat="48.08634" lon="7.28312">
        <ele>233</ele>
        <time>2021-06-21T05:35:48Z</time>
      </trkpt>
      <trkpt lat="48.08641" lon="7.2836">
        <ele>232.6</ele>
        <time>2021-06-21T05:35:55Z</time>
      </trkpt>
      <trkpt lat="48.08643" lon="7.28376">
        <ele>232.6</ele>
        <time>2021-06-21T05:36:00Z</time>
      </trkpt>
      <trkpt lat="48.08643" lon="7.28381">
        <ele>232.6</ele>
        <time>2021-06-21T05:36:05Z</time>
      </trkpt>
      <trkpt lat="48.08644" lon="7.28383">
        <ele>232.6</ele>
        <time>2021-06-21T05:36:06Z</time>
      </trkpt>
      <trkpt lat="48.08649" lon="7.28404">
        <ele>232.4</ele>
        <time>2021-06-21T05:36:12Z</time>
      </trkpt>
      <trkpt lat="48.08653" lon="7.28439">
        <ele>232.2</ele>
        <time>2021-06-21T05:36:18Z</time>
      </trkpt>
      <trkpt lat="48.08654" lon="7.28446">
        <ele>232</ele>
        <time>2021-06-21T05:36:19Z</time>
      </trkpt>
      <trkpt lat="48.08656" lon="7.28468">
        <ele>232</ele>
        <time>2021-06-21T05:36:22Z</time>
      </trkpt>
      <trkpt lat="48.08658" lon="7.28484">
        <ele>232</ele>
        <time>2021-06-21T05:36:24Z</time>
      </trkpt>
      <trkpt lat="48.08666" lon="7.28533">
        <ele>231.8</ele>
        <time>2021-06-21T05:36:30Z</time>
      </trkpt>
      <trkpt lat="48.08676" lon="7.28591">
        <ele>231.4</ele>
        <time>2021-06-21T05:36:37Z</time>
      </trkpt>
      <trkpt lat="48.08685" lon="7.28641">
        <ele>231</ele>
        <time>2021-06-21T05:36:43Z</time>
      </trkpt>
      <trkpt lat="48.08688" lon="7.28657">
        <ele>230.8</ele>
        <time>2021-06-21T05:36:45Z</time>
      </trkpt>
      <trkpt lat="48.08698" lon="7.28712">
        <ele>230.6</ele>
        <time>2021-06-21T05:36:52Z</time>
      </trkpt>
      <trkpt lat="48.08709" lon="7.28776">
        <ele>229.8</ele>
        <time>2021-06-21T05:37:00Z</time>
      </trkpt>
      <trkpt lat="48.08713" lon="7.28791">
        <ele>229.6</ele>
        <time>2021-06-21T05:37:02Z</time>
      </trkpt>
      <trkpt lat="48.08726" lon="7.28867">
        <ele>228.8</ele>
        <time>2021-06-21T05:37:12Z</time>
      </trkpt>
      <trkpt lat="48.08728" lon="7.28874">
        <ele>228.8</ele>
        <time>2021-06-21T05:37:13Z</time>
      </trkpt>
      <trkpt lat="48.08735" lon="7.28918">
        <ele>228.6</ele>
        <time>2021-06-21T05:37:19Z</time>
      </trkpt>
      <trkpt lat="48.08737" lon="7.28935">
        <ele>228.6</ele>
        <time>2021-06-21T05:37:21Z</time>
      </trkpt>
      <trkpt lat="48.08748" lon="7.28992">
        <ele>228.2</ele>
        <time>2021-06-21T05:37:28Z</time>
      </trkpt>
      <trkpt lat="48.0876" lon="7.29049">
        <ele>227.8</ele>
        <time>2021-06-21T05:37:35Z</time>
      </trkpt>
      <trkpt lat="48.08762" lon="7.29057">
        <ele>227.8</ele>
        <time>2021-06-21T05:37:36Z</time>
      </trkpt>
      <trkpt lat="48.08771" lon="7.291">
        <ele>227.2</ele>
        <time>2021-06-21T05:37:41Z</time>
      </trkpt>
      <trkpt lat="48.08778" lon="7.29134">
        <ele>227</ele>
        <time>2021-06-21T05:37:45Z</time>
      </trkpt>
      <trkpt lat="48.08786" lon="7.29177">
        <ele>226.6</ele>
        <time>2021-06-21T05:37:50Z</time>
      </trkpt>
      <trkpt lat="48.08789" lon="7.29195">
        <ele>226.4</ele>
        <time>2021-06-21T05:37:52Z</time>
      </trkpt>
      <trkpt lat="48.08799" lon="7.29246">
        <ele>226</ele>
        <time>2021-06-21T05:37:58Z</time>
      </trkpt>
      <trkpt lat="48.08812" lon="7.29315">
        <ele>225.8</ele>
        <time>2021-06-21T05:38:06Z</time>
      </trkpt>
      <trkpt lat="48.08821" lon="7.29359">
        <ele>225.8</ele>
        <time>2021-06-21T05:38:12Z</time>
      </trkpt>
      <trkpt lat="48.08829" lon="7.29402">
        <ele>225.4</ele>
        <time>2021-06-21T05:38:16Z</time>
      </trkpt>
      <trkpt lat="48.08841" lon="7.29466">
        <ele>225</ele>
        <time>2021-06-21T05:38:23Z</time>
      </trkpt>
      <trkpt lat="48.08848" lon="7.29502">
        <ele>224.6</ele>
        <time>2021-06-21T05:38:27Z</time>
      </trkpt>
      <trkpt lat="48.08858" lon="7.29555">
        <ele>224.4</ele>
        <time>2021-06-21T05:38:33Z</time>
      </trkpt>
      <trkpt lat="48.08871" lon="7.29624">
        <ele>224.2</ele>
        <time>2021-06-21T05:38:42Z</time>
      </trkpt>
      <trkpt lat="48.08874" lon="7.29634">
        <ele>223.8</ele>
        <time>2021-06-21T05:38:45Z</time>
      </trkpt>
      <trkpt lat="48.08883" lon="7.29646">
        <ele>223.8</ele>
        <time>2021-06-21T05:38:50Z</time>
      </trkpt>
      <trkpt lat="48.08886" lon="7.29661">
        <ele>223.6</ele>
        <time>2021-06-21T05:38:53Z</time>
      </trkpt>
      <trkpt lat="48.08887" lon="7.29669">
        <ele>223.6</ele>
        <time>2021-06-21T05:38:54Z</time>
      </trkpt>
      <trkpt lat="48.08899" lon="7.29697">
        <ele>223.4</ele>
        <time>2021-06-21T05:38:58Z</time>
      </trkpt>
      <trkpt lat="48.08916" lon="7.29717">
        <ele>223.2</ele>
        <time>2021-06-21T05:39:02Z</time>
      </trkpt>
      <trkpt lat="48.08945" lon="7.29734">
        <ele>222.8</ele>
        <time>2021-06-21T05:39:08Z</time>
      </trkpt>
      <trkpt lat="48.08955" lon="7.29738">
        <ele>222.6</ele>
        <time>2021-06-21T05:39:12Z</time>
      </trkpt>
      <trkpt lat="48.08959" lon="7.2974">
        <ele>222.6</ele>
        <time>2021-06-21T05:39:14Z</time>
      </trkpt>
      <trkpt lat="48.0896" lon="7.29741">
        <ele>222.6</ele>
        <time>2021-06-21T05:39:15Z</time>
      </trkpt>
      <trkpt lat="48.08962" lon="7.29741">
        <ele>222.6</ele>
        <time>2021-06-21T05:39:16Z</time>
      </trkpt>
      <trkpt lat="48.08961" lon="7.29737">
        <ele>222.4</ele>
        <time>2021-06-21T05:39:19Z</time>
      </trkpt>
      <trkpt lat="48.08949" lon="7.29733">
        <ele>222.4</ele>
        <time>2021-06-21T05:39:23Z</time>
      </trkpt>
      <trkpt lat="48.08944" lon="7.29731">
        <ele>222.4</ele>
        <time>2021-06-21T05:39:24Z</time>
      </trkpt>
      <trkpt lat="48.08926" lon="7.29722">
        <ele>222.4</ele>
        <time>2021-06-21T05:39:28Z</time>
      </trkpt>
      <trkpt lat="48.08921" lon="7.29719">
        <ele>222.4</ele>
        <time>2021-06-21T05:39:29Z</time>
      </trkpt>
      <trkpt lat="48.08909" lon="7.29709">
        <ele>222.4</ele>
        <time>2021-06-21T05:39:32Z</time>
      </trkpt>
      <trkpt lat="48.08903" lon="7.29701">
        <ele>222.4</ele>
        <time>2021-06-21T05:39:34Z</time>
      </trkpt>
      <trkpt lat="48.08899" lon="7.29696">
        <ele>222.4</ele>
        <time>2021-06-21T05:39:35Z</time>
      </trkpt>
      <trkpt lat="48.08893" lon="7.29684">
        <ele>222.4</ele>
        <time>2021-06-21T05:39:37Z</time>
      </trkpt>
      <trkpt lat="48.08889" lon="7.29673">
        <ele>222.6</ele>
        <time>2021-06-21T05:39:39Z</time>
      </trkpt>
      <trkpt lat="48.08887" lon="7.29666">
        <ele>222.6</ele>
        <time>2021-06-21T05:39:40Z</time>
      </trkpt>
      <trkpt lat="48.08885" lon="7.29651">
        <ele>222.8</ele>
        <time>2021-06-21T05:39:42Z</time>
      </trkpt>
      <trkpt lat="48.08886" lon="7.29644">
        <ele>222.8</ele>
        <time>2021-06-21T05:39:43Z</time>
      </trkpt>
      <trkpt lat="48.08887" lon="7.29639">
        <ele>222.8</ele>
        <time>2021-06-21T05:39:44Z</time>
      </trkpt>
      <trkpt lat="48.08893" lon="7.29628">
        <ele>222.8</ele>
        <time>2021-06-21T05:39:46Z</time>
      </trkpt>
      <trkpt lat="48.089" lon="7.29618">
        <ele>222.8</ele>
        <time>2021-06-21T05:39:48Z</time>
      </trkpt>
      <trkpt lat="48.0891" lon="7.29602">
        <ele>223</ele>
        <time>2021-06-21T05:39:51Z</time>
      </trkpt>
      <trkpt lat="48.0894" lon="7.29558">
        <ele>223</ele>
        <time>2021-06-21T05:39:59Z</time>
      </trkpt>
      <trkpt lat="48.08967" lon="7.29516">
        <ele>223</ele>
        <time>2021-06-21T05:40:06Z</time>
      </trkpt>
      <trkpt lat="48.08988" lon="7.29488">
        <ele>223</ele>
        <time>2021-06-21T05:40:11Z</time>
      </trkpt>
      <trkpt lat="48.08992" lon="7.29486">
        <ele>223</ele>
        <time>2021-06-21T05:40:12Z</time>
      </trkpt>
      <trkpt lat="48.08997" lon="7.29485">
        <ele>223</ele>
        <time>2021-06-21T05:40:13Z</time>
      </trkpt>
      <trkpt lat="48.09006" lon="7.29488">
        <ele>223</ele>
        <time>2021-06-21T05:40:15Z</time>
      </trkpt>
      <trkpt lat="48.09019" lon="7.295">
        <ele>223</ele>
        <time>2021-06-21T05:40:20Z</time>
      </trkpt>
      <trkpt lat="48.09035" lon="7.29516">
        <ele>223</ele>
        <time>2021-06-21T05:40:25Z</time>
      </trkpt>
      <trkpt lat="48.09051" lon="7.29539">
        <ele>223</ele>
        <time>2021-06-21T05:40:30Z</time>
      </trkpt>
      <trkpt lat="48.09063" lon="7.29557">
        <ele>222.6</ele>
        <time>2021-06-21T05:40:35Z</time>
      </trkpt>
      <trkpt lat="48.09065" lon="7.29563">
        <ele>222.6</ele>
        <time>2021-06-21T05:40:37Z</time>
      </trkpt>
      <trkpt lat="48.09068" lon="7.29565">
        <ele>222.6</ele>
        <time>2021-06-21T05:40:39Z</time>
      </trkpt>
      <trkpt lat="48.0907" lon="7.29566">
        <ele>222.8</ele>
        <time>2021-06-21T05:40:41Z</time>
      </trkpt>
      <trkpt lat="48.09071" lon="7.29563">
        <ele>222.8</ele>
        <time>2021-06-21T05:40:43Z</time>
      </trkpt>
      <trkpt lat="48.09067" lon="7.29564">
        <ele>223</ele>
        <time>2021-06-21T05:40:45Z</time>
      </trkpt>
      <trkpt lat="48.09066" lon="7.29567">
        <ele>223</ele>
        <time>2021-06-21T05:40:46Z</time>
      </trkpt>
      <trkpt lat="48.0907" lon="7.29579">
        <ele>223</ele>
        <time>2021-06-21T05:40:49Z</time>
      </trkpt>
      <trkpt lat="48.09085" lon="7.29601">
        <ele>223</ele>
        <time>2021-06-21T05:40:55Z</time>
      </trkpt>
      <trkpt lat="48.09088" lon="7.29614">
        <ele>222.8</ele>
        <time>2021-06-21T05:40:57Z</time>
      </trkpt>
      <trkpt lat="48.09095" lon="7.29627">
        <ele>222.6</ele>
        <time>2021-06-21T05:40:59Z</time>
      </trkpt>
      <trkpt lat="48.0911" lon="7.29645">
        <ele>222.4</ele>
        <time>2021-06-21T05:41:03Z</time>
      </trkpt>
      <trkpt lat="48.09112" lon="7.2965">
        <ele>222.4</ele>
        <time>2021-06-21T05:41:04Z</time>
      </trkpt>
      <trkpt lat="48.09124" lon="7.29674">
        <ele>222.2</ele>
        <time>2021-06-21T05:41:09Z</time>
      </trkpt>
      <trkpt lat="48.09141" lon="7.29711">
        <ele>222.2</ele>
        <time>2021-06-21T05:41:16Z</time>
      </trkpt>
      <trkpt lat="48.09149" lon="7.2973">
        <ele>221.8</ele>
        <time>2021-06-21T05:41:20Z</time>
      </trkpt>
      <trkpt lat="48.0915" lon="7.29746">
        <ele>221.6</ele>
        <time>2021-06-21T05:41:23Z</time>
      </trkpt>
      <trkpt lat="48.0915" lon="7.29751">
        <ele>221.6</ele>
        <time>2021-06-21T05:41:24Z</time>
      </trkpt>
      <trkpt lat="48.09144" lon="7.29763">
        <ele>221</ele>
        <time>2021-06-21T05:41:29Z</time>
      </trkpt>
      <trkpt lat="48.09148" lon="7.29772">
        <ele>221.2</ele>
        <time>2021-06-21T05:41:32Z</time>
      </trkpt>
      <trkpt lat="48.09162" lon="7.29775">
        <ele>221.2</ele>
        <time>2021-06-21T05:41:36Z</time>
      </trkpt>
      <trkpt lat="48.0917" lon="7.2978">
        <ele>221.2</ele>
        <time>2021-06-21T05:41:38Z</time>
      </trkpt>
      <trkpt lat="48.09177" lon="7.2979">
        <ele>221.2</ele>
        <time>2021-06-21T05:41:40Z</time>
      </trkpt>
      <trkpt lat="48.09182" lon="7.29801">
        <ele>221.4</ele>
        <time>2021-06-21T05:41:42Z</time>
      </trkpt>
      <trkpt lat="48.0919" lon="7.29824">
        <ele>221.2</ele>
        <time>2021-06-21T05:41:46Z</time>
      </trkpt>
      <trkpt lat="48.09206" lon="7.29865">
        <ele>221.2</ele>
        <time>2021-06-21T05:41:52Z</time>
      </trkpt>
      <trkpt lat="48.0923" lon="7.29924">
        <ele>220.6</ele>
        <time>2021-06-21T05:42:01Z</time>
      </trkpt>
      <trkpt lat="48.09236" lon="7.2994">
        <ele>220.2</ele>
        <time>2021-06-21T05:42:04Z</time>
      </trkpt>
      <trkpt lat="48.09238" lon="7.29946">
        <ele>220.2</ele>
        <time>2021-06-21T05:42:06Z</time>
      </trkpt>
      <trkpt lat="48.09239" lon="7.29947">
        <ele>220.2</ele>
        <time>2021-06-21T05:42:09Z</time>
      </trkpt>
      <trkpt lat="48.09245" lon="7.29948">
        <ele>219.8</ele>
        <time>2021-06-21T05:43:08Z</time>
      </trkpt>
      <trkpt lat="48.09249" lon="7.2997">
        <ele>219.6</ele>
        <time>2021-06-21T05:43:12Z</time>
      </trkpt>
      <trkpt lat="48.09264" lon="7.30008">
        <ele>219.2</ele>
        <time>2021-06-21T05:43:18Z</time>
      </trkpt>
      <trkpt lat="48.09267" lon="7.30015">
        <ele>219</ele>
        <time>2021-06-21T05:43:19Z</time>
      </trkpt>
      <trkpt lat="48.0929" lon="7.30074">
        <ele>218.6</ele>
        <time>2021-06-21T05:43:27Z</time>
      </trkpt>
      <trkpt lat="48.09301" lon="7.30103">
        <ele>218</ele>
        <time>2021-06-21T05:43:31Z</time>
      </trkpt>
      <trkpt lat="48.09312" lon="7.30133">
        <ele>217.8</ele>
        <time>2021-06-21T05:43:35Z</time>
      </trkpt>
      <trkpt lat="48.09335" lon="7.30192">
        <ele>217.8</ele>
        <time>2021-06-21T05:43:43Z</time>
      </trkpt>
      <trkpt lat="48.09355" lon="7.30243">
        <ele>217.4</ele>
        <time>2021-06-21T05:43:50Z</time>
      </trkpt>
      <trkpt lat="48.09363" lon="7.30265">
        <ele>217.4</ele>
        <time>2021-06-21T05:43:53Z</time>
      </trkpt>
      <trkpt lat="48.0938" lon="7.3031">
        <ele>217.4</ele>
        <time>2021-06-21T05:43:59Z</time>
      </trkpt>
      <trkpt lat="48.09404" lon="7.30377">
        <ele>217.2</ele>
        <time>2021-06-21T05:44:08Z</time>
      </trkpt>
      <trkpt lat="48.09412" lon="7.30399">
        <ele>217</ele>
        <time>2021-06-21T05:44:11Z</time>
      </trkpt>
      <trkpt lat="48.09426" lon="7.30436">
        <ele>216.8</ele>
        <time>2021-06-21T05:44:16Z</time>
      </trkpt>
      <trkpt lat="48.09437" lon="7.30469">
        <ele>217</ele>
        <time>2021-06-21T05:44:21Z</time>
      </trkpt>
      <trkpt lat="48.0944" lon="7.30484">
        <ele>217.2</ele>
        <time>2021-06-21T05:44:23Z</time>
      </trkpt>
      <trkpt lat="48.09447" lon="7.30539">
        <ele>217.8</ele>
        <time>2021-06-21T05:44:30Z</time>
      </trkpt>
      <trkpt lat="48.09448" lon="7.30551">
        <ele>218</ele>
        <time>2021-06-21T05:44:32Z</time>
      </trkpt>
      <trkpt lat="48.09447" lon="7.30571">
        <ele>218.2</ele>
        <time>2021-06-21T05:44:35Z</time>
      </trkpt>
      <trkpt lat="48.09448" lon="7.30576">
        <ele>218.4</ele>
        <time>2021-06-21T05:44:36Z</time>
      </trkpt>
      <trkpt lat="48.09454" lon="7.30585">
        <ele>218.4</ele>
        <time>2021-06-21T05:44:38Z</time>
      </trkpt>
      <trkpt lat="48.09463" lon="7.3058">
        <ele>218.6</ele>
        <time>2021-06-21T05:44:40Z</time>
      </trkpt>
      <trkpt lat="48.09467" lon="7.30576">
        <ele>218.6</ele>
        <time>2021-06-21T05:44:41Z</time>
      </trkpt>
      <trkpt lat="48.09495" lon="7.30545">
        <ele>219.2</ele>
        <time>2021-06-21T05:44:48Z</time>
      </trkpt>
      <trkpt lat="48.09499" lon="7.3054">
        <ele>219.4</ele>
        <time>2021-06-21T05:44:49Z</time>
      </trkpt>
      <trkpt lat="48.09528" lon="7.30503">
        <ele>219.8</ele>
        <time>2021-06-21T05:44:56Z</time>
      </trkpt>
      <trkpt lat="48.09554" lon="7.3047">
        <ele>219.8</ele>
        <time>2021-06-21T05:45:03Z</time>
      </trkpt>
      <trkpt lat="48.09588" lon="7.30422">
        <ele>219.2</ele>
        <time>2021-06-21T05:45:11Z</time>
      </trkpt>
      <trkpt lat="48.09613" lon="7.30392">
        <ele>218.8</ele>
        <time>2021-06-21T05:45:17Z</time>
      </trkpt>
      <trkpt lat="48.09637" lon="7.30361">
        <ele>218.6</ele>
        <time>2021-06-21T05:45:23Z</time>
      </trkpt>
      <trkpt lat="48.09646" lon="7.3035">
        <ele>218.4</ele>
        <time>2021-06-21T05:45:25Z</time>
      </trkpt>
      <trkpt lat="48.09655" lon="7.30339">
        <ele>218.4</ele>
        <time>2021-06-21T05:45:27Z</time>
      </trkpt>
      <trkpt lat="48.0968" lon="7.30307">
        <ele>217.8</ele>
        <time>2021-06-21T05:45:33Z</time>
      </trkpt>
      <trkpt lat="48.09701" lon="7.3028">
        <ele>217.2</ele>
        <time>2021-06-21T05:45:38Z</time>
      </trkpt>
      <trkpt lat="48.0971" lon="7.30272">
        <ele>217.2</ele>
        <time>2021-06-21T05:45:40Z</time>
      </trkpt>
      <trkpt lat="48.09713" lon="7.30269">
        <ele>217</ele>
        <time>2021-06-21T05:45:41Z</time>
      </trkpt>
      <trkpt lat="48.09731" lon="7.30261">
        <ele>216.6</ele>
        <time>2021-06-21T05:45:44Z</time>
      </trkpt>
      <trkpt lat="48.09758" lon="7.30255">
        <ele>215.6</ele>
        <time>2021-06-21T05:45:49Z</time>
      </trkpt>
      <trkpt lat="48.09771" lon="7.30254">
        <ele>215.4</ele>
        <time>2021-06-21T05:45:51Z</time>
      </trkpt>
      <trkpt lat="48.09778" lon="7.30254">
        <ele>215.4</ele>
        <time>2021-06-21T05:45:52Z</time>
      </trkpt>
      <trkpt lat="48.09809" lon="7.30253">
        <ele>215.2</ele>
        <time>2021-06-21T05:45:57Z</time>
      </trkpt>
      <trkpt lat="48.09849" lon="7.30254">
        <ele>214.8</ele>
        <time>2021-06-21T05:46:04Z</time>
      </trkpt>
      <trkpt lat="48.09861" lon="7.30252">
        <ele>214.6</ele>
        <time>2021-06-21T05:46:06Z</time>
      </trkpt>
      <trkpt lat="48.0989" lon="7.30248">
        <ele>214.2</ele>
        <time>2021-06-21T05:46:11Z</time>
      </trkpt>
      <trkpt lat="48.09935" lon="7.30246">
        <ele>213.8</ele>
        <time>2021-06-21T05:46:19Z</time>
      </trkpt>
      <trkpt lat="48.09962" lon="7.30249">
        <ele>214.4</ele>
        <time>2021-06-21T05:46:24Z</time>
      </trkpt>
      <trkpt lat="48.0999" lon="7.30252">
        <ele>215</ele>
        <time>2021-06-21T05:46:29Z</time>
      </trkpt>
      <trkpt lat="48.10001" lon="7.30253">
        <ele>215.2</ele>
        <time>2021-06-21T05:46:31Z</time>
      </trkpt>
      <trkpt lat="48.10005" lon="7.30254">
        <ele>215.4</ele>
        <time>2021-06-21T05:46:32Z</time>
      </trkpt>
      <trkpt lat="48.10017" lon="7.30256">
        <ele>215.6</ele>
        <time>2021-06-21T05:46:34Z</time>
      </trkpt>
      <trkpt lat="48.10049" lon="7.3026">
        <ele>216.2</ele>
        <time>2021-06-21T05:46:40Z</time>
      </trkpt>
      <trkpt lat="48.10106" lon="7.30266">
        <ele>216.4</ele>
        <time>2021-06-21T05:46:50Z</time>
      </trkpt>
      <trkpt lat="48.10164" lon="7.30275">
        <ele>216.2</ele>
        <time>2021-06-21T05:47:00Z</time>
      </trkpt>
      <trkpt lat="48.1022" lon="7.3029">
        <ele>214.6</ele>
        <time>2021-06-21T05:47:09Z</time>
      </trkpt>
      <trkpt lat="48.10226" lon="7.30293">
        <ele>214.6</ele>
        <time>2021-06-21T05:47:10Z</time>
      </trkpt>
      <trkpt lat="48.10251" lon="7.30303">
        <ele>214.2</ele>
        <time>2021-06-21T05:47:14Z</time>
      </trkpt>
      <trkpt lat="48.10264" lon="7.30306">
        <ele>214</ele>
        <time>2021-06-21T05:47:16Z</time>
      </trkpt>
      <trkpt lat="48.10281" lon="7.30303">
        <ele>213.4</ele>
        <time>2021-06-21T05:47:19Z</time>
      </trkpt>
      <trkpt lat="48.10293" lon="7.30296">
        <ele>213.4</ele>
        <time>2021-06-21T05:47:21Z</time>
      </trkpt>
      <trkpt lat="48.10322" lon="7.30286">
        <ele>213</ele>
        <time>2021-06-21T05:47:26Z</time>
      </trkpt>
      <trkpt lat="48.10328" lon="7.30287">
        <ele>213</ele>
        <time>2021-06-21T05:47:27Z</time>
      </trkpt>
      <trkpt lat="48.10333" lon="7.3029">
        <ele>213</ele>
        <time>2021-06-21T05:47:28Z</time>
      </trkpt>
      <trkpt lat="48.1034" lon="7.30296">
        <ele>212.8</ele>
        <time>2021-06-21T05:47:30Z</time>
      </trkpt>
      <trkpt lat="48.10347" lon="7.30309">
        <ele>212.8</ele>
        <time>2021-06-21T05:47:34Z</time>
      </trkpt>
      <trkpt lat="48.10349" lon="7.30315">
        <ele>212.8</ele>
        <time>2021-06-21T05:47:35Z</time>
      </trkpt>
      <trkpt lat="48.10353" lon="7.30329">
        <ele>212.8</ele>
        <time>2021-06-21T05:47:37Z</time>
      </trkpt>
      <trkpt lat="48.10356" lon="7.30336">
        <ele>212.8</ele>
        <time>2021-06-21T05:47:38Z</time>
      </trkpt>
      <trkpt lat="48.1036" lon="7.30342">
        <ele>212.8</ele>
        <time>2021-06-21T05:47:39Z</time>
      </trkpt>
      <trkpt lat="48.1037" lon="7.3035">
        <ele>212.8</ele>
        <time>2021-06-21T05:47:41Z</time>
      </trkpt>
      <trkpt lat="48.10391" lon="7.30358">
        <ele>212.6</ele>
        <time>2021-06-21T05:47:45Z</time>
      </trkpt>
      <trkpt lat="48.104" lon="7.30365">
        <ele>212.6</ele>
        <time>2021-06-21T05:47:47Z</time>
      </trkpt>
      <trkpt lat="48.10419" lon="7.30383">
        <ele>212.6</ele>
        <time>2021-06-21T05:47:51Z</time>
      </trkpt>
      <trkpt lat="48.10437" lon="7.30394">
        <ele>212.4</ele>
        <time>2021-06-21T05:47:54Z</time>
      </trkpt>
      <trkpt lat="48.1045" lon="7.30401">
        <ele>212</ele>
        <time>2021-06-21T05:47:56Z</time>
      </trkpt>
      <trkpt lat="48.10471" lon="7.30411">
        <ele>211.2</ele>
        <time>2021-06-21T05:47:59Z</time>
      </trkpt>
      <trkpt lat="48.10501" lon="7.30426">
        <ele>210.4</ele>
        <time>2021-06-21T05:48:04Z</time>
      </trkpt>
      <trkpt lat="48.10542" lon="7.30444">
        <ele>210.4</ele>
        <time>2021-06-21T05:48:11Z</time>
      </trkpt>
      <trkpt lat="48.10571" lon="7.30451">
        <ele>210.2</ele>
        <time>2021-06-21T05:48:16Z</time>
      </trkpt>
      <trkpt lat="48.10591" lon="7.30455">
        <ele>210</ele>
        <time>2021-06-21T05:48:19Z</time>
      </trkpt>
      <trkpt lat="48.10647" lon="7.30465">
        <ele>209.2</ele>
        <time>2021-06-21T05:48:28Z</time>
      </trkpt>
      <trkpt lat="48.10653" lon="7.30466">
        <ele>209.2</ele>
        <time>2021-06-21T05:48:29Z</time>
      </trkpt>
      <trkpt lat="48.1066" lon="7.30468">
        <ele>209.2</ele>
        <time>2021-06-21T05:48:30Z</time>
      </trkpt>
      <trkpt lat="48.10715" lon="7.30485">
        <ele>208.8</ele>
        <time>2021-06-21T05:48:39Z</time>
      </trkpt>
      <trkpt lat="48.10719" lon="7.30486">
        <ele>208.8</ele>
        <time>2021-06-21T05:48:40Z</time>
      </trkpt>
      <trkpt lat="48.10772" lon="7.30507">
        <ele>208.6</ele>
        <time>2021-06-21T05:48:49Z</time>
      </trkpt>
      <trkpt lat="48.10824" lon="7.3053">
        <ele>208.4</ele>
        <time>2021-06-21T05:48:58Z</time>
      </trkpt>
      <trkpt lat="48.10872" lon="7.30544">
        <ele>208.2</ele>
        <time>2021-06-21T05:49:06Z</time>
      </trkpt>
      <trkpt lat="48.10876" lon="7.30545">
        <ele>208.2</ele>
        <time>2021-06-21T05:49:07Z</time>
      </trkpt>
      <trkpt lat="48.10932" lon="7.30554">
        <ele>208.2</ele>
        <time>2021-06-21T05:49:16Z</time>
      </trkpt>
      <trkpt lat="48.10991" lon="7.30564">
        <ele>207.8</ele>
        <time>2021-06-21T05:49:26Z</time>
      </trkpt>
      <trkpt lat="48.11042" lon="7.30567">
        <ele>207.4</ele>
        <time>2021-06-21T05:49:35Z</time>
      </trkpt>
      <trkpt lat="48.1109" lon="7.30566">
        <ele>207.4</ele>
        <time>2021-06-21T05:49:43Z</time>
      </trkpt>
      <trkpt lat="48.11144" lon="7.30565">
        <ele>207.4</ele>
        <time>2021-06-21T05:49:52Z</time>
      </trkpt>
      <trkpt lat="48.11162" lon="7.30565">
        <ele>207.2</ele>
        <time>2021-06-21T05:49:55Z</time>
      </trkpt>
      <trkpt lat="48.11221" lon="7.30563">
        <ele>206.4</ele>
        <time>2021-06-21T05:50:05Z</time>
      </trkpt>
      <trkpt lat="48.11273" lon="7.30561">
        <ele>206.6</ele>
        <time>2021-06-21T05:50:14Z</time>
      </trkpt>
      <trkpt lat="48.11333" lon="7.30555">
        <ele>206.6</ele>
        <time>2021-06-21T05:50:24Z</time>
      </trkpt>
      <trkpt lat="48.11392" lon="7.30547">
        <ele>206.2</ele>
        <time>2021-06-21T05:50:34Z</time>
      </trkpt>
      <trkpt lat="48.11404" lon="7.30546">
        <ele>206.2</ele>
        <time>2021-06-21T05:50:36Z</time>
      </trkpt>
      <trkpt lat="48.1144" lon="7.30542">
        <ele>205.8</ele>
        <time>2021-06-21T05:50:42Z</time>
      </trkpt>
      <trkpt lat="48.115" lon="7.3054">
        <ele>205.4</ele>
        <time>2021-06-21T05:50:52Z</time>
      </trkpt>
      <trkpt lat="48.11506" lon="7.30541">
        <ele>205.4</ele>
        <time>2021-06-21T05:50:53Z</time>
      </trkpt>
      <trkpt lat="48.1153" lon="7.30546">
        <ele>205.2</ele>
        <time>2021-06-21T05:50:57Z</time>
      </trkpt>
      <trkpt lat="48.11578" lon="7.30557">
        <ele>204.8</ele>
        <time>2021-06-21T05:51:05Z</time>
      </trkpt>
      <trkpt lat="48.11632" lon="7.30569">
        <ele>204.2</ele>
        <time>2021-06-21T05:51:14Z</time>
      </trkpt>
      <trkpt lat="48.11638" lon="7.30571">
        <ele>204</ele>
        <time>2021-06-21T05:51:15Z</time>
      </trkpt>
      <trkpt lat="48.11692" lon="7.30583">
        <ele>204</ele>
        <time>2021-06-21T05:51:24Z</time>
      </trkpt>
      <trkpt lat="48.1171" lon="7.30587">
        <ele>203.8</ele>
        <time>2021-06-21T05:51:27Z</time>
      </trkpt>
      <trkpt lat="48.11756" lon="7.30603">
        <ele>203.6</ele>
        <time>2021-06-21T05:51:35Z</time>
      </trkpt>
      <trkpt lat="48.11801" lon="7.30627">
        <ele>203.2</ele>
        <time>2021-06-21T05:51:43Z</time>
      </trkpt>
      <trkpt lat="48.11812" lon="7.30634">
        <ele>203.2</ele>
        <time>2021-06-21T05:51:45Z</time>
      </trkpt>
      <trkpt lat="48.11845" lon="7.30657">
        <ele>203</ele>
        <time>2021-06-21T05:51:51Z</time>
      </trkpt>
      <trkpt lat="48.11896" lon="7.30703">
        <ele>202.8</ele>
        <time>2021-06-21T05:52:01Z</time>
      </trkpt>
      <trkpt lat="48.119" lon="7.30708">
        <ele>202.8</ele>
        <time>2021-06-21T05:52:02Z</time>
      </trkpt>
      <trkpt lat="48.11939" lon="7.30752">
        <ele>202.8</ele>
        <time>2021-06-21T05:52:10Z</time>
      </trkpt>
      <trkpt lat="48.11981" lon="7.30812">
        <ele>202.8</ele>
        <time>2021-06-21T05:52:20Z</time>
      </trkpt>
      <trkpt lat="48.11986" lon="7.30819">
        <ele>202.8</ele>
        <time>2021-06-21T05:52:21Z</time>
      </trkpt>
      <trkpt lat="48.12023" lon="7.30878">
        <ele>202.6</ele>
        <time>2021-06-21T05:52:30Z</time>
      </trkpt>
      <trkpt lat="48.12037" lon="7.30898">
        <ele>202.6</ele>
        <time>2021-06-21T05:52:33Z</time>
      </trkpt>
      <trkpt lat="48.12079" lon="7.30949">
        <ele>202.4</ele>
        <time>2021-06-21T05:52:42Z</time>
      </trkpt>
      <trkpt lat="48.12115" lon="7.30979">
        <ele>202.2</ele>
        <time>2021-06-21T05:52:49Z</time>
      </trkpt>
      <trkpt lat="48.12121" lon="7.30984">
        <ele>202.2</ele>
        <time>2021-06-21T05:52:50Z</time>
      </trkpt>
      <trkpt lat="48.12157" lon="7.31009">
        <ele>202</ele>
        <time>2021-06-21T05:52:57Z</time>
      </trkpt>
      <trkpt lat="48.12194" lon="7.31034">
        <ele>202.2</ele>
        <time>2021-06-21T05:53:04Z</time>
      </trkpt>
      <trkpt lat="48.12237" lon="7.31062">
        <ele>202.4</ele>
        <time>2021-06-21T05:53:12Z</time>
      </trkpt>
      <trkpt lat="48.12292" lon="7.31094">
        <ele>202.6</ele>
        <time>2021-06-21T05:53:22Z</time>
      </trkpt>
      <trkpt lat="48.12345" lon="7.31124">
        <ele>202.4</ele>
        <time>2021-06-21T05:53:32Z</time>
      </trkpt>
      <trkpt lat="48.1235" lon="7.31127">
        <ele>202.6</ele>
        <time>2021-06-21T05:53:33Z</time>
      </trkpt>
      <trkpt lat="48.12387" lon="7.31148">
        <ele>202.8</ele>
        <time>2021-06-21T05:53:40Z</time>
      </trkpt>
      <trkpt lat="48.12436" lon="7.31179">
        <ele>202.4</ele>
        <time>2021-06-21T05:53:49Z</time>
      </trkpt>
      <trkpt lat="48.1248" lon="7.31209">
        <ele>202.6</ele>
        <time>2021-06-21T05:53:57Z</time>
      </trkpt>
      <trkpt lat="48.12528" lon="7.31241">
        <ele>202.8</ele>
        <time>2021-06-21T05:54:06Z</time>
      </trkpt>
      <trkpt lat="48.12582" lon="7.31277">
        <ele>202.8</ele>
        <time>2021-06-21T05:54:16Z</time>
      </trkpt>
      <trkpt lat="48.126" lon="7.31288">
        <ele>202.8</ele>
        <time>2021-06-21T05:54:19Z</time>
      </trkpt>
      <trkpt lat="48.12642" lon="7.31317">
        <ele>202.8</ele>
        <time>2021-06-21T05:54:27Z</time>
      </trkpt>
      <trkpt lat="48.12691" lon="7.31347">
        <ele>203.2</ele>
        <time>2021-06-21T05:54:36Z</time>
      </trkpt>
      <trkpt lat="48.12741" lon="7.31373">
        <ele>203</ele>
        <time>2021-06-21T05:54:45Z</time>
      </trkpt>
      <trkpt lat="48.12778" lon="7.31386">
        <ele>203</ele>
        <time>2021-06-21T05:54:52Z</time>
      </trkpt>
      <trkpt lat="48.1283" lon="7.31402">
        <ele>202.8</ele>
        <time>2021-06-21T05:55:01Z</time>
      </trkpt>
      <trkpt lat="48.12877" lon="7.31417">
        <ele>202.8</ele>
        <time>2021-06-21T05:55:09Z</time>
      </trkpt>
      <trkpt lat="48.12918" lon="7.3144">
        <ele>203</ele>
        <time>2021-06-21T05:55:17Z</time>
      </trkpt>
      <trkpt lat="48.12949" lon="7.31467">
        <ele>203.2</ele>
        <time>2021-06-21T05:55:24Z</time>
      </trkpt>
      <trkpt lat="48.12958" lon="7.31475">
        <ele>203.4</ele>
        <time>2021-06-21T05:55:26Z</time>
      </trkpt>
      <trkpt lat="48.12993" lon="7.31511">
        <ele>204.2</ele>
        <time>2021-06-21T05:55:34Z</time>
      </trkpt>
      <trkpt lat="48.13002" lon="7.31521">
        <ele>204.6</ele>
        <time>2021-06-21T05:55:36Z</time>
      </trkpt>
      <trkpt lat="48.13025" lon="7.31545">
        <ele>205</ele>
        <time>2021-06-21T05:55:42Z</time>
      </trkpt>
      <trkpt lat="48.13044" lon="7.31567">
        <ele>204.6</ele>
        <time>2021-06-21T05:55:47Z</time>
      </trkpt>
      <trkpt lat="48.13056" lon="7.31581">
        <ele>204.4</ele>
        <time>2021-06-21T05:55:50Z</time>
      </trkpt>
      <trkpt lat="48.13078" lon="7.3161">
        <ele>203.6</ele>
        <time>2021-06-21T05:55:55Z</time>
      </trkpt>
      <trkpt lat="48.13088" lon="7.31622">
        <ele>203.4</ele>
        <time>2021-06-21T05:55:57Z</time>
      </trkpt>
      <trkpt lat="48.13131" lon="7.31677">
        <ele>202.8</ele>
        <time>2021-06-21T05:56:06Z</time>
      </trkpt>
      <trkpt lat="48.13144" lon="7.31693">
        <ele>202.6</ele>
        <time>2021-06-21T05:56:09Z</time>
      </trkpt>
      <trkpt lat="48.13158" lon="7.31711">
        <ele>202.4</ele>
        <time>2021-06-21T05:56:12Z</time>
      </trkpt>
      <trkpt lat="48.13163" lon="7.31718">
        <ele>202.4</ele>
        <time>2021-06-21T05:56:13Z</time>
      </trkpt>
      <trkpt lat="48.13173" lon="7.31735">
        <ele>202.4</ele>
        <time>2021-06-21T05:56:16Z</time>
      </trkpt>
      <trkpt lat="48.13177" lon="7.31741">
        <ele>202.4</ele>
        <time>2021-06-21T05:56:17Z</time>
      </trkpt>
      <trkpt lat="48.13223" lon="7.31795">
        <ele>201.6</ele>
        <time>2021-06-21T05:56:27Z</time>
      </trkpt>
      <trkpt lat="48.13227" lon="7.31801">
        <ele>201.6</ele>
        <time>2021-06-21T05:56:28Z</time>
      </trkpt>
      <trkpt lat="48.13239" lon="7.31829">
        <ele>201.4</ele>
        <time>2021-06-21T05:56:32Z</time>
      </trkpt>
      <trkpt lat="48.13253" lon="7.31862">
        <ele>201.2</ele>
        <time>2021-06-21T05:56:38Z</time>
      </trkpt>
      <trkpt lat="48.13265" lon="7.31866">
        <ele>201</ele>
        <time>2021-06-21T05:56:42Z</time>
      </trkpt>
      <trkpt lat="48.13282" lon="7.31868">
        <ele>201</ele>
        <time>2021-06-21T05:56:47Z</time>
      </trkpt>
      <trkpt lat="48.13286" lon="7.31868">
        <ele>201</ele>
        <time>2021-06-21T05:56:48Z</time>
      </trkpt>
      <trkpt lat="48.133" lon="7.31863">
        <ele>201</ele>
        <time>2021-06-21T05:56:51Z</time>
      </trkpt>
      <trkpt lat="48.13309" lon="7.31859">
        <ele>201</ele>
        <time>2021-06-21T05:56:53Z</time>
      </trkpt>
      <trkpt lat="48.13324" lon="7.3186">
        <ele>201</ele>
        <time>2021-06-21T05:56:56Z</time>
      </trkpt>
      <trkpt lat="48.13328" lon="7.3186">
        <ele>201</ele>
        <time>2021-06-21T05:56:57Z</time>
      </trkpt>
      <trkpt lat="48.13333" lon="7.31857">
        <ele>201</ele>
        <time>2021-06-21T05:56:59Z</time>
      </trkpt>
      <trkpt lat="48.13336" lon="7.31856">
        <ele>201</ele>
        <time>2021-06-21T05:57:01Z</time>
      </trkpt>
      <trkpt lat="48.13336" lon="7.31856">
        <ele>201</ele>
        <time>2021-06-21T05:57:03Z</time>
      </trkpt>
      <trkpt lat="48.13336" lon="7.31856">
        <ele>201</ele>
        <time>2021-06-21T05:57:04Z</time>
      </trkpt>
      <trkpt lat="48.13333" lon="7.31862">
        <ele>201.4</ele>
        <time>2021-06-21T05:57:13Z</time>
      </trkpt>
      <trkpt lat="48.13331" lon="7.3187">
        <ele>201.4</ele>
        <time>2021-06-21T05:57:15Z</time>
      </trkpt>
      <trkpt lat="48.13333" lon="7.31895">
        <ele>201.2</ele>
        <time>2021-06-21T05:57:19Z</time>
      </trkpt>
      <trkpt lat="48.13335" lon="7.31937">
        <ele>200.6</ele>
        <time>2021-06-21T05:57:24Z</time>
      </trkpt>
      <trkpt lat="48.13336" lon="7.31945">
        <ele>200.4</ele>
        <time>2021-06-21T05:57:25Z</time>
      </trkpt>
      <trkpt lat="48.13341" lon="7.32013">
        <ele>199.6</ele>
        <time>2021-06-21T05:57:32Z</time>
      </trkpt>
      <trkpt lat="48.13342" lon="7.32032">
        <ele>199.2</ele>
        <time>2021-06-21T05:57:34Z</time>
      </trkpt>
      <trkpt lat="48.13348" lon="7.32113">
        <ele>198.6</ele>
        <time>2021-06-21T05:57:43Z</time>
      </trkpt>
      <trkpt lat="48.13353" lon="7.32175">
        <ele>198.4</ele>
        <time>2021-06-21T05:57:51Z</time>
      </trkpt>
      <trkpt lat="48.13356" lon="7.32234">
        <ele>198.2</ele>
        <time>2021-06-21T05:57:58Z</time>
      </trkpt>
      <trkpt lat="48.13356" lon="7.32244">
        <ele>198.2</ele>
        <time>2021-06-21T05:57:59Z</time>
      </trkpt>
      <trkpt lat="48.13358" lon="7.32308">
        <ele>198</ele>
        <time>2021-06-21T05:58:06Z</time>
      </trkpt>
      <trkpt lat="48.13359" lon="7.32335">
        <ele>197.6</ele>
        <time>2021-06-21T05:58:10Z</time>
      </trkpt>
      <trkpt lat="48.13361" lon="7.3234">
        <ele>197.6</ele>
        <time>2021-06-21T05:58:11Z</time>
      </trkpt>
      <trkpt lat="48.13379" lon="7.32343">
        <ele>197.6</ele>
        <time>2021-06-21T05:58:15Z</time>
      </trkpt>
      <trkpt lat="48.13389" lon="7.32344">
        <ele>197.6</ele>
        <time>2021-06-21T05:58:17Z</time>
      </trkpt>
      <trkpt lat="48.13408" lon="7.32344">
        <ele>197.4</ele>
        <time>2021-06-21T05:58:20Z</time>
      </trkpt>
      <trkpt lat="48.1344" lon="7.32347">
        <ele>197.2</ele>
        <time>2021-06-21T05:58:25Z</time>
      </trkpt>
      <trkpt lat="48.13453" lon="7.32348">
        <ele>197.2</ele>
        <time>2021-06-21T05:58:27Z</time>
      </trkpt>
      <trkpt lat="48.13495" lon="7.3236">
        <ele>197.4</ele>
        <time>2021-06-21T05:58:34Z</time>
      </trkpt>
      <trkpt lat="48.13509" lon="7.32367">
        <ele>197.2</ele>
        <time>2021-06-21T05:58:37Z</time>
      </trkpt>
      <trkpt lat="48.13514" lon="7.32372">
        <ele>197.2</ele>
        <time>2021-06-21T05:58:38Z</time>
      </trkpt>
      <trkpt lat="48.13516" lon="7.32376">
        <ele>197.2</ele>
        <time>2021-06-21T05:58:39Z</time>
      </trkpt>
      <trkpt lat="48.13522" lon="7.32392">
        <ele>197.6</ele>
        <time>2021-06-21T05:58:41Z</time>
      </trkpt>
      <trkpt lat="48.13523" lon="7.32401">
        <ele>197.6</ele>
        <time>2021-06-21T05:58:42Z</time>
      </trkpt>
      <trkpt lat="48.13524" lon="7.3241">
        <ele>197.2</ele>
        <time>2021-06-21T05:58:43Z</time>
      </trkpt>
      <trkpt lat="48.13526" lon="7.32448">
        <ele>197</ele>
        <time>2021-06-21T05:58:47Z</time>
      </trkpt>
      <trkpt lat="48.13529" lon="7.32505">
        <ele>196.6</ele>
        <time>2021-06-21T05:58:53Z</time>
      </trkpt>
      <trkpt lat="48.1353" lon="7.32536">
        <ele>196</ele>
        <time>2021-06-21T05:58:56Z</time>
      </trkpt>
      <trkpt lat="48.1353" lon="7.32608">
        <ele>196</ele>
        <time>2021-06-21T05:59:04Z</time>
      </trkpt>
      <trkpt lat="48.1353" lon="7.32616">
        <ele>196</ele>
        <time>2021-06-21T05:59:05Z</time>
      </trkpt>
      <trkpt lat="48.13534" lon="7.32629">
        <ele>196</ele>
        <time>2021-06-21T05:59:07Z</time>
      </trkpt>
      <trkpt lat="48.13543" lon="7.32637">
        <ele>196</ele>
        <time>2021-06-21T05:59:09Z</time>
      </trkpt>
      <trkpt lat="48.1355" lon="7.32641">
        <ele>196</ele>
        <time>2021-06-21T05:59:10Z</time>
      </trkpt>
      <trkpt lat="48.13554" lon="7.32643">
        <ele>196</ele>
        <time>2021-06-21T05:59:11Z</time>
      </trkpt>
      <trkpt lat="48.13581" lon="7.32646">
        <ele>196.2</ele>
        <time>2021-06-21T05:59:15Z</time>
      </trkpt>
      <trkpt lat="48.13623" lon="7.32647">
        <ele>196.4</ele>
        <time>2021-06-21T05:59:22Z</time>
      </trkpt>
      <trkpt lat="48.13648" lon="7.32651">
        <ele>197</ele>
        <time>2021-06-21T05:59:26Z</time>
      </trkpt>
      <trkpt lat="48.13661" lon="7.32654">
        <ele>197</ele>
        <time>2021-06-21T05:59:28Z</time>
      </trkpt>
      <trkpt lat="48.13701" lon="7.3266">
        <ele>197.4</ele>
        <time>2021-06-21T05:59:35Z</time>
      </trkpt>
      <trkpt lat="48.13707" lon="7.32662">
        <ele>197.6</ele>
        <time>2021-06-21T05:59:36Z</time>
      </trkpt>
      <trkpt lat="48.13753" lon="7.32676">
        <ele>197.8</ele>
        <time>2021-06-21T05:59:44Z</time>
      </trkpt>
      <trkpt lat="48.13802" lon="7.32683">
        <ele>197.8</ele>
        <time>2021-06-21T05:59:52Z</time>
      </trkpt>
      <trkpt lat="48.13841" lon="7.32688">
        <ele>197.8</ele>
        <time>2021-06-21T05:59:59Z</time>
      </trkpt>
      <trkpt lat="48.13878" lon="7.32694">
        <ele>197.4</ele>
        <time>2021-06-21T06:00:05Z</time>
      </trkpt>
      <trkpt lat="48.13936" lon="7.32703">
        <ele>197</ele>
        <time>2021-06-21T06:00:15Z</time>
      </trkpt>
      <trkpt lat="48.13948" lon="7.32706">
        <ele>196.8</ele>
        <time>2021-06-21T06:00:19Z</time>
      </trkpt>
      <trkpt lat="48.13956" lon="7.32705">
        <ele>196.8</ele>
        <time>2021-06-21T06:00:25Z</time>
      </trkpt>
      <trkpt lat="48.13958" lon="7.32701">
        <ele>196.8</ele>
        <time>2021-06-21T06:00:27Z</time>
      </trkpt>
      <trkpt lat="48.13957" lon="7.32693">
        <ele>197</ele>
        <time>2021-06-21T06:00:29Z</time>
      </trkpt>
      <trkpt lat="48.13962" lon="7.32673">
        <ele>197</ele>
        <time>2021-06-21T06:00:33Z</time>
      </trkpt>
      <trkpt lat="48.13973" lon="7.32634">
        <ele>197.4</ele>
        <time>2021-06-21T06:00:40Z</time>
      </trkpt>
      <trkpt lat="48.13984" lon="7.32597">
        <ele>198.4</ele>
        <time>2021-06-21T06:00:46Z</time>
      </trkpt>
      <trkpt lat="48.13986" lon="7.32592">
        <ele>198.4</ele>
        <time>2021-06-21T06:00:47Z</time>
      </trkpt>
      <trkpt lat="48.13991" lon="7.32575">
        <ele>199.8</ele>
        <time>2021-06-21T06:00:51Z</time>
      </trkpt>
      <trkpt lat="48.13992" lon="7.32572">
        <ele>200</ele>
        <time>2021-06-21T06:00:52Z</time>
      </trkpt>
      <trkpt lat="48.13993" lon="7.32569">
        <ele>200.8</ele>
        <time>2021-06-21T06:00:54Z</time>
      </trkpt>
      <trkpt lat="48.13994" lon="7.32567">
        <ele>201.6</ele>
        <time>2021-06-21T06:00:56Z</time>
      </trkpt>
      <trkpt lat="48.13994" lon="7.32566">
        <ele>201.8</ele>
        <time>2021-06-21T06:00:57Z</time>
      </trkpt>
      <trkpt lat="48.13994" lon="7.32566">
        <ele>202.4</ele>
        <time>2021-06-21T06:01:00Z</time>
      </trkpt>
      <trkpt lat="48.13996" lon="7.32567">
        <ele>202.8</ele>
        <time>2021-06-21T06:01:12Z</time>
      </trkpt>
      <trkpt lat="48.13997" lon="7.32568">
        <ele>202.8</ele>
        <time>2021-06-21T06:01:13Z</time>
      </trkpt>
      <trkpt lat="48.14011" lon="7.3258">
        <ele>202.8</ele>
        <time>2021-06-21T06:01:19Z</time>
      </trkpt>
      <trkpt lat="48.14032" lon="7.32595">
        <ele>202.2</ele>
        <time>2021-06-21T06:01:27Z</time>
      </trkpt>
      <trkpt lat="48.14056" lon="7.32615">
        <ele>201.8</ele>
        <time>2021-06-21T06:01:33Z</time>
      </trkpt>
      <trkpt lat="48.14079" lon="7.32632">
        <ele>200</ele>
        <time>2021-06-21T06:01:38Z</time>
      </trkpt>
      <trkpt lat="48.14087" lon="7.32639">
        <ele>200.6</ele>
        <time>2021-06-21T06:01:40Z</time>
      </trkpt>
      <trkpt lat="48.14111" lon="7.32658">
        <ele>199.6</ele>
        <time>2021-06-21T06:01:46Z</time>
      </trkpt>
      <trkpt lat="48.14121" lon="7.32665">
        <ele>199.2</ele>
        <time>2021-06-21T06:01:48Z</time>
      </trkpt>
      <trkpt lat="48.14142" lon="7.32681">
        <ele>198.6</ele>
        <time>2021-06-21T06:01:53Z</time>
      </trkpt>
      <trkpt lat="48.14162" lon="7.32695">
        <ele>198.4</ele>
        <time>2021-06-21T06:01:57Z</time>
      </trkpt>
      <trkpt lat="48.14179" lon="7.32708">
        <ele>197.8</ele>
        <time>2021-06-21T06:02:01Z</time>
      </trkpt>
      <trkpt lat="48.14195" lon="7.3272">
        <ele>197.8</ele>
        <time>2021-06-21T06:02:05Z</time>
      </trkpt>
      <trkpt lat="48.14214" lon="7.32732">
        <ele>197.6</ele>
        <time>2021-06-21T06:02:09Z</time>
      </trkpt>
      <trkpt lat="48.14227" lon="7.3274">
        <ele>197.2</ele>
        <time>2021-06-21T06:02:13Z</time>
      </trkpt>
      <trkpt lat="48.14231" lon="7.32743">
        <ele>197</ele>
        <time>2021-06-21T06:02:16Z</time>
      </trkpt>
      <trkpt lat="48.14231" lon="7.32744">
        <ele>196.8</ele>
        <time>2021-06-21T06:02:17Z</time>
      </trkpt>
      <trkpt lat="48.14232" lon="7.32745">
        <ele>196.8</ele>
        <time>2021-06-21T06:02:18Z</time>
      </trkpt>
      <trkpt lat="48.14239" lon="7.32749">
        <ele>196.6</ele>
        <time>2021-06-21T06:02:21Z</time>
      </trkpt>
      <trkpt lat="48.1425" lon="7.32756">
        <ele>196.6</ele>
        <time>2021-06-21T06:02:24Z</time>
      </trkpt>
      <trkpt lat="48.14257" lon="7.32761">
        <ele>196.6</ele>
        <time>2021-06-21T06:02:26Z</time>
      </trkpt>
      <trkpt lat="48.14264" lon="7.32767">
        <ele>196.6</ele>
        <time>2021-06-21T06:02:30Z</time>
      </trkpt>
      <trkpt lat="48.14264" lon="7.32767">
        <ele>196.8</ele>
        <time>2021-06-21T06:02:32Z</time>
      </trkpt>
      <trkpt lat="48.14276" lon="7.32765">
        <ele>196.6</ele>
        <time>2021-06-21T06:22:09Z</time>
      </trkpt>
      <trkpt lat="48.14278" lon="7.32768">
        <ele>196.6</ele>
        <time>2021-06-21T06:22:10Z</time>
      </trkpt>
      <trkpt lat="48.14289" lon="7.32779">
        <ele>196.6</ele>
        <time>2021-06-21T06:22:14Z</time>
      </trkpt>
      <trkpt lat="48.14314" lon="7.32799">
        <ele>196.6</ele>
        <time>2021-06-21T06:22:21Z</time>
      </trkpt>
      <trkpt lat="48.14332" lon="7.32817">
        <ele>196.6</ele>
        <time>2021-06-21T06:22:26Z</time>
      </trkpt>
      <trkpt lat="48.14336" lon="7.32821">
        <ele>196.6</ele>
        <time>2021-06-21T06:22:27Z</time>
      </trkpt>
      <trkpt lat="48.14359" lon="7.32853">
        <ele>196.4</ele>
        <time>2021-06-21T06:22:33Z</time>
      </trkpt>
      <trkpt lat="48.1439" lon="7.32904">
        <ele>196</ele>
        <time>2021-06-21T06:22:41Z</time>
      </trkpt>
      <trkpt lat="48.14408" lon="7.32929">
        <ele>196</ele>
        <time>2021-06-21T06:22:45Z</time>
      </trkpt>
      <trkpt lat="48.14419" lon="7.32946">
        <ele>195.8</ele>
        <time>2021-06-21T06:22:48Z</time>
      </trkpt>
      <trkpt lat="48.14457" lon="7.32996">
        <ele>195.6</ele>
        <time>2021-06-21T06:22:57Z</time>
      </trkpt>
      <trkpt lat="48.14483" lon="7.33026">
        <ele>195.8</ele>
        <time>2021-06-21T06:23:03Z</time>
      </trkpt>
      <trkpt lat="48.14491" lon="7.33036">
        <ele>195.6</ele>
        <time>2021-06-21T06:23:05Z</time>
      </trkpt>
      <trkpt lat="48.145" lon="7.33044">
        <ele>195.8</ele>
        <time>2021-06-21T06:23:07Z</time>
      </trkpt>
      <trkpt lat="48.14516" lon="7.33063">
        <ele>196</ele>
        <time>2021-06-21T06:23:11Z</time>
      </trkpt>
      <trkpt lat="48.14551" lon="7.33101">
        <ele>196.4</ele>
        <time>2021-06-21T06:23:19Z</time>
      </trkpt>
      <trkpt lat="48.14585" lon="7.33145">
        <ele>196.8</ele>
        <time>2021-06-21T06:23:27Z</time>
      </trkpt>
      <trkpt lat="48.14606" lon="7.33171">
        <ele>196.8</ele>
        <time>2021-06-21T06:23:32Z</time>
      </trkpt>
      <trkpt lat="48.14624" lon="7.33192">
        <ele>196.6</ele>
        <time>2021-06-21T06:23:36Z</time>
      </trkpt>
      <trkpt lat="48.14656" lon="7.33223">
        <ele>197</ele>
        <time>2021-06-21T06:23:43Z</time>
      </trkpt>
      <trkpt lat="48.14677" lon="7.33237">
        <ele>197.4</ele>
        <time>2021-06-21T06:23:48Z</time>
      </trkpt>
      <trkpt lat="48.14698" lon="7.33253">
        <ele>197.2</ele>
        <time>2021-06-21T06:23:54Z</time>
      </trkpt>
      <trkpt lat="48.14716" lon="7.33273">
        <ele>197.2</ele>
        <time>2021-06-21T06:23:58Z</time>
      </trkpt>
      <trkpt lat="48.14729" lon="7.3329">
        <ele>196.8</ele>
        <time>2021-06-21T06:24:01Z</time>
      </trkpt>
      <trkpt lat="48.14756" lon="7.33339">
        <ele>196.8</ele>
        <time>2021-06-21T06:24:08Z</time>
      </trkpt>
      <trkpt lat="48.14787" lon="7.33394">
        <ele>196.6</ele>
        <time>2021-06-21T06:24:16Z</time>
      </trkpt>
      <trkpt lat="48.14822" lon="7.33453">
        <ele>196.4</ele>
        <time>2021-06-21T06:24:25Z</time>
      </trkpt>
      <trkpt lat="48.14833" lon="7.33471">
        <ele>196.4</ele>
        <time>2021-06-21T06:24:28Z</time>
      </trkpt>
      <trkpt lat="48.14853" lon="7.33493">
        <ele>196.2</ele>
        <time>2021-06-21T06:24:32Z</time>
      </trkpt>
      <trkpt lat="48.14886" lon="7.3352">
        <ele>195.8</ele>
        <time>2021-06-21T06:24:38Z</time>
      </trkpt>
      <trkpt lat="48.14902" lon="7.33529">
        <ele>195.4</ele>
        <time>2021-06-21T06:24:41Z</time>
      </trkpt>
      <trkpt lat="48.14922" lon="7.3354">
        <ele>195.2</ele>
        <time>2021-06-21T06:24:45Z</time>
      </trkpt>
      <trkpt lat="48.14937" lon="7.33547">
        <ele>195.6</ele>
        <time>2021-06-21T06:24:48Z</time>
      </trkpt>
      <trkpt lat="48.14958" lon="7.33561">
        <ele>196.2</ele>
        <time>2021-06-21T06:24:52Z</time>
      </trkpt>
      <trkpt lat="48.14973" lon="7.33571">
        <ele>196.4</ele>
        <time>2021-06-21T06:24:55Z</time>
      </trkpt>
      <trkpt lat="48.14993" lon="7.33587">
        <ele>196.8</ele>
        <time>2021-06-21T06:24:59Z</time>
      </trkpt>
      <trkpt lat="48.15032" lon="7.33617">
        <ele>197.6</ele>
        <time>2021-06-21T06:25:07Z</time>
      </trkpt>
      <trkpt lat="48.15038" lon="7.33621">
        <ele>197.6</ele>
        <time>2021-06-21T06:25:08Z</time>
      </trkpt>
      <trkpt lat="48.15086" lon="7.33658">
        <ele>198</ele>
        <time>2021-06-21T06:25:17Z</time>
      </trkpt>
      <trkpt lat="48.15132" lon="7.33684">
        <ele>198.2</ele>
        <time>2021-06-21T06:25:25Z</time>
      </trkpt>
      <trkpt lat="48.15173" lon="7.33702">
        <ele>198.4</ele>
        <time>2021-06-21T06:25:32Z</time>
      </trkpt>
      <trkpt lat="48.15179" lon="7.33704">
        <ele>198.4</ele>
        <time>2021-06-21T06:25:33Z</time>
      </trkpt>
      <trkpt lat="48.15185" lon="7.33707">
        <ele>198.6</ele>
        <time>2021-06-21T06:25:34Z</time>
      </trkpt>
      <trkpt lat="48.15234" lon="7.3373">
        <ele>199.2</ele>
        <time>2021-06-21T06:25:43Z</time>
      </trkpt>
      <trkpt lat="48.15256" lon="7.33737">
        <ele>199.6</ele>
        <time>2021-06-21T06:25:47Z</time>
      </trkpt>
      <trkpt lat="48.15265" lon="7.33742">
        <ele>199.8</ele>
        <time>2021-06-21T06:25:49Z</time>
      </trkpt>
      <trkpt lat="48.15314" lon="7.3377">
        <ele>200.6</ele>
        <time>2021-06-21T06:25:58Z</time>
      </trkpt>
      <trkpt lat="48.15321" lon="7.33774">
        <ele>200.8</ele>
        <time>2021-06-21T06:25:59Z</time>
      </trkpt>
      <trkpt lat="48.15363" lon="7.33805">
        <ele>200.8</ele>
        <time>2021-06-21T06:26:07Z</time>
      </trkpt>
      <trkpt lat="48.1537" lon="7.33808">
        <ele>200.8</ele>
        <time>2021-06-21T06:26:08Z</time>
      </trkpt>
      <trkpt lat="48.15382" lon="7.33811">
        <ele>200.8</ele>
        <time>2021-06-21T06:26:10Z</time>
      </trkpt>
      <trkpt lat="48.15389" lon="7.33811">
        <ele>200.8</ele>
        <time>2021-06-21T06:26:11Z</time>
      </trkpt>
      <trkpt lat="48.15395" lon="7.33811">
        <ele>200.6</ele>
        <time>2021-06-21T06:26:12Z</time>
      </trkpt>
      <trkpt lat="48.15413" lon="7.33818">
        <ele>200.2</ele>
        <time>2021-06-21T06:26:15Z</time>
      </trkpt>
      <trkpt lat="48.15439" lon="7.33829">
        <ele>199.6</ele>
        <time>2021-06-21T06:26:19Z</time>
      </trkpt>
      <trkpt lat="48.15465" lon="7.33837">
        <ele>199.4</ele>
        <time>2021-06-21T06:26:23Z</time>
      </trkpt>
      <trkpt lat="48.15502" lon="7.33847">
        <ele>198.6</ele>
        <time>2021-06-21T06:26:28Z</time>
      </trkpt>
      <trkpt lat="48.15516" lon="7.33851">
        <ele>198.2</ele>
        <time>2021-06-21T06:26:30Z</time>
      </trkpt>
      <trkpt lat="48.15523" lon="7.33852">
        <ele>197.8</ele>
        <time>2021-06-21T06:26:31Z</time>
      </trkpt>
      <trkpt lat="48.15529" lon="7.33854">
        <ele>197.4</ele>
        <time>2021-06-21T06:26:32Z</time>
      </trkpt>
      <trkpt lat="48.15549" lon="7.33857">
        <ele>196.2</ele>
        <time>2021-06-21T06:26:35Z</time>
      </trkpt>
      <trkpt lat="48.15555" lon="7.33859">
        <ele>195.8</ele>
        <time>2021-06-21T06:26:36Z</time>
      </trkpt>
      <trkpt lat="48.15576" lon="7.33865">
        <ele>195.2</ele>
        <time>2021-06-21T06:26:39Z</time>
      </trkpt>
      <trkpt lat="48.15609" lon="7.33877">
        <ele>193.6</ele>
        <time>2021-06-21T06:26:44Z</time>
      </trkpt>
      <trkpt lat="48.15626" lon="7.33883">
        <ele>192.2</ele>
        <time>2021-06-21T06:26:48Z</time>
      </trkpt>
      <trkpt lat="48.15642" lon="7.33889">
        <ele>191</ele>
        <time>2021-06-21T06:26:51Z</time>
      </trkpt>
      <trkpt lat="48.15654" lon="7.33893">
        <ele>190.6</ele>
        <time>2021-06-21T06:26:53Z</time>
      </trkpt>
      <trkpt lat="48.15668" lon="7.339">
        <ele>189.8</ele>
        <time>2021-06-21T06:26:55Z</time>
      </trkpt>
      <trkpt lat="48.15695" lon="7.33913">
        <ele>189.2</ele>
        <time>2021-06-21T06:26:59Z</time>
      </trkpt>
      <trkpt lat="48.15701" lon="7.33917">
        <ele>188.6</ele>
        <time>2021-06-21T06:27:00Z</time>
      </trkpt>
      <trkpt lat="48.15726" lon="7.33936">
        <ele>187.4</ele>
        <time>2021-06-21T06:27:04Z</time>
      </trkpt>
      <trkpt lat="48.15732" lon="7.33942">
        <ele>187.2</ele>
        <time>2021-06-21T06:27:05Z</time>
      </trkpt>
      <trkpt lat="48.1576" lon="7.33971">
        <ele>186.6</ele>
        <time>2021-06-21T06:27:10Z</time>
      </trkpt>
      <trkpt lat="48.15765" lon="7.33978">
        <ele>186.4</ele>
        <time>2021-06-21T06:27:11Z</time>
      </trkpt>
      <trkpt lat="48.1579" lon="7.34004">
        <ele>186</ele>
        <time>2021-06-21T06:27:15Z</time>
      </trkpt>
      <trkpt lat="48.15797" lon="7.34009">
        <ele>185.8</ele>
        <time>2021-06-21T06:27:16Z</time>
      </trkpt>
      <trkpt lat="48.1581" lon="7.34016">
        <ele>185.4</ele>
        <time>2021-06-21T06:27:18Z</time>
      </trkpt>
      <trkpt lat="48.15852" lon="7.34041">
        <ele>184.6</ele>
        <time>2021-06-21T06:27:25Z</time>
      </trkpt>
      <trkpt lat="48.15865" lon="7.34049">
        <ele>184.4</ele>
        <time>2021-06-21T06:27:27Z</time>
      </trkpt>
      <trkpt lat="48.15883" lon="7.34058">
        <ele>184.2</ele>
        <time>2021-06-21T06:27:30Z</time>
      </trkpt>
      <trkpt lat="48.15895" lon="7.34064">
        <ele>184</ele>
        <time>2021-06-21T06:27:32Z</time>
      </trkpt>
      <trkpt lat="48.1595" lon="7.34088">
        <ele>183.6</ele>
        <time>2021-06-21T06:27:41Z</time>
      </trkpt>
      <trkpt lat="48.15962" lon="7.34093">
        <ele>183.4</ele>
        <time>2021-06-21T06:27:43Z</time>
      </trkpt>
      <trkpt lat="48.15974" lon="7.34099">
        <ele>183.2</ele>
        <time>2021-06-21T06:27:45Z</time>
      </trkpt>
      <trkpt lat="48.15998" lon="7.34109">
        <ele>183</ele>
        <time>2021-06-21T06:27:49Z</time>
      </trkpt>
      <trkpt lat="48.16042" lon="7.34129">
        <ele>182.8</ele>
        <time>2021-06-21T06:27:57Z</time>
      </trkpt>
      <trkpt lat="48.16071" lon="7.34137">
        <ele>182.6</ele>
        <time>2021-06-21T06:28:02Z</time>
      </trkpt>
      <trkpt lat="48.16081" lon="7.34135">
        <ele>182.4</ele>
        <time>2021-06-21T06:28:04Z</time>
      </trkpt>
      <trkpt lat="48.16089" lon="7.34134">
        <ele>182.4</ele>
        <time>2021-06-21T06:28:06Z</time>
      </trkpt>
      <trkpt lat="48.16096" lon="7.34137">
        <ele>182.4</ele>
        <time>2021-06-21T06:28:08Z</time>
      </trkpt>
      <trkpt lat="48.16105" lon="7.34141">
        <ele>182.4</ele>
        <time>2021-06-21T06:28:12Z</time>
      </trkpt>
      <trkpt lat="48.16126" lon="7.34143">
        <ele>182.6</ele>
        <time>2021-06-21T06:28:18Z</time>
      </trkpt>
      <trkpt lat="48.16131" lon="7.34143">
        <ele>182.6</ele>
        <time>2021-06-21T06:28:19Z</time>
      </trkpt>
      <trkpt lat="48.16151" lon="7.34138">
        <ele>182.4</ele>
        <time>2021-06-21T06:28:23Z</time>
      </trkpt>
      <trkpt lat="48.16157" lon="7.34137">
        <ele>182.4</ele>
        <time>2021-06-21T06:28:24Z</time>
      </trkpt>
      <trkpt lat="48.16175" lon="7.34142">
        <ele>182.4</ele>
        <time>2021-06-21T06:28:27Z</time>
      </trkpt>
      <trkpt lat="48.16221" lon="7.34164">
        <ele>182.8</ele>
        <time>2021-06-21T06:28:35Z</time>
      </trkpt>
      <trkpt lat="48.1627" lon="7.34189">
        <ele>182.6</ele>
        <time>2021-06-21T06:28:44Z</time>
      </trkpt>
      <trkpt lat="48.16286" lon="7.34197">
        <ele>182.6</ele>
        <time>2021-06-21T06:28:47Z</time>
      </trkpt>
      <trkpt lat="48.16319" lon="7.34213">
        <ele>183.4</ele>
        <time>2021-06-21T06:28:53Z</time>
      </trkpt>
      <trkpt lat="48.16373" lon="7.34243">
        <ele>183.6</ele>
        <time>2021-06-21T06:29:03Z</time>
      </trkpt>
      <trkpt lat="48.16377" lon="7.34246">
        <ele>184</ele>
        <time>2021-06-21T06:29:04Z</time>
      </trkpt>
      <trkpt lat="48.16427" lon="7.34273">
        <ele>183.4</ele>
        <time>2021-06-21T06:29:13Z</time>
      </trkpt>
      <trkpt lat="48.16476" lon="7.343">
        <ele>183.8</ele>
        <time>2021-06-21T06:29:22Z</time>
      </trkpt>
      <trkpt lat="48.16515" lon="7.34321">
        <ele>184.4</ele>
        <time>2021-06-21T06:29:29Z</time>
      </trkpt>
      <trkpt lat="48.16526" lon="7.34328">
        <ele>184.6</ele>
        <time>2021-06-21T06:29:31Z</time>
      </trkpt>
      <trkpt lat="48.1658" lon="7.34359">
        <ele>184</ele>
        <time>2021-06-21T06:29:41Z</time>
      </trkpt>
      <trkpt lat="48.16608" lon="7.34373">
        <ele>183.4</ele>
        <time>2021-06-21T06:29:46Z</time>
      </trkpt>
      <trkpt lat="48.16626" lon="7.34382">
        <ele>183.4</ele>
        <time>2021-06-21T06:29:49Z</time>
      </trkpt>
      <trkpt lat="48.16675" lon="7.34405">
        <ele>183.6</ele>
        <time>2021-06-21T06:29:58Z</time>
      </trkpt>
      <trkpt lat="48.16718" lon="7.34426">
        <ele>184.2</ele>
        <time>2021-06-21T06:30:06Z</time>
      </trkpt>
      <trkpt lat="48.16723" lon="7.34429">
        <ele>184.4</ele>
        <time>2021-06-21T06:30:07Z</time>
      </trkpt>
      <trkpt lat="48.1675" lon="7.34445">
        <ele>184.6</ele>
        <time>2021-06-21T06:30:12Z</time>
      </trkpt>
      <trkpt lat="48.16765" lon="7.34456">
        <ele>184.6</ele>
        <time>2021-06-21T06:30:15Z</time>
      </trkpt>
      <trkpt lat="48.16807" lon="7.34482">
        <ele>184.4</ele>
        <time>2021-06-21T06:30:23Z</time>
      </trkpt>
      <trkpt lat="48.16814" lon="7.34486">
        <ele>184.4</ele>
        <time>2021-06-21T06:30:24Z</time>
      </trkpt>
      <trkpt lat="48.16867" lon="7.34524">
        <ele>184.2</ele>
        <time>2021-06-21T06:30:34Z</time>
      </trkpt>
      <trkpt lat="48.16876" lon="7.34532">
        <ele>184.2</ele>
        <time>2021-06-21T06:30:36Z</time>
      </trkpt>
      <trkpt lat="48.16922" lon="7.34575">
        <ele>184.2</ele>
        <time>2021-06-21T06:30:45Z</time>
      </trkpt>
      <trkpt lat="48.16927" lon="7.3458">
        <ele>184.2</ele>
        <time>2021-06-21T06:30:46Z</time>
      </trkpt>
      <trkpt lat="48.16948" lon="7.34602">
        <ele>184.4</ele>
        <time>2021-06-21T06:30:51Z</time>
      </trkpt>
      <trkpt lat="48.16955" lon="7.34609">
        <ele>184.8</ele>
        <time>2021-06-21T06:30:53Z</time>
      </trkpt>
      <trkpt lat="48.16964" lon="7.34618">
        <ele>185</ele>
        <time>2021-06-21T06:30:57Z</time>
      </trkpt>
      <trkpt lat="48.16977" lon="7.34632">
        <ele>185.2</ele>
        <time>2021-06-21T06:31:01Z</time>
      </trkpt>
      <trkpt lat="48.17004" lon="7.34659">
        <ele>185.4</ele>
        <time>2021-06-21T06:31:07Z</time>
      </trkpt>
      <trkpt lat="48.17018" lon="7.34673">
        <ele>185.4</ele>
        <time>2021-06-21T06:31:10Z</time>
      </trkpt>
      <trkpt lat="48.17047" lon="7.34701">
        <ele>185.8</ele>
        <time>2021-06-21T06:31:16Z</time>
      </trkpt>
      <trkpt lat="48.17089" lon="7.34743">
        <ele>185.8</ele>
        <time>2021-06-21T06:31:25Z</time>
      </trkpt>
      <trkpt lat="48.17128" lon="7.34781">
        <ele>186</ele>
        <time>2021-06-21T06:31:33Z</time>
      </trkpt>
      <trkpt lat="48.17167" lon="7.34815">
        <ele>186</ele>
        <time>2021-06-21T06:31:41Z</time>
      </trkpt>
      <trkpt lat="48.17208" lon="7.34844">
        <ele>186</ele>
        <time>2021-06-21T06:31:49Z</time>
      </trkpt>
      <trkpt lat="48.17217" lon="7.3485">
        <ele>186</ele>
        <time>2021-06-21T06:31:51Z</time>
      </trkpt>
      <trkpt lat="48.1725" lon="7.34872">
        <ele>186.2</ele>
        <time>2021-06-21T06:31:57Z</time>
      </trkpt>
      <trkpt lat="48.17255" lon="7.34875">
        <ele>186.4</ele>
        <time>2021-06-21T06:31:58Z</time>
      </trkpt>
      <trkpt lat="48.1729" lon="7.34901">
        <ele>186.8</ele>
        <time>2021-06-21T06:32:05Z</time>
      </trkpt>
      <trkpt lat="48.17329" lon="7.34931">
        <ele>186.8</ele>
        <time>2021-06-21T06:32:13Z</time>
      </trkpt>
      <trkpt lat="48.17368" lon="7.34965">
        <ele>187.4</ele>
        <time>2021-06-21T06:32:21Z</time>
      </trkpt>
      <trkpt lat="48.17404" lon="7.34996">
        <ele>187.4</ele>
        <time>2021-06-21T06:32:29Z</time>
      </trkpt>
      <trkpt lat="48.17423" lon="7.35014">
        <ele>187.2</ele>
        <time>2021-06-21T06:32:33Z</time>
      </trkpt>
      <trkpt lat="48.17432" lon="7.35022">
        <ele>187.2</ele>
        <time>2021-06-21T06:32:35Z</time>
      </trkpt>
      <trkpt lat="48.17461" lon="7.35049">
        <ele>187.6</ele>
        <time>2021-06-21T06:32:41Z</time>
      </trkpt>
      <trkpt lat="48.17472" lon="7.35058">
        <ele>187.6</ele>
        <time>2021-06-21T06:32:43Z</time>
      </trkpt>
      <trkpt lat="48.17518" lon="7.35096">
        <ele>187.6</ele>
        <time>2021-06-21T06:32:52Z</time>
      </trkpt>
      <trkpt lat="48.17567" lon="7.3513">
        <ele>187.8</ele>
        <time>2021-06-21T06:33:01Z</time>
      </trkpt>
      <trkpt lat="48.17599" lon="7.35151">
        <ele>187.8</ele>
        <time>2021-06-21T06:33:07Z</time>
      </trkpt>
      <trkpt lat="48.17646" lon="7.3518">
        <ele>188</ele>
        <time>2021-06-21T06:33:16Z</time>
      </trkpt>
      <trkpt lat="48.1765" lon="7.35184">
        <ele>188.2</ele>
        <time>2021-06-21T06:33:17Z</time>
      </trkpt>
      <trkpt lat="48.17661" lon="7.35195">
        <ele>188.4</ele>
        <time>2021-06-21T06:33:19Z</time>
      </trkpt>
      <trkpt lat="48.17666" lon="7.35199">
        <ele>188.4</ele>
        <time>2021-06-21T06:33:20Z</time>
      </trkpt>
      <trkpt lat="48.17671" lon="7.35201">
        <ele>188.6</ele>
        <time>2021-06-21T06:33:21Z</time>
      </trkpt>
      <trkpt lat="48.17683" lon="7.35209">
        <ele>188.8</ele>
        <time>2021-06-21T06:33:23Z</time>
      </trkpt>
      <trkpt lat="48.17688" lon="7.35213">
        <ele>188.8</ele>
        <time>2021-06-21T06:33:24Z</time>
      </trkpt>
      <trkpt lat="48.17698" lon="7.35219">
        <ele>188.8</ele>
        <time>2021-06-21T06:33:26Z</time>
      </trkpt>
      <trkpt lat="48.17737" lon="7.3524">
        <ele>188.8</ele>
        <time>2021-06-21T06:33:33Z</time>
      </trkpt>
      <trkpt lat="48.17748" lon="7.35246">
        <ele>188.8</ele>
        <time>2021-06-21T06:33:35Z</time>
      </trkpt>
      <trkpt lat="48.17758" lon="7.35253">
        <ele>188.8</ele>
        <time>2021-06-21T06:33:37Z</time>
      </trkpt>
      <trkpt lat="48.17767" lon="7.35263">
        <ele>189</ele>
        <time>2021-06-21T06:33:39Z</time>
      </trkpt>
      <trkpt lat="48.17798" lon="7.35313">
        <ele>189.6</ele>
        <time>2021-06-21T06:33:47Z</time>
      </trkpt>
      <trkpt lat="48.17802" lon="7.35317">
        <ele>189.6</ele>
        <time>2021-06-21T06:33:48Z</time>
      </trkpt>
      <trkpt lat="48.17812" lon="7.35324">
        <ele>190</ele>
        <time>2021-06-21T06:33:50Z</time>
      </trkpt>
      <trkpt lat="48.17818" lon="7.35326">
        <ele>190</ele>
        <time>2021-06-21T06:33:51Z</time>
      </trkpt>
      <trkpt lat="48.17827" lon="7.3533">
        <ele>190.2</ele>
        <time>2021-06-21T06:33:53Z</time>
      </trkpt>
      <trkpt lat="48.17848" lon="7.35335">
        <ele>190.6</ele>
        <time>2021-06-21T06:33:57Z</time>
      </trkpt>
      <trkpt lat="48.17857" lon="7.35339">
        <ele>191</ele>
        <time>2021-06-21T06:33:59Z</time>
      </trkpt>
      <trkpt lat="48.17871" lon="7.35347">
        <ele>191.4</ele>
        <time>2021-06-21T06:34:02Z</time>
      </trkpt>
      <trkpt lat="48.17891" lon="7.35362">
        <ele>191.8</ele>
        <time>2021-06-21T06:34:06Z</time>
      </trkpt>
      <trkpt lat="48.17907" lon="7.35372">
        <ele>191.6</ele>
        <time>2021-06-21T06:34:09Z</time>
      </trkpt>
      <trkpt lat="48.17941" lon="7.35396">
        <ele>191.4</ele>
        <time>2021-06-21T06:34:16Z</time>
      </trkpt>
      <trkpt lat="48.17985" lon="7.35421">
        <ele>191.8</ele>
        <time>2021-06-21T06:34:24Z</time>
      </trkpt>
      <trkpt lat="48.18035" lon="7.3545">
        <ele>192</ele>
        <time>2021-06-21T06:34:33Z</time>
      </trkpt>
      <trkpt lat="48.18077" lon="7.35475">
        <ele>192.2</ele>
        <time>2021-06-21T06:34:41Z</time>
      </trkpt>
      <trkpt lat="48.18115" lon="7.35491">
        <ele>192.6</ele>
        <time>2021-06-21T06:34:48Z</time>
      </trkpt>
      <trkpt lat="48.18126" lon="7.35493">
        <ele>192.6</ele>
        <time>2021-06-21T06:34:50Z</time>
      </trkpt>
      <trkpt lat="48.18131" lon="7.35494">
        <ele>192.8</ele>
        <time>2021-06-21T06:34:51Z</time>
      </trkpt>
      <trkpt lat="48.18146" lon="7.35496">
        <ele>193</ele>
        <time>2021-06-21T06:34:54Z</time>
      </trkpt>
      <trkpt lat="48.18173" lon="7.35502">
        <ele>193</ele>
        <time>2021-06-21T06:35:00Z</time>
      </trkpt>
      <trkpt lat="48.18177" lon="7.35502">
        <ele>193</ele>
        <time>2021-06-21T06:35:03Z</time>
      </trkpt>
      <trkpt lat="48.18177" lon="7.35502">
        <ele>193</ele>
        <time>2021-06-21T06:35:05Z</time>
      </trkpt>
      <trkpt lat="48.18194" lon="7.35506">
        <ele>192.8</ele>
        <time>2021-06-21T06:36:34Z</time>
      </trkpt>
      <trkpt lat="48.182" lon="7.35507">
        <ele>193</ele>
        <time>2021-06-21T06:36:36Z</time>
      </trkpt>
      <trkpt lat="48.18206" lon="7.35509">
        <ele>192.8</ele>
        <time>2021-06-21T06:36:38Z</time>
      </trkpt>
      <trkpt lat="48.18222" lon="7.35515">
        <ele>193.2</ele>
        <time>2021-06-21T06:36:42Z</time>
      </trkpt>
      <trkpt lat="48.18237" lon="7.35521">
        <ele>193.2</ele>
        <time>2021-06-21T06:36:45Z</time>
      </trkpt>
      <trkpt lat="48.18252" lon="7.35528">
        <ele>193.4</ele>
        <time>2021-06-21T06:36:48Z</time>
      </trkpt>
      <trkpt lat="48.1827" lon="7.35536">
        <ele>193.6</ele>
        <time>2021-06-21T06:36:52Z</time>
      </trkpt>
      <trkpt lat="48.18281" lon="7.35541">
        <ele>193.8</ele>
        <time>2021-06-21T06:36:54Z</time>
      </trkpt>
      <trkpt lat="48.18292" lon="7.35547">
        <ele>193.8</ele>
        <time>2021-06-21T06:36:56Z</time>
      </trkpt>
      <trkpt lat="48.18309" lon="7.35556">
        <ele>193.8</ele>
        <time>2021-06-21T06:36:59Z</time>
      </trkpt>
      <trkpt lat="48.18354" lon="7.35595">
        <ele>193.6</ele>
        <time>2021-06-21T06:37:08Z</time>
      </trkpt>
      <trkpt lat="48.18384" lon="7.35616">
        <ele>193.8</ele>
        <time>2021-06-21T06:37:14Z</time>
      </trkpt>
      <trkpt lat="48.18388" lon="7.3562">
        <ele>194.2</ele>
        <time>2021-06-21T06:37:15Z</time>
      </trkpt>
      <trkpt lat="48.18416" lon="7.35643">
        <ele>194.4</ele>
        <time>2021-06-21T06:37:21Z</time>
      </trkpt>
      <trkpt lat="48.18452" lon="7.35668">
        <ele>194.4</ele>
        <time>2021-06-21T06:37:28Z</time>
      </trkpt>
      <trkpt lat="48.18494" lon="7.35708">
        <ele>194.4</ele>
        <time>2021-06-21T06:37:36Z</time>
      </trkpt>
      <trkpt lat="48.18533" lon="7.35741">
        <ele>194.2</ele>
        <time>2021-06-21T06:37:43Z</time>
      </trkpt>
      <trkpt lat="48.18578" lon="7.35776">
        <ele>193.6</ele>
        <time>2021-06-21T06:37:51Z</time>
      </trkpt>
      <trkpt lat="48.1863" lon="7.35813">
        <ele>193</ele>
        <time>2021-06-21T06:38:00Z</time>
      </trkpt>
      <trkpt lat="48.18636" lon="7.35817">
        <ele>193</ele>
        <time>2021-06-21T06:38:01Z</time>
      </trkpt>
      <trkpt lat="48.18676" lon="7.35846">
        <ele>192.8</ele>
        <time>2021-06-21T06:38:08Z</time>
      </trkpt>
      <trkpt lat="48.18682" lon="7.3585">
        <ele>192.8</ele>
        <time>2021-06-21T06:38:09Z</time>
      </trkpt>
      <trkpt lat="48.1873" lon="7.35887">
        <ele>193.2</ele>
        <time>2021-06-21T06:38:18Z</time>
      </trkpt>
      <trkpt lat="48.18767" lon="7.35912">
        <ele>193.2</ele>
        <time>2021-06-21T06:38:26Z</time>
      </trkpt>
      <trkpt lat="48.18806" lon="7.35941">
        <ele>193.4</ele>
        <time>2021-06-21T06:38:34Z</time>
      </trkpt>
      <trkpt lat="48.18843" lon="7.35978">
        <ele>193</ele>
        <time>2021-06-21T06:38:42Z</time>
      </trkpt>
      <trkpt lat="48.18875" lon="7.36005">
        <ele>192.6</ele>
        <time>2021-06-21T06:38:49Z</time>
      </trkpt>
      <trkpt lat="48.18878" lon="7.36006">
        <ele>192.6</ele>
        <time>2021-06-21T06:38:50Z</time>
      </trkpt>
      <trkpt lat="48.18883" lon="7.36007">
        <ele>192.6</ele>
        <time>2021-06-21T06:38:53Z</time>
      </trkpt>
      <trkpt lat="48.18883" lon="7.36007">
        <ele>192.8</ele>
        <time>2021-06-21T06:38:55Z</time>
      </trkpt>
      <trkpt lat="48.18891" lon="7.3601">
        <ele>193</ele>
        <time>2021-06-21T06:39:03Z</time>
      </trkpt>
      <trkpt lat="48.18895" lon="7.3601">
        <ele>193</ele>
        <time>2021-06-21T06:39:04Z</time>
      </trkpt>
      <trkpt lat="48.18909" lon="7.36014">
        <ele>193</ele>
        <time>2021-06-21T06:39:07Z</time>
      </trkpt>
      <trkpt lat="48.18919" lon="7.3602">
        <ele>193</ele>
        <time>2021-06-21T06:39:09Z</time>
      </trkpt>
      <trkpt lat="48.18946" lon="7.36048">
        <ele>192.6</ele>
        <time>2021-06-21T06:39:15Z</time>
      </trkpt>
      <trkpt lat="48.18989" lon="7.36091">
        <ele>191.8</ele>
        <time>2021-06-21T06:39:23Z</time>
      </trkpt>
      <trkpt lat="48.18998" lon="7.36102">
        <ele>191.8</ele>
        <time>2021-06-21T06:39:25Z</time>
      </trkpt>
      <trkpt lat="48.19021" lon="7.36124">
        <ele>191.4</ele>
        <time>2021-06-21T06:39:29Z</time>
      </trkpt>
      <trkpt lat="48.19064" lon="7.36168">
        <ele>191</ele>
        <time>2021-06-21T06:39:37Z</time>
      </trkpt>
      <trkpt lat="48.19104" lon="7.36209">
        <ele>190.8</ele>
        <time>2021-06-21T06:39:45Z</time>
      </trkpt>
      <trkpt lat="48.1911" lon="7.36214">
        <ele>190.6</ele>
        <time>2021-06-21T06:39:46Z</time>
      </trkpt>
      <trkpt lat="48.19136" lon="7.36239">
        <ele>190.4</ele>
        <time>2021-06-21T06:39:51Z</time>
      </trkpt>
      <trkpt lat="48.19142" lon="7.36244">
        <ele>190.4</ele>
        <time>2021-06-21T06:39:52Z</time>
      </trkpt>
      <trkpt lat="48.19172" lon="7.36263">
        <ele>190.2</ele>
        <time>2021-06-21T06:39:57Z</time>
      </trkpt>
      <trkpt lat="48.19211" lon="7.3629">
        <ele>189.8</ele>
        <time>2021-06-21T06:40:04Z</time>
      </trkpt>
      <trkpt lat="48.19234" lon="7.36306">
        <ele>189.6</ele>
        <time>2021-06-21T06:40:08Z</time>
      </trkpt>
      <trkpt lat="48.19256" lon="7.36321">
        <ele>189.2</ele>
        <time>2021-06-21T06:40:12Z</time>
      </trkpt>
      <trkpt lat="48.19307" lon="7.36352">
        <ele>189.2</ele>
        <time>2021-06-21T06:40:21Z</time>
      </trkpt>
      <trkpt lat="48.19334" lon="7.36373">
        <ele>188.6</ele>
        <time>2021-06-21T06:40:26Z</time>
      </trkpt>
      <trkpt lat="48.1934" lon="7.36377">
        <ele>188.6</ele>
        <time>2021-06-21T06:40:27Z</time>
      </trkpt>
      <trkpt lat="48.1938" lon="7.36394">
        <ele>188.6</ele>
        <time>2021-06-21T06:40:34Z</time>
      </trkpt>
      <trkpt lat="48.1942" lon="7.3641">
        <ele>188.6</ele>
        <time>2021-06-21T06:40:42Z</time>
      </trkpt>
      <trkpt lat="48.19429" lon="7.36412">
        <ele>188.8</ele>
        <time>2021-06-21T06:40:44Z</time>
      </trkpt>
      <trkpt lat="48.19436" lon="7.36408">
        <ele>188.8</ele>
        <time>2021-06-21T06:40:46Z</time>
      </trkpt>
      <trkpt lat="48.19445" lon="7.36405">
        <ele>188.8</ele>
        <time>2021-06-21T06:40:48Z</time>
      </trkpt>
      <trkpt lat="48.19455" lon="7.36405">
        <ele>188.8</ele>
        <time>2021-06-21T06:40:50Z</time>
      </trkpt>
      <trkpt lat="48.19484" lon="7.36417">
        <ele>189</ele>
        <time>2021-06-21T06:40:56Z</time>
      </trkpt>
      <trkpt lat="48.1951" lon="7.36429">
        <ele>189</ele>
        <time>2021-06-21T06:41:01Z</time>
      </trkpt>
      <trkpt lat="48.19549" lon="7.36446">
        <ele>189.4</ele>
        <time>2021-06-21T06:41:08Z</time>
      </trkpt>
      <trkpt lat="48.196" lon="7.3647">
        <ele>190</ele>
        <time>2021-06-21T06:41:17Z</time>
      </trkpt>
      <trkpt lat="48.1965" lon="7.36493">
        <ele>190.2</ele>
        <time>2021-06-21T06:41:26Z</time>
      </trkpt>
      <trkpt lat="48.1969" lon="7.36513">
        <ele>190.2</ele>
        <time>2021-06-21T06:41:33Z</time>
      </trkpt>
      <trkpt lat="48.19696" lon="7.36515">
        <ele>190.2</ele>
        <time>2021-06-21T06:41:34Z</time>
      </trkpt>
      <trkpt lat="48.19741" lon="7.36537">
        <ele>190.4</ele>
        <time>2021-06-21T06:41:42Z</time>
      </trkpt>
      <trkpt lat="48.19768" lon="7.3655">
        <ele>190.8</ele>
        <time>2021-06-21T06:41:47Z</time>
      </trkpt>
      <trkpt lat="48.19778" lon="7.36557">
        <ele>191</ele>
        <time>2021-06-21T06:41:49Z</time>
      </trkpt>
      <trkpt lat="48.19783" lon="7.36561">
        <ele>191.2</ele>
        <time>2021-06-21T06:41:50Z</time>
      </trkpt>
      <trkpt lat="48.19802" lon="7.36579">
        <ele>191.6</ele>
        <time>2021-06-21T06:41:54Z</time>
      </trkpt>
      <trkpt lat="48.19812" lon="7.36588">
        <ele>191.8</ele>
        <time>2021-06-21T06:41:56Z</time>
      </trkpt>
      <trkpt lat="48.19817" lon="7.36593">
        <ele>191.8</ele>
        <time>2021-06-21T06:41:57Z</time>
      </trkpt>
      <trkpt lat="48.19855" lon="7.3663">
        <ele>192.6</ele>
        <time>2021-06-21T06:42:05Z</time>
      </trkpt>
      <trkpt lat="48.19864" lon="7.36641">
        <ele>192.8</ele>
        <time>2021-06-21T06:42:07Z</time>
      </trkpt>
      <trkpt lat="48.1989" lon="7.36677">
        <ele>193.2</ele>
        <time>2021-06-21T06:42:13Z</time>
      </trkpt>
      <trkpt lat="48.19922" lon="7.36723">
        <ele>193.4</ele>
        <time>2021-06-21T06:42:21Z</time>
      </trkpt>
      <trkpt lat="48.19935" lon="7.36742">
        <ele>194</ele>
        <time>2021-06-21T06:42:25Z</time>
      </trkpt>
      <trkpt lat="48.19938" lon="7.36747">
        <ele>194</ele>
        <time>2021-06-21T06:42:26Z</time>
      </trkpt>
      <trkpt lat="48.19948" lon="7.36764">
        <ele>194.2</ele>
        <time>2021-06-21T06:42:31Z</time>
      </trkpt>
      <trkpt lat="48.19951" lon="7.36766">
        <ele>194.4</ele>
        <time>2021-06-21T06:42:32Z</time>
      </trkpt>
      <trkpt lat="48.19964" lon="7.36767">
        <ele>194.6</ele>
        <time>2021-06-21T06:42:35Z</time>
      </trkpt>
      <trkpt lat="48.19984" lon="7.36761">
        <ele>194.8</ele>
        <time>2021-06-21T06:42:39Z</time>
      </trkpt>
      <trkpt lat="48.20034" lon="7.36746">
        <ele>195</ele>
        <time>2021-06-21T06:42:48Z</time>
      </trkpt>
      <trkpt lat="48.20039" lon="7.36744">
        <ele>195</ele>
        <time>2021-06-21T06:42:49Z</time>
      </trkpt>
      <trkpt lat="48.20078" lon="7.36731">
        <ele>195.8</ele>
        <time>2021-06-21T06:42:56Z</time>
      </trkpt>
      <trkpt lat="48.201" lon="7.36724">
        <ele>196</ele>
        <time>2021-06-21T06:43:00Z</time>
      </trkpt>
      <trkpt lat="48.20133" lon="7.36714">
        <ele>197</ele>
        <time>2021-06-21T06:43:06Z</time>
      </trkpt>
      <trkpt lat="48.2015" lon="7.36709">
        <ele>197</ele>
        <time>2021-06-21T06:43:09Z</time>
      </trkpt>
      <trkpt lat="48.20184" lon="7.36698">
        <ele>197.8</ele>
        <time>2021-06-21T06:43:15Z</time>
      </trkpt>
      <trkpt lat="48.20229" lon="7.36684">
        <ele>197.8</ele>
        <time>2021-06-21T06:43:23Z</time>
      </trkpt>
      <trkpt lat="48.2024" lon="7.36681">
        <ele>198</ele>
        <time>2021-06-21T06:43:25Z</time>
      </trkpt>
      <trkpt lat="48.20258" lon="7.36676">
        <ele>198.6</ele>
        <time>2021-06-21T06:43:29Z</time>
      </trkpt>
      <trkpt lat="48.20273" lon="7.36673">
        <ele>198.8</ele>
        <time>2021-06-21T06:43:34Z</time>
      </trkpt>
      <trkpt lat="48.20273" lon="7.36673">
        <ele>198.8</ele>
        <time>2021-06-21T06:43:37Z</time>
      </trkpt>
      <trkpt lat="48.2028" lon="7.36672">
        <ele>198.8</ele>
        <time>2021-06-21T06:43:49Z</time>
      </trkpt>
      <trkpt lat="48.20295" lon="7.3667">
        <ele>198.8</ele>
        <time>2021-06-21T06:43:53Z</time>
      </trkpt>
      <trkpt lat="48.203" lon="7.3667">
        <ele>198.8</ele>
        <time>2021-06-21T06:43:54Z</time>
      </trkpt>
      <trkpt lat="48.20304" lon="7.36671">
        <ele>198.8</ele>
        <time>2021-06-21T06:43:55Z</time>
      </trkpt>
      <trkpt lat="48.20324" lon="7.36675">
        <ele>199</ele>
        <time>2021-06-21T06:43:59Z</time>
      </trkpt>
      <trkpt lat="48.20335" lon="7.36678">
        <ele>199</ele>
        <time>2021-06-21T06:44:01Z</time>
      </trkpt>
      <trkpt lat="48.20362" lon="7.36688">
        <ele>199.2</ele>
        <time>2021-06-21T06:44:06Z</time>
      </trkpt>
      <trkpt lat="48.20402" lon="7.36704">
        <ele>199.6</ele>
        <time>2021-06-21T06:44:13Z</time>
      </trkpt>
      <trkpt lat="48.2042" lon="7.36707">
        <ele>199.8</ele>
        <time>2021-06-21T06:44:16Z</time>
      </trkpt>
      <trkpt lat="48.20437" lon="7.36711">
        <ele>200</ele>
        <time>2021-06-21T06:44:19Z</time>
      </trkpt>
      <trkpt lat="48.20443" lon="7.36712">
        <ele>200.2</ele>
        <time>2021-06-21T06:44:20Z</time>
      </trkpt>
      <trkpt lat="48.20475" lon="7.36713">
        <ele>200.8</ele>
        <time>2021-06-21T06:44:26Z</time>
      </trkpt>
      <trkpt lat="48.20484" lon="7.36712">
        <ele>201</ele>
        <time>2021-06-21T06:44:28Z</time>
      </trkpt>
      <trkpt lat="48.20492" lon="7.3671">
        <ele>201.2</ele>
        <time>2021-06-21T06:44:30Z</time>
      </trkpt>
      <trkpt lat="48.20495" lon="7.36708">
        <ele>201.4</ele>
        <time>2021-06-21T06:44:31Z</time>
      </trkpt>
      <trkpt lat="48.20505" lon="7.367">
        <ele>201.6</ele>
        <time>2021-06-21T06:44:35Z</time>
      </trkpt>
      <trkpt lat="48.2051" lon="7.36674">
        <ele>202.2</ele>
        <time>2021-06-21T06:44:40Z</time>
      </trkpt>
      <trkpt lat="48.2051" lon="7.36668">
        <ele>202.2</ele>
        <time>2021-06-21T06:44:41Z</time>
      </trkpt>
      <trkpt lat="48.20509" lon="7.36644">
        <ele>202.8</ele>
        <time>2021-06-21T06:44:45Z</time>
      </trkpt>
      <trkpt lat="48.20509" lon="7.36621">
        <ele>203.4</ele>
        <time>2021-06-21T06:44:50Z</time>
      </trkpt>
      <trkpt lat="48.2051" lon="7.36616">
        <ele>203.4</ele>
        <time>2021-06-21T06:44:51Z</time>
      </trkpt>
      <trkpt lat="48.2051" lon="7.36594">
        <ele>204</ele>
        <time>2021-06-21T06:44:56Z</time>
      </trkpt>
      <trkpt lat="48.2051" lon="7.36588">
        <ele>204.6</ele>
        <time>2021-06-21T06:44:59Z</time>
      </trkpt>
      <trkpt lat="48.2051" lon="7.36588">
        <ele>204.8</ele>
        <time>2021-06-21T06:45:00Z</time>
      </trkpt>
      <trkpt lat="48.2051" lon="7.36577">
        <ele>205</ele>
        <time>2021-06-21T06:45:13Z</time>
      </trkpt>
      <trkpt lat="48.2051" lon="7.3657">
        <ele>205</ele>
        <time>2021-06-21T06:45:15Z</time>
      </trkpt>
      <trkpt lat="48.20513" lon="7.36547">
        <ele>205</ele>
        <time>2021-06-21T06:45:20Z</time>
      </trkpt>
      <trkpt lat="48.20514" lon="7.36534">
        <ele>205.2</ele>
        <time>2021-06-21T06:45:22Z</time>
      </trkpt>
      <trkpt lat="48.20515" lon="7.36521">
        <ele>205.2</ele>
        <time>2021-06-21T06:45:24Z</time>
      </trkpt>
      <trkpt lat="48.20516" lon="7.36516">
        <ele>205.2</ele>
        <time>2021-06-21T06:45:25Z</time>
      </trkpt>
      <trkpt lat="48.20524" lon="7.36467">
        <ele>204.8</ele>
        <time>2021-06-21T06:45:31Z</time>
      </trkpt>
      <trkpt lat="48.2053" lon="7.36431">
        <ele>203.8</ele>
        <time>2021-06-21T06:45:37Z</time>
      </trkpt>
      <trkpt lat="48.20531" lon="7.36428">
        <ele>203.6</ele>
        <time>2021-06-21T06:45:39Z</time>
      </trkpt>
      <trkpt lat="48.20531" lon="7.36426">
        <ele>203.6</ele>
        <time>2021-06-21T06:45:40Z</time>
      </trkpt>
      <trkpt lat="48.2053" lon="7.36423">
        <ele>203.6</ele>
        <time>2021-06-21T06:45:41Z</time>
      </trkpt>
      <trkpt lat="48.20529" lon="7.3642">
        <ele>203.4</ele>
        <time>2021-06-21T06:45:43Z</time>
      </trkpt>
      <trkpt lat="48.20527" lon="7.36418">
        <ele>203.4</ele>
        <time>2021-06-21T06:45:46Z</time>
      </trkpt>
      <trkpt lat="48.20525" lon="7.36418">
        <ele>203.4</ele>
        <time>2021-06-21T06:45:48Z</time>
      </trkpt>
      <trkpt lat="48.20521" lon="7.36419">
        <ele>203.4</ele>
        <time>2021-06-21T06:45:50Z</time>
      </trkpt>
      <trkpt lat="48.2052" lon="7.36419">
        <ele>203.6</ele>
        <time>2021-06-21T06:45:51Z</time>
      </trkpt>
      <trkpt lat="48.20519" lon="7.3642">
        <ele>203.6</ele>
        <time>2021-06-21T06:45:52Z</time>
      </trkpt>
      <trkpt lat="48.2052" lon="7.36421">
        <ele>203.6</ele>
        <time>2021-06-21T06:45:54Z</time>
      </trkpt>
      <trkpt lat="48.20525" lon="7.36419">
        <ele>203.6</ele>
        <time>2021-06-21T06:45:58Z</time>
      </trkpt>
      <trkpt lat="48.20529" lon="7.36413">
        <ele>203.6</ele>
        <time>2021-06-21T06:46:00Z</time>
      </trkpt>
      <trkpt lat="48.2053" lon="7.36404">
        <ele>203.4</ele>
        <time>2021-06-21T06:46:02Z</time>
      </trkpt>
      <trkpt lat="48.20535" lon="7.36379">
        <ele>203.4</ele>
        <time>2021-06-21T06:46:08Z</time>
      </trkpt>
      <trkpt lat="48.20536" lon="7.36364">
        <ele>203.6</ele>
        <time>2021-06-21T06:46:13Z</time>
      </trkpt>
      <trkpt lat="48.20536" lon="7.36353">
        <ele>203.8</ele>
        <time>2021-06-21T06:46:17Z</time>
      </trkpt>
      <trkpt lat="48.20536" lon="7.36351">
        <ele>203.8</ele>
        <time>2021-06-21T06:46:18Z</time>
      </trkpt>
      <trkpt lat="48.20538" lon="7.36342">
        <ele>203.8</ele>
        <time>2021-06-21T06:46:21Z</time>
      </trkpt>
      <trkpt lat="48.20541" lon="7.36331">
        <ele>203.4</ele>
        <time>2021-06-21T06:46:24Z</time>
      </trkpt>
      <trkpt lat="48.20542" lon="7.36328">
        <ele>203.4</ele>
        <time>2021-06-21T06:46:25Z</time>
      </trkpt>
      <trkpt lat="48.20547" lon="7.36301">
        <ele>203.6</ele>
        <time>2021-06-21T06:46:30Z</time>
      </trkpt>
      <trkpt lat="48.2055" lon="7.36278">
        <ele>204.2</ele>
        <time>2021-06-21T06:46:35Z</time>
      </trkpt>
      <trkpt lat="48.20548" lon="7.36273">
        <ele>204.2</ele>
        <time>2021-06-21T06:46:36Z</time>
      </trkpt>
      <trkpt lat="48.20548" lon="7.36269">
        <ele>204.2</ele>
        <time>2021-06-21T06:46:37Z</time>
      </trkpt>
      <trkpt lat="48.2055" lon="7.36268">
        <ele>204.2</ele>
        <time>2021-06-21T06:46:38Z</time>
      </trkpt>
      <trkpt lat="48.20551" lon="7.36265">
        <ele>204.2</ele>
        <time>2021-06-21T06:46:40Z</time>
      </trkpt>
      <trkpt lat="48.20554" lon="7.36256">
        <ele>204.4</ele>
        <time>2021-06-21T06:46:44Z</time>
      </trkpt>
      <trkpt lat="48.20554" lon="7.36244">
        <ele>204.6</ele>
        <time>2021-06-21T06:46:46Z</time>
      </trkpt>
      <trkpt lat="48.20555" lon="7.36241">
        <ele>204.6</ele>
        <time>2021-06-21T06:46:47Z</time>
      </trkpt>
      <trkpt lat="48.20559" lon="7.36215">
        <ele>204.8</ele>
        <time>2021-06-21T06:46:53Z</time>
      </trkpt>
      <trkpt lat="48.20563" lon="7.36186">
        <ele>205.4</ele>
        <time>2021-06-21T06:46:59Z</time>
      </trkpt>
      <trkpt lat="48.20563" lon="7.36183">
        <ele>205.4</ele>
        <time>2021-06-21T06:47:00Z</time>
      </trkpt>
      <trkpt lat="48.20564" lon="7.36182">
        <ele>205.6</ele>
        <time>2021-06-21T06:47:02Z</time>
      </trkpt>
      <trkpt lat="48.20565" lon="7.36182">
        <ele>205.6</ele>
        <time>2021-06-21T06:47:03Z</time>
      </trkpt>
      <trkpt lat="48.20569" lon="7.36183">
        <ele>205.6</ele>
        <time>2021-06-21T06:47:05Z</time>
      </trkpt>
      <trkpt lat="48.20571" lon="7.36181">
        <ele>205.6</ele>
        <time>2021-06-21T06:47:07Z</time>
      </trkpt>
      <trkpt lat="48.20579" lon="7.36166">
        <ele>205.8</ele>
        <time>2021-06-21T06:47:11Z</time>
      </trkpt>
      <trkpt lat="48.20587" lon="7.36152">
        <ele>205</ele>
        <time>2021-06-21T06:47:15Z</time>
      </trkpt>
      <trkpt lat="48.20591" lon="7.36132">
        <ele>205.4</ele>
        <time>2021-06-21T06:47:19Z</time>
      </trkpt>
      <trkpt lat="48.20595" lon="7.36094">
        <ele>206.4</ele>
        <time>2021-06-21T06:47:26Z</time>
      </trkpt>
      <trkpt lat="48.20597" lon="7.36064">
        <ele>206.6</ele>
        <time>2021-06-21T06:47:33Z</time>
      </trkpt>
      <trkpt lat="48.20596" lon="7.3604">
        <ele>206.6</ele>
        <time>2021-06-21T06:47:39Z</time>
      </trkpt>
      <trkpt lat="48.20594" lon="7.36007">
        <ele>206.8</ele>
        <time>2021-06-21T06:47:46Z</time>
      </trkpt>
      <trkpt lat="48.20591" lon="7.35982">
        <ele>206.6</ele>
        <time>2021-06-21T06:47:51Z</time>
      </trkpt>
      <trkpt lat="48.2059" lon="7.35978">
        <ele>206.8</ele>
        <time>2021-06-21T06:47:52Z</time>
      </trkpt>
      <trkpt lat="48.20587" lon="7.35965">
        <ele>207</ele>
        <time>2021-06-21T06:47:55Z</time>
      </trkpt>
      <trkpt lat="48.20588" lon="7.35937">
        <ele>207.2</ele>
        <time>2021-06-21T06:48:01Z</time>
      </trkpt>
      <trkpt lat="48.20591" lon="7.35915">
        <ele>208</ele>
        <time>2021-06-21T06:48:07Z</time>
      </trkpt>
      <trkpt lat="48.20592" lon="7.35914">
        <ele>208.4</ele>
        <time>2021-06-21T06:48:08Z</time>
      </trkpt>
      <trkpt lat="48.20593" lon="7.35914">
        <ele>208.6</ele>
        <time>2021-06-21T06:48:09Z</time>
      </trkpt>
      <trkpt lat="48.20595" lon="7.35915">
        <ele>208.8</ele>
        <time>2021-06-21T06:48:11Z</time>
      </trkpt>
      <trkpt lat="48.20594" lon="7.35914">
        <ele>209</ele>
        <time>2021-06-21T06:48:16Z</time>
      </trkpt>
      <trkpt lat="48.20593" lon="7.35912">
        <ele>209.2</ele>
        <time>2021-06-21T06:48:19Z</time>
      </trkpt>
      <trkpt lat="48.20591" lon="7.35911">
        <ele>209.2</ele>
        <time>2021-06-21T06:48:21Z</time>
      </trkpt>
      <trkpt lat="48.20591" lon="7.35911">
        <ele>209.2</ele>
        <time>2021-06-21T06:48:23Z</time>
      </trkpt>
      <trkpt lat="48.20592" lon="7.35904">
        <ele>209.4</ele>
        <time>2021-06-21T06:48:26Z</time>
      </trkpt>
      <trkpt lat="48.20593" lon="7.35894">
        <ele>209.6</ele>
        <time>2021-06-21T06:48:29Z</time>
      </trkpt>
      <trkpt lat="48.20591" lon="7.35878">
        <ele>210.2</ele>
        <time>2021-06-21T06:48:32Z</time>
      </trkpt>
      <trkpt lat="48.20592" lon="7.35874">
        <ele>210.6</ele>
        <time>2021-06-21T06:48:33Z</time>
      </trkpt>
      <trkpt lat="48.20593" lon="7.35869">
        <ele>210.6</ele>
        <time>2021-06-21T06:48:34Z</time>
      </trkpt>
      <trkpt lat="48.20591" lon="7.35855">
        <ele>210.8</ele>
        <time>2021-06-21T06:48:37Z</time>
      </trkpt>
      <trkpt lat="48.20591" lon="7.35853">
        <ele>210.8</ele>
        <time>2021-06-21T06:48:39Z</time>
      </trkpt>
      <trkpt lat="48.20591" lon="7.35853">
        <ele>210.8</ele>
        <time>2021-06-21T06:48:40Z</time>
      </trkpt>
      <trkpt lat="48.2059" lon="7.35837">
        <ele>211.2</ele>
        <time>2021-06-21T06:48:52Z</time>
      </trkpt>
      <trkpt lat="48.2059" lon="7.35826">
        <ele>211.2</ele>
        <time>2021-06-21T06:48:54Z</time>
      </trkpt>
      <trkpt lat="48.20591" lon="7.35804">
        <ele>211.6</ele>
        <time>2021-06-21T06:48:58Z</time>
      </trkpt>
      <trkpt lat="48.20591" lon="7.35802">
        <ele>211.8</ele>
        <time>2021-06-21T06:48:59Z</time>
      </trkpt>
      <trkpt lat="48.20592" lon="7.358">
        <ele>212.2</ele>
        <time>2021-06-21T06:49:02Z</time>
      </trkpt>
      <trkpt lat="48.20595" lon="7.35793">
        <ele>212</ele>
        <time>2021-06-21T06:49:32Z</time>
      </trkpt>
      <trkpt lat="48.20606" lon="7.35786">
        <ele>212</ele>
        <time>2021-06-21T06:49:37Z</time>
      </trkpt>
      <trkpt lat="48.20622" lon="7.35784">
        <ele>212.2</ele>
        <time>2021-06-21T06:49:41Z</time>
      </trkpt>
      <trkpt lat="48.20637" lon="7.35779">
        <ele>212.4</ele>
        <time>2021-06-21T06:49:44Z</time>
      </trkpt>
      <trkpt lat="48.20653" lon="7.35775">
        <ele>212.4</ele>
        <time>2021-06-21T06:49:47Z</time>
      </trkpt>
      <trkpt lat="48.20669" lon="7.35774">
        <ele>213</ele>
        <time>2021-06-21T06:49:50Z</time>
      </trkpt>
      <trkpt lat="48.20674" lon="7.35775">
        <ele>213</ele>
        <time>2021-06-21T06:49:51Z</time>
      </trkpt>
      <trkpt lat="48.20684" lon="7.35778">
        <ele>213.4</ele>
        <time>2021-06-21T06:49:53Z</time>
      </trkpt>
      <trkpt lat="48.20693" lon="7.35785">
        <ele>214</ele>
        <time>2021-06-21T06:49:55Z</time>
      </trkpt>
      <trkpt lat="48.207" lon="7.35794">
        <ele>214.4</ele>
        <time>2021-06-21T06:49:57Z</time>
      </trkpt>
      <trkpt lat="48.20711" lon="7.3581">
        <ele>214.8</ele>
        <time>2021-06-21T06:50:00Z</time>
      </trkpt>
      <trkpt lat="48.20714" lon="7.35816">
        <ele>215</ele>
        <time>2021-06-21T06:50:01Z</time>
      </trkpt>
      <trkpt lat="48.20719" lon="7.35829">
        <ele>215.4</ele>
        <time>2021-06-21T06:50:03Z</time>
      </trkpt>
      <trkpt lat="48.20725" lon="7.35851">
        <ele>215.8</ele>
        <time>2021-06-21T06:50:06Z</time>
      </trkpt>
      <trkpt lat="48.20727" lon="7.35877">
        <ele>216</ele>
        <time>2021-06-21T06:50:09Z</time>
      </trkpt>
      <trkpt lat="48.20726" lon="7.35922">
        <ele>215.8</ele>
        <time>2021-06-21T06:50:14Z</time>
      </trkpt>
      <trkpt lat="48.20724" lon="7.35984">
        <ele>215.6</ele>
        <time>2021-06-21T06:50:21Z</time>
      </trkpt>
      <trkpt lat="48.20727" lon="7.36001">
        <ele>215.6</ele>
        <time>2021-06-21T06:50:23Z</time>
      </trkpt>
      <trkpt lat="48.20731" lon="7.36017">
        <ele>215.6</ele>
        <time>2021-06-21T06:50:25Z</time>
      </trkpt>
      <trkpt lat="48.20734" lon="7.36024">
        <ele>216</ele>
        <time>2021-06-21T06:50:26Z</time>
      </trkpt>
      <trkpt lat="48.2074" lon="7.36037">
        <ele>216.2</ele>
        <time>2021-06-21T06:50:28Z</time>
      </trkpt>
      <trkpt lat="48.20749" lon="7.36048">
        <ele>216.2</ele>
        <time>2021-06-21T06:50:30Z</time>
      </trkpt>
      <trkpt lat="48.20771" lon="7.36066">
        <ele>217</ele>
        <time>2021-06-21T06:50:35Z</time>
      </trkpt>
      <trkpt lat="48.20775" lon="7.36068">
        <ele>217.2</ele>
        <time>2021-06-21T06:50:36Z</time>
      </trkpt>
      <trkpt lat="48.20779" lon="7.3607">
        <ele>217.4</ele>
        <time>2021-06-21T06:50:37Z</time>
      </trkpt>
      <trkpt lat="48.208" lon="7.36081">
        <ele>218.4</ele>
        <time>2021-06-21T06:50:42Z</time>
      </trkpt>
      <trkpt lat="48.20804" lon="7.36083">
        <ele>219</ele>
        <time>2021-06-21T06:50:43Z</time>
      </trkpt>
      <trkpt lat="48.20815" lon="7.36089">
        <ele>219.6</ele>
        <time>2021-06-21T06:50:46Z</time>
      </trkpt>
      <trkpt lat="48.20831" lon="7.36096">
        <ele>220.4</ele>
        <time>2021-06-21T06:50:50Z</time>
      </trkpt>
      <trkpt lat="48.20834" lon="7.36097">
        <ele>220.6</ele>
        <time>2021-06-21T06:50:51Z</time>
      </trkpt>
      <trkpt lat="48.20846" lon="7.36103">
        <ele>221.8</ele>
        <time>2021-06-21T06:50:55Z</time>
      </trkpt>
      <trkpt lat="48.20849" lon="7.36105">
        <ele>222</ele>
        <time>2021-06-21T06:50:56Z</time>
      </trkpt>
      <trkpt lat="48.20868" lon="7.36112">
        <ele>222.4</ele>
        <time>2021-06-21T06:51:01Z</time>
      </trkpt>
      <trkpt lat="48.20871" lon="7.36114">
        <ele>222.8</ele>
        <time>2021-06-21T06:51:02Z</time>
      </trkpt>
      <trkpt lat="48.2089" lon="7.36122">
        <ele>223.8</ele>
        <time>2021-06-21T06:51:07Z</time>
      </trkpt>
      <trkpt lat="48.20898" lon="7.36125">
        <ele>224.4</ele>
        <time>2021-06-21T06:51:09Z</time>
      </trkpt>
      <trkpt lat="48.20909" lon="7.36129">
        <ele>225</ele>
        <time>2021-06-21T06:51:12Z</time>
      </trkpt>
      <trkpt lat="48.20926" lon="7.36133">
        <ele>226</ele>
        <time>2021-06-21T06:51:16Z</time>
      </trkpt>
      <trkpt lat="48.2093" lon="7.36133">
        <ele>226.2</ele>
        <time>2021-06-21T06:51:17Z</time>
      </trkpt>
      <trkpt lat="48.20942" lon="7.36136">
        <ele>227</ele>
        <time>2021-06-21T06:51:20Z</time>
      </trkpt>
      <trkpt lat="48.20954" lon="7.36141">
        <ele>227.4</ele>
        <time>2021-06-21T06:51:23Z</time>
      </trkpt>
      <trkpt lat="48.20958" lon="7.36142">
        <ele>227.8</ele>
        <time>2021-06-21T06:51:24Z</time>
      </trkpt>
      <trkpt lat="48.20971" lon="7.36146">
        <ele>228.4</ele>
        <time>2021-06-21T06:51:27Z</time>
      </trkpt>
      <trkpt lat="48.20987" lon="7.36155">
        <ele>229.2</ele>
        <time>2021-06-21T06:51:31Z</time>
      </trkpt>
      <trkpt lat="48.20996" lon="7.36159">
        <ele>229.8</ele>
        <time>2021-06-21T06:51:33Z</time>
      </trkpt>
      <trkpt lat="48.21008" lon="7.36166">
        <ele>230.4</ele>
        <time>2021-06-21T06:51:36Z</time>
      </trkpt>
      <trkpt lat="48.21017" lon="7.36171">
        <ele>230.8</ele>
        <time>2021-06-21T06:51:38Z</time>
      </trkpt>
      <trkpt lat="48.21021" lon="7.36174">
        <ele>231</ele>
        <time>2021-06-21T06:51:39Z</time>
      </trkpt>
      <trkpt lat="48.21046" lon="7.36193">
        <ele>232</ele>
        <time>2021-06-21T06:51:45Z</time>
      </trkpt>
      <trkpt lat="48.2105" lon="7.36196">
        <ele>232</ele>
        <time>2021-06-21T06:51:46Z</time>
      </trkpt>
      <trkpt lat="48.21066" lon="7.36208">
        <ele>232.6</ele>
        <time>2021-06-21T06:51:50Z</time>
      </trkpt>
      <trkpt lat="48.21083" lon="7.36221">
        <ele>233.2</ele>
        <time>2021-06-21T06:51:54Z</time>
      </trkpt>
      <trkpt lat="48.21105" lon="7.36235">
        <ele>233.6</ele>
        <time>2021-06-21T06:51:59Z</time>
      </trkpt>
      <trkpt lat="48.21118" lon="7.36242">
        <ele>234.4</ele>
        <time>2021-06-21T06:52:02Z</time>
      </trkpt>
      <trkpt lat="48.2115" lon="7.36256">
        <ele>235.4</ele>
        <time>2021-06-21T06:52:09Z</time>
      </trkpt>
      <trkpt lat="48.21159" lon="7.3626">
        <ele>235.6</ele>
        <time>2021-06-21T06:52:11Z</time>
      </trkpt>
      <trkpt lat="48.21185" lon="7.36272">
        <ele>236.4</ele>
        <time>2021-06-21T06:52:17Z</time>
      </trkpt>
      <trkpt lat="48.21194" lon="7.36276">
        <ele>236.8</ele>
        <time>2021-06-21T06:52:19Z</time>
      </trkpt>
      <trkpt lat="48.21212" lon="7.36284">
        <ele>237.4</ele>
        <time>2021-06-21T06:52:23Z</time>
      </trkpt>
      <trkpt lat="48.2124" lon="7.36298">
        <ele>238.2</ele>
        <time>2021-06-21T06:52:29Z</time>
      </trkpt>
      <trkpt lat="48.21248" lon="7.36303">
        <ele>238.4</ele>
        <time>2021-06-21T06:52:31Z</time>
      </trkpt>
      <trkpt lat="48.21271" lon="7.36314">
        <ele>239.6</ele>
        <time>2021-06-21T06:52:36Z</time>
      </trkpt>
      <trkpt lat="48.2128" lon="7.36318">
        <ele>239.8</ele>
        <time>2021-06-21T06:52:38Z</time>
      </trkpt>
      <trkpt lat="48.21305" lon="7.36327">
        <ele>240.6</ele>
        <time>2021-06-21T06:52:43Z</time>
      </trkpt>
      <trkpt lat="48.2131" lon="7.36328">
        <ele>240.6</ele>
        <time>2021-06-21T06:52:44Z</time>
      </trkpt>
      <trkpt lat="48.21343" lon="7.36333">
        <ele>240.6</ele>
        <time>2021-06-21T06:52:50Z</time>
      </trkpt>
      <trkpt lat="48.21378" lon="7.36333">
        <ele>240.6</ele>
        <time>2021-06-21T06:52:57Z</time>
      </trkpt>
      <trkpt lat="48.21411" lon="7.36328">
        <ele>240.4</ele>
        <time>2021-06-21T06:53:03Z</time>
      </trkpt>
      <trkpt lat="48.21442" lon="7.36322">
        <ele>239.4</ele>
        <time>2021-06-21T06:53:08Z</time>
      </trkpt>
      <trkpt lat="48.21462" lon="7.36318">
        <ele>239</ele>
        <time>2021-06-21T06:53:11Z</time>
      </trkpt>
      <trkpt lat="48.2149" lon="7.36313">
        <ele>238.2</ele>
        <time>2021-06-21T06:53:15Z</time>
      </trkpt>
      <trkpt lat="48.21511" lon="7.36308">
        <ele>237.6</ele>
        <time>2021-06-21T06:53:18Z</time>
      </trkpt>
      <trkpt lat="48.21519" lon="7.36305">
        <ele>237.2</ele>
        <time>2021-06-21T06:53:19Z</time>
      </trkpt>
      <trkpt lat="48.21533" lon="7.36299">
        <ele>237</ele>
        <time>2021-06-21T06:53:21Z</time>
      </trkpt>
      <trkpt lat="48.21555" lon="7.36288">
        <ele>236.2</ele>
        <time>2021-06-21T06:53:24Z</time>
      </trkpt>
      <trkpt lat="48.21562" lon="7.36284">
        <ele>236</ele>
        <time>2021-06-21T06:53:25Z</time>
      </trkpt>
      <trkpt lat="48.21585" lon="7.36271">
        <ele>235.2</ele>
        <time>2021-06-21T06:53:28Z</time>
      </trkpt>
      <trkpt lat="48.21614" lon="7.36252">
        <ele>234.2</ele>
        <time>2021-06-21T06:53:32Z</time>
      </trkpt>
      <trkpt lat="48.21622" lon="7.36248">
        <ele>233.8</ele>
        <time>2021-06-21T06:53:33Z</time>
      </trkpt>
      <trkpt lat="48.21644" lon="7.36237">
        <ele>233.2</ele>
        <time>2021-06-21T06:53:36Z</time>
      </trkpt>
      <trkpt lat="48.21652" lon="7.36237">
        <ele>233.2</ele>
        <time>2021-06-21T06:53:37Z</time>
      </trkpt>
      <trkpt lat="48.21675" lon="7.36242">
        <ele>232.8</ele>
        <time>2021-06-21T06:53:40Z</time>
      </trkpt>
      <trkpt lat="48.21691" lon="7.36246">
        <ele>232.6</ele>
        <time>2021-06-21T06:53:42Z</time>
      </trkpt>
      <trkpt lat="48.21721" lon="7.36256">
        <ele>231.2</ele>
        <time>2021-06-21T06:53:46Z</time>
      </trkpt>
      <trkpt lat="48.21741" lon="7.36262">
        <ele>230.8</ele>
        <time>2021-06-21T06:53:49Z</time>
      </trkpt>
      <trkpt lat="48.21762" lon="7.36263">
        <ele>231.2</ele>
        <time>2021-06-21T06:53:53Z</time>
      </trkpt>
      <trkpt lat="48.21767" lon="7.36262">
        <ele>231.2</ele>
        <time>2021-06-21T06:53:54Z</time>
      </trkpt>
      <trkpt lat="48.21791" lon="7.36256">
        <ele>232.2</ele>
        <time>2021-06-21T06:53:59Z</time>
      </trkpt>
      <trkpt lat="48.21799" lon="7.36254">
        <ele>233.4</ele>
        <time>2021-06-21T06:54:01Z</time>
      </trkpt>
      <trkpt lat="48.21808" lon="7.36251">
        <ele>234.6</ele>
        <time>2021-06-21T06:54:03Z</time>
      </trkpt>
      <trkpt lat="48.2182" lon="7.36248">
        <ele>235</ele>
        <time>2021-06-21T06:54:06Z</time>
      </trkpt>
      <trkpt lat="48.21828" lon="7.36246">
        <ele>235.4</ele>
        <time>2021-06-21T06:54:08Z</time>
      </trkpt>
      <trkpt lat="48.21832" lon="7.36247">
        <ele>235.8</ele>
        <time>2021-06-21T06:54:09Z</time>
      </trkpt>
      <trkpt lat="48.21836" lon="7.36248">
        <ele>236</ele>
        <time>2021-06-21T06:54:10Z</time>
      </trkpt>
      <trkpt lat="48.21844" lon="7.3625">
        <ele>236.8</ele>
        <time>2021-06-21T06:54:12Z</time>
      </trkpt>
      <trkpt lat="48.21849" lon="7.36252">
        <ele>236.8</ele>
        <time>2021-06-21T06:54:13Z</time>
      </trkpt>
      <trkpt lat="48.21853" lon="7.36253">
        <ele>237</ele>
        <time>2021-06-21T06:54:14Z</time>
      </trkpt>
      <trkpt lat="48.21857" lon="7.36255">
        <ele>237</ele>
        <time>2021-06-21T06:54:15Z</time>
      </trkpt>
      <trkpt lat="48.21865" lon="7.36259">
        <ele>237.6</ele>
        <time>2021-06-21T06:54:17Z</time>
      </trkpt>
      <trkpt lat="48.21869" lon="7.36263">
        <ele>238</ele>
        <time>2021-06-21T06:54:18Z</time>
      </trkpt>
      <trkpt lat="48.21881" lon="7.36271">
        <ele>238.6</ele>
        <time>2021-06-21T06:54:21Z</time>
      </trkpt>
      <trkpt lat="48.2189" lon="7.36277">
        <ele>239.2</ele>
        <time>2021-06-21T06:54:23Z</time>
      </trkpt>
      <trkpt lat="48.21907" lon="7.36291">
        <ele>239.6</ele>
        <time>2021-06-21T06:54:27Z</time>
      </trkpt>
      <trkpt lat="48.21934" lon="7.36313">
        <ele>240.2</ele>
        <time>2021-06-21T06:54:33Z</time>
      </trkpt>
      <trkpt lat="48.21949" lon="7.36323">
        <ele>240.4</ele>
        <time>2021-06-21T06:54:36Z</time>
      </trkpt>
      <trkpt lat="48.21983" lon="7.36343">
        <ele>240.6</ele>
        <time>2021-06-21T06:54:43Z</time>
      </trkpt>
      <trkpt lat="48.22005" lon="7.36352">
        <ele>240.6</ele>
        <time>2021-06-21T06:54:47Z</time>
      </trkpt>
      <trkpt lat="48.2201" lon="7.36354">
        <ele>240.4</ele>
        <time>2021-06-21T06:54:48Z</time>
      </trkpt>
      <trkpt lat="48.22047" lon="7.36366">
        <ele>240.2</ele>
        <time>2021-06-21T06:54:55Z</time>
      </trkpt>
      <trkpt lat="48.2209" lon="7.36369">
        <ele>239.6</ele>
        <time>2021-06-21T06:55:02Z</time>
      </trkpt>
      <trkpt lat="48.22143" lon="7.36359">
        <ele>239.2</ele>
        <time>2021-06-21T06:55:10Z</time>
      </trkpt>
      <trkpt lat="48.22157" lon="7.36354">
        <ele>239.2</ele>
        <time>2021-06-21T06:55:12Z</time>
      </trkpt>
      <trkpt lat="48.22187" lon="7.36342">
        <ele>238.2</ele>
        <time>2021-06-21T06:55:16Z</time>
      </trkpt>
      <trkpt lat="48.22195" lon="7.3634">
        <ele>238</ele>
        <time>2021-06-21T06:55:17Z</time>
      </trkpt>
      <trkpt lat="48.22211" lon="7.36335">
        <ele>237.2</ele>
        <time>2021-06-21T06:55:19Z</time>
      </trkpt>
      <trkpt lat="48.22219" lon="7.3633">
        <ele>236.8</ele>
        <time>2021-06-21T06:55:20Z</time>
      </trkpt>
      <trkpt lat="48.22227" lon="7.36327">
        <ele>236.6</ele>
        <time>2021-06-21T06:55:21Z</time>
      </trkpt>
      <trkpt lat="48.22245" lon="7.36323">
        <ele>235.8</ele>
        <time>2021-06-21T06:55:23Z</time>
      </trkpt>
      <trkpt lat="48.22263" lon="7.36322">
        <ele>234.8</ele>
        <time>2021-06-21T06:55:25Z</time>
      </trkpt>
      <trkpt lat="48.22273" lon="7.36321">
        <ele>234.4</ele>
        <time>2021-06-21T06:55:26Z</time>
      </trkpt>
      <trkpt lat="48.22302" lon="7.36318">
        <ele>233</ele>
        <time>2021-06-21T06:55:29Z</time>
      </trkpt>
      <trkpt lat="48.22312" lon="7.36318">
        <ele>233</ele>
        <time>2021-06-21T06:55:30Z</time>
      </trkpt>
      <trkpt lat="48.22342" lon="7.36317">
        <ele>231.6</ele>
        <time>2021-06-21T06:55:33Z</time>
      </trkpt>
      <trkpt lat="48.22362" lon="7.36315">
        <ele>230.2</ele>
        <time>2021-06-21T06:55:35Z</time>
      </trkpt>
      <trkpt lat="48.22382" lon="7.36311">
        <ele>228.8</ele>
        <time>2021-06-21T06:55:37Z</time>
      </trkpt>
      <trkpt lat="48.22411" lon="7.36301">
        <ele>227.6</ele>
        <time>2021-06-21T06:55:40Z</time>
      </trkpt>
      <trkpt lat="48.22449" lon="7.36286">
        <ele>226.4</ele>
        <time>2021-06-21T06:55:44Z</time>
      </trkpt>
      <trkpt lat="48.22496" lon="7.36268">
        <ele>225</ele>
        <time>2021-06-21T06:55:49Z</time>
      </trkpt>
      <trkpt lat="48.22523" lon="7.36259">
        <ele>224.6</ele>
        <time>2021-06-21T06:55:52Z</time>
      </trkpt>
      <trkpt lat="48.22532" lon="7.36258">
        <ele>224.2</ele>
        <time>2021-06-21T06:55:53Z</time>
      </trkpt>
      <trkpt lat="48.22549" lon="7.36257">
        <ele>223.8</ele>
        <time>2021-06-21T06:55:55Z</time>
      </trkpt>
      <trkpt lat="48.22565" lon="7.3625">
        <ele>223.2</ele>
        <time>2021-06-21T06:55:57Z</time>
      </trkpt>
      <trkpt lat="48.22573" lon="7.36248">
        <ele>222.6</ele>
        <time>2021-06-21T06:55:58Z</time>
      </trkpt>
      <trkpt lat="48.22595" lon="7.36248">
        <ele>222</ele>
        <time>2021-06-21T06:56:01Z</time>
      </trkpt>
      <trkpt lat="48.22609" lon="7.36251">
        <ele>221.6</ele>
        <time>2021-06-21T06:56:03Z</time>
      </trkpt>
      <trkpt lat="48.22628" lon="7.3626">
        <ele>221.6</ele>
        <time>2021-06-21T06:56:06Z</time>
      </trkpt>
      <trkpt lat="48.22634" lon="7.36264">
        <ele>221.6</ele>
        <time>2021-06-21T06:56:07Z</time>
      </trkpt>
      <trkpt lat="48.22665" lon="7.36288">
        <ele>222.4</ele>
        <time>2021-06-21T06:56:13Z</time>
      </trkpt>
      <trkpt lat="48.22668" lon="7.36293">
        <ele>222.8</ele>
        <time>2021-06-21T06:56:14Z</time>
      </trkpt>
      <trkpt lat="48.22672" lon="7.36297">
        <ele>223</ele>
        <time>2021-06-21T06:56:15Z</time>
      </trkpt>
      <trkpt lat="48.22679" lon="7.36306">
        <ele>223.8</ele>
        <time>2021-06-21T06:56:17Z</time>
      </trkpt>
      <trkpt lat="48.22686" lon="7.36314">
        <ele>224.4</ele>
        <time>2021-06-21T06:56:19Z</time>
      </trkpt>
      <trkpt lat="48.22692" lon="7.36322">
        <ele>225.4</ele>
        <time>2021-06-21T06:56:21Z</time>
      </trkpt>
      <trkpt lat="48.22704" lon="7.3634">
        <ele>226.6</ele>
        <time>2021-06-21T06:56:25Z</time>
      </trkpt>
      <trkpt lat="48.22713" lon="7.36352">
        <ele>227.2</ele>
        <time>2021-06-21T06:56:28Z</time>
      </trkpt>
      <trkpt lat="48.22719" lon="7.36361">
        <ele>228</ele>
        <time>2021-06-21T06:56:30Z</time>
      </trkpt>
      <trkpt lat="48.22725" lon="7.36369">
        <ele>228.4</ele>
        <time>2021-06-21T06:56:32Z</time>
      </trkpt>
      <trkpt lat="48.22737" lon="7.36386">
        <ele>229.2</ele>
        <time>2021-06-21T06:56:36Z</time>
      </trkpt>
      <trkpt lat="48.22742" lon="7.36393">
        <ele>229.6</ele>
        <time>2021-06-21T06:56:38Z</time>
      </trkpt>
      <trkpt lat="48.22748" lon="7.36401">
        <ele>230.2</ele>
        <time>2021-06-21T06:56:40Z</time>
      </trkpt>
      <trkpt lat="48.22754" lon="7.36408">
        <ele>230.6</ele>
        <time>2021-06-21T06:56:42Z</time>
      </trkpt>
      <trkpt lat="48.2276" lon="7.36416">
        <ele>231.2</ele>
        <time>2021-06-21T06:56:44Z</time>
      </trkpt>
      <trkpt lat="48.22774" lon="7.36433">
        <ele>232.4</ele>
        <time>2021-06-21T06:56:49Z</time>
      </trkpt>
      <trkpt lat="48.22783" lon="7.36443">
        <ele>233</ele>
        <time>2021-06-21T06:56:52Z</time>
      </trkpt>
      <trkpt lat="48.22786" lon="7.36446">
        <ele>233.2</ele>
        <time>2021-06-21T06:56:53Z</time>
      </trkpt>
      <trkpt lat="48.22804" lon="7.36463">
        <ele>234.2</ele>
        <time>2021-06-21T06:56:59Z</time>
      </trkpt>
      <trkpt lat="48.2282" lon="7.36477">
        <ele>235.6</ele>
        <time>2021-06-21T06:57:04Z</time>
      </trkpt>
      <trkpt lat="48.22827" lon="7.36483">
        <ele>236.2</ele>
        <time>2021-06-21T06:57:06Z</time>
      </trkpt>
      <trkpt lat="48.22841" lon="7.36492">
        <ele>236.8</ele>
        <time>2021-06-21T06:57:10Z</time>
      </trkpt>
      <trkpt lat="48.22858" lon="7.365">
        <ele>237.8</ele>
        <time>2021-06-21T06:57:15Z</time>
      </trkpt>
      <trkpt lat="48.22893" lon="7.36511">
        <ele>239</ele>
        <time>2021-06-21T06:57:24Z</time>
      </trkpt>
      <trkpt lat="48.2293" lon="7.36516">
        <ele>240</ele>
        <time>2021-06-21T06:57:34Z</time>
      </trkpt>
      <trkpt lat="48.22935" lon="7.36517">
        <ele>240</ele>
        <time>2021-06-21T06:57:35Z</time>
      </trkpt>
      <trkpt lat="48.22952" lon="7.36521">
        <ele>240.2</ele>
        <time>2021-06-21T06:57:39Z</time>
      </trkpt>
      <trkpt lat="48.22961" lon="7.36522">
        <ele>240.4</ele>
        <time>2021-06-21T06:57:41Z</time>
      </trkpt>
      <trkpt lat="48.22989" lon="7.36529">
        <ele>241</ele>
        <time>2021-06-21T06:57:47Z</time>
      </trkpt>
      <trkpt lat="48.22993" lon="7.3653">
        <ele>241</ele>
        <time>2021-06-21T06:57:48Z</time>
      </trkpt>
      <trkpt lat="48.22998" lon="7.36532">
        <ele>241</ele>
        <time>2021-06-21T06:57:49Z</time>
      </trkpt>
      <trkpt lat="48.2302" lon="7.3654">
        <ele>241.6</ele>
        <time>2021-06-21T06:57:54Z</time>
      </trkpt>
      <trkpt lat="48.23047" lon="7.36554">
        <ele>242</ele>
        <time>2021-06-21T06:58:00Z</time>
      </trkpt>
      <trkpt lat="48.23061" lon="7.3656">
        <ele>242.2</ele>
        <time>2021-06-21T06:58:03Z</time>
      </trkpt>
      <trkpt lat="48.23092" lon="7.3658">
        <ele>242.8</ele>
        <time>2021-06-21T06:58:10Z</time>
      </trkpt>
      <trkpt lat="48.23096" lon="7.36584">
        <ele>243</ele>
        <time>2021-06-21T06:58:11Z</time>
      </trkpt>
      <trkpt lat="48.231" lon="7.36586">
        <ele>243.4</ele>
        <time>2021-06-21T06:58:12Z</time>
      </trkpt>
      <trkpt lat="48.23118" lon="7.36598">
        <ele>244</ele>
        <time>2021-06-21T06:58:16Z</time>
      </trkpt>
      <trkpt lat="48.23127" lon="7.36604">
        <ele>244.2</ele>
        <time>2021-06-21T06:58:18Z</time>
      </trkpt>
      <trkpt lat="48.23135" lon="7.3661">
        <ele>244.4</ele>
        <time>2021-06-21T06:58:20Z</time>
      </trkpt>
      <trkpt lat="48.23157" lon="7.36628">
        <ele>244.8</ele>
        <time>2021-06-21T06:58:25Z</time>
      </trkpt>
      <trkpt lat="48.23165" lon="7.36637">
        <ele>244.8</ele>
        <time>2021-06-21T06:58:27Z</time>
      </trkpt>
      <trkpt lat="48.23196" lon="7.36672">
        <ele>245.4</ele>
        <time>2021-06-21T06:58:35Z</time>
      </trkpt>
      <trkpt lat="48.23211" lon="7.36691">
        <ele>245.6</ele>
        <time>2021-06-21T06:58:39Z</time>
      </trkpt>
      <trkpt lat="48.23234" lon="7.3672">
        <ele>245.8</ele>
        <time>2021-06-21T06:58:45Z</time>
      </trkpt>
      <trkpt lat="48.23241" lon="7.36731">
        <ele>246</ele>
        <time>2021-06-21T06:58:47Z</time>
      </trkpt>
      <trkpt lat="48.23275" lon="7.36759">
        <ele>245.6</ele>
        <time>2021-06-21T06:58:55Z</time>
      </trkpt>
      <trkpt lat="48.23312" lon="7.36791">
        <ele>244.8</ele>
        <time>2021-06-21T06:59:03Z</time>
      </trkpt>
      <trkpt lat="48.23317" lon="7.36796">
        <ele>244.6</ele>
        <time>2021-06-21T06:59:04Z</time>
      </trkpt>
      <trkpt lat="48.23324" lon="7.3681">
        <ele>244.2</ele>
        <time>2021-06-21T06:59:06Z</time>
      </trkpt>
      <trkpt lat="48.23326" lon="7.36815">
        <ele>244.2</ele>
        <time>2021-06-21T06:59:07Z</time>
      </trkpt>
      <trkpt lat="48.23324" lon="7.3683">
        <ele>243.6</ele>
        <time>2021-06-21T06:59:10Z</time>
      </trkpt>
      <trkpt lat="48.23322" lon="7.36835">
        <ele>243.2</ele>
        <time>2021-06-21T06:59:11Z</time>
      </trkpt>
      <trkpt lat="48.2332" lon="7.36841">
        <ele>243.2</ele>
        <time>2021-06-21T06:59:12Z</time>
      </trkpt>
      <trkpt lat="48.23314" lon="7.36853">
        <ele>242.6</ele>
        <time>2021-06-21T06:59:14Z</time>
      </trkpt>
      <trkpt lat="48.23311" lon="7.36859">
        <ele>242.2</ele>
        <time>2021-06-21T06:59:15Z</time>
      </trkpt>
      <trkpt lat="48.23295" lon="7.36888">
        <ele>241.2</ele>
        <time>2021-06-21T06:59:19Z</time>
      </trkpt>
      <trkpt lat="48.23291" lon="7.36896">
        <ele>241</ele>
        <time>2021-06-21T06:59:20Z</time>
      </trkpt>
      <trkpt lat="48.2328" lon="7.36916">
        <ele>240</ele>
        <time>2021-06-21T06:59:23Z</time>
      </trkpt>
      <trkpt lat="48.23275" lon="7.36922">
        <ele>239.6</ele>
        <time>2021-06-21T06:59:24Z</time>
      </trkpt>
      <trkpt lat="48.2327" lon="7.36929">
        <ele>239.4</ele>
        <time>2021-06-21T06:59:25Z</time>
      </trkpt>
      <trkpt lat="48.23264" lon="7.36935">
        <ele>238.6</ele>
        <time>2021-06-21T06:59:26Z</time>
      </trkpt>
      <trkpt lat="48.23259" lon="7.36942">
        <ele>238.4</ele>
        <time>2021-06-21T06:59:27Z</time>
      </trkpt>
      <trkpt lat="48.23246" lon="7.36954">
        <ele>237.2</ele>
        <time>2021-06-21T06:59:29Z</time>
      </trkpt>
      <trkpt lat="48.23224" lon="7.36981">
        <ele>236</ele>
        <time>2021-06-21T06:59:33Z</time>
      </trkpt>
      <trkpt lat="48.23219" lon="7.36988">
        <ele>235.8</ele>
        <time>2021-06-21T06:59:34Z</time>
      </trkpt>
      <trkpt lat="48.23215" lon="7.36996">
        <ele>235.2</ele>
        <time>2021-06-21T06:59:35Z</time>
      </trkpt>
      <trkpt lat="48.23211" lon="7.37005">
        <ele>234.6</ele>
        <time>2021-06-21T06:59:36Z</time>
      </trkpt>
      <trkpt lat="48.23198" lon="7.3703">
        <ele>233.6</ele>
        <time>2021-06-21T06:59:39Z</time>
      </trkpt>
      <trkpt lat="48.23181" lon="7.37064">
        <ele>232.6</ele>
        <time>2021-06-21T06:59:43Z</time>
      </trkpt>
      <trkpt lat="48.23177" lon="7.37071">
        <ele>232.4</ele>
        <time>2021-06-21T06:59:44Z</time>
      </trkpt>
      <trkpt lat="48.23156" lon="7.37109">
        <ele>231.2</ele>
        <time>2021-06-21T06:59:49Z</time>
      </trkpt>
      <trkpt lat="48.23129" lon="7.37163">
        <ele>230</ele>
        <time>2021-06-21T06:59:56Z</time>
      </trkpt>
      <trkpt lat="48.23101" lon="7.37223">
        <ele>229.2</ele>
        <time>2021-06-21T07:00:04Z</time>
      </trkpt>
      <trkpt lat="48.23073" lon="7.37281">
        <ele>229</ele>
        <time>2021-06-21T07:00:12Z</time>
      </trkpt>
      <trkpt lat="48.23063" lon="7.37303">
        <ele>228.8</ele>
        <time>2021-06-21T07:00:15Z</time>
      </trkpt>
      <trkpt lat="48.23046" lon="7.37341">
        <ele>228.2</ele>
        <time>2021-06-21T07:00:20Z</time>
      </trkpt>
      <trkpt lat="48.23029" lon="7.37377">
        <ele>228</ele>
        <time>2021-06-21T07:00:25Z</time>
      </trkpt>
      <trkpt lat="48.23018" lon="7.374">
        <ele>227.8</ele>
        <time>2021-06-21T07:00:28Z</time>
      </trkpt>
      <trkpt lat="48.23003" lon="7.37432">
        <ele>227</ele>
        <time>2021-06-21T07:00:32Z</time>
      </trkpt>
      <trkpt lat="48.22988" lon="7.37463">
        <ele>226.4</ele>
        <time>2021-06-21T07:00:36Z</time>
      </trkpt>
      <trkpt lat="48.22977" lon="7.37488">
        <ele>225.4</ele>
        <time>2021-06-21T07:00:39Z</time>
      </trkpt>
      <trkpt lat="48.22974" lon="7.37496">
        <ele>225.4</ele>
        <time>2021-06-21T07:00:40Z</time>
      </trkpt>
      <trkpt lat="48.22965" lon="7.37512">
        <ele>225</ele>
        <time>2021-06-21T07:00:42Z</time>
      </trkpt>
      <trkpt lat="48.22957" lon="7.37529">
        <ele>224.6</ele>
        <time>2021-06-21T07:00:44Z</time>
      </trkpt>
      <trkpt lat="48.22953" lon="7.37538">
        <ele>224.2</ele>
        <time>2021-06-21T07:00:45Z</time>
      </trkpt>
      <trkpt lat="48.22937" lon="7.37573">
        <ele>223.6</ele>
        <time>2021-06-21T07:00:49Z</time>
      </trkpt>
      <trkpt lat="48.22934" lon="7.37581">
        <ele>223.6</ele>
        <time>2021-06-21T07:00:50Z</time>
      </trkpt>
      <trkpt lat="48.2293" lon="7.3759">
        <ele>223.4</ele>
        <time>2021-06-21T07:00:51Z</time>
      </trkpt>
      <trkpt lat="48.22926" lon="7.3761">
        <ele>223.2</ele>
        <time>2021-06-21T07:00:53Z</time>
      </trkpt>
      <trkpt lat="48.22926" lon="7.3762">
        <ele>223</ele>
        <time>2021-06-21T07:00:54Z</time>
      </trkpt>
      <trkpt lat="48.22927" lon="7.3763">
        <ele>222.6</ele>
        <time>2021-06-21T07:00:55Z</time>
      </trkpt>
      <trkpt lat="48.22934" lon="7.37648">
        <ele>222</ele>
        <time>2021-06-21T07:00:57Z</time>
      </trkpt>
      <trkpt lat="48.22938" lon="7.37656">
        <ele>221.6</ele>
        <time>2021-06-21T07:00:58Z</time>
      </trkpt>
      <trkpt lat="48.22943" lon="7.37662">
        <ele>221.6</ele>
        <time>2021-06-21T07:00:59Z</time>
      </trkpt>
      <trkpt lat="48.22954" lon="7.37672">
        <ele>221.6</ele>
        <time>2021-06-21T07:01:01Z</time>
      </trkpt>
      <trkpt lat="48.22995" lon="7.377">
        <ele>221.6</ele>
        <time>2021-06-21T07:01:08Z</time>
      </trkpt>
      <trkpt lat="48.2303" lon="7.37724">
        <ele>221.8</ele>
        <time>2021-06-21T07:01:14Z</time>
      </trkpt>
      <trkpt lat="48.23079" lon="7.37757">
        <ele>221.4</ele>
        <time>2021-06-21T07:01:23Z</time>
      </trkpt>
      <trkpt lat="48.23084" lon="7.37762">
        <ele>221.4</ele>
        <time>2021-06-21T07:01:24Z</time>
      </trkpt>
      <trkpt lat="48.23093" lon="7.37773">
        <ele>221.2</ele>
        <time>2021-06-21T07:01:26Z</time>
      </trkpt>
      <trkpt lat="48.23101" lon="7.37788">
        <ele>220.8</ele>
        <time>2021-06-21T07:01:28Z</time>
      </trkpt>
      <trkpt lat="48.23105" lon="7.37796">
        <ele>220.8</ele>
        <time>2021-06-21T07:01:29Z</time>
      </trkpt>
      <trkpt lat="48.23108" lon="7.37806">
        <ele>220.6</ele>
        <time>2021-06-21T07:01:30Z</time>
      </trkpt>
      <trkpt lat="48.2311" lon="7.37815">
        <ele>220.6</ele>
        <time>2021-06-21T07:01:31Z</time>
      </trkpt>
      <trkpt lat="48.23116" lon="7.37844">
        <ele>220.2</ele>
        <time>2021-06-21T07:01:34Z</time>
      </trkpt>
      <trkpt lat="48.23123" lon="7.37874">
        <ele>219.8</ele>
        <time>2021-06-21T07:01:37Z</time>
      </trkpt>
      <trkpt lat="48.23129" lon="7.37894">
        <ele>219.6</ele>
        <time>2021-06-21T07:01:39Z</time>
      </trkpt>
      <trkpt lat="48.23133" lon="7.37903">
        <ele>219.4</ele>
        <time>2021-06-21T07:01:40Z</time>
      </trkpt>
      <trkpt lat="48.2316" lon="7.37966">
        <ele>218.4</ele>
        <time>2021-06-21T07:01:47Z</time>
      </trkpt>
      <trkpt lat="48.23164" lon="7.37974">
        <ele>218.4</ele>
        <time>2021-06-21T07:01:48Z</time>
      </trkpt>
      <trkpt lat="48.23195" lon="7.38028">
        <ele>217.8</ele>
        <time>2021-06-21T07:01:55Z</time>
      </trkpt>
      <trkpt lat="48.23224" lon="7.38065">
        <ele>217.6</ele>
        <time>2021-06-21T07:02:01Z</time>
      </trkpt>
      <trkpt lat="48.23235" lon="7.38077">
        <ele>217.4</ele>
        <time>2021-06-21T07:02:03Z</time>
      </trkpt>
      <trkpt lat="48.23276" lon="7.38122">
        <ele>216.8</ele>
        <time>2021-06-21T07:02:10Z</time>
      </trkpt>
      <trkpt lat="48.23283" lon="7.38129">
        <ele>216.4</ele>
        <time>2021-06-21T07:02:11Z</time>
      </trkpt>
      <trkpt lat="48.23312" lon="7.38156">
        <ele>215.4</ele>
        <time>2021-06-21T07:02:15Z</time>
      </trkpt>
      <trkpt lat="48.23321" lon="7.38162">
        <ele>214.8</ele>
        <time>2021-06-21T07:02:16Z</time>
      </trkpt>
      <trkpt lat="48.23338" lon="7.38173">
        <ele>213.6</ele>
        <time>2021-06-21T07:02:18Z</time>
      </trkpt>
      <trkpt lat="48.23357" lon="7.38181">
        <ele>212.2</ele>
        <time>2021-06-21T07:02:20Z</time>
      </trkpt>
      <trkpt lat="48.23385" lon="7.38188">
        <ele>210.6</ele>
        <time>2021-06-21T07:02:23Z</time>
      </trkpt>
      <trkpt lat="48.23413" lon="7.38194">
        <ele>209.4</ele>
        <time>2021-06-21T07:02:26Z</time>
      </trkpt>
      <trkpt lat="48.23423" lon="7.38196">
        <ele>209</ele>
        <time>2021-06-21T07:02:27Z</time>
      </trkpt>
      <trkpt lat="48.2344" lon="7.38201">
        <ele>208.2</ele>
        <time>2021-06-21T07:02:29Z</time>
      </trkpt>
      <trkpt lat="48.23467" lon="7.38216">
        <ele>207.4</ele>
        <time>2021-06-21T07:02:32Z</time>
      </trkpt>
      <trkpt lat="48.23495" lon="7.38237">
        <ele>207</ele>
        <time>2021-06-21T07:02:36Z</time>
      </trkpt>
      <trkpt lat="48.23508" lon="7.38248">
        <ele>207</ele>
        <time>2021-06-21T07:02:38Z</time>
      </trkpt>
      <trkpt lat="48.23553" lon="7.38283">
        <ele>206.6</ele>
        <time>2021-06-21T07:02:45Z</time>
      </trkpt>
      <trkpt lat="48.23602" lon="7.38319">
        <ele>206.8</ele>
        <time>2021-06-21T07:02:53Z</time>
      </trkpt>
      <trkpt lat="48.23608" lon="7.38323">
        <ele>206.8</ele>
        <time>2021-06-21T07:02:54Z</time>
      </trkpt>
      <trkpt lat="48.23658" lon="7.38353">
        <ele>207.6</ele>
        <time>2021-06-21T07:03:02Z</time>
      </trkpt>
      <trkpt lat="48.23692" lon="7.3837">
        <ele>208.2</ele>
        <time>2021-06-21T07:03:08Z</time>
      </trkpt>
      <trkpt lat="48.23715" lon="7.38382">
        <ele>208.4</ele>
        <time>2021-06-21T07:03:12Z</time>
      </trkpt>
      <trkpt lat="48.23752" lon="7.38403">
        <ele>209.2</ele>
        <time>2021-06-21T07:03:19Z</time>
      </trkpt>
      <trkpt lat="48.23759" lon="7.38407">
        <ele>209.2</ele>
        <time>2021-06-21T07:03:20Z</time>
      </trkpt>
      <trkpt lat="48.23793" lon="7.38428">
        <ele>210.2</ele>
        <time>2021-06-21T07:03:27Z</time>
      </trkpt>
      <trkpt lat="48.23803" lon="7.38433">
        <ele>210.8</ele>
        <time>2021-06-21T07:03:29Z</time>
      </trkpt>
      <trkpt lat="48.23808" lon="7.38435">
        <ele>211.2</ele>
        <time>2021-06-21T07:03:30Z</time>
      </trkpt>
      <trkpt lat="48.23834" lon="7.38448">
        <ele>212.2</ele>
        <time>2021-06-21T07:03:36Z</time>
      </trkpt>
      <trkpt lat="48.23839" lon="7.3845">
        <ele>212.4</ele>
        <time>2021-06-21T07:03:37Z</time>
      </trkpt>
      <trkpt lat="48.23855" lon="7.38456">
        <ele>213.6</ele>
        <time>2021-06-21T07:03:41Z</time>
      </trkpt>
      <trkpt lat="48.23871" lon="7.38461">
        <ele>214.4</ele>
        <time>2021-06-21T07:03:45Z</time>
      </trkpt>
      <trkpt lat="48.23875" lon="7.38463">
        <ele>214.8</ele>
        <time>2021-06-21T07:03:46Z</time>
      </trkpt>
      <trkpt lat="48.23882" lon="7.38465">
        <ele>215</ele>
        <time>2021-06-21T07:03:48Z</time>
      </trkpt>
      <trkpt lat="48.23889" lon="7.38467">
        <ele>215.6</ele>
        <time>2021-06-21T07:03:50Z</time>
      </trkpt>
      <trkpt lat="48.23892" lon="7.38468">
        <ele>216</ele>
        <time>2021-06-21T07:03:51Z</time>
      </trkpt>
      <trkpt lat="48.23907" lon="7.38471">
        <ele>217</ele>
        <time>2021-06-21T07:03:55Z</time>
      </trkpt>
      <trkpt lat="48.23918" lon="7.38474">
        <ele>217.6</ele>
        <time>2021-06-21T07:03:58Z</time>
      </trkpt>
      <trkpt lat="48.23927" lon="7.38475">
        <ele>218</ele>
        <time>2021-06-21T07:04:00Z</time>
      </trkpt>
      <trkpt lat="48.23944" lon="7.38475">
        <ele>218.6</ele>
        <time>2021-06-21T07:04:04Z</time>
      </trkpt>
      <trkpt lat="48.23948" lon="7.38475">
        <ele>218.6</ele>
        <time>2021-06-21T07:04:05Z</time>
      </trkpt>
      <trkpt lat="48.23955" lon="7.38475">
        <ele>219.2</ele>
        <time>2021-06-21T07:04:07Z</time>
      </trkpt>
      <trkpt lat="48.23972" lon="7.38476">
        <ele>220</ele>
        <time>2021-06-21T07:04:11Z</time>
      </trkpt>
      <trkpt lat="48.23976" lon="7.38476">
        <ele>220.2</ele>
        <time>2021-06-21T07:04:12Z</time>
      </trkpt>
      <trkpt lat="48.23981" lon="7.38475">
        <ele>220.4</ele>
        <time>2021-06-21T07:04:13Z</time>
      </trkpt>
      <trkpt lat="48.24004" lon="7.38476">
        <ele>221.2</ele>
        <time>2021-06-21T07:04:18Z</time>
      </trkpt>
      <trkpt lat="48.24012" lon="7.38476">
        <ele>221.4</ele>
        <time>2021-06-21T07:04:20Z</time>
      </trkpt>
      <trkpt lat="48.24017" lon="7.38476">
        <ele>221.4</ele>
        <time>2021-06-21T07:04:21Z</time>
      </trkpt>
      <trkpt lat="48.24061" lon="7.38473">
        <ele>221.8</ele>
        <time>2021-06-21T07:04:30Z</time>
      </trkpt>
      <trkpt lat="48.24101" lon="7.38467">
        <ele>221.8</ele>
        <time>2021-06-21T07:04:38Z</time>
      </trkpt>
      <trkpt lat="48.24145" lon="7.3846">
        <ele>222.4</ele>
        <time>2021-06-21T07:04:47Z</time>
      </trkpt>
      <trkpt lat="48.2415" lon="7.38459">
        <ele>222.6</ele>
        <time>2021-06-21T07:04:48Z</time>
      </trkpt>
      <trkpt lat="48.24169" lon="7.38456">
        <ele>223</ele>
        <time>2021-06-21T07:04:52Z</time>
      </trkpt>
      <trkpt lat="48.24194" lon="7.38451">
        <ele>223.4</ele>
        <time>2021-06-21T07:04:57Z</time>
      </trkpt>
      <trkpt lat="48.24199" lon="7.38451">
        <ele>223.6</ele>
        <time>2021-06-21T07:04:58Z</time>
      </trkpt>
      <trkpt lat="48.24209" lon="7.38449">
        <ele>223.8</ele>
        <time>2021-06-21T07:05:00Z</time>
      </trkpt>
      <trkpt lat="48.24228" lon="7.38444">
        <ele>224.2</ele>
        <time>2021-06-21T07:05:04Z</time>
      </trkpt>
      <trkpt lat="48.24237" lon="7.38442">
        <ele>224.4</ele>
        <time>2021-06-21T07:05:06Z</time>
      </trkpt>
      <trkpt lat="48.24242" lon="7.38441">
        <ele>224.6</ele>
        <time>2021-06-21T07:05:07Z</time>
      </trkpt>
      <trkpt lat="48.24274" lon="7.38436">
        <ele>225.4</ele>
        <time>2021-06-21T07:05:14Z</time>
      </trkpt>
      <trkpt lat="48.24278" lon="7.38436">
        <ele>225.6</ele>
        <time>2021-06-21T07:05:15Z</time>
      </trkpt>
      <trkpt lat="48.24283" lon="7.38436">
        <ele>225.6</ele>
        <time>2021-06-21T07:05:16Z</time>
      </trkpt>
      <trkpt lat="48.243" lon="7.38438">
        <ele>226</ele>
        <time>2021-06-21T07:05:20Z</time>
      </trkpt>
      <trkpt lat="48.24331" lon="7.38452">
        <ele>226</ele>
        <time>2021-06-21T07:05:26Z</time>
      </trkpt>
      <trkpt lat="48.24336" lon="7.38456">
        <ele>225.8</ele>
        <time>2021-06-21T07:05:27Z</time>
      </trkpt>
      <trkpt lat="48.24356" lon="7.38477">
        <ele>225.2</ele>
        <time>2021-06-21T07:05:31Z</time>
      </trkpt>
      <trkpt lat="48.2437" lon="7.38496">
        <ele>224.8</ele>
        <time>2021-06-21T07:05:34Z</time>
      </trkpt>
      <trkpt lat="48.24381" lon="7.38516">
        <ele>224.6</ele>
        <time>2021-06-21T07:05:37Z</time>
      </trkpt>
      <trkpt lat="48.24401" lon="7.3855">
        <ele>224.4</ele>
        <time>2021-06-21T07:05:42Z</time>
      </trkpt>
      <trkpt lat="48.24422" lon="7.38585">
        <ele>224.2</ele>
        <time>2021-06-21T07:05:47Z</time>
      </trkpt>
      <trkpt lat="48.24462" lon="7.38646">
        <ele>223.8</ele>
        <time>2021-06-21T07:05:56Z</time>
      </trkpt>
      <trkpt lat="48.24495" lon="7.38688">
        <ele>223.8</ele>
        <time>2021-06-21T07:06:03Z</time>
      </trkpt>
      <trkpt lat="48.24533" lon="7.3872">
        <ele>224</ele>
        <time>2021-06-21T07:06:10Z</time>
      </trkpt>
      <trkpt lat="48.24567" lon="7.38739">
        <ele>224.2</ele>
        <time>2021-06-21T07:06:16Z</time>
      </trkpt>
      <trkpt lat="48.24619" lon="7.3876">
        <ele>224.8</ele>
        <time>2021-06-21T07:06:25Z</time>
      </trkpt>
      <trkpt lat="48.24631" lon="7.38766">
        <ele>225</ele>
        <time>2021-06-21T07:06:27Z</time>
      </trkpt>
      <trkpt lat="48.24667" lon="7.38785">
        <ele>225.6</ele>
        <time>2021-06-21T07:06:33Z</time>
      </trkpt>
      <trkpt lat="48.24685" lon="7.38794">
        <ele>225.8</ele>
        <time>2021-06-21T07:06:36Z</time>
      </trkpt>
      <trkpt lat="48.24726" lon="7.38808">
        <ele>226</ele>
        <time>2021-06-21T07:06:43Z</time>
      </trkpt>
      <trkpt lat="48.2475" lon="7.38813">
        <ele>226</ele>
        <time>2021-06-21T07:06:47Z</time>
      </trkpt>
      <trkpt lat="48.24764" lon="7.38816">
        <ele>226.2</ele>
        <time>2021-06-21T07:06:49Z</time>
      </trkpt>
      <trkpt lat="48.24808" lon="7.38828">
        <ele>225.4</ele>
        <time>2021-06-21T07:06:56Z</time>
      </trkpt>
      <trkpt lat="48.24845" lon="7.38849">
        <ele>225.2</ele>
        <time>2021-06-21T07:07:02Z</time>
      </trkpt>
      <trkpt lat="48.2489" lon="7.3889">
        <ele>225</ele>
        <time>2021-06-21T07:07:10Z</time>
      </trkpt>
      <trkpt lat="48.24929" lon="7.38943">
        <ele>224.2</ele>
        <time>2021-06-21T07:07:18Z</time>
      </trkpt>
      <trkpt lat="48.24962" lon="7.39">
        <ele>223</ele>
        <time>2021-06-21T07:07:24Z</time>
      </trkpt>
      <trkpt lat="48.24966" lon="7.39008">
        <ele>222.6</ele>
        <time>2021-06-21T07:07:25Z</time>
      </trkpt>
      <trkpt lat="48.24979" lon="7.3903">
        <ele>222</ele>
        <time>2021-06-21T07:07:27Z</time>
      </trkpt>
      <trkpt lat="48.24991" lon="7.3905">
        <ele>220.8</ele>
        <time>2021-06-21T07:07:29Z</time>
      </trkpt>
      <trkpt lat="48.25011" lon="7.3908">
        <ele>219</ele>
        <time>2021-06-21T07:07:32Z</time>
      </trkpt>
      <trkpt lat="48.25026" lon="7.39099">
        <ele>218</ele>
        <time>2021-06-21T07:07:34Z</time>
      </trkpt>
      <trkpt lat="48.25049" lon="7.39124">
        <ele>217</ele>
        <time>2021-06-21T07:07:37Z</time>
      </trkpt>
      <trkpt lat="48.25058" lon="7.39131">
        <ele>216.4</ele>
        <time>2021-06-21T07:07:38Z</time>
      </trkpt>
      <trkpt lat="48.25074" lon="7.39144">
        <ele>215.8</ele>
        <time>2021-06-21T07:07:40Z</time>
      </trkpt>
      <trkpt lat="48.25103" lon="7.39165">
        <ele>214.2</ele>
        <time>2021-06-21T07:07:43Z</time>
      </trkpt>
      <trkpt lat="48.25112" lon="7.39171">
        <ele>213.8</ele>
        <time>2021-06-21T07:07:44Z</time>
      </trkpt>
      <trkpt lat="48.2512" lon="7.39176">
        <ele>213.2</ele>
        <time>2021-06-21T07:07:45Z</time>
      </trkpt>
      <trkpt lat="48.25138" lon="7.39189">
        <ele>212</ele>
        <time>2021-06-21T07:07:47Z</time>
      </trkpt>
      <trkpt lat="48.25166" lon="7.39208">
        <ele>210.8</ele>
        <time>2021-06-21T07:07:50Z</time>
      </trkpt>
      <trkpt lat="48.25202" lon="7.39235">
        <ele>209.8</ele>
        <time>2021-06-21T07:07:54Z</time>
      </trkpt>
      <trkpt lat="48.25235" lon="7.3926">
        <ele>208.6</ele>
        <time>2021-06-21T07:07:58Z</time>
      </trkpt>
      <trkpt lat="48.25251" lon="7.39272">
        <ele>208.2</ele>
        <time>2021-06-21T07:08:00Z</time>
      </trkpt>
      <trkpt lat="48.25271" lon="7.39292">
        <ele>207.6</ele>
        <time>2021-06-21T07:08:03Z</time>
      </trkpt>
      <trkpt lat="48.25289" lon="7.39312">
        <ele>207.2</ele>
        <time>2021-06-21T07:08:06Z</time>
      </trkpt>
      <trkpt lat="48.25306" lon="7.39344">
        <ele>207</ele>
        <time>2021-06-21T07:08:10Z</time>
      </trkpt>
      <trkpt lat="48.25317" lon="7.39358">
        <ele>206.8</ele>
        <time>2021-06-21T07:08:12Z</time>
      </trkpt>
      <trkpt lat="48.25328" lon="7.3937">
        <ele>206.8</ele>
        <time>2021-06-21T07:08:14Z</time>
      </trkpt>
      <trkpt lat="48.25361" lon="7.39397">
        <ele>206.6</ele>
        <time>2021-06-21T07:08:20Z</time>
      </trkpt>
      <trkpt lat="48.2539" lon="7.39421">
        <ele>206.6</ele>
        <time>2021-06-21T07:08:26Z</time>
      </trkpt>
      <trkpt lat="48.25394" lon="7.39426">
        <ele>206.6</ele>
        <time>2021-06-21T07:08:27Z</time>
      </trkpt>
      <trkpt lat="48.25408" lon="7.39439">
        <ele>206.8</ele>
        <time>2021-06-21T07:08:30Z</time>
      </trkpt>
      <trkpt lat="48.25412" lon="7.39444">
        <ele>206.8</ele>
        <time>2021-06-21T07:08:31Z</time>
      </trkpt>
      <trkpt lat="48.25426" lon="7.39459">
        <ele>206.8</ele>
        <time>2021-06-21T07:08:36Z</time>
      </trkpt>
      <trkpt lat="48.25428" lon="7.3946">
        <ele>206.6</ele>
        <time>2021-06-21T07:08:40Z</time>
      </trkpt>
      <trkpt lat="48.25431" lon="7.39462">
        <ele>206.6</ele>
        <time>2021-06-21T07:08:42Z</time>
      </trkpt>
      <trkpt lat="48.25441" lon="7.39474">
        <ele>206.2</ele>
        <time>2021-06-21T07:08:46Z</time>
      </trkpt>
      <trkpt lat="48.25462" lon="7.39499">
        <ele>205.6</ele>
        <time>2021-06-21T07:08:52Z</time>
      </trkpt>
      <trkpt lat="48.25465" lon="7.39503">
        <ele>205.4</ele>
        <time>2021-06-21T07:08:53Z</time>
      </trkpt>
      <trkpt lat="48.25482" lon="7.39521">
        <ele>204.8</ele>
        <time>2021-06-21T07:08:59Z</time>
      </trkpt>
      <trkpt lat="48.25507" lon="7.39526">
        <ele>204.4</ele>
        <time>2021-06-21T07:09:05Z</time>
      </trkpt>
      <trkpt lat="48.25515" lon="7.39528">
        <ele>204.4</ele>
        <time>2021-06-21T07:09:07Z</time>
      </trkpt>
      <trkpt lat="48.25528" lon="7.39536">
        <ele>204.6</ele>
        <time>2021-06-21T07:09:10Z</time>
      </trkpt>
      <trkpt lat="48.25532" lon="7.39539">
        <ele>204.6</ele>
        <time>2021-06-21T07:09:11Z</time>
      </trkpt>
      <trkpt lat="48.25563" lon="7.39564">
        <ele>204.8</ele>
        <time>2021-06-21T07:09:18Z</time>
      </trkpt>
      <trkpt lat="48.25583" lon="7.39579">
        <ele>204.2</ele>
        <time>2021-06-21T07:09:22Z</time>
      </trkpt>
      <trkpt lat="48.25594" lon="7.39587">
        <ele>204</ele>
        <time>2021-06-21T07:09:24Z</time>
      </trkpt>
      <trkpt lat="48.25621" lon="7.39608">
        <ele>203.6</ele>
        <time>2021-06-21T07:09:29Z</time>
      </trkpt>
      <trkpt lat="48.25662" lon="7.39633">
        <ele>203.8</ele>
        <time>2021-06-21T07:09:36Z</time>
      </trkpt>
      <trkpt lat="48.25709" lon="7.39652">
        <ele>204.6</ele>
        <time>2021-06-21T07:09:44Z</time>
      </trkpt>
      <trkpt lat="48.25725" lon="7.3966">
        <ele>205</ele>
        <time>2021-06-21T07:09:47Z</time>
      </trkpt>
      <trkpt lat="48.25736" lon="7.39667">
        <ele>205.4</ele>
        <time>2021-06-21T07:09:49Z</time>
      </trkpt>
      <trkpt lat="48.25746" lon="7.39673">
        <ele>205.4</ele>
        <time>2021-06-21T07:09:51Z</time>
      </trkpt>
      <trkpt lat="48.25773" lon="7.39695">
        <ele>205.6</ele>
        <time>2021-06-21T07:09:57Z</time>
      </trkpt>
      <trkpt lat="48.25819" lon="7.39739">
        <ele>205.6</ele>
        <time>2021-06-21T07:10:06Z</time>
      </trkpt>
      <trkpt lat="48.25854" lon="7.39769">
        <ele>204.6</ele>
        <time>2021-06-21T07:10:12Z</time>
      </trkpt>
      <trkpt lat="48.25899" lon="7.3979">
        <ele>204.4</ele>
        <time>2021-06-21T07:10:19Z</time>
      </trkpt>
      <trkpt lat="48.25942" lon="7.39807">
        <ele>204.8</ele>
        <time>2021-06-21T07:10:26Z</time>
      </trkpt>
      <trkpt lat="48.25987" lon="7.39825">
        <ele>204.2</ele>
        <time>2021-06-21T07:10:33Z</time>
      </trkpt>
      <trkpt lat="48.26001" lon="7.39831">
        <ele>204</ele>
        <time>2021-06-21T07:10:35Z</time>
      </trkpt>
      <trkpt lat="48.26058" lon="7.39854">
        <ele>204.4</ele>
        <time>2021-06-21T07:10:44Z</time>
      </trkpt>
      <trkpt lat="48.26064" lon="7.39857">
        <ele>204.6</ele>
        <time>2021-06-21T07:10:45Z</time>
      </trkpt>
      <trkpt lat="48.26069" lon="7.39859">
        <ele>204.6</ele>
        <time>2021-06-21T07:10:46Z</time>
      </trkpt>
      <trkpt lat="48.26074" lon="7.39862">
        <ele>204.8</ele>
        <time>2021-06-21T07:10:47Z</time>
      </trkpt>
      <trkpt lat="48.26098" lon="7.39872">
        <ele>205.2</ele>
        <time>2021-06-21T07:10:51Z</time>
      </trkpt>
      <trkpt lat="48.26135" lon="7.39884">
        <ele>205.8</ele>
        <time>2021-06-21T07:10:57Z</time>
      </trkpt>
      <trkpt lat="48.26167" lon="7.39892">
        <ele>205.8</ele>
        <time>2021-06-21T07:11:02Z</time>
      </trkpt>
      <trkpt lat="48.26208" lon="7.399">
        <ele>205.8</ele>
        <time>2021-06-21T07:11:08Z</time>
      </trkpt>
      <trkpt lat="48.26258" lon="7.39912">
        <ele>206.2</ele>
        <time>2021-06-21T07:11:16Z</time>
      </trkpt>
      <trkpt lat="48.26272" lon="7.39916">
        <ele>206.2</ele>
        <time>2021-06-21T07:11:18Z</time>
      </trkpt>
      <trkpt lat="48.263" lon="7.39929">
        <ele>206.2</ele>
        <time>2021-06-21T07:11:23Z</time>
      </trkpt>
      <trkpt lat="48.26344" lon="7.39945">
        <ele>206</ele>
        <time>2021-06-21T07:11:30Z</time>
      </trkpt>
      <trkpt lat="48.26371" lon="7.39956">
        <ele>205.2</ele>
        <time>2021-06-21T07:11:34Z</time>
      </trkpt>
      <trkpt lat="48.2638" lon="7.3996">
        <ele>205</ele>
        <time>2021-06-21T07:11:35Z</time>
      </trkpt>
      <trkpt lat="48.26415" lon="7.39975">
        <ele>204</ele>
        <time>2021-06-21T07:11:40Z</time>
      </trkpt>
      <trkpt lat="48.26429" lon="7.39977">
        <ele>203.6</ele>
        <time>2021-06-21T07:11:42Z</time>
      </trkpt>
      <trkpt lat="48.26446" lon="7.39977">
        <ele>203.2</ele>
        <time>2021-06-21T07:11:44Z</time>
      </trkpt>
      <trkpt lat="48.26455" lon="7.39975">
        <ele>202.8</ele>
        <time>2021-06-21T07:11:45Z</time>
      </trkpt>
      <trkpt lat="48.26461" lon="7.39972">
        <ele>202.6</ele>
        <time>2021-06-21T07:11:46Z</time>
      </trkpt>
      <trkpt lat="48.26486" lon="7.3996">
        <ele>201.8</ele>
        <time>2021-06-21T07:11:49Z</time>
      </trkpt>
      <trkpt lat="48.26501" lon="7.39953">
        <ele>201</ele>
        <time>2021-06-21T07:11:51Z</time>
      </trkpt>
      <trkpt lat="48.26509" lon="7.3995">
        <ele>200.6</ele>
        <time>2021-06-21T07:11:52Z</time>
      </trkpt>
      <trkpt lat="48.26537" lon="7.39939">
        <ele>200</ele>
        <time>2021-06-21T07:11:56Z</time>
      </trkpt>
      <trkpt lat="48.26568" lon="7.39924">
        <ele>199.8</ele>
        <time>2021-06-21T07:12:01Z</time>
      </trkpt>
      <trkpt lat="48.26584" lon="7.39916">
        <ele>199.8</ele>
        <time>2021-06-21T07:12:04Z</time>
      </trkpt>
      <trkpt lat="48.26599" lon="7.39911">
        <ele>200</ele>
        <time>2021-06-21T07:12:07Z</time>
      </trkpt>
      <trkpt lat="48.26654" lon="7.39892">
        <ele>199.6</ele>
        <time>2021-06-21T07:12:16Z</time>
      </trkpt>
      <trkpt lat="48.26689" lon="7.39883">
        <ele>198.6</ele>
        <time>2021-06-21T07:12:21Z</time>
      </trkpt>
      <trkpt lat="48.26697" lon="7.39882">
        <ele>198.4</ele>
        <time>2021-06-21T07:12:22Z</time>
      </trkpt>
      <trkpt lat="48.2673" lon="7.39882">
        <ele>197</ele>
        <time>2021-06-21T07:12:26Z</time>
      </trkpt>
      <trkpt lat="48.26749" lon="7.39891">
        <ele>195.6</ele>
        <time>2021-06-21T07:12:28Z</time>
      </trkpt>
      <trkpt lat="48.26766" lon="7.39903">
        <ele>194.6</ele>
        <time>2021-06-21T07:12:30Z</time>
      </trkpt>
      <trkpt lat="48.26781" lon="7.39915">
        <ele>193.4</ele>
        <time>2021-06-21T07:12:32Z</time>
      </trkpt>
      <trkpt lat="48.26788" lon="7.39923">
        <ele>193.2</ele>
        <time>2021-06-21T07:12:33Z</time>
      </trkpt>
      <trkpt lat="48.26802" lon="7.39938">
        <ele>192.2</ele>
        <time>2021-06-21T07:12:35Z</time>
      </trkpt>
      <trkpt lat="48.26829" lon="7.39968">
        <ele>191</ele>
        <time>2021-06-21T07:12:39Z</time>
      </trkpt>
      <trkpt lat="48.26835" lon="7.39975">
        <ele>190.8</ele>
        <time>2021-06-21T07:12:40Z</time>
      </trkpt>
      <trkpt lat="48.26842" lon="7.3998">
        <ele>190.6</ele>
        <time>2021-06-21T07:12:41Z</time>
      </trkpt>
      <trkpt lat="48.26856" lon="7.39987">
        <ele>189.8</ele>
        <time>2021-06-21T07:12:43Z</time>
      </trkpt>
      <trkpt lat="48.26865" lon="7.3999">
        <ele>189.6</ele>
        <time>2021-06-21T07:12:44Z</time>
      </trkpt>
      <trkpt lat="48.26889" lon="7.39994">
        <ele>188.8</ele>
        <time>2021-06-21T07:12:48Z</time>
      </trkpt>
      <trkpt lat="48.26903" lon="7.39994">
        <ele>188.6</ele>
        <time>2021-06-21T07:12:50Z</time>
      </trkpt>
      <trkpt lat="48.26942" lon="7.3999">
        <ele>188.6</ele>
        <time>2021-06-21T07:12:57Z</time>
      </trkpt>
      <trkpt lat="48.26979" lon="7.39988">
        <ele>188.6</ele>
        <time>2021-06-21T07:13:05Z</time>
      </trkpt>
      <trkpt lat="48.26991" lon="7.39985">
        <ele>188.4</ele>
        <time>2021-06-21T07:13:09Z</time>
      </trkpt>
      <trkpt lat="48.26992" lon="7.39984">
        <ele>188.2</ele>
        <time>2021-06-21T07:13:12Z</time>
      </trkpt>
      <trkpt lat="48.26995" lon="7.39981">
        <ele>188.2</ele>
        <time>2021-06-21T07:13:17Z</time>
      </trkpt>
      <trkpt lat="48.27001" lon="7.39979">
        <ele>188.2</ele>
        <time>2021-06-21T07:13:19Z</time>
      </trkpt>
      <trkpt lat="48.27018" lon="7.3997">
        <ele>188.2</ele>
        <time>2021-06-21T07:13:24Z</time>
      </trkpt>
      <trkpt lat="48.27045" lon="7.39958">
        <ele>188.2</ele>
        <time>2021-06-21T07:13:31Z</time>
      </trkpt>
      <trkpt lat="48.27077" lon="7.39948">
        <ele>188.2</ele>
        <time>2021-06-21T07:13:38Z</time>
      </trkpt>
      <trkpt lat="48.27097" lon="7.39943">
        <ele>188.2</ele>
        <time>2021-06-21T07:13:42Z</time>
      </trkpt>
      <trkpt lat="48.27102" lon="7.39941">
        <ele>188.2</ele>
        <time>2021-06-21T07:13:43Z</time>
      </trkpt>
      <trkpt lat="48.27139" lon="7.39928">
        <ele>188.2</ele>
        <time>2021-06-21T07:13:51Z</time>
      </trkpt>
      <trkpt lat="48.27157" lon="7.39923">
        <ele>188.4</ele>
        <time>2021-06-21T07:13:57Z</time>
      </trkpt>
      <trkpt lat="48.27172" lon="7.39921">
        <ele>188.6</ele>
        <time>2021-06-21T07:14:03Z</time>
      </trkpt>
      <trkpt lat="48.27193" lon="7.39919">
        <ele>188.8</ele>
        <time>2021-06-21T07:14:09Z</time>
      </trkpt>
      <trkpt lat="48.27201" lon="7.39918">
        <ele>188.8</ele>
        <time>2021-06-21T07:14:11Z</time>
      </trkpt>
      <trkpt lat="48.27219" lon="7.39916">
        <ele>188.6</ele>
        <time>2021-06-21T07:14:15Z</time>
      </trkpt>
      <trkpt lat="48.27223" lon="7.39916">
        <ele>188.6</ele>
        <time>2021-06-21T07:14:16Z</time>
      </trkpt>
      <trkpt lat="48.2724" lon="7.39914">
        <ele>188.6</ele>
        <time>2021-06-21T07:14:20Z</time>
      </trkpt>
      <trkpt lat="48.27266" lon="7.39909">
        <ele>189</ele>
        <time>2021-06-21T07:14:27Z</time>
      </trkpt>
      <trkpt lat="48.27283" lon="7.39906">
        <ele>189.2</ele>
        <time>2021-06-21T07:14:32Z</time>
      </trkpt>
      <trkpt lat="48.27293" lon="7.39908">
        <ele>189.2</ele>
        <time>2021-06-21T07:14:36Z</time>
      </trkpt>
      <trkpt lat="48.27296" lon="7.39907">
        <ele>189.2</ele>
        <time>2021-06-21T07:14:38Z</time>
      </trkpt>
      <trkpt lat="48.27296" lon="7.39907">
        <ele>189.2</ele>
        <time>2021-06-21T07:14:40Z</time>
      </trkpt>
      <trkpt lat="48.27296" lon="7.39907">
        <ele>189.2</ele>
        <time>2021-06-21T07:14:42Z</time>
      </trkpt>
      <trkpt lat="48.27298" lon="7.39906">
        <ele>189</ele>
        <time>2021-06-21T07:15:01Z</time>
      </trkpt>
      <trkpt lat="48.273" lon="7.39905">
        <ele>189</ele>
        <time>2021-06-21T07:15:03Z</time>
      </trkpt>
      <trkpt lat="48.27312" lon="7.39907">
        <ele>189.2</ele>
        <time>2021-06-21T07:15:07Z</time>
      </trkpt>
      <trkpt lat="48.27332" lon="7.39915">
        <ele>189.4</ele>
        <time>2021-06-21T07:15:12Z</time>
      </trkpt>
      <trkpt lat="48.2736" lon="7.39924">
        <ele>189.2</ele>
        <time>2021-06-21T07:15:18Z</time>
      </trkpt>
      <trkpt lat="48.27397" lon="7.39936">
        <ele>189.6</ele>
        <time>2021-06-21T07:15:26Z</time>
      </trkpt>
      <trkpt lat="48.274" lon="7.39937">
        <ele>189.8</ele>
        <time>2021-06-21T07:15:27Z</time>
      </trkpt>
      <trkpt lat="48.27427" lon="7.39945">
        <ele>190.2</ele>
        <time>2021-06-21T07:15:33Z</time>
      </trkpt>
      <trkpt lat="48.2746" lon="7.39956">
        <ele>190.4</ele>
        <time>2021-06-21T07:15:40Z</time>
      </trkpt>
      <trkpt lat="48.27494" lon="7.39965">
        <ele>190.4</ele>
        <time>2021-06-21T07:15:47Z</time>
      </trkpt>
      <trkpt lat="48.27503" lon="7.39969">
        <ele>190.4</ele>
        <time>2021-06-21T07:15:49Z</time>
      </trkpt>
      <trkpt lat="48.27512" lon="7.39975">
        <ele>190.2</ele>
        <time>2021-06-21T07:15:51Z</time>
      </trkpt>
      <trkpt lat="48.27534" lon="7.39993">
        <ele>190.2</ele>
        <time>2021-06-21T07:15:56Z</time>
      </trkpt>
      <trkpt lat="48.27577" lon="7.40035">
        <ele>190.4</ele>
        <time>2021-06-21T07:16:06Z</time>
      </trkpt>
      <trkpt lat="48.27601" lon="7.40057">
        <ele>190.8</ele>
        <time>2021-06-21T07:16:13Z</time>
      </trkpt>
      <trkpt lat="48.27604" lon="7.40059">
        <ele>191</ele>
        <time>2021-06-21T07:16:14Z</time>
      </trkpt>
      <trkpt lat="48.27608" lon="7.40064">
        <ele>191</ele>
        <time>2021-06-21T07:16:18Z</time>
      </trkpt>
      <trkpt lat="48.27617" lon="7.40076">
        <ele>191.2</ele>
        <time>2021-06-21T07:16:25Z</time>
      </trkpt>
      <trkpt lat="48.27627" lon="7.40092">
        <ele>191</ele>
        <time>2021-06-21T07:16:29Z</time>
      </trkpt>
      <trkpt lat="48.27636" lon="7.40092">
        <ele>191.2</ele>
        <time>2021-06-21T07:16:31Z</time>
      </trkpt>
      <trkpt lat="48.2764" lon="7.40088">
        <ele>191.2</ele>
        <time>2021-06-21T07:16:32Z</time>
      </trkpt>
      <trkpt lat="48.27642" lon="7.40082">
        <ele>191</ele>
        <time>2021-06-21T07:16:33Z</time>
      </trkpt>
      <trkpt lat="48.27645" lon="7.40066">
        <ele>191</ele>
        <time>2021-06-21T07:16:35Z</time>
      </trkpt>
      <trkpt lat="48.27647" lon="7.40057">
        <ele>191</ele>
        <time>2021-06-21T07:16:36Z</time>
      </trkpt>
      <trkpt lat="48.2765" lon="7.40038">
        <ele>191</ele>
        <time>2021-06-21T07:16:38Z</time>
      </trkpt>
      <trkpt lat="48.27654" lon="7.40023">
        <ele>191</ele>
        <time>2021-06-21T07:16:40Z</time>
      </trkpt>
      <trkpt lat="48.27672" lon="7.39964">
        <ele>191.2</ele>
        <time>2021-06-21T07:16:47Z</time>
      </trkpt>
      <trkpt lat="48.27695" lon="7.39889">
        <ele>191.6</ele>
        <time>2021-06-21T07:16:56Z</time>
      </trkpt>
      <trkpt lat="48.27699" lon="7.39876">
        <ele>191.6</ele>
        <time>2021-06-21T07:16:58Z</time>
      </trkpt>
      <trkpt lat="48.27709" lon="7.39846">
        <ele>192</ele>
        <time>2021-06-21T07:17:02Z</time>
      </trkpt>
      <trkpt lat="48.27717" lon="7.39822">
        <ele>192</ele>
        <time>2021-06-21T07:17:05Z</time>
      </trkpt>
      <trkpt lat="48.2772" lon="7.39816">
        <ele>192</ele>
        <time>2021-06-21T07:17:06Z</time>
      </trkpt>
      <trkpt lat="48.27725" lon="7.39802">
        <ele>192.2</ele>
        <time>2021-06-21T07:17:08Z</time>
      </trkpt>
      <trkpt lat="48.27728" lon="7.39795">
        <ele>192.2</ele>
        <time>2021-06-21T07:17:09Z</time>
      </trkpt>
      <trkpt lat="48.27747" lon="7.39733">
        <ele>192.4</ele>
        <time>2021-06-21T07:17:16Z</time>
      </trkpt>
      <trkpt lat="48.27765" lon="7.39675">
        <ele>192.6</ele>
        <time>2021-06-21T07:17:23Z</time>
      </trkpt>
      <trkpt lat="48.2777" lon="7.39659">
        <ele>192.8</ele>
        <time>2021-06-21T07:17:25Z</time>
      </trkpt>
      <trkpt lat="48.27775" lon="7.39641">
        <ele>192.8</ele>
        <time>2021-06-21T07:17:27Z</time>
      </trkpt>
      <trkpt lat="48.27782" lon="7.39618">
        <ele>193</ele>
        <time>2021-06-21T07:17:30Z</time>
      </trkpt>
      <trkpt lat="48.27791" lon="7.39595">
        <ele>193.2</ele>
        <time>2021-06-21T07:17:33Z</time>
      </trkpt>
      <trkpt lat="48.27796" lon="7.39581">
        <ele>193.6</ele>
        <time>2021-06-21T07:17:35Z</time>
      </trkpt>
      <trkpt lat="48.27808" lon="7.39541">
        <ele>194.2</ele>
        <time>2021-06-21T07:17:40Z</time>
      </trkpt>
      <trkpt lat="48.27821" lon="7.39492">
        <ele>194.6</ele>
        <time>2021-06-21T07:17:46Z</time>
      </trkpt>
      <trkpt lat="48.27832" lon="7.39446">
        <ele>195.2</ele>
        <time>2021-06-21T07:17:52Z</time>
      </trkpt>
      <trkpt lat="48.27844" lon="7.39392">
        <ele>196</ele>
        <time>2021-06-21T07:18:00Z</time>
      </trkpt>
      <trkpt lat="48.27847" lon="7.39375">
        <ele>196.2</ele>
        <time>2021-06-21T07:18:02Z</time>
      </trkpt>
      <trkpt lat="48.27852" lon="7.39351">
        <ele>196.6</ele>
        <time>2021-06-21T07:18:05Z</time>
      </trkpt>
      <trkpt lat="48.27861" lon="7.39314">
        <ele>196.8</ele>
        <time>2021-06-21T07:18:09Z</time>
      </trkpt>
      <trkpt lat="48.27865" lon="7.39293">
        <ele>197</ele>
        <time>2021-06-21T07:18:11Z</time>
      </trkpt>
      <trkpt lat="48.2788" lon="7.39216">
        <ele>196.8</ele>
        <time>2021-06-21T07:18:19Z</time>
      </trkpt>
      <trkpt lat="48.27898" lon="7.39169">
        <ele>196.4</ele>
        <time>2021-06-21T07:18:24Z</time>
      </trkpt>
      <trkpt lat="48.27933" lon="7.39103">
        <ele>196.2</ele>
        <time>2021-06-21T07:18:32Z</time>
      </trkpt>
      <trkpt lat="48.27941" lon="7.39088">
        <ele>196.4</ele>
        <time>2021-06-21T07:18:34Z</time>
      </trkpt>
      <trkpt lat="48.27966" lon="7.39041">
        <ele>196.4</ele>
        <time>2021-06-21T07:18:40Z</time>
      </trkpt>
      <trkpt lat="48.2799" lon="7.38998">
        <ele>196.6</ele>
        <time>2021-06-21T07:18:46Z</time>
      </trkpt>
      <trkpt lat="48.28018" lon="7.38944">
        <ele>196.8</ele>
        <time>2021-06-21T07:18:53Z</time>
      </trkpt>
      <trkpt lat="48.28047" lon="7.38891">
        <ele>197</ele>
        <time>2021-06-21T07:19:00Z</time>
      </trkpt>
      <trkpt lat="48.28087" lon="7.38823">
        <ele>196.6</ele>
        <time>2021-06-21T07:19:09Z</time>
      </trkpt>
      <trkpt lat="48.28091" lon="7.38816">
        <ele>196.8</ele>
        <time>2021-06-21T07:19:10Z</time>
      </trkpt>
      <trkpt lat="48.28131" lon="7.3875">
        <ele>197.2</ele>
        <time>2021-06-21T07:19:19Z</time>
      </trkpt>
      <trkpt lat="48.28136" lon="7.38742">
        <ele>197.4</ele>
        <time>2021-06-21T07:19:20Z</time>
      </trkpt>
      <trkpt lat="48.28173" lon="7.38678">
        <ele>198.4</ele>
        <time>2021-06-21T07:19:29Z</time>
      </trkpt>
      <trkpt lat="48.28177" lon="7.38671">
        <ele>198.4</ele>
        <time>2021-06-21T07:19:30Z</time>
      </trkpt>
      <trkpt lat="48.2819" lon="7.38649">
        <ele>198.4</ele>
        <time>2021-06-21T07:19:33Z</time>
      </trkpt>
      <trkpt lat="48.28211" lon="7.38604">
        <ele>199.2</ele>
        <time>2021-06-21T07:19:39Z</time>
      </trkpt>
      <trkpt lat="48.28224" lon="7.38571">
        <ele>199.4</ele>
        <time>2021-06-21T07:19:43Z</time>
      </trkpt>
      <trkpt lat="48.28235" lon="7.38537">
        <ele>199.6</ele>
        <time>2021-06-21T07:19:47Z</time>
      </trkpt>
      <trkpt lat="48.28247" lon="7.38493">
        <ele>199.8</ele>
        <time>2021-06-21T07:19:53Z</time>
      </trkpt>
      <trkpt lat="48.28263" lon="7.3843">
        <ele>200.4</ele>
        <time>2021-06-21T07:20:00Z</time>
      </trkpt>
      <trkpt lat="48.28264" lon="7.38422">
        <ele>200.4</ele>
        <time>2021-06-21T07:20:01Z</time>
      </trkpt>
      <trkpt lat="48.28272" lon="7.38369">
        <ele>201</ele>
        <time>2021-06-21T07:20:07Z</time>
      </trkpt>
      <trkpt lat="48.2828" lon="7.38302">
        <ele>201.2</ele>
        <time>2021-06-21T07:20:14Z</time>
      </trkpt>
      <trkpt lat="48.28282" lon="7.38295">
        <ele>201.4</ele>
        <time>2021-06-21T07:20:15Z</time>
      </trkpt>
      <trkpt lat="48.28286" lon="7.38289">
        <ele>201.4</ele>
        <time>2021-06-21T07:20:16Z</time>
      </trkpt>
      <trkpt lat="48.28291" lon="7.38284">
        <ele>201.6</ele>
        <time>2021-06-21T07:20:17Z</time>
      </trkpt>
      <trkpt lat="48.28296" lon="7.38279">
        <ele>201.6</ele>
        <time>2021-06-21T07:20:18Z</time>
      </trkpt>
      <trkpt lat="48.28306" lon="7.38271">
        <ele>201.8</ele>
        <time>2021-06-21T07:20:20Z</time>
      </trkpt>
      <trkpt lat="48.28321" lon="7.38262">
        <ele>201.8</ele>
        <time>2021-06-21T07:20:23Z</time>
      </trkpt>
      <trkpt lat="48.28327" lon="7.3826">
        <ele>201.8</ele>
        <time>2021-06-21T07:20:24Z</time>
      </trkpt>
      <trkpt lat="48.28373" lon="7.3824">
        <ele>201.6</ele>
        <time>2021-06-21T07:20:33Z</time>
      </trkpt>
      <trkpt lat="48.28388" lon="7.3823">
        <ele>201.6</ele>
        <time>2021-06-21T07:20:38Z</time>
      </trkpt>
      <trkpt lat="48.28395" lon="7.3822">
        <ele>201.8</ele>
        <time>2021-06-21T07:20:41Z</time>
      </trkpt>
      <trkpt lat="48.28395" lon="7.38216">
        <ele>201.8</ele>
        <time>2021-06-21T07:20:42Z</time>
      </trkpt>
      <trkpt lat="48.28396" lon="7.382">
        <ele>201.8</ele>
        <time>2021-06-21T07:20:44Z</time>
      </trkpt>
      <trkpt lat="48.28397" lon="7.38193">
        <ele>201.8</ele>
        <time>2021-06-21T07:20:45Z</time>
      </trkpt>
      <trkpt lat="48.28404" lon="7.38167">
        <ele>201.4</ele>
        <time>2021-06-21T07:20:48Z</time>
      </trkpt>
      <trkpt lat="48.28403" lon="7.38151">
        <ele>201.4</ele>
        <time>2021-06-21T07:20:50Z</time>
      </trkpt>
      <trkpt lat="48.28402" lon="7.38129">
        <ele>201.4</ele>
        <time>2021-06-21T07:20:53Z</time>
      </trkpt>
      <trkpt lat="48.28402" lon="7.38114">
        <ele>201.4</ele>
        <time>2021-06-21T07:20:55Z</time>
      </trkpt>
      <trkpt lat="48.28404" lon="7.38097">
        <ele>201.8</ele>
        <time>2021-06-21T07:20:57Z</time>
      </trkpt>
      <trkpt lat="48.2841" lon="7.38045">
        <ele>202.4</ele>
        <time>2021-06-21T07:21:03Z</time>
      </trkpt>
      <trkpt lat="48.28411" lon="7.38029">
        <ele>202.6</ele>
        <time>2021-06-21T07:21:05Z</time>
      </trkpt>
      <trkpt lat="48.28413" lon="7.37987">
        <ele>202.8</ele>
        <time>2021-06-21T07:21:10Z</time>
      </trkpt>
      <trkpt lat="48.28416" lon="7.3792">
        <ele>203</ele>
        <time>2021-06-21T07:21:18Z</time>
      </trkpt>
      <trkpt lat="48.28418" lon="7.37873">
        <ele>203.2</ele>
        <time>2021-06-21T07:21:24Z</time>
      </trkpt>
      <trkpt lat="48.28419" lon="7.37807">
        <ele>203.4</ele>
        <time>2021-06-21T07:21:32Z</time>
      </trkpt>
      <trkpt lat="48.28418" lon="7.37759">
        <ele>203.6</ele>
        <time>2021-06-21T07:21:38Z</time>
      </trkpt>
      <trkpt lat="48.28418" lon="7.3775">
        <ele>203.6</ele>
        <time>2021-06-21T07:21:39Z</time>
      </trkpt>
      <trkpt lat="48.28418" lon="7.37742">
        <ele>203.8</ele>
        <time>2021-06-21T07:21:40Z</time>
      </trkpt>
      <trkpt lat="48.28415" lon="7.37681">
        <ele>204.2</ele>
        <time>2021-06-21T07:21:48Z</time>
      </trkpt>
      <trkpt lat="48.28412" lon="7.37645">
        <ele>204.6</ele>
        <time>2021-06-21T07:21:53Z</time>
      </trkpt>
      <trkpt lat="48.2841" lon="7.37626">
        <ele>204.6</ele>
        <time>2021-06-21T07:21:56Z</time>
      </trkpt>
      <trkpt lat="48.28408" lon="7.37601">
        <ele>205.2</ele>
        <time>2021-06-21T07:22:01Z</time>
      </trkpt>
      <trkpt lat="48.28407" lon="7.37597">
        <ele>205.2</ele>
        <time>2021-06-21T07:22:03Z</time>
      </trkpt>
      <trkpt lat="48.28407" lon="7.37597">
        <ele>205.4</ele>
        <time>2021-06-21T07:22:05Z</time>
      </trkpt>
      <trkpt lat="48.28407" lon="7.37592">
        <ele>205.8</ele>
        <time>2021-06-21T07:33:17Z</time>
      </trkpt>
      <trkpt lat="48.28406" lon="7.37585">
        <ele>206</ele>
        <time>2021-06-21T07:33:20Z</time>
      </trkpt>
      <trkpt lat="48.28403" lon="7.37562">
        <ele>206</ele>
        <time>2021-06-21T07:33:25Z</time>
      </trkpt>
      <trkpt lat="48.28398" lon="7.37525">
        <ele>206.4</ele>
        <time>2021-06-21T07:33:31Z</time>
      </trkpt>
      <trkpt lat="48.2839" lon="7.37467">
        <ele>206.6</ele>
        <time>2021-06-21T07:33:39Z</time>
      </trkpt>
      <trkpt lat="48.28386" lon="7.37444">
        <ele>207</ele>
        <time>2021-06-21T07:33:42Z</time>
      </trkpt>
      <trkpt lat="48.28383" lon="7.37424">
        <ele>207.6</ele>
        <time>2021-06-21T07:33:45Z</time>
      </trkpt>
      <trkpt lat="48.28374" lon="7.37356">
        <ele>208</ele>
        <time>2021-06-21T07:33:54Z</time>
      </trkpt>
      <trkpt lat="48.28372" lon="7.37346">
        <ele>208.2</ele>
        <time>2021-06-21T07:33:55Z</time>
      </trkpt>
      <trkpt lat="48.28361" lon="7.37269">
        <ele>208.8</ele>
        <time>2021-06-21T07:34:05Z</time>
      </trkpt>
      <trkpt lat="48.28356" lon="7.37235">
        <ele>210</ele>
        <time>2021-06-21T07:34:10Z</time>
      </trkpt>
      <trkpt lat="48.28353" lon="7.37204">
        <ele>210.6</ele>
        <time>2021-06-21T07:34:14Z</time>
      </trkpt>
      <trkpt lat="48.28347" lon="7.37165">
        <ele>211</ele>
        <time>2021-06-21T07:34:19Z</time>
      </trkpt>
      <trkpt lat="48.28345" lon="7.3715">
        <ele>211.2</ele>
        <time>2021-06-21T07:34:21Z</time>
      </trkpt>
      <trkpt lat="48.28338" lon="7.37097">
        <ele>212.2</ele>
        <time>2021-06-21T07:34:28Z</time>
      </trkpt>
      <trkpt lat="48.28337" lon="7.37088">
        <ele>212.2</ele>
        <time>2021-06-21T07:34:29Z</time>
      </trkpt>
      <trkpt lat="48.28327" lon="7.37012">
        <ele>213</ele>
        <time>2021-06-21T07:34:39Z</time>
      </trkpt>
      <trkpt lat="48.28323" lon="7.36989">
        <ele>213.2</ele>
        <time>2021-06-21T07:34:42Z</time>
      </trkpt>
      <trkpt lat="48.28319" lon="7.36965">
        <ele>213.4</ele>
        <time>2021-06-21T07:34:45Z</time>
      </trkpt>
      <trkpt lat="48.28315" lon="7.36933">
        <ele>213.4</ele>
        <time>2021-06-21T07:34:49Z</time>
      </trkpt>
      <trkpt lat="48.28304" lon="7.36867">
        <ele>213.8</ele>
        <time>2021-06-21T07:34:57Z</time>
      </trkpt>
      <trkpt lat="48.28298" lon="7.36821">
        <ele>214.4</ele>
        <time>2021-06-21T07:35:03Z</time>
      </trkpt>
      <trkpt lat="48.28295" lon="7.36806">
        <ele>214.6</ele>
        <time>2021-06-21T07:35:05Z</time>
      </trkpt>
      <trkpt lat="48.28288" lon="7.36745">
        <ele>215.4</ele>
        <time>2021-06-21T07:35:13Z</time>
      </trkpt>
      <trkpt lat="48.28288" lon="7.36737">
        <ele>215.4</ele>
        <time>2021-06-21T07:35:14Z</time>
      </trkpt>
      <trkpt lat="48.28292" lon="7.36724">
        <ele>215.4</ele>
        <time>2021-06-21T07:35:16Z</time>
      </trkpt>
      <trkpt lat="48.28302" lon="7.36716">
        <ele>215.4</ele>
        <time>2021-06-21T07:35:18Z</time>
      </trkpt>
      <trkpt lat="48.28307" lon="7.36714">
        <ele>215.4</ele>
        <time>2021-06-21T07:35:19Z</time>
      </trkpt>
      <trkpt lat="48.28336" lon="7.36701">
        <ele>215</ele>
        <time>2021-06-21T07:35:24Z</time>
      </trkpt>
      <trkpt lat="48.28354" lon="7.36688">
        <ele>214.6</ele>
        <time>2021-06-21T07:35:28Z</time>
      </trkpt>
      <trkpt lat="48.28357" lon="7.36685">
        <ele>214.6</ele>
        <time>2021-06-21T07:35:29Z</time>
      </trkpt>
      <trkpt lat="48.28358" lon="7.36682">
        <ele>214.6</ele>
        <time>2021-06-21T07:35:31Z</time>
      </trkpt>
      <trkpt lat="48.28357" lon="7.3668">
        <ele>214.6</ele>
        <time>2021-06-21T07:35:32Z</time>
      </trkpt>
      <trkpt lat="48.28355" lon="7.36678">
        <ele>214.6</ele>
        <time>2021-06-21T07:35:33Z</time>
      </trkpt>
      <trkpt lat="48.28346" lon="7.36665">
        <ele>214.6</ele>
        <time>2021-06-21T07:35:37Z</time>
      </trkpt>
      <trkpt lat="48.2833" lon="7.3665">
        <ele>214.6</ele>
        <time>2021-06-21T07:35:41Z</time>
      </trkpt>
      <trkpt lat="48.28326" lon="7.36647">
        <ele>214.4</ele>
        <time>2021-06-21T07:35:42Z</time>
      </trkpt>
      <trkpt lat="48.28298" lon="7.36626">
        <ele>214.6</ele>
        <time>2021-06-21T07:35:48Z</time>
      </trkpt>
      <trkpt lat="48.28283" lon="7.36602">
        <ele>214.8</ele>
        <time>2021-06-21T07:35:52Z</time>
      </trkpt>
      <trkpt lat="48.2828" lon="7.36594">
        <ele>214.8</ele>
        <time>2021-06-21T07:35:53Z</time>
      </trkpt>
      <trkpt lat="48.28277" lon="7.36587">
        <ele>214.8</ele>
        <time>2021-06-21T07:35:54Z</time>
      </trkpt>
      <trkpt lat="48.28273" lon="7.3657">
        <ele>214.8</ele>
        <time>2021-06-21T07:35:56Z</time>
      </trkpt>
      <trkpt lat="48.28271" lon="7.36553">
        <ele>214.8</ele>
        <time>2021-06-21T07:35:58Z</time>
      </trkpt>
      <trkpt lat="48.28271" lon="7.36545">
        <ele>214.8</ele>
        <time>2021-06-21T07:35:59Z</time>
      </trkpt>
      <trkpt lat="48.28263" lon="7.36491">
        <ele>214.8</ele>
        <time>2021-06-21T07:36:05Z</time>
      </trkpt>
      <trkpt lat="48.28262" lon="7.36482">
        <ele>214.8</ele>
        <time>2021-06-21T07:36:06Z</time>
      </trkpt>
      <trkpt lat="48.28258" lon="7.36464">
        <ele>214.8</ele>
        <time>2021-06-21T07:36:08Z</time>
      </trkpt>
      <trkpt lat="48.28257" lon="7.36455">
        <ele>214.8</ele>
        <time>2021-06-21T07:36:09Z</time>
      </trkpt>
      <trkpt lat="48.28247" lon="7.36392">
        <ele>214.8</ele>
        <time>2021-06-21T07:36:16Z</time>
      </trkpt>
      <trkpt lat="48.28239" lon="7.36347">
        <ele>214.8</ele>
        <time>2021-06-21T07:36:21Z</time>
      </trkpt>
      <trkpt lat="48.28236" lon="7.3633">
        <ele>214.8</ele>
        <time>2021-06-21T07:36:23Z</time>
      </trkpt>
      <trkpt lat="48.28227" lon="7.36262">
        <ele>214.8</ele>
        <time>2021-06-21T07:36:31Z</time>
      </trkpt>
      <trkpt lat="48.28215" lon="7.36175">
        <ele>215</ele>
        <time>2021-06-21T07:36:41Z</time>
      </trkpt>
      <trkpt lat="48.28214" lon="7.36166">
        <ele>215</ele>
        <time>2021-06-21T07:36:42Z</time>
      </trkpt>
      <trkpt lat="48.28204" lon="7.36095">
        <ele>215.4</ele>
        <time>2021-06-21T07:36:50Z</time>
      </trkpt>
      <trkpt lat="48.28198" lon="7.36053">
        <ele>215.8</ele>
        <time>2021-06-21T07:36:55Z</time>
      </trkpt>
      <trkpt lat="48.28184" lon="7.35978">
        <ele>216.2</ele>
        <time>2021-06-21T07:37:04Z</time>
      </trkpt>
      <trkpt lat="48.28173" lon="7.35939">
        <ele>216.4</ele>
        <time>2021-06-21T07:37:09Z</time>
      </trkpt>
      <trkpt lat="48.28171" lon="7.35931">
        <ele>216.4</ele>
        <time>2021-06-21T07:37:10Z</time>
      </trkpt>
      <trkpt lat="48.28154" lon="7.35868">
        <ele>216.8</ele>
        <time>2021-06-21T07:37:18Z</time>
      </trkpt>
      <trkpt lat="48.28141" lon="7.35823">
        <ele>217.2</ele>
        <time>2021-06-21T07:37:24Z</time>
      </trkpt>
      <trkpt lat="48.28138" lon="7.35816">
        <ele>217.2</ele>
        <time>2021-06-21T07:37:25Z</time>
      </trkpt>
      <trkpt lat="48.28128" lon="7.35785">
        <ele>217.4</ele>
        <time>2021-06-21T07:37:29Z</time>
      </trkpt>
      <trkpt lat="48.28126" lon="7.35777">
        <ele>217.4</ele>
        <time>2021-06-21T07:37:30Z</time>
      </trkpt>
      <trkpt lat="48.2812" lon="7.35762">
        <ele>217.6</ele>
        <time>2021-06-21T07:37:32Z</time>
      </trkpt>
      <trkpt lat="48.2811" lon="7.35741">
        <ele>217.8</ele>
        <time>2021-06-21T07:37:35Z</time>
      </trkpt>
      <trkpt lat="48.28091" lon="7.35681">
        <ele>218</ele>
        <time>2021-06-21T07:37:43Z</time>
      </trkpt>
      <trkpt lat="48.28078" lon="7.35643">
        <ele>218</ele>
        <time>2021-06-21T07:37:48Z</time>
      </trkpt>
      <trkpt lat="48.28076" lon="7.35636">
        <ele>218.2</ele>
        <time>2021-06-21T07:37:49Z</time>
      </trkpt>
      <trkpt lat="48.2807" lon="7.35621">
        <ele>218.2</ele>
        <time>2021-06-21T07:37:51Z</time>
      </trkpt>
      <trkpt lat="48.28057" lon="7.35584">
        <ele>218.4</ele>
        <time>2021-06-21T07:37:56Z</time>
      </trkpt>
      <trkpt lat="48.28051" lon="7.35569">
        <ele>218.6</ele>
        <time>2021-06-21T07:37:58Z</time>
      </trkpt>
      <trkpt lat="48.2803" lon="7.35508">
        <ele>219</ele>
        <time>2021-06-21T07:38:06Z</time>
      </trkpt>
      <trkpt lat="48.2802" lon="7.35478">
        <ele>219</ele>
        <time>2021-06-21T07:38:10Z</time>
      </trkpt>
      <trkpt lat="48.2801" lon="7.35447">
        <ele>219.4</ele>
        <time>2021-06-21T07:38:14Z</time>
      </trkpt>
      <trkpt lat="48.27998" lon="7.35408">
        <ele>219.4</ele>
        <time>2021-06-21T07:38:19Z</time>
      </trkpt>
      <trkpt lat="48.27992" lon="7.35391">
        <ele>219.6</ele>
        <time>2021-06-21T07:38:21Z</time>
      </trkpt>
      <trkpt lat="48.27981" lon="7.35361">
        <ele>219.6</ele>
        <time>2021-06-21T07:38:25Z</time>
      </trkpt>
      <trkpt lat="48.27966" lon="7.35314">
        <ele>219.8</ele>
        <time>2021-06-21T07:38:31Z</time>
      </trkpt>
      <trkpt lat="48.27949" lon="7.35261">
        <ele>220.2</ele>
        <time>2021-06-21T07:38:38Z</time>
      </trkpt>
      <trkpt lat="48.27921" lon="7.35185">
        <ele>220.6</ele>
        <time>2021-06-21T07:38:48Z</time>
      </trkpt>
      <trkpt lat="48.27918" lon="7.35177">
        <ele>220.6</ele>
        <time>2021-06-21T07:38:49Z</time>
      </trkpt>
      <trkpt lat="48.27898" lon="7.35123">
        <ele>221</ele>
        <time>2021-06-21T07:38:56Z</time>
      </trkpt>
      <trkpt lat="48.27896" lon="7.35116">
        <ele>221.2</ele>
        <time>2021-06-21T07:38:57Z</time>
      </trkpt>
      <trkpt lat="48.27891" lon="7.35091">
        <ele>221.4</ele>
        <time>2021-06-21T07:39:00Z</time>
      </trkpt>
      <trkpt lat="48.2789" lon="7.35074">
        <ele>221.6</ele>
        <time>2021-06-21T07:39:02Z</time>
      </trkpt>
      <trkpt lat="48.2789" lon="7.35066">
        <ele>221.6</ele>
        <time>2021-06-21T07:39:03Z</time>
      </trkpt>
      <trkpt lat="48.27893" lon="7.35016">
        <ele>221.8</ele>
        <time>2021-06-21T07:39:09Z</time>
      </trkpt>
      <trkpt lat="48.27896" lon="7.34957">
        <ele>222</ele>
        <time>2021-06-21T07:39:16Z</time>
      </trkpt>
      <trkpt lat="48.279" lon="7.34897">
        <ele>222.6</ele>
        <time>2021-06-21T07:39:23Z</time>
      </trkpt>
      <trkpt lat="48.27902" lon="7.34864">
        <ele>222.6</ele>
        <time>2021-06-21T07:39:27Z</time>
      </trkpt>
      <trkpt lat="48.27906" lon="7.34821">
        <ele>222.6</ele>
        <time>2021-06-21T07:39:32Z</time>
      </trkpt>
      <trkpt lat="48.27908" lon="7.34786">
        <ele>222.8</ele>
        <time>2021-06-21T07:39:36Z</time>
      </trkpt>
      <trkpt lat="48.27909" lon="7.34778">
        <ele>223</ele>
        <time>2021-06-21T07:39:37Z</time>
      </trkpt>
      <trkpt lat="48.27909" lon="7.34769">
        <ele>223</ele>
        <time>2021-06-21T07:39:38Z</time>
      </trkpt>
      <trkpt lat="48.27909" lon="7.34744">
        <ele>223.2</ele>
        <time>2021-06-21T07:39:41Z</time>
      </trkpt>
      <trkpt lat="48.27907" lon="7.34726">
        <ele>223.6</ele>
        <time>2021-06-21T07:39:43Z</time>
      </trkpt>
      <trkpt lat="48.27905" lon="7.34718">
        <ele>223.6</ele>
        <time>2021-06-21T07:39:44Z</time>
      </trkpt>
      <trkpt lat="48.27897" lon="7.34676">
        <ele>223.8</ele>
        <time>2021-06-21T07:39:49Z</time>
      </trkpt>
      <trkpt lat="48.27894" lon="7.34661">
        <ele>223.8</ele>
        <time>2021-06-21T07:39:51Z</time>
      </trkpt>
      <trkpt lat="48.27885" lon="7.34636">
        <ele>224</ele>
        <time>2021-06-21T07:39:55Z</time>
      </trkpt>
      <trkpt lat="48.27879" lon="7.34623">
        <ele>224</ele>
        <time>2021-06-21T07:39:57Z</time>
      </trkpt>
      <trkpt lat="48.27872" lon="7.3461">
        <ele>224.2</ele>
        <time>2021-06-21T07:39:59Z</time>
      </trkpt>
      <trkpt lat="48.27869" lon="7.34604">
        <ele>224.2</ele>
        <time>2021-06-21T07:40:00Z</time>
      </trkpt>
      <trkpt lat="48.27865" lon="7.34598">
        <ele>224.4</ele>
        <time>2021-06-21T07:40:01Z</time>
      </trkpt>
      <trkpt lat="48.27852" lon="7.34569">
        <ele>224.6</ele>
        <time>2021-06-21T07:40:05Z</time>
      </trkpt>
      <trkpt lat="48.27839" lon="7.34542">
        <ele>224.6</ele>
        <time>2021-06-21T07:40:09Z</time>
      </trkpt>
      <trkpt lat="48.27834" lon="7.34528">
        <ele>224.8</ele>
        <time>2021-06-21T07:40:11Z</time>
      </trkpt>
      <trkpt lat="48.27831" lon="7.34522">
        <ele>224.8</ele>
        <time>2021-06-21T07:40:12Z</time>
      </trkpt>
      <trkpt lat="48.27826" lon="7.34509">
        <ele>224.8</ele>
        <time>2021-06-21T07:40:14Z</time>
      </trkpt>
      <trkpt lat="48.27822" lon="7.34499">
        <ele>225.2</ele>
        <time>2021-06-21T07:40:16Z</time>
      </trkpt>
      <trkpt lat="48.27821" lon="7.34485">
        <ele>225.8</ele>
        <time>2021-06-21T07:40:19Z</time>
      </trkpt>
      <trkpt lat="48.27823" lon="7.34481">
        <ele>226</ele>
        <time>2021-06-21T07:40:20Z</time>
      </trkpt>
      <trkpt lat="48.27844" lon="7.34461">
        <ele>226.4</ele>
        <time>2021-06-21T07:40:25Z</time>
      </trkpt>
      <trkpt lat="48.27849" lon="7.34456">
        <ele>226.4</ele>
        <time>2021-06-21T07:40:26Z</time>
      </trkpt>
      <trkpt lat="48.27869" lon="7.34436">
        <ele>226.2</ele>
        <time>2021-06-21T07:40:30Z</time>
      </trkpt>
      <trkpt lat="48.27889" lon="7.34415">
        <ele>225.6</ele>
        <time>2021-06-21T07:40:34Z</time>
      </trkpt>
      <trkpt lat="48.27898" lon="7.34402">
        <ele>225.8</ele>
        <time>2021-06-21T07:40:36Z</time>
      </trkpt>
      <trkpt lat="48.2791" lon="7.34374">
        <ele>225.8</ele>
        <time>2021-06-21T07:40:40Z</time>
      </trkpt>
      <trkpt lat="48.27913" lon="7.34365">
        <ele>225.8</ele>
        <time>2021-06-21T07:40:41Z</time>
      </trkpt>
      <trkpt lat="48.27915" lon="7.34349">
        <ele>226</ele>
        <time>2021-06-21T07:40:43Z</time>
      </trkpt>
      <trkpt lat="48.27915" lon="7.34332">
        <ele>226</ele>
        <time>2021-06-21T07:40:45Z</time>
      </trkpt>
      <trkpt lat="48.2791" lon="7.34283">
        <ele>226.6</ele>
        <time>2021-06-21T07:40:51Z</time>
      </trkpt>
      <trkpt lat="48.27908" lon="7.34269">
        <ele>227</ele>
        <time>2021-06-21T07:40:53Z</time>
      </trkpt>
      <trkpt lat="48.27906" lon="7.34241">
        <ele>227.6</ele>
        <time>2021-06-21T07:40:57Z</time>
      </trkpt>
      <trkpt lat="48.27907" lon="7.34223">
        <ele>228</ele>
        <time>2021-06-21T07:41:00Z</time>
      </trkpt>
      <trkpt lat="48.27907" lon="7.34207">
        <ele>228.6</ele>
        <time>2021-06-21T07:41:03Z</time>
      </trkpt>
      <trkpt lat="48.27907" lon="7.34202">
        <ele>228.8</ele>
        <time>2021-06-21T07:41:04Z</time>
      </trkpt>
      <trkpt lat="48.27908" lon="7.34192">
        <ele>229.4</ele>
        <time>2021-06-21T07:41:06Z</time>
      </trkpt>
      <trkpt lat="48.27908" lon="7.34176">
        <ele>230.4</ele>
        <time>2021-06-21T07:41:09Z</time>
      </trkpt>
      <trkpt lat="48.27907" lon="7.34155">
        <ele>231</ele>
        <time>2021-06-21T07:41:13Z</time>
      </trkpt>
      <trkpt lat="48.27906" lon="7.34145">
        <ele>231.4</ele>
        <time>2021-06-21T07:41:15Z</time>
      </trkpt>
      <trkpt lat="48.27905" lon="7.34139">
        <ele>231.6</ele>
        <time>2021-06-21T07:41:16Z</time>
      </trkpt>
      <trkpt lat="48.27899" lon="7.34118">
        <ele>232.4</ele>
        <time>2021-06-21T07:41:20Z</time>
      </trkpt>
      <trkpt lat="48.27897" lon="7.34107">
        <ele>232.8</ele>
        <time>2021-06-21T07:41:22Z</time>
      </trkpt>
      <trkpt lat="48.27893" lon="7.34081">
        <ele>233.8</ele>
        <time>2021-06-21T07:41:27Z</time>
      </trkpt>
      <trkpt lat="48.27879" lon="7.34049">
        <ele>235</ele>
        <time>2021-06-21T07:41:34Z</time>
      </trkpt>
      <trkpt lat="48.27868" lon="7.34026">
        <ele>236</ele>
        <time>2021-06-21T07:41:38Z</time>
      </trkpt>
      <trkpt lat="48.27867" lon="7.3402">
        <ele>236</ele>
        <time>2021-06-21T07:41:39Z</time>
      </trkpt>
      <trkpt lat="48.27862" lon="7.34006">
        <ele>236.4</ele>
        <time>2021-06-21T07:41:42Z</time>
      </trkpt>
      <trkpt lat="48.27861" lon="7.34001">
        <ele>236.6</ele>
        <time>2021-06-21T07:41:43Z</time>
      </trkpt>
      <trkpt lat="48.27855" lon="7.33986">
        <ele>237</ele>
        <time>2021-06-21T07:41:45Z</time>
      </trkpt>
      <trkpt lat="48.27849" lon="7.33975">
        <ele>237.4</ele>
        <time>2021-06-21T07:41:47Z</time>
      </trkpt>
      <trkpt lat="48.27841" lon="7.33948">
        <ele>238.2</ele>
        <time>2021-06-21T07:41:52Z</time>
      </trkpt>
      <trkpt lat="48.27839" lon="7.33942">
        <ele>238.2</ele>
        <time>2021-06-21T07:41:53Z</time>
      </trkpt>
      <trkpt lat="48.27827" lon="7.33913">
        <ele>238.6</ele>
        <time>2021-06-21T07:41:58Z</time>
      </trkpt>
      <trkpt lat="48.2782" lon="7.339">
        <ele>239</ele>
        <time>2021-06-21T07:42:00Z</time>
      </trkpt>
      <trkpt lat="48.27812" lon="7.33891">
        <ele>239</ele>
        <time>2021-06-21T07:42:02Z</time>
      </trkpt>
      <trkpt lat="48.27803" lon="7.33878">
        <ele>239</ele>
        <time>2021-06-21T07:42:04Z</time>
      </trkpt>
      <trkpt lat="48.27804" lon="7.33873">
        <ele>239.2</ele>
        <time>2021-06-21T07:42:05Z</time>
      </trkpt>
      <trkpt lat="48.278" lon="7.33868">
        <ele>239.4</ele>
        <time>2021-06-21T07:42:06Z</time>
      </trkpt>
      <trkpt lat="48.2779" lon="7.3384">
        <ele>239.8</ele>
        <time>2021-06-21T07:42:10Z</time>
      </trkpt>
      <trkpt lat="48.27785" lon="7.33831">
        <ele>240</ele>
        <time>2021-06-21T07:42:12Z</time>
      </trkpt>
      <trkpt lat="48.27771" lon="7.33807">
        <ele>240.2</ele>
        <time>2021-06-21T07:42:16Z</time>
      </trkpt>
      <trkpt lat="48.27768" lon="7.33803">
        <ele>240.4</ele>
        <time>2021-06-21T07:42:17Z</time>
      </trkpt>
      <trkpt lat="48.27766" lon="7.33798">
        <ele>240.4</ele>
        <time>2021-06-21T07:42:18Z</time>
      </trkpt>
      <trkpt lat="48.27755" lon="7.33771">
        <ele>241.2</ele>
        <time>2021-06-21T07:42:23Z</time>
      </trkpt>
      <trkpt lat="48.27741" lon="7.33748">
        <ele>242.2</ele>
        <time>2021-06-21T07:42:28Z</time>
      </trkpt>
      <trkpt lat="48.27738" lon="7.33743">
        <ele>242.4</ele>
        <time>2021-06-21T07:42:29Z</time>
      </trkpt>
      <trkpt lat="48.2773" lon="7.33729">
        <ele>242.8</ele>
        <time>2021-06-21T07:42:32Z</time>
      </trkpt>
      <trkpt lat="48.27727" lon="7.33723">
        <ele>242.8</ele>
        <time>2021-06-21T07:42:33Z</time>
      </trkpt>
      <trkpt lat="48.2772" lon="7.33714">
        <ele>243</ele>
        <time>2021-06-21T07:42:35Z</time>
      </trkpt>
      <trkpt lat="48.27709" lon="7.33701">
        <ele>243</ele>
        <time>2021-06-21T07:42:38Z</time>
      </trkpt>
      <trkpt lat="48.27704" lon="7.33694">
        <ele>243</ele>
        <time>2021-06-21T07:42:40Z</time>
      </trkpt>
      <trkpt lat="48.2769" lon="7.33673">
        <ele>242.8</ele>
        <time>2021-06-21T07:42:44Z</time>
      </trkpt>
      <trkpt lat="48.27681" lon="7.33653">
        <ele>242.6</ele>
        <time>2021-06-21T07:42:47Z</time>
      </trkpt>
      <trkpt lat="48.27676" lon="7.33642">
        <ele>242.4</ele>
        <time>2021-06-21T07:42:48Z</time>
      </trkpt>
      <trkpt lat="48.27673" lon="7.33624">
        <ele>242.2</ele>
        <time>2021-06-21T07:42:50Z</time>
      </trkpt>
      <trkpt lat="48.27667" lon="7.33621">
        <ele>242</ele>
        <time>2021-06-21T07:42:51Z</time>
      </trkpt>
      <trkpt lat="48.27655" lon="7.33622">
        <ele>242</ele>
        <time>2021-06-21T07:42:54Z</time>
      </trkpt>
      <trkpt lat="48.2764" lon="7.3363">
        <ele>242.2</ele>
        <time>2021-06-21T07:42:58Z</time>
      </trkpt>
      <trkpt lat="48.27626" lon="7.33629">
        <ele>242.4</ele>
        <time>2021-06-21T07:43:00Z</time>
      </trkpt>
      <trkpt lat="48.27604" lon="7.33614">
        <ele>242.4</ele>
        <time>2021-06-21T07:43:03Z</time>
      </trkpt>
      <trkpt lat="48.27597" lon="7.33604">
        <ele>242.4</ele>
        <time>2021-06-21T07:43:05Z</time>
      </trkpt>
      <trkpt lat="48.27583" lon="7.33584">
        <ele>242.4</ele>
        <time>2021-06-21T07:43:08Z</time>
      </trkpt>
      <trkpt lat="48.2758" lon="7.33577">
        <ele>242.4</ele>
        <time>2021-06-21T07:43:09Z</time>
      </trkpt>
      <trkpt lat="48.27574" lon="7.33565">
        <ele>242.4</ele>
        <time>2021-06-21T07:43:11Z</time>
      </trkpt>
      <trkpt lat="48.2756" lon="7.33546">
        <ele>242.4</ele>
        <time>2021-06-21T07:43:14Z</time>
      </trkpt>
      <trkpt lat="48.27541" lon="7.33516">
        <ele>242.4</ele>
        <time>2021-06-21T07:43:19Z</time>
      </trkpt>
      <trkpt lat="48.27535" lon="7.33504">
        <ele>242</ele>
        <time>2021-06-21T07:43:21Z</time>
      </trkpt>
      <trkpt lat="48.27531" lon="7.33499">
        <ele>241.8</ele>
        <time>2021-06-21T07:43:22Z</time>
      </trkpt>
      <trkpt lat="48.27522" lon="7.33489">
        <ele>241.8</ele>
        <time>2021-06-21T07:43:24Z</time>
      </trkpt>
      <trkpt lat="48.27511" lon="7.33479">
        <ele>241.6</ele>
        <time>2021-06-21T07:43:26Z</time>
      </trkpt>
      <trkpt lat="48.27506" lon="7.33475">
        <ele>241.6</ele>
        <time>2021-06-21T07:43:27Z</time>
      </trkpt>
      <trkpt lat="48.27486" lon="7.33463">
        <ele>241.4</ele>
        <time>2021-06-21T07:43:31Z</time>
      </trkpt>
      <trkpt lat="48.27451" lon="7.33438">
        <ele>240.6</ele>
        <time>2021-06-21T07:43:38Z</time>
      </trkpt>
      <trkpt lat="48.27434" lon="7.33424">
        <ele>240.6</ele>
        <time>2021-06-21T07:43:41Z</time>
      </trkpt>
      <trkpt lat="48.27427" lon="7.33411">
        <ele>240.2</ele>
        <time>2021-06-21T07:43:43Z</time>
      </trkpt>
      <trkpt lat="48.27414" lon="7.33384">
        <ele>239.2</ele>
        <time>2021-06-21T07:43:46Z</time>
      </trkpt>
      <trkpt lat="48.2741" lon="7.33378">
        <ele>239</ele>
        <time>2021-06-21T07:43:47Z</time>
      </trkpt>
      <trkpt lat="48.27404" lon="7.33366">
        <ele>238.4</ele>
        <time>2021-06-21T07:43:49Z</time>
      </trkpt>
      <trkpt lat="48.27402" lon="7.33358">
        <ele>238.2</ele>
        <time>2021-06-21T07:43:50Z</time>
      </trkpt>
      <trkpt lat="48.27396" lon="7.3334">
        <ele>238</ele>
        <time>2021-06-21T07:43:52Z</time>
      </trkpt>
      <trkpt lat="48.27393" lon="7.3333">
        <ele>237.8</ele>
        <time>2021-06-21T07:43:53Z</time>
      </trkpt>
      <trkpt lat="48.27386" lon="7.33319">
        <ele>237.6</ele>
        <time>2021-06-21T07:43:54Z</time>
      </trkpt>
      <trkpt lat="48.27381" lon="7.33298">
        <ele>237.6</ele>
        <time>2021-06-21T07:43:56Z</time>
      </trkpt>
      <trkpt lat="48.27375" lon="7.3327">
        <ele>237.4</ele>
        <time>2021-06-21T07:43:59Z</time>
      </trkpt>
      <trkpt lat="48.27375" lon="7.33261">
        <ele>237.4</ele>
        <time>2021-06-21T07:44:00Z</time>
      </trkpt>
      <trkpt lat="48.27372" lon="7.33253">
        <ele>237.4</ele>
        <time>2021-06-21T07:44:01Z</time>
      </trkpt>
      <trkpt lat="48.27367" lon="7.33234">
        <ele>237.4</ele>
        <time>2021-06-21T07:44:03Z</time>
      </trkpt>
      <trkpt lat="48.27364" lon="7.33219">
        <ele>237.4</ele>
        <time>2021-06-21T07:44:05Z</time>
      </trkpt>
      <trkpt lat="48.27361" lon="7.33205">
        <ele>237.4</ele>
        <time>2021-06-21T07:44:07Z</time>
      </trkpt>
      <trkpt lat="48.27359" lon="7.33196">
        <ele>237.2</ele>
        <time>2021-06-21T07:44:08Z</time>
      </trkpt>
      <trkpt lat="48.27353" lon="7.33166">
        <ele>237.2</ele>
        <time>2021-06-21T07:44:11Z</time>
      </trkpt>
      <trkpt lat="48.27339" lon="7.33137">
        <ele>237.4</ele>
        <time>2021-06-21T07:44:14Z</time>
      </trkpt>
      <trkpt lat="48.27341" lon="7.33129">
        <ele>237.6</ele>
        <time>2021-06-21T07:44:15Z</time>
      </trkpt>
      <trkpt lat="48.27337" lon="7.33113">
        <ele>237.6</ele>
        <time>2021-06-21T07:44:17Z</time>
      </trkpt>
      <trkpt lat="48.27337" lon="7.33101">
        <ele>237.6</ele>
        <time>2021-06-21T07:44:18Z</time>
      </trkpt>
      <trkpt lat="48.27333" lon="7.33076">
        <ele>237.8</ele>
        <time>2021-06-21T07:44:21Z</time>
      </trkpt>
      <trkpt lat="48.27333" lon="7.3307">
        <ele>237.8</ele>
        <time>2021-06-21T07:44:22Z</time>
      </trkpt>
      <trkpt lat="48.27332" lon="7.33047">
        <ele>238</ele>
        <time>2021-06-21T07:44:26Z</time>
      </trkpt>
      <trkpt lat="48.27332" lon="7.33032">
        <ele>238</ele>
        <time>2021-06-21T07:44:28Z</time>
      </trkpt>
      <trkpt lat="48.27334" lon="7.33019">
        <ele>238.4</ele>
        <time>2021-06-21T07:44:30Z</time>
      </trkpt>
      <trkpt lat="48.27336" lon="7.33006">
        <ele>238.6</ele>
        <time>2021-06-21T07:44:32Z</time>
      </trkpt>
      <trkpt lat="48.27331" lon="7.32988">
        <ele>239.6</ele>
        <time>2021-06-21T07:44:35Z</time>
      </trkpt>
      <trkpt lat="48.2733" lon="7.32981">
        <ele>240.2</ele>
        <time>2021-06-21T07:44:36Z</time>
      </trkpt>
      <trkpt lat="48.2733" lon="7.32975">
        <ele>240.4</ele>
        <time>2021-06-21T07:44:37Z</time>
      </trkpt>
      <trkpt lat="48.27329" lon="7.32961">
        <ele>240.6</ele>
        <time>2021-06-21T07:44:39Z</time>
      </trkpt>
      <trkpt lat="48.27332" lon="7.32944">
        <ele>240.6</ele>
        <time>2021-06-21T07:44:42Z</time>
      </trkpt>
      <trkpt lat="48.27324" lon="7.32919">
        <ele>240.2</ele>
        <time>2021-06-21T07:44:44Z</time>
      </trkpt>
      <trkpt lat="48.27317" lon="7.32904">
        <ele>239</ele>
        <time>2021-06-21T07:44:45Z</time>
      </trkpt>
      <trkpt lat="48.27312" lon="7.3288">
        <ele>237.8</ele>
        <time>2021-06-21T07:44:47Z</time>
      </trkpt>
      <trkpt lat="48.2731" lon="7.32868">
        <ele>237</ele>
        <time>2021-06-21T07:44:48Z</time>
      </trkpt>
      <trkpt lat="48.27306" lon="7.32845">
        <ele>236.4</ele>
        <time>2021-06-21T07:44:50Z</time>
      </trkpt>
      <trkpt lat="48.27306" lon="7.32836">
        <ele>236.2</ele>
        <time>2021-06-21T07:44:51Z</time>
      </trkpt>
      <trkpt lat="48.27297" lon="7.32807">
        <ele>236</ele>
        <time>2021-06-21T07:44:54Z</time>
      </trkpt>
      <trkpt lat="48.2728" lon="7.32774">
        <ele>236</ele>
        <time>2021-06-21T07:44:57Z</time>
      </trkpt>
      <trkpt lat="48.27279" lon="7.32765">
        <ele>236</ele>
        <time>2021-06-21T07:44:58Z</time>
      </trkpt>
      <trkpt lat="48.2728" lon="7.32758">
        <ele>236</ele>
        <time>2021-06-21T07:44:59Z</time>
      </trkpt>
      <trkpt lat="48.27276" lon="7.32745">
        <ele>236</ele>
        <time>2021-06-21T07:45:01Z</time>
      </trkpt>
      <trkpt lat="48.27273" lon="7.32733">
        <ele>236</ele>
        <time>2021-06-21T07:45:03Z</time>
      </trkpt>
      <trkpt lat="48.27275" lon="7.32727">
        <ele>236</ele>
        <time>2021-06-21T07:45:04Z</time>
      </trkpt>
      <trkpt lat="48.27266" lon="7.32705">
        <ele>236.8</ele>
        <time>2021-06-21T07:45:07Z</time>
      </trkpt>
      <trkpt lat="48.27261" lon="7.32698">
        <ele>237.4</ele>
        <time>2021-06-21T07:45:08Z</time>
      </trkpt>
      <trkpt lat="48.27258" lon="7.32689">
        <ele>237.6</ele>
        <time>2021-06-21T07:45:09Z</time>
      </trkpt>
      <trkpt lat="48.2726" lon="7.32671">
        <ele>238</ele>
        <time>2021-06-21T07:45:11Z</time>
      </trkpt>
      <trkpt lat="48.27259" lon="7.32662">
        <ele>238.2</ele>
        <time>2021-06-21T07:45:12Z</time>
      </trkpt>
      <trkpt lat="48.27255" lon="7.32655">
        <ele>238.4</ele>
        <time>2021-06-21T07:45:13Z</time>
      </trkpt>
      <trkpt lat="48.27246" lon="7.32641">
        <ele>238.4</ele>
        <time>2021-06-21T07:45:15Z</time>
      </trkpt>
      <trkpt lat="48.27248" lon="7.32618">
        <ele>238.6</ele>
        <time>2021-06-21T07:45:17Z</time>
      </trkpt>
      <trkpt lat="48.27251" lon="7.32599">
        <ele>238.6</ele>
        <time>2021-06-21T07:45:19Z</time>
      </trkpt>
      <trkpt lat="48.27255" lon="7.32562">
        <ele>238.4</ele>
        <time>2021-06-21T07:45:23Z</time>
      </trkpt>
      <trkpt lat="48.27255" lon="7.32536">
        <ele>238.6</ele>
        <time>2021-06-21T07:45:26Z</time>
      </trkpt>
      <trkpt lat="48.27251" lon="7.32521">
        <ele>239</ele>
        <time>2021-06-21T07:45:28Z</time>
      </trkpt>
      <trkpt lat="48.27251" lon="7.32504">
        <ele>239.4</ele>
        <time>2021-06-21T07:45:30Z</time>
      </trkpt>
      <trkpt lat="48.27253" lon="7.32498">
        <ele>239.6</ele>
        <time>2021-06-21T07:45:31Z</time>
      </trkpt>
      <trkpt lat="48.27257" lon="7.32481">
        <ele>240.6</ele>
        <time>2021-06-21T07:45:35Z</time>
      </trkpt>
      <trkpt lat="48.27258" lon="7.32476">
        <ele>240.8</ele>
        <time>2021-06-21T07:45:36Z</time>
      </trkpt>
      <trkpt lat="48.27261" lon="7.32462">
        <ele>242</ele>
        <time>2021-06-21T07:45:39Z</time>
      </trkpt>
      <trkpt lat="48.27261" lon="7.3244">
        <ele>242.6</ele>
        <time>2021-06-21T07:45:43Z</time>
      </trkpt>
      <trkpt lat="48.27251" lon="7.32422">
        <ele>242.4</ele>
        <time>2021-06-21T07:45:45Z</time>
      </trkpt>
      <trkpt lat="48.27247" lon="7.32413">
        <ele>242.6</ele>
        <time>2021-06-21T07:45:46Z</time>
      </trkpt>
      <trkpt lat="48.27243" lon="7.32404">
        <ele>242.6</ele>
        <time>2021-06-21T07:45:47Z</time>
      </trkpt>
      <trkpt lat="48.27237" lon="7.32387">
        <ele>242</ele>
        <time>2021-06-21T07:45:49Z</time>
      </trkpt>
      <trkpt lat="48.27233" lon="7.32371">
        <ele>241.8</ele>
        <time>2021-06-21T07:45:51Z</time>
      </trkpt>
      <trkpt lat="48.27229" lon="7.32356">
        <ele>241.8</ele>
        <time>2021-06-21T07:45:53Z</time>
      </trkpt>
      <trkpt lat="48.27224" lon="7.32334">
        <ele>242</ele>
        <time>2021-06-21T07:45:56Z</time>
      </trkpt>
      <trkpt lat="48.27227" lon="7.32311">
        <ele>243.2</ele>
        <time>2021-06-21T07:46:00Z</time>
      </trkpt>
      <trkpt lat="48.27226" lon="7.32306">
        <ele>243.4</ele>
        <time>2021-06-21T07:46:01Z</time>
      </trkpt>
      <trkpt lat="48.27224" lon="7.32301">
        <ele>243.8</ele>
        <time>2021-06-21T07:46:02Z</time>
      </trkpt>
      <trkpt lat="48.27227" lon="7.32289">
        <ele>244</ele>
        <time>2021-06-21T07:46:04Z</time>
      </trkpt>
      <trkpt lat="48.27226" lon="7.32282">
        <ele>244.2</ele>
        <time>2021-06-21T07:46:05Z</time>
      </trkpt>
      <trkpt lat="48.27222" lon="7.32259">
        <ele>244.8</ele>
        <time>2021-06-21T07:46:08Z</time>
      </trkpt>
      <trkpt lat="48.27221" lon="7.32246">
        <ele>245.2</ele>
        <time>2021-06-21T07:46:10Z</time>
      </trkpt>
      <trkpt lat="48.27222" lon="7.32241">
        <ele>245.6</ele>
        <time>2021-06-21T07:46:11Z</time>
      </trkpt>
      <trkpt lat="48.27223" lon="7.32235">
        <ele>245.8</ele>
        <time>2021-06-21T07:46:12Z</time>
      </trkpt>
      <trkpt lat="48.27222" lon="7.32215">
        <ele>246</ele>
        <time>2021-06-21T07:46:15Z</time>
      </trkpt>
      <trkpt lat="48.27215" lon="7.32194">
        <ele>246.2</ele>
        <time>2021-06-21T07:46:18Z</time>
      </trkpt>
      <trkpt lat="48.27215" lon="7.32186">
        <ele>246.2</ele>
        <time>2021-06-21T07:46:19Z</time>
      </trkpt>
      <trkpt lat="48.27214" lon="7.3215">
        <ele>246.4</ele>
        <time>2021-06-21T07:46:24Z</time>
      </trkpt>
      <trkpt lat="48.27198" lon="7.32113">
        <ele>246.6</ele>
        <time>2021-06-21T07:46:29Z</time>
      </trkpt>
      <trkpt lat="48.27184" lon="7.32089">
        <ele>246.4</ele>
        <time>2021-06-21T07:46:35Z</time>
      </trkpt>
      <trkpt lat="48.27171" lon="7.32094">
        <ele>244.6</ele>
        <time>2021-06-21T07:46:38Z</time>
      </trkpt>
      <trkpt lat="48.27166" lon="7.32095">
        <ele>244</ele>
        <time>2021-06-21T07:46:39Z</time>
      </trkpt>
      <trkpt lat="48.27161" lon="7.32098">
        <ele>243.4</ele>
        <time>2021-06-21T07:46:40Z</time>
      </trkpt>
      <trkpt lat="48.27155" lon="7.32107">
        <ele>242.6</ele>
        <time>2021-06-21T07:46:42Z</time>
      </trkpt>
      <trkpt lat="48.27155" lon="7.32112">
        <ele>242</ele>
        <time>2021-06-21T07:46:43Z</time>
      </trkpt>
      <trkpt lat="48.27156" lon="7.32117">
        <ele>241.8</ele>
        <time>2021-06-21T07:46:44Z</time>
      </trkpt>
      <trkpt lat="48.27159" lon="7.32122">
        <ele>241.4</ele>
        <time>2021-06-21T07:46:45Z</time>
      </trkpt>
      <trkpt lat="48.27161" lon="7.32129">
        <ele>241</ele>
        <time>2021-06-21T07:46:46Z</time>
      </trkpt>
      <trkpt lat="48.27163" lon="7.32135">
        <ele>240.8</ele>
        <time>2021-06-21T07:46:47Z</time>
      </trkpt>
      <trkpt lat="48.27168" lon="7.32149">
        <ele>240.4</ele>
        <time>2021-06-21T07:46:49Z</time>
      </trkpt>
      <trkpt lat="48.27168" lon="7.32157">
        <ele>240.2</ele>
        <time>2021-06-21T07:46:50Z</time>
      </trkpt>
      <trkpt lat="48.27163" lon="7.32167">
        <ele>240</ele>
        <time>2021-06-21T07:46:52Z</time>
      </trkpt>
      <trkpt lat="48.2716" lon="7.3217">
        <ele>239.8</ele>
        <time>2021-06-21T07:46:53Z</time>
      </trkpt>
      <trkpt lat="48.27156" lon="7.32172">
        <ele>239.8</ele>
        <time>2021-06-21T07:46:54Z</time>
      </trkpt>
      <trkpt lat="48.27148" lon="7.32173">
        <ele>239.8</ele>
        <time>2021-06-21T07:46:55Z</time>
      </trkpt>
      <trkpt lat="48.27132" lon="7.3218">
        <ele>239.6</ele>
        <time>2021-06-21T07:46:58Z</time>
      </trkpt>
      <trkpt lat="48.27097" lon="7.32195">
        <ele>239.6</ele>
        <time>2021-06-21T07:47:06Z</time>
      </trkpt>
      <trkpt lat="48.27091" lon="7.32195">
        <ele>239.6</ele>
        <time>2021-06-21T07:47:08Z</time>
      </trkpt>
      <trkpt lat="48.27088" lon="7.32191">
        <ele>239.6</ele>
        <time>2021-06-21T07:47:09Z</time>
      </trkpt>
      <trkpt lat="48.27088" lon="7.32186">
        <ele>239.6</ele>
        <time>2021-06-21T07:47:10Z</time>
      </trkpt>
      <trkpt lat="48.27086" lon="7.32168">
        <ele>239.4</ele>
        <time>2021-06-21T07:47:13Z</time>
      </trkpt>
      <trkpt lat="48.27078" lon="7.32121">
        <ele>239.4</ele>
        <time>2021-06-21T07:47:19Z</time>
      </trkpt>
      <trkpt lat="48.27067" lon="7.3206">
        <ele>240</ele>
        <time>2021-06-21T07:47:27Z</time>
      </trkpt>
      <trkpt lat="48.27052" lon="7.31993">
        <ele>240.6</ele>
        <time>2021-06-21T07:47:36Z</time>
      </trkpt>
      <trkpt lat="48.27049" lon="7.31979">
        <ele>240.6</ele>
        <time>2021-06-21T07:47:38Z</time>
      </trkpt>
      <trkpt lat="48.27047" lon="7.31973">
        <ele>240.8</ele>
        <time>2021-06-21T07:47:39Z</time>
      </trkpt>
      <trkpt lat="48.27044" lon="7.31968">
        <ele>241</ele>
        <time>2021-06-21T07:47:40Z</time>
      </trkpt>
      <trkpt lat="48.27039" lon="7.31966">
        <ele>241</ele>
        <time>2021-06-21T07:47:41Z</time>
      </trkpt>
      <trkpt lat="48.27033" lon="7.31965">
        <ele>241.2</ele>
        <time>2021-06-21T07:47:42Z</time>
      </trkpt>
      <trkpt lat="48.27021" lon="7.31966">
        <ele>241.2</ele>
        <time>2021-06-21T07:47:44Z</time>
      </trkpt>
      <trkpt lat="48.26989" lon="7.31972">
        <ele>241.4</ele>
        <time>2021-06-21T07:47:50Z</time>
      </trkpt>
      <trkpt lat="48.26957" lon="7.31978">
        <ele>241.6</ele>
        <time>2021-06-21T07:47:57Z</time>
      </trkpt>
      <trkpt lat="48.26954" lon="7.31977">
        <ele>241.6</ele>
        <time>2021-06-21T07:47:58Z</time>
      </trkpt>
      <trkpt lat="48.26952" lon="7.31972">
        <ele>241.8</ele>
        <time>2021-06-21T07:47:59Z</time>
      </trkpt>
      <trkpt lat="48.26951" lon="7.31956">
        <ele>241.8</ele>
        <time>2021-06-21T07:48:02Z</time>
      </trkpt>
      <trkpt lat="48.2695" lon="7.3195">
        <ele>242</ele>
        <time>2021-06-21T07:48:03Z</time>
      </trkpt>
      <trkpt lat="48.26947" lon="7.3192">
        <ele>242.2</ele>
        <time>2021-06-21T07:48:07Z</time>
      </trkpt>
      <trkpt lat="48.26946" lon="7.31881">
        <ele>242.4</ele>
        <time>2021-06-21T07:48:12Z</time>
      </trkpt>
      <trkpt lat="48.26947" lon="7.31873">
        <ele>242.6</ele>
        <time>2021-06-21T07:48:13Z</time>
      </trkpt>
      <trkpt lat="48.26946" lon="7.31841">
        <ele>243</ele>
        <time>2021-06-21T07:48:17Z</time>
      </trkpt>
      <trkpt lat="48.26946" lon="7.318">
        <ele>243.4</ele>
        <time>2021-06-21T07:48:22Z</time>
      </trkpt>
      <trkpt lat="48.26946" lon="7.31792">
        <ele>243.4</ele>
        <time>2021-06-21T07:48:23Z</time>
      </trkpt>
      <trkpt lat="48.26946" lon="7.31752">
        <ele>243.8</ele>
        <time>2021-06-21T07:48:28Z</time>
      </trkpt>
      <trkpt lat="48.26946" lon="7.31744">
        <ele>244</ele>
        <time>2021-06-21T07:48:29Z</time>
      </trkpt>
      <trkpt lat="48.26946" lon="7.31695">
        <ele>244.4</ele>
        <time>2021-06-21T07:48:35Z</time>
      </trkpt>
      <trkpt lat="48.26947" lon="7.31663">
        <ele>245</ele>
        <time>2021-06-21T07:48:39Z</time>
      </trkpt>
      <trkpt lat="48.26947" lon="7.31639">
        <ele>245.2</ele>
        <time>2021-06-21T07:48:42Z</time>
      </trkpt>
      <trkpt lat="48.26948" lon="7.31583">
        <ele>245.4</ele>
        <time>2021-06-21T07:48:49Z</time>
      </trkpt>
      <trkpt lat="48.26949" lon="7.31522">
        <ele>245.8</ele>
        <time>2021-06-21T07:48:57Z</time>
      </trkpt>
      <trkpt lat="48.26949" lon="7.31499">
        <ele>245.8</ele>
        <time>2021-06-21T07:49:00Z</time>
      </trkpt>
      <trkpt lat="48.26951" lon="7.31468">
        <ele>246</ele>
        <time>2021-06-21T07:49:04Z</time>
      </trkpt>
      <trkpt lat="48.26954" lon="7.31454">
        <ele>246</ele>
        <time>2021-06-21T07:49:06Z</time>
      </trkpt>
      <trkpt lat="48.26955" lon="7.31441">
        <ele>246</ele>
        <time>2021-06-21T07:49:08Z</time>
      </trkpt>
      <trkpt lat="48.26956" lon="7.31422">
        <ele>246</ele>
        <time>2021-06-21T07:49:11Z</time>
      </trkpt>
      <trkpt lat="48.26955" lon="7.31402">
        <ele>246.2</ele>
        <time>2021-06-21T07:49:15Z</time>
      </trkpt>
      <trkpt lat="48.26955" lon="7.31366">
        <ele>246.2</ele>
        <time>2021-06-21T07:49:20Z</time>
      </trkpt>
      <trkpt lat="48.26955" lon="7.31313">
        <ele>246.4</ele>
        <time>2021-06-21T07:49:27Z</time>
      </trkpt>
      <trkpt lat="48.26955" lon="7.31306">
        <ele>246.4</ele>
        <time>2021-06-21T07:49:28Z</time>
      </trkpt>
      <trkpt lat="48.26953" lon="7.31266">
        <ele>246.8</ele>
        <time>2021-06-21T07:49:33Z</time>
      </trkpt>
      <trkpt lat="48.26954" lon="7.3125">
        <ele>247</ele>
        <time>2021-06-21T07:49:35Z</time>
      </trkpt>
      <trkpt lat="48.26953" lon="7.3121">
        <ele>247</ele>
        <time>2021-06-21T07:49:40Z</time>
      </trkpt>
      <trkpt lat="48.26954" lon="7.31152">
        <ele>247.4</ele>
        <time>2021-06-21T07:49:47Z</time>
      </trkpt>
      <trkpt lat="48.26952" lon="7.31096">
        <ele>247.6</ele>
        <time>2021-06-21T07:49:54Z</time>
      </trkpt>
      <trkpt lat="48.26951" lon="7.31064">
        <ele>248</ele>
        <time>2021-06-21T07:49:58Z</time>
      </trkpt>
      <trkpt lat="48.26952" lon="7.31015">
        <ele>248.2</ele>
        <time>2021-06-21T07:50:04Z</time>
      </trkpt>
      <trkpt lat="48.26952" lon="7.30942">
        <ele>248.6</ele>
        <time>2021-06-21T07:50:13Z</time>
      </trkpt>
      <trkpt lat="48.26952" lon="7.30885">
        <ele>249.2</ele>
        <time>2021-06-21T07:50:20Z</time>
      </trkpt>
      <trkpt lat="48.26953" lon="7.30806">
        <ele>249.6</ele>
        <time>2021-06-21T07:50:30Z</time>
      </trkpt>
      <trkpt lat="48.26953" lon="7.30727">
        <ele>249.8</ele>
        <time>2021-06-21T07:50:40Z</time>
      </trkpt>
      <trkpt lat="48.26954" lon="7.30663">
        <ele>250.2</ele>
        <time>2021-06-21T07:50:48Z</time>
      </trkpt>
      <trkpt lat="48.26954" lon="7.30655">
        <ele>250.2</ele>
        <time>2021-06-21T07:50:49Z</time>
      </trkpt>
      <trkpt lat="48.26954" lon="7.30606">
        <ele>250.8</ele>
        <time>2021-06-21T07:50:55Z</time>
      </trkpt>
      <trkpt lat="48.26955" lon="7.3055">
        <ele>251.2</ele>
        <time>2021-06-21T07:51:02Z</time>
      </trkpt>
      <trkpt lat="48.26956" lon="7.30485">
        <ele>251.4</ele>
        <time>2021-06-21T07:51:10Z</time>
      </trkpt>
      <trkpt lat="48.26956" lon="7.30476">
        <ele>251.4</ele>
        <time>2021-06-21T07:51:11Z</time>
      </trkpt>
      <trkpt lat="48.26956" lon="7.30461">
        <ele>251.6</ele>
        <time>2021-06-21T07:51:13Z</time>
      </trkpt>
      <trkpt lat="48.26956" lon="7.30438">
        <ele>251.8</ele>
        <time>2021-06-21T07:51:16Z</time>
      </trkpt>
      <trkpt lat="48.26956" lon="7.3043">
        <ele>251.8</ele>
        <time>2021-06-21T07:51:17Z</time>
      </trkpt>
      <trkpt lat="48.26957" lon="7.30415">
        <ele>252</ele>
        <time>2021-06-21T07:51:19Z</time>
      </trkpt>
      <trkpt lat="48.26958" lon="7.30401">
        <ele>252</ele>
        <time>2021-06-21T07:51:21Z</time>
      </trkpt>
      <trkpt lat="48.26958" lon="7.30394">
        <ele>252.2</ele>
        <time>2021-06-21T07:51:22Z</time>
      </trkpt>
      <trkpt lat="48.26959" lon="7.30376">
        <ele>252.4</ele>
        <time>2021-06-21T07:51:24Z</time>
      </trkpt>
      <trkpt lat="48.26959" lon="7.30351">
        <ele>252.6</ele>
        <time>2021-06-21T07:51:27Z</time>
      </trkpt>
      <trkpt lat="48.26958" lon="7.30295">
        <ele>253</ele>
        <time>2021-06-21T07:51:34Z</time>
      </trkpt>
      <trkpt lat="48.26956" lon="7.30241">
        <ele>253.2</ele>
        <time>2021-06-21T07:51:41Z</time>
      </trkpt>
      <trkpt lat="48.26957" lon="7.30217">
        <ele>253.2</ele>
        <time>2021-06-21T07:51:44Z</time>
      </trkpt>
      <trkpt lat="48.26956" lon="7.3021">
        <ele>253.4</ele>
        <time>2021-06-21T07:51:45Z</time>
      </trkpt>
      <trkpt lat="48.26956" lon="7.30203">
        <ele>253.4</ele>
        <time>2021-06-21T07:51:46Z</time>
      </trkpt>
      <trkpt lat="48.26956" lon="7.30187">
        <ele>253.6</ele>
        <time>2021-06-21T07:51:48Z</time>
      </trkpt>
      <trkpt lat="48.26956" lon="7.30154">
        <ele>253.8</ele>
        <time>2021-06-21T07:51:52Z</time>
      </trkpt>
      <trkpt lat="48.26956" lon="7.3008">
        <ele>254</ele>
        <time>2021-06-21T07:52:01Z</time>
      </trkpt>
      <trkpt lat="48.26956" lon="7.30046">
        <ele>254.2</ele>
        <time>2021-06-21T07:52:05Z</time>
      </trkpt>
      <trkpt lat="48.26955" lon="7.30014">
        <ele>254.6</ele>
        <time>2021-06-21T07:52:09Z</time>
      </trkpt>
      <trkpt lat="48.26955" lon="7.29932">
        <ele>255.2</ele>
        <time>2021-06-21T07:52:19Z</time>
      </trkpt>
      <trkpt lat="48.26955" lon="7.29924">
        <ele>255.2</ele>
        <time>2021-06-21T07:52:20Z</time>
      </trkpt>
      <trkpt lat="48.26955" lon="7.29908">
        <ele>255.4</ele>
        <time>2021-06-21T07:52:22Z</time>
      </trkpt>
      <trkpt lat="48.26955" lon="7.29843">
        <ele>255.8</ele>
        <time>2021-06-21T07:52:30Z</time>
      </trkpt>
      <trkpt lat="48.26956" lon="7.29757">
        <ele>256.2</ele>
        <time>2021-06-21T07:52:41Z</time>
      </trkpt>
      <trkpt lat="48.26956" lon="7.29739">
        <ele>256.4</ele>
        <time>2021-06-21T07:52:43Z</time>
      </trkpt>
      <trkpt lat="48.26958" lon="7.29678">
        <ele>256.6</ele>
        <time>2021-06-21T07:52:51Z</time>
      </trkpt>
      <trkpt lat="48.26964" lon="7.29624">
        <ele>257</ele>
        <time>2021-06-21T07:52:58Z</time>
      </trkpt>
      <trkpt lat="48.26973" lon="7.29573">
        <ele>257.2</ele>
        <time>2021-06-21T07:53:05Z</time>
      </trkpt>
      <trkpt lat="48.26974" lon="7.29565">
        <ele>257.4</ele>
        <time>2021-06-21T07:53:06Z</time>
      </trkpt>
      <trkpt lat="48.26986" lon="7.29504">
        <ele>257.6</ele>
        <time>2021-06-21T07:53:14Z</time>
      </trkpt>
      <trkpt lat="48.26999" lon="7.29436">
        <ele>257.8</ele>
        <time>2021-06-21T07:53:23Z</time>
      </trkpt>
      <trkpt lat="48.27011" lon="7.29378">
        <ele>258.2</ele>
        <time>2021-06-21T07:53:31Z</time>
      </trkpt>
      <trkpt lat="48.27015" lon="7.29356">
        <ele>258.4</ele>
        <time>2021-06-21T07:53:34Z</time>
      </trkpt>
      <trkpt lat="48.27016" lon="7.29348">
        <ele>258.4</ele>
        <time>2021-06-21T07:53:35Z</time>
      </trkpt>
      <trkpt lat="48.27021" lon="7.29326">
        <ele>258.6</ele>
        <time>2021-06-21T07:53:38Z</time>
      </trkpt>
      <trkpt lat="48.27035" lon="7.29251">
        <ele>259.2</ele>
        <time>2021-06-21T07:53:48Z</time>
      </trkpt>
      <trkpt lat="48.2704" lon="7.2923">
        <ele>259.4</ele>
        <time>2021-06-21T07:53:51Z</time>
      </trkpt>
      <trkpt lat="48.27044" lon="7.29211">
        <ele>259.6</ele>
        <time>2021-06-21T07:53:54Z</time>
      </trkpt>
      <trkpt lat="48.27047" lon="7.29192">
        <ele>260</ele>
        <time>2021-06-21T07:53:58Z</time>
      </trkpt>
      <trkpt lat="48.27047" lon="7.29189">
        <ele>260</ele>
        <time>2021-06-21T07:53:59Z</time>
      </trkpt>
      <trkpt lat="48.27052" lon="7.29165">
        <ele>260.2</ele>
        <time>2021-06-21T07:54:04Z</time>
      </trkpt>
      <trkpt lat="48.2706" lon="7.29127">
        <ele>260.2</ele>
        <time>2021-06-21T07:54:10Z</time>
      </trkpt>
      <trkpt lat="48.27064" lon="7.29108">
        <ele>260.6</ele>
        <time>2021-06-21T07:54:15Z</time>
      </trkpt>
      <trkpt lat="48.2707" lon="7.29082">
        <ele>261</ele>
        <time>2021-06-21T07:54:20Z</time>
      </trkpt>
      <trkpt lat="48.27071" lon="7.29075">
        <ele>261</ele>
        <time>2021-06-21T07:54:21Z</time>
      </trkpt>
      <trkpt lat="48.27075" lon="7.29055">
        <ele>261.2</ele>
        <time>2021-06-21T07:54:24Z</time>
      </trkpt>
      <trkpt lat="48.27085" lon="7.29007">
        <ele>261.6</ele>
        <time>2021-06-21T07:54:31Z</time>
      </trkpt>
      <trkpt lat="48.27101" lon="7.28942">
        <ele>262</ele>
        <time>2021-06-21T07:54:40Z</time>
      </trkpt>
      <trkpt lat="48.27111" lon="7.289">
        <ele>262.6</ele>
        <time>2021-06-21T07:54:46Z</time>
      </trkpt>
      <trkpt lat="48.27119" lon="7.28871">
        <ele>262.8</ele>
        <time>2021-06-21T07:54:50Z</time>
      </trkpt>
      <trkpt lat="48.27135" lon="7.28807">
        <ele>263.4</ele>
        <time>2021-06-21T07:54:59Z</time>
      </trkpt>
      <trkpt lat="48.27142" lon="7.28779">
        <ele>263.6</ele>
        <time>2021-06-21T07:55:03Z</time>
      </trkpt>
      <trkpt lat="48.27148" lon="7.28753">
        <ele>264.2</ele>
        <time>2021-06-21T07:55:07Z</time>
      </trkpt>
      <trkpt lat="48.27153" lon="7.28738">
        <ele>264.6</ele>
        <time>2021-06-21T07:55:11Z</time>
      </trkpt>
      <trkpt lat="48.27155" lon="7.28728">
        <ele>264.8</ele>
        <time>2021-06-21T07:55:14Z</time>
      </trkpt>
      <trkpt lat="48.27157" lon="7.2872">
        <ele>264.8</ele>
        <time>2021-06-21T07:55:16Z</time>
      </trkpt>
      <trkpt lat="48.27159" lon="7.28709">
        <ele>264.8</ele>
        <time>2021-06-21T07:55:18Z</time>
      </trkpt>
      <trkpt lat="48.27165" lon="7.28693">
        <ele>264.6</ele>
        <time>2021-06-21T07:55:21Z</time>
      </trkpt>
      <trkpt lat="48.27176" lon="7.28645">
        <ele>264.6</ele>
        <time>2021-06-21T07:55:28Z</time>
      </trkpt>
      <trkpt lat="48.27188" lon="7.28595">
        <ele>265</ele>
        <time>2021-06-21T07:55:35Z</time>
      </trkpt>
      <trkpt lat="48.27195" lon="7.2857">
        <ele>265.4</ele>
        <time>2021-06-21T07:55:39Z</time>
      </trkpt>
      <trkpt lat="48.27197" lon="7.28563">
        <ele>265.4</ele>
        <time>2021-06-21T07:55:40Z</time>
      </trkpt>
      <trkpt lat="48.27205" lon="7.28535">
        <ele>265.6</ele>
        <time>2021-06-21T07:55:44Z</time>
      </trkpt>
      <trkpt lat="48.27211" lon="7.28506">
        <ele>265.8</ele>
        <time>2021-06-21T07:55:48Z</time>
      </trkpt>
      <trkpt lat="48.27217" lon="7.28478">
        <ele>266</ele>
        <time>2021-06-21T07:55:52Z</time>
      </trkpt>
      <trkpt lat="48.27223" lon="7.28454">
        <ele>266.4</ele>
        <time>2021-06-21T07:55:57Z</time>
      </trkpt>
      <trkpt lat="48.27228" lon="7.28438">
        <ele>266.4</ele>
        <time>2021-06-21T07:56:01Z</time>
      </trkpt>
      <trkpt lat="48.2723" lon="7.28434">
        <ele>266.6</ele>
        <time>2021-06-21T07:56:02Z</time>
      </trkpt>
      <trkpt lat="48.27235" lon="7.28409">
        <ele>266.8</ele>
        <time>2021-06-21T07:56:06Z</time>
      </trkpt>
      <trkpt lat="48.27236" lon="7.28402">
        <ele>266.8</ele>
        <time>2021-06-21T07:56:07Z</time>
      </trkpt>
      <trkpt lat="48.2724" lon="7.28387">
        <ele>266.8</ele>
        <time>2021-06-21T07:56:09Z</time>
      </trkpt>
      <trkpt lat="48.27243" lon="7.28374">
        <ele>266.8</ele>
        <time>2021-06-21T07:56:11Z</time>
      </trkpt>
      <trkpt lat="48.27257" lon="7.28313">
        <ele>267.4</ele>
        <time>2021-06-21T07:56:19Z</time>
      </trkpt>
      <trkpt lat="48.27259" lon="7.28296">
        <ele>267.4</ele>
        <time>2021-06-21T07:56:21Z</time>
      </trkpt>
      <trkpt lat="48.27263" lon="7.28254">
        <ele>267.4</ele>
        <time>2021-06-21T07:56:26Z</time>
      </trkpt>
      <trkpt lat="48.27264" lon="7.282">
        <ele>267.8</ele>
        <time>2021-06-21T07:56:33Z</time>
      </trkpt>
      <trkpt lat="48.27264" lon="7.28192">
        <ele>268</ele>
        <time>2021-06-21T07:56:34Z</time>
      </trkpt>
      <trkpt lat="48.27259" lon="7.28143">
        <ele>268.2</ele>
        <time>2021-06-21T07:56:40Z</time>
      </trkpt>
      <trkpt lat="48.27258" lon="7.28135">
        <ele>268.2</ele>
        <time>2021-06-21T07:56:41Z</time>
      </trkpt>
      <trkpt lat="48.27257" lon="7.28128">
        <ele>268.2</ele>
        <time>2021-06-21T07:56:42Z</time>
      </trkpt>
      <trkpt lat="48.27252" lon="7.28102">
        <ele>268.2</ele>
        <time>2021-06-21T07:56:46Z</time>
      </trkpt>
      <trkpt lat="48.27248" lon="7.28085">
        <ele>268.4</ele>
        <time>2021-06-21T07:56:50Z</time>
      </trkpt>
      <trkpt lat="48.27245" lon="7.28075">
        <ele>268.8</ele>
        <time>2021-06-21T07:56:54Z</time>
      </trkpt>
      <trkpt lat="48.27244" lon="7.28069">
        <ele>268.8</ele>
        <time>2021-06-21T07:56:56Z</time>
      </trkpt>
      <trkpt lat="48.27241" lon="7.2805">
        <ele>268.6</ele>
        <time>2021-06-21T07:57:01Z</time>
      </trkpt>
      <trkpt lat="48.27232" lon="7.28024">
        <ele>268.4</ele>
        <time>2021-06-21T07:57:05Z</time>
      </trkpt>
      <trkpt lat="48.2722" lon="7.27987">
        <ele>268.2</ele>
        <time>2021-06-21T07:57:11Z</time>
      </trkpt>
      <trkpt lat="48.27217" lon="7.27982">
        <ele>268.2</ele>
        <time>2021-06-21T07:57:12Z</time>
      </trkpt>
      <trkpt lat="48.27213" lon="7.27978">
        <ele>268.2</ele>
        <time>2021-06-21T07:57:13Z</time>
      </trkpt>
      <trkpt lat="48.27207" lon="7.2797">
        <ele>268.2</ele>
        <time>2021-06-21T07:57:15Z</time>
      </trkpt>
      <trkpt lat="48.27205" lon="7.27963">
        <ele>268</ele>
        <time>2021-06-21T07:57:16Z</time>
      </trkpt>
      <trkpt lat="48.2719" lon="7.27914">
        <ele>268</ele>
        <time>2021-06-21T07:57:23Z</time>
      </trkpt>
      <trkpt lat="48.27186" lon="7.279">
        <ele>268</ele>
        <time>2021-06-21T07:57:25Z</time>
      </trkpt>
      <trkpt lat="48.27183" lon="7.27876">
        <ele>268</ele>
        <time>2021-06-21T07:57:28Z</time>
      </trkpt>
      <trkpt lat="48.27182" lon="7.27866">
        <ele>268</ele>
        <time>2021-06-21T07:57:29Z</time>
      </trkpt>
      <trkpt lat="48.27174" lon="7.27845">
        <ele>267.8</ele>
        <time>2021-06-21T07:57:32Z</time>
      </trkpt>
      <trkpt lat="48.27151" lon="7.27772">
        <ele>267.8</ele>
        <time>2021-06-21T07:57:42Z</time>
      </trkpt>
      <trkpt lat="48.27139" lon="7.27736">
        <ele>268</ele>
        <time>2021-06-21T07:57:47Z</time>
      </trkpt>
      <trkpt lat="48.2713" lon="7.27708">
        <ele>268</ele>
        <time>2021-06-21T07:57:51Z</time>
      </trkpt>
      <trkpt lat="48.27107" lon="7.27637">
        <ele>268.4</ele>
        <time>2021-06-21T07:58:01Z</time>
      </trkpt>
      <trkpt lat="48.27091" lon="7.27588">
        <ele>269</ele>
        <time>2021-06-21T07:58:09Z</time>
      </trkpt>
      <trkpt lat="48.27085" lon="7.27575">
        <ele>269.2</ele>
        <time>2021-06-21T07:58:12Z</time>
      </trkpt>
      <trkpt lat="48.27083" lon="7.27572">
        <ele>269.2</ele>
        <time>2021-06-21T07:58:13Z</time>
      </trkpt>
      <trkpt lat="48.27069" lon="7.27566">
        <ele>269.2</ele>
        <time>2021-06-21T07:58:17Z</time>
      </trkpt>
      <trkpt lat="48.27059" lon="7.27556">
        <ele>269.2</ele>
        <time>2021-06-21T07:58:20Z</time>
      </trkpt>
      <trkpt lat="48.27056" lon="7.2755">
        <ele>269</ele>
        <time>2021-06-21T07:58:21Z</time>
      </trkpt>
      <trkpt lat="48.27054" lon="7.27543">
        <ele>269</ele>
        <time>2021-06-21T07:58:22Z</time>
      </trkpt>
      <trkpt lat="48.27048" lon="7.27509">
        <ele>269</ele>
        <time>2021-06-21T07:58:27Z</time>
      </trkpt>
      <trkpt lat="48.27046" lon="7.27495">
        <ele>269</ele>
        <time>2021-06-21T07:58:29Z</time>
      </trkpt>
      <trkpt lat="48.27048" lon="7.27479">
        <ele>269.4</ele>
        <time>2021-06-21T07:58:32Z</time>
      </trkpt>
      <trkpt lat="48.27052" lon="7.27474">
        <ele>269.6</ele>
        <time>2021-06-21T07:58:34Z</time>
      </trkpt>
      <trkpt lat="48.27054" lon="7.27471">
        <ele>269.8</ele>
        <time>2021-06-21T07:58:35Z</time>
      </trkpt>
      <trkpt lat="48.27053" lon="7.2747">
        <ele>270</ele>
        <time>2021-06-21T07:58:37Z</time>
      </trkpt>
      <trkpt lat="48.27052" lon="7.27471">
        <ele>270</ele>
        <time>2021-06-21T07:58:38Z</time>
      </trkpt>
      <trkpt lat="48.27048" lon="7.27476">
        <ele>270.2</ele>
        <time>2021-06-21T07:58:40Z</time>
      </trkpt>
      <trkpt lat="48.27047" lon="7.27484">
        <ele>270.4</ele>
        <time>2021-06-21T07:58:42Z</time>
      </trkpt>
      <trkpt lat="48.27045" lon="7.27486">
        <ele>270.4</ele>
        <time>2021-06-21T07:58:43Z</time>
      </trkpt>
      <trkpt lat="48.27042" lon="7.27485">
        <ele>270.4</ele>
        <time>2021-06-21T07:58:45Z</time>
      </trkpt>
      <trkpt lat="48.2704" lon="7.27482">
        <ele>270.4</ele>
        <time>2021-06-21T07:58:46Z</time>
      </trkpt>
      <trkpt lat="48.2704" lon="7.27466">
        <ele>270.4</ele>
        <time>2021-06-21T07:58:49Z</time>
      </trkpt>
      <trkpt lat="48.2704" lon="7.27459">
        <ele>270.4</ele>
        <time>2021-06-21T07:58:50Z</time>
      </trkpt>
      <trkpt lat="48.27035" lon="7.27423">
        <ele>270.4</ele>
        <time>2021-06-21T07:58:55Z</time>
      </trkpt>
      <trkpt lat="48.27026" lon="7.27384">
        <ele>270.8</ele>
        <time>2021-06-21T07:59:00Z</time>
      </trkpt>
      <trkpt lat="48.27024" lon="7.27377">
        <ele>270.8</ele>
        <time>2021-06-21T07:59:01Z</time>
      </trkpt>
      <trkpt lat="48.27017" lon="7.27323">
        <ele>271.4</ele>
        <time>2021-06-21T07:59:08Z</time>
      </trkpt>
      <trkpt lat="48.27012" lon="7.27285">
        <ele>271.8</ele>
        <time>2021-06-21T07:59:13Z</time>
      </trkpt>
      <trkpt lat="48.27009" lon="7.27263">
        <ele>272.2</ele>
        <time>2021-06-21T07:59:16Z</time>
      </trkpt>
      <trkpt lat="48.27001" lon="7.27209">
        <ele>273</ele>
        <time>2021-06-21T07:59:23Z</time>
      </trkpt>
      <trkpt lat="48.26999" lon="7.27194">
        <ele>273.6</ele>
        <time>2021-06-21T07:59:25Z</time>
      </trkpt>
      <trkpt lat="48.26989" lon="7.27124">
        <ele>274</ele>
        <time>2021-06-21T07:59:34Z</time>
      </trkpt>
      <trkpt lat="48.26979" lon="7.27054">
        <ele>274.4</ele>
        <time>2021-06-21T07:59:43Z</time>
      </trkpt>
      <trkpt lat="48.26971" lon="7.26994">
        <ele>275</ele>
        <time>2021-06-21T07:59:51Z</time>
      </trkpt>
      <trkpt lat="48.2697" lon="7.26986">
        <ele>275</ele>
        <time>2021-06-21T07:59:52Z</time>
      </trkpt>
      <trkpt lat="48.2696" lon="7.26912">
        <ele>275.6</ele>
        <time>2021-06-21T08:00:02Z</time>
      </trkpt>
      <trkpt lat="48.26959" lon="7.26904">
        <ele>275.8</ele>
        <time>2021-06-21T08:00:03Z</time>
      </trkpt>
      <trkpt lat="48.2695" lon="7.26845">
        <ele>276.2</ele>
        <time>2021-06-21T08:00:11Z</time>
      </trkpt>
      <trkpt lat="48.26942" lon="7.26777">
        <ele>276.6</ele>
        <time>2021-06-21T08:00:20Z</time>
      </trkpt>
      <trkpt lat="48.26936" lon="7.26731">
        <ele>277</ele>
        <time>2021-06-21T08:00:26Z</time>
      </trkpt>
      <trkpt lat="48.26935" lon="7.26724">
        <ele>277</ele>
        <time>2021-06-21T08:00:27Z</time>
      </trkpt>
      <trkpt lat="48.26933" lon="7.26685">
        <ele>277.2</ele>
        <time>2021-06-21T08:00:32Z</time>
      </trkpt>
      <trkpt lat="48.26931" lon="7.26654">
        <ele>277.4</ele>
        <time>2021-06-21T08:00:36Z</time>
      </trkpt>
      <trkpt lat="48.26932" lon="7.26641">
        <ele>277.6</ele>
        <time>2021-06-21T08:00:38Z</time>
      </trkpt>
      <trkpt lat="48.26932" lon="7.26627">
        <ele>278</ele>
        <time>2021-06-21T08:00:40Z</time>
      </trkpt>
      <trkpt lat="48.2693" lon="7.26604">
        <ele>278</ele>
        <time>2021-06-21T08:00:43Z</time>
      </trkpt>
      <trkpt lat="48.26929" lon="7.26596">
        <ele>278</ele>
        <time>2021-06-21T08:00:44Z</time>
      </trkpt>
      <trkpt lat="48.2693" lon="7.26563">
        <ele>278.2</ele>
        <time>2021-06-21T08:00:50Z</time>
      </trkpt>
      <trkpt lat="48.26926" lon="7.26536">
        <ele>278.2</ele>
        <time>2021-06-21T08:00:55Z</time>
      </trkpt>
      <trkpt lat="48.26927" lon="7.26518">
        <ele>278.4</ele>
        <time>2021-06-21T08:01:00Z</time>
      </trkpt>
      <trkpt lat="48.26927" lon="7.26492">
        <ele>278.4</ele>
        <time>2021-06-21T08:01:04Z</time>
      </trkpt>
      <trkpt lat="48.26928" lon="7.26464">
        <ele>278.6</ele>
        <time>2021-06-21T08:01:08Z</time>
      </trkpt>
      <trkpt lat="48.26929" lon="7.26451">
        <ele>278.8</ele>
        <time>2021-06-21T08:01:10Z</time>
      </trkpt>
      <trkpt lat="48.26929" lon="7.26444">
        <ele>278.8</ele>
        <time>2021-06-21T08:01:11Z</time>
      </trkpt>
      <trkpt lat="48.26929" lon="7.26426">
        <ele>279</ele>
        <time>2021-06-21T08:01:13Z</time>
      </trkpt>
      <trkpt lat="48.26928" lon="7.26389">
        <ele>279.8</ele>
        <time>2021-06-21T08:01:18Z</time>
      </trkpt>
      <trkpt lat="48.26926" lon="7.26359">
        <ele>280</ele>
        <time>2021-06-21T08:01:22Z</time>
      </trkpt>
      <trkpt lat="48.26926" lon="7.26351">
        <ele>280</ele>
        <time>2021-06-21T08:01:23Z</time>
      </trkpt>
      <trkpt lat="48.26925" lon="7.26344">
        <ele>280.2</ele>
        <time>2021-06-21T08:01:24Z</time>
      </trkpt>
      <trkpt lat="48.26924" lon="7.26308">
        <ele>280.4</ele>
        <time>2021-06-21T08:01:29Z</time>
      </trkpt>
      <trkpt lat="48.26924" lon="7.26287">
        <ele>280.8</ele>
        <time>2021-06-21T08:01:32Z</time>
      </trkpt>
      <trkpt lat="48.26923" lon="7.26282">
        <ele>281.2</ele>
        <time>2021-06-21T08:01:33Z</time>
      </trkpt>
      <trkpt lat="48.26923" lon="7.26276">
        <ele>281</ele>
        <time>2021-06-21T08:01:34Z</time>
      </trkpt>
      <trkpt lat="48.26924" lon="7.26261">
        <ele>281.4</ele>
        <time>2021-06-21T08:01:36Z</time>
      </trkpt>
      <trkpt lat="48.26925" lon="7.26236">
        <ele>281.6</ele>
        <time>2021-06-21T08:01:39Z</time>
      </trkpt>
      <trkpt lat="48.26924" lon="7.26212">
        <ele>282</ele>
        <time>2021-06-21T08:01:42Z</time>
      </trkpt>
      <trkpt lat="48.26922" lon="7.26173">
        <ele>282.4</ele>
        <time>2021-06-21T08:01:47Z</time>
      </trkpt>
      <trkpt lat="48.26916" lon="7.26118">
        <ele>282.8</ele>
        <time>2021-06-21T08:01:54Z</time>
      </trkpt>
      <trkpt lat="48.26914" lon="7.26102">
        <ele>283</ele>
        <time>2021-06-21T08:01:56Z</time>
      </trkpt>
      <trkpt lat="48.26907" lon="7.26064">
        <ele>283.4</ele>
        <time>2021-06-21T08:02:01Z</time>
      </trkpt>
      <trkpt lat="48.26905" lon="7.26056">
        <ele>283.4</ele>
        <time>2021-06-21T08:02:02Z</time>
      </trkpt>
      <trkpt lat="48.26892" lon="7.25994">
        <ele>284</ele>
        <time>2021-06-21T08:02:10Z</time>
      </trkpt>
      <trkpt lat="48.2688" lon="7.2595">
        <ele>284</ele>
        <time>2021-06-21T08:02:16Z</time>
      </trkpt>
      <trkpt lat="48.26873" lon="7.2593">
        <ele>284.2</ele>
        <time>2021-06-21T08:02:19Z</time>
      </trkpt>
      <trkpt lat="48.26853" lon="7.25875">
        <ele>284.8</ele>
        <time>2021-06-21T08:02:27Z</time>
      </trkpt>
      <trkpt lat="48.26844" lon="7.25853">
        <ele>285.2</ele>
        <time>2021-06-21T08:02:30Z</time>
      </trkpt>
      <trkpt lat="48.26831" lon="7.25818">
        <ele>285.4</ele>
        <time>2021-06-21T08:02:35Z</time>
      </trkpt>
      <trkpt lat="48.26804" lon="7.25747">
        <ele>285.6</ele>
        <time>2021-06-21T08:02:45Z</time>
      </trkpt>
      <trkpt lat="48.26779" lon="7.25683">
        <ele>285.6</ele>
        <time>2021-06-21T08:02:54Z</time>
      </trkpt>
      <trkpt lat="48.2676" lon="7.25635">
        <ele>286</ele>
        <time>2021-06-21T08:03:01Z</time>
      </trkpt>
      <trkpt lat="48.26755" lon="7.25622">
        <ele>286</ele>
        <time>2021-06-21T08:03:03Z</time>
      </trkpt>
      <trkpt lat="48.26753" lon="7.25616">
        <ele>286.2</ele>
        <time>2021-06-21T08:03:04Z</time>
      </trkpt>
      <trkpt lat="48.26745" lon="7.25595">
        <ele>286.4</ele>
        <time>2021-06-21T08:03:07Z</time>
      </trkpt>
      <trkpt lat="48.26721" lon="7.25536">
        <ele>287</ele>
        <time>2021-06-21T08:03:16Z</time>
      </trkpt>
      <trkpt lat="48.26719" lon="7.25529">
        <ele>287.2</ele>
        <time>2021-06-21T08:03:17Z</time>
      </trkpt>
      <trkpt lat="48.26717" lon="7.25523">
        <ele>287.2</ele>
        <time>2021-06-21T08:03:18Z</time>
      </trkpt>
      <trkpt lat="48.26711" lon="7.25508">
        <ele>287.4</ele>
        <time>2021-06-21T08:03:20Z</time>
      </trkpt>
      <trkpt lat="48.26708" lon="7.25501">
        <ele>287.6</ele>
        <time>2021-06-21T08:03:21Z</time>
      </trkpt>
      <trkpt lat="48.26688" lon="7.2545">
        <ele>288.2</ele>
        <time>2021-06-21T08:03:29Z</time>
      </trkpt>
      <trkpt lat="48.26686" lon="7.25444">
        <ele>288.4</ele>
        <time>2021-06-21T08:03:30Z</time>
      </trkpt>
      <trkpt lat="48.26683" lon="7.25437">
        <ele>288.4</ele>
        <time>2021-06-21T08:03:31Z</time>
      </trkpt>
      <trkpt lat="48.26665" lon="7.2539">
        <ele>288.8</ele>
        <time>2021-06-21T08:03:38Z</time>
      </trkpt>
      <trkpt lat="48.26652" lon="7.25357">
        <ele>289.2</ele>
        <time>2021-06-21T08:03:43Z</time>
      </trkpt>
      <trkpt lat="48.26645" lon="7.25337">
        <ele>289.8</ele>
        <time>2021-06-21T08:03:46Z</time>
      </trkpt>
      <trkpt lat="48.26626" lon="7.25291">
        <ele>290.4</ele>
        <time>2021-06-21T08:03:53Z</time>
      </trkpt>
      <trkpt lat="48.26606" lon="7.25238">
        <ele>291.2</ele>
        <time>2021-06-21T08:04:01Z</time>
      </trkpt>
      <trkpt lat="48.26598" lon="7.25218">
        <ele>291.6</ele>
        <time>2021-06-21T08:04:04Z</time>
      </trkpt>
      <trkpt lat="48.26577" lon="7.25165">
        <ele>292.4</ele>
        <time>2021-06-21T08:04:12Z</time>
      </trkpt>
      <trkpt lat="48.26572" lon="7.25153">
        <ele>292.6</ele>
        <time>2021-06-21T08:04:14Z</time>
      </trkpt>
      <trkpt lat="48.26562" lon="7.25127">
        <ele>293</ele>
        <time>2021-06-21T08:04:18Z</time>
      </trkpt>
      <trkpt lat="48.26552" lon="7.251">
        <ele>293.6</ele>
        <time>2021-06-21T08:04:22Z</time>
      </trkpt>
      <trkpt lat="48.26544" lon="7.25081">
        <ele>293.8</ele>
        <time>2021-06-21T08:04:25Z</time>
      </trkpt>
      <trkpt lat="48.26532" lon="7.25048">
        <ele>294</ele>
        <time>2021-06-21T08:04:30Z</time>
      </trkpt>
      <trkpt lat="48.26514" lon="7.25004">
        <ele>294.6</ele>
        <time>2021-06-21T08:04:37Z</time>
      </trkpt>
      <trkpt lat="48.26504" lon="7.2498">
        <ele>295</ele>
        <time>2021-06-21T08:04:41Z</time>
      </trkpt>
      <trkpt lat="48.26496" lon="7.24962">
        <ele>295.4</ele>
        <time>2021-06-21T08:04:44Z</time>
      </trkpt>
      <trkpt lat="48.26494" lon="7.24955">
        <ele>295.4</ele>
        <time>2021-06-21T08:04:45Z</time>
      </trkpt>
      <trkpt lat="48.26489" lon="7.24941">
        <ele>295.6</ele>
        <time>2021-06-21T08:04:47Z</time>
      </trkpt>
      <trkpt lat="48.26482" lon="7.24919">
        <ele>295.8</ele>
        <time>2021-06-21T08:04:50Z</time>
      </trkpt>
      <trkpt lat="48.2647" lon="7.24884">
        <ele>296.2</ele>
        <time>2021-06-21T08:04:55Z</time>
      </trkpt>
      <trkpt lat="48.26465" lon="7.2487">
        <ele>296.2</ele>
        <time>2021-06-21T08:04:57Z</time>
      </trkpt>
      <trkpt lat="48.26449" lon="7.2481">
        <ele>296.8</ele>
        <time>2021-06-21T08:05:05Z</time>
      </trkpt>
      <trkpt lat="48.26445" lon="7.24794">
        <ele>297.2</ele>
        <time>2021-06-21T08:05:07Z</time>
      </trkpt>
      <trkpt lat="48.26442" lon="7.24779">
        <ele>297.2</ele>
        <time>2021-06-21T08:05:09Z</time>
      </trkpt>
      <trkpt lat="48.26438" lon="7.24755">
        <ele>297.4</ele>
        <time>2021-06-21T08:05:12Z</time>
      </trkpt>
      <trkpt lat="48.2643" lon="7.24685">
        <ele>298</ele>
        <time>2021-06-21T08:05:21Z</time>
      </trkpt>
      <trkpt lat="48.26428" lon="7.24669">
        <ele>298.2</ele>
        <time>2021-06-21T08:05:23Z</time>
      </trkpt>
      <trkpt lat="48.26427" lon="7.24639">
        <ele>298.6</ele>
        <time>2021-06-21T08:05:27Z</time>
      </trkpt>
      <trkpt lat="48.26425" lon="7.24591">
        <ele>299.4</ele>
        <time>2021-06-21T08:05:33Z</time>
      </trkpt>
      <trkpt lat="48.26425" lon="7.24582">
        <ele>299.4</ele>
        <time>2021-06-21T08:05:34Z</time>
      </trkpt>
      <trkpt lat="48.26428" lon="7.24527">
        <ele>299.8</ele>
        <time>2021-06-21T08:05:41Z</time>
      </trkpt>
      <trkpt lat="48.26432" lon="7.24471">
        <ele>300.2</ele>
        <time>2021-06-21T08:05:48Z</time>
      </trkpt>
      <trkpt lat="48.26434" lon="7.24447">
        <ele>300.4</ele>
        <time>2021-06-21T08:05:51Z</time>
      </trkpt>
      <trkpt lat="48.26438" lon="7.244">
        <ele>300.8</ele>
        <time>2021-06-21T08:05:57Z</time>
      </trkpt>
      <trkpt lat="48.26444" lon="7.24328">
        <ele>301.4</ele>
        <time>2021-06-21T08:06:06Z</time>
      </trkpt>
      <trkpt lat="48.26445" lon="7.24319">
        <ele>301.6</ele>
        <time>2021-06-21T08:06:07Z</time>
      </trkpt>
      <trkpt lat="48.2645" lon="7.24255">
        <ele>302.4</ele>
        <time>2021-06-21T08:06:15Z</time>
      </trkpt>
      <trkpt lat="48.2645" lon="7.24248">
        <ele>302.6</ele>
        <time>2021-06-21T08:06:16Z</time>
      </trkpt>
      <trkpt lat="48.26455" lon="7.24194">
        <ele>303.2</ele>
        <time>2021-06-21T08:06:23Z</time>
      </trkpt>
      <trkpt lat="48.26459" lon="7.24144">
        <ele>303.6</ele>
        <time>2021-06-21T08:06:29Z</time>
      </trkpt>
      <trkpt lat="48.26461" lon="7.24115">
        <ele>304</ele>
        <time>2021-06-21T08:06:33Z</time>
      </trkpt>
      <trkpt lat="48.26466" lon="7.24059">
        <ele>304.8</ele>
        <time>2021-06-21T08:06:40Z</time>
      </trkpt>
      <trkpt lat="48.26466" lon="7.24051">
        <ele>304.8</ele>
        <time>2021-06-21T08:06:41Z</time>
      </trkpt>
      <trkpt lat="48.26472" lon="7.23974">
        <ele>305.8</ele>
        <time>2021-06-21T08:06:51Z</time>
      </trkpt>
      <trkpt lat="48.26473" lon="7.23905">
        <ele>306.6</ele>
        <time>2021-06-21T08:07:00Z</time>
      </trkpt>
      <trkpt lat="48.26473" lon="7.23897">
        <ele>306.8</ele>
        <time>2021-06-21T08:07:01Z</time>
      </trkpt>
      <trkpt lat="48.26472" lon="7.23889">
        <ele>307</ele>
        <time>2021-06-21T08:07:02Z</time>
      </trkpt>
      <trkpt lat="48.26468" lon="7.23822">
        <ele>307.6</ele>
        <time>2021-06-21T08:07:11Z</time>
      </trkpt>
      <trkpt lat="48.26466" lon="7.238">
        <ele>307.8</ele>
        <time>2021-06-21T08:07:14Z</time>
      </trkpt>
      <trkpt lat="48.26464" lon="7.2378">
        <ele>307.8</ele>
        <time>2021-06-21T08:07:17Z</time>
      </trkpt>
      <trkpt lat="48.26461" lon="7.23755">
        <ele>308</ele>
        <time>2021-06-21T08:07:20Z</time>
      </trkpt>
      <trkpt lat="48.26455" lon="7.23724">
        <ele>308.4</ele>
        <time>2021-06-21T08:07:24Z</time>
      </trkpt>
      <trkpt lat="48.26436" lon="7.23648">
        <ele>309</ele>
        <time>2021-06-21T08:07:34Z</time>
      </trkpt>
      <trkpt lat="48.26433" lon="7.23639">
        <ele>309</ele>
        <time>2021-06-21T08:07:35Z</time>
      </trkpt>
      <trkpt lat="48.26416" lon="7.23588">
        <ele>309.8</ele>
        <time>2021-06-21T08:07:42Z</time>
      </trkpt>
      <trkpt lat="48.26394" lon="7.23533">
        <ele>310.2</ele>
        <time>2021-06-21T08:07:50Z</time>
      </trkpt>
      <trkpt lat="48.26367" lon="7.23478">
        <ele>310.8</ele>
        <time>2021-06-21T08:07:59Z</time>
      </trkpt>
      <trkpt lat="48.26359" lon="7.23462">
        <ele>311</ele>
        <time>2021-06-21T08:08:02Z</time>
      </trkpt>
      <trkpt lat="48.26352" lon="7.23449">
        <ele>311.2</ele>
        <time>2021-06-21T08:08:04Z</time>
      </trkpt>
      <trkpt lat="48.26348" lon="7.23443">
        <ele>311.2</ele>
        <time>2021-06-21T08:08:05Z</time>
      </trkpt>
      <trkpt lat="48.26334" lon="7.23419">
        <ele>311.4</ele>
        <time>2021-06-21T08:08:09Z</time>
      </trkpt>
      <trkpt lat="48.26307" lon="7.2337">
        <ele>312</ele>
        <time>2021-06-21T08:08:17Z</time>
      </trkpt>
      <trkpt lat="48.2629" lon="7.2334">
        <ele>312.2</ele>
        <time>2021-06-21T08:08:22Z</time>
      </trkpt>
      <trkpt lat="48.26274" lon="7.23312">
        <ele>312.4</ele>
        <time>2021-06-21T08:08:27Z</time>
      </trkpt>
      <trkpt lat="48.26251" lon="7.23266">
        <ele>313</ele>
        <time>2021-06-21T08:08:34Z</time>
      </trkpt>
      <trkpt lat="48.26243" lon="7.23246">
        <ele>313.4</ele>
        <time>2021-06-21T08:08:37Z</time>
      </trkpt>
      <trkpt lat="48.26232" lon="7.23217">
        <ele>313.8</ele>
        <time>2021-06-21T08:08:41Z</time>
      </trkpt>
      <trkpt lat="48.26208" lon="7.23146">
        <ele>314.4</ele>
        <time>2021-06-21T08:08:51Z</time>
      </trkpt>
      <trkpt lat="48.26205" lon="7.2314">
        <ele>314.4</ele>
        <time>2021-06-21T08:08:52Z</time>
      </trkpt>
      <trkpt lat="48.26197" lon="7.23113">
        <ele>314.8</ele>
        <time>2021-06-21T08:08:56Z</time>
      </trkpt>
      <trkpt lat="48.26194" lon="7.23107">
        <ele>314.8</ele>
        <time>2021-06-21T08:08:57Z</time>
      </trkpt>
      <trkpt lat="48.26192" lon="7.23101">
        <ele>315</ele>
        <time>2021-06-21T08:08:58Z</time>
      </trkpt>
      <trkpt lat="48.26185" lon="7.2308">
        <ele>315.4</ele>
        <time>2021-06-21T08:09:01Z</time>
      </trkpt>
      <trkpt lat="48.26183" lon="7.23072">
        <ele>315.6</ele>
        <time>2021-06-21T08:09:02Z</time>
      </trkpt>
      <trkpt lat="48.2617" lon="7.23026">
        <ele>316</ele>
        <time>2021-06-21T08:09:08Z</time>
      </trkpt>
      <trkpt lat="48.26154" lon="7.22961">
        <ele>316</ele>
        <time>2021-06-21T08:09:16Z</time>
      </trkpt>
      <trkpt lat="48.26136" lon="7.22888">
        <ele>316.2</ele>
        <time>2021-06-21T08:09:26Z</time>
      </trkpt>
      <trkpt lat="48.26131" lon="7.22865">
        <ele>316.4</ele>
        <time>2021-06-21T08:09:30Z</time>
      </trkpt>
      <trkpt lat="48.2613" lon="7.2286">
        <ele>316.4</ele>
        <time>2021-06-21T08:09:31Z</time>
      </trkpt>
      <trkpt lat="48.26128" lon="7.22851">
        <ele>316.6</ele>
        <time>2021-06-21T08:09:33Z</time>
      </trkpt>
      <trkpt lat="48.26125" lon="7.22842">
        <ele>316.8</ele>
        <time>2021-06-21T08:09:37Z</time>
      </trkpt>
      <trkpt lat="48.26125" lon="7.22836">
        <ele>316.8</ele>
        <time>2021-06-21T08:09:40Z</time>
      </trkpt>
      <trkpt lat="48.26122" lon="7.22826">
        <ele>316.8</ele>
        <time>2021-06-21T08:09:43Z</time>
      </trkpt>
      <trkpt lat="48.26115" lon="7.22799">
        <ele>316.8</ele>
        <time>2021-06-21T08:09:49Z</time>
      </trkpt>
      <trkpt lat="48.2611" lon="7.22776">
        <ele>316.8</ele>
        <time>2021-06-21T08:09:53Z</time>
      </trkpt>
      <trkpt lat="48.26108" lon="7.2277">
        <ele>316.8</ele>
        <time>2021-06-21T08:09:54Z</time>
      </trkpt>
      <trkpt lat="48.26097" lon="7.22726">
        <ele>316.8</ele>
        <time>2021-06-21T08:10:00Z</time>
      </trkpt>
      <trkpt lat="48.26086" lon="7.22681">
        <ele>317</ele>
        <time>2021-06-21T08:10:06Z</time>
      </trkpt>
      <trkpt lat="48.26076" lon="7.22643">
        <ele>317.2</ele>
        <time>2021-06-21T08:10:11Z</time>
      </trkpt>
      <trkpt lat="48.26073" lon="7.22628">
        <ele>317.4</ele>
        <time>2021-06-21T08:10:13Z</time>
      </trkpt>
      <trkpt lat="48.2607" lon="7.22619">
        <ele>317.6</ele>
        <time>2021-06-21T08:10:14Z</time>
      </trkpt>
      <trkpt lat="48.26063" lon="7.22589">
        <ele>317.8</ele>
        <time>2021-06-21T08:10:18Z</time>
      </trkpt>
      <trkpt lat="48.26059" lon="7.22567">
        <ele>318</ele>
        <time>2021-06-21T08:10:21Z</time>
      </trkpt>
      <trkpt lat="48.26053" lon="7.22546">
        <ele>318</ele>
        <time>2021-06-21T08:10:24Z</time>
      </trkpt>
      <trkpt lat="48.2604" lon="7.22496">
        <ele>318.6</ele>
        <time>2021-06-21T08:10:31Z</time>
      </trkpt>
      <trkpt lat="48.26036" lon="7.22478">
        <ele>318.8</ele>
        <time>2021-06-21T08:10:34Z</time>
      </trkpt>
      <trkpt lat="48.2603" lon="7.22452">
        <ele>319.4</ele>
        <time>2021-06-21T08:10:39Z</time>
      </trkpt>
      <trkpt lat="48.26028" lon="7.22439">
        <ele>319.6</ele>
        <time>2021-06-21T08:10:41Z</time>
      </trkpt>
      <trkpt lat="48.26026" lon="7.22433">
        <ele>319.6</ele>
        <time>2021-06-21T08:10:42Z</time>
      </trkpt>
      <trkpt lat="48.26023" lon="7.22415">
        <ele>319.6</ele>
        <time>2021-06-21T08:10:45Z</time>
      </trkpt>
      <trkpt lat="48.26012" lon="7.22374">
        <ele>320</ele>
        <time>2021-06-21T08:10:51Z</time>
      </trkpt>
      <trkpt lat="48.26005" lon="7.2234">
        <ele>320.4</ele>
        <time>2021-06-21T08:10:56Z</time>
      </trkpt>
      <trkpt lat="48.26001" lon="7.22328">
        <ele>320.2</ele>
        <time>2021-06-21T08:10:58Z</time>
      </trkpt>
      <trkpt lat="48.25996" lon="7.22302">
        <ele>320.4</ele>
        <time>2021-06-21T08:11:02Z</time>
      </trkpt>
      <trkpt lat="48.25994" lon="7.22296">
        <ele>320.4</ele>
        <time>2021-06-21T08:11:03Z</time>
      </trkpt>
      <trkpt lat="48.25989" lon="7.22276">
        <ele>320.6</ele>
        <time>2021-06-21T08:11:06Z</time>
      </trkpt>
      <trkpt lat="48.25986" lon="7.22263">
        <ele>321</ele>
        <time>2021-06-21T08:11:08Z</time>
      </trkpt>
      <trkpt lat="48.25983" lon="7.2225">
        <ele>321.2</ele>
        <time>2021-06-21T08:11:10Z</time>
      </trkpt>
      <trkpt lat="48.2598" lon="7.22237">
        <ele>321.4</ele>
        <time>2021-06-21T08:11:12Z</time>
      </trkpt>
      <trkpt lat="48.25978" lon="7.2223">
        <ele>321.4</ele>
        <time>2021-06-21T08:11:13Z</time>
      </trkpt>
      <trkpt lat="48.25969" lon="7.22192">
        <ele>321.8</ele>
        <time>2021-06-21T08:11:19Z</time>
      </trkpt>
      <trkpt lat="48.25966" lon="7.22178">
        <ele>322.2</ele>
        <time>2021-06-21T08:11:21Z</time>
      </trkpt>
      <trkpt lat="48.25964" lon="7.22172">
        <ele>322.4</ele>
        <time>2021-06-21T08:11:22Z</time>
      </trkpt>
      <trkpt lat="48.25959" lon="7.22151">
        <ele>323</ele>
        <time>2021-06-21T08:11:25Z</time>
      </trkpt>
      <trkpt lat="48.25951" lon="7.22124">
        <ele>323.6</ele>
        <time>2021-06-21T08:11:29Z</time>
      </trkpt>
      <trkpt lat="48.25939" lon="7.22091">
        <ele>323.8</ele>
        <time>2021-06-21T08:11:34Z</time>
      </trkpt>
      <trkpt lat="48.25918" lon="7.22041">
        <ele>324.4</ele>
        <time>2021-06-21T08:11:42Z</time>
      </trkpt>
      <trkpt lat="48.25912" lon="7.2203">
        <ele>324.6</ele>
        <time>2021-06-21T08:11:44Z</time>
      </trkpt>
      <trkpt lat="48.25904" lon="7.22011">
        <ele>325</ele>
        <time>2021-06-21T08:11:48Z</time>
      </trkpt>
      <trkpt lat="48.25888" lon="7.21981">
        <ele>325.4</ele>
        <time>2021-06-21T08:11:54Z</time>
      </trkpt>
      <trkpt lat="48.25886" lon="7.21976">
        <ele>325.4</ele>
        <time>2021-06-21T08:11:55Z</time>
      </trkpt>
      <trkpt lat="48.25871" lon="7.21947">
        <ele>325.6</ele>
        <time>2021-06-21T08:12:01Z</time>
      </trkpt>
      <trkpt lat="48.25869" lon="7.21941">
        <ele>325.6</ele>
        <time>2021-06-21T08:12:02Z</time>
      </trkpt>
      <trkpt lat="48.25866" lon="7.21936">
        <ele>325.6</ele>
        <time>2021-06-21T08:12:03Z</time>
      </trkpt>
      <trkpt lat="48.25857" lon="7.21914">
        <ele>325.8</ele>
        <time>2021-06-21T08:12:07Z</time>
      </trkpt>
      <trkpt lat="48.25852" lon="7.21906">
        <ele>326.2</ele>
        <time>2021-06-21T08:12:09Z</time>
      </trkpt>
      <trkpt lat="48.25844" lon="7.21887">
        <ele>326.6</ele>
        <time>2021-06-21T08:12:14Z</time>
      </trkpt>
      <trkpt lat="48.25842" lon="7.21883">
        <ele>327</ele>
        <time>2021-06-21T08:12:18Z</time>
      </trkpt>
      <trkpt lat="48.25842" lon="7.21883">
        <ele>327</ele>
        <time>2021-06-21T08:12:19Z</time>
      </trkpt>
      <trkpt lat="48.25838" lon="7.21875">
        <ele>327.4</ele>
        <time>2021-06-21T08:12:26Z</time>
      </trkpt>
      <trkpt lat="48.25835" lon="7.21869">
        <ele>327.4</ele>
        <time>2021-06-21T08:12:28Z</time>
      </trkpt>
      <trkpt lat="48.25831" lon="7.21865">
        <ele>327.4</ele>
        <time>2021-06-21T08:12:30Z</time>
      </trkpt>
      <trkpt lat="48.25824" lon="7.21867">
        <ele>327.4</ele>
        <time>2021-06-21T08:12:32Z</time>
      </trkpt>
      <trkpt lat="48.25815" lon="7.21872">
        <ele>327.8</ele>
        <time>2021-06-21T08:12:35Z</time>
      </trkpt>
      <trkpt lat="48.25803" lon="7.21875">
        <ele>328.8</ele>
        <time>2021-06-21T08:12:39Z</time>
      </trkpt>
      <trkpt lat="48.258" lon="7.21874">
        <ele>328.8</ele>
        <time>2021-06-21T08:12:40Z</time>
      </trkpt>
      <trkpt lat="48.25789" lon="7.2187">
        <ele>329.8</ele>
        <time>2021-06-21T08:12:43Z</time>
      </trkpt>
      <trkpt lat="48.25787" lon="7.21869">
        <ele>330.4</ele>
        <time>2021-06-21T08:12:45Z</time>
      </trkpt>
      <trkpt lat="48.25781" lon="7.21857">
        <ele>331</ele>
        <time>2021-06-21T08:12:48Z</time>
      </trkpt>
      <trkpt lat="48.25779" lon="7.21852">
        <ele>331.2</ele>
        <time>2021-06-21T08:12:50Z</time>
      </trkpt>
      <trkpt lat="48.25765" lon="7.21822">
        <ele>331.4</ele>
        <time>2021-06-21T08:12:54Z</time>
      </trkpt>
      <trkpt lat="48.25746" lon="7.21778">
        <ele>330</ele>
        <time>2021-06-21T08:13:00Z</time>
      </trkpt>
      <trkpt lat="48.25746" lon="7.21778">
        <ele>329.8</ele>
        <time>2021-06-21T08:13:01Z</time>
      </trkpt>
      <trkpt lat="48.25743" lon="7.21773">
        <ele>329.4</ele>
        <time>2021-06-21T08:13:02Z</time>
      </trkpt>
      <trkpt lat="48.25729" lon="7.21749">
        <ele>329.4</ele>
        <time>2021-06-21T08:13:06Z</time>
      </trkpt>
      <trkpt lat="48.2572" lon="7.21736">
        <ele>329.4</ele>
        <time>2021-06-21T08:13:10Z</time>
      </trkpt>
      <trkpt lat="48.25713" lon="7.21722">
        <ele>329.8</ele>
        <time>2021-06-21T08:13:12Z</time>
      </trkpt>
      <trkpt lat="48.25701" lon="7.21706">
        <ele>330.8</ele>
        <time>2021-06-21T08:13:17Z</time>
      </trkpt>
      <trkpt lat="48.25698" lon="7.21702">
        <ele>331.2</ele>
        <time>2021-06-21T08:13:18Z</time>
      </trkpt>
      <trkpt lat="48.25687" lon="7.21686">
        <ele>331.8</ele>
        <time>2021-06-21T08:13:21Z</time>
      </trkpt>
      <trkpt lat="48.25675" lon="7.21668">
        <ele>333</ele>
        <time>2021-06-21T08:13:25Z</time>
      </trkpt>
      <trkpt lat="48.25673" lon="7.21664">
        <ele>333.2</ele>
        <time>2021-06-21T08:13:26Z</time>
      </trkpt>
      <trkpt lat="48.25663" lon="7.21649">
        <ele>333.6</ele>
        <time>2021-06-21T08:13:29Z</time>
      </trkpt>
      <trkpt lat="48.25661" lon="7.21644">
        <ele>333.6</ele>
        <time>2021-06-21T08:13:30Z</time>
      </trkpt>
      <trkpt lat="48.25647" lon="7.2162">
        <ele>333.8</ele>
        <time>2021-06-21T08:13:34Z</time>
      </trkpt>
      <trkpt lat="48.25647" lon="7.2162">
        <ele>334</ele>
        <time>2021-06-21T08:13:35Z</time>
      </trkpt>
      <trkpt lat="48.25641" lon="7.21611">
        <ele>334.4</ele>
        <time>2021-06-21T08:13:36Z</time>
      </trkpt>
      <trkpt lat="48.25638" lon="7.21608">
        <ele>334.6</ele>
        <time>2021-06-21T08:13:38Z</time>
      </trkpt>
      <trkpt lat="48.25629" lon="7.21596">
        <ele>335</ele>
        <time>2021-06-21T08:13:40Z</time>
      </trkpt>
      <trkpt lat="48.25628" lon="7.21592">
        <ele>335.2</ele>
        <time>2021-06-21T08:13:41Z</time>
      </trkpt>
      <trkpt lat="48.25623" lon="7.2158">
        <ele>336.2</ele>
        <time>2021-06-21T08:13:45Z</time>
      </trkpt>
      <trkpt lat="48.25617" lon="7.21566">
        <ele>337.2</ele>
        <time>2021-06-21T08:13:48Z</time>
      </trkpt>
      <trkpt lat="48.25613" lon="7.21556">
        <ele>337.6</ele>
        <time>2021-06-21T08:13:49Z</time>
      </trkpt>
      <trkpt lat="48.25609" lon="7.21545">
        <ele>338</ele>
        <time>2021-06-21T08:13:52Z</time>
      </trkpt>
      <trkpt lat="48.25604" lon="7.21532">
        <ele>338</ele>
        <time>2021-06-21T08:13:54Z</time>
      </trkpt>
      <trkpt lat="48.256" lon="7.21521">
        <ele>338.2</ele>
        <time>2021-06-21T08:13:55Z</time>
      </trkpt>
      <trkpt lat="48.25589" lon="7.21487">
        <ele>338.2</ele>
        <time>2021-06-21T08:14:01Z</time>
      </trkpt>
      <trkpt lat="48.25584" lon="7.21474">
        <ele>338.4</ele>
        <time>2021-06-21T08:14:02Z</time>
      </trkpt>
      <trkpt lat="48.25564" lon="7.21427">
        <ele>339.2</ele>
        <time>2021-06-21T08:14:10Z</time>
      </trkpt>
      <trkpt lat="48.25557" lon="7.2141">
        <ele>339.6</ele>
        <time>2021-06-21T08:14:13Z</time>
      </trkpt>
      <trkpt lat="48.25546" lon="7.21385">
        <ele>340</ele>
        <time>2021-06-21T08:14:19Z</time>
      </trkpt>
      <trkpt lat="48.25544" lon="7.21381">
        <ele>340.4</ele>
        <time>2021-06-21T08:14:20Z</time>
      </trkpt>
      <trkpt lat="48.25536" lon="7.21356">
        <ele>341.2</ele>
        <time>2021-06-21T08:14:24Z</time>
      </trkpt>
      <trkpt lat="48.25532" lon="7.21346">
        <ele>341.8</ele>
        <time>2021-06-21T08:14:27Z</time>
      </trkpt>
      <trkpt lat="48.25528" lon="7.21335">
        <ele>342.2</ele>
        <time>2021-06-21T08:14:29Z</time>
      </trkpt>
      <trkpt lat="48.25518" lon="7.21309">
        <ele>343</ele>
        <time>2021-06-21T08:14:33Z</time>
      </trkpt>
      <trkpt lat="48.25516" lon="7.21303">
        <ele>343.4</ele>
        <time>2021-06-21T08:14:35Z</time>
      </trkpt>
      <trkpt lat="48.25501" lon="7.21264">
        <ele>344.2</ele>
        <time>2021-06-21T08:14:42Z</time>
      </trkpt>
      <trkpt lat="48.25493" lon="7.21241">
        <ele>344.4</ele>
        <time>2021-06-21T08:14:45Z</time>
      </trkpt>
      <trkpt lat="48.25489" lon="7.21228">
        <ele>344.6</ele>
        <time>2021-06-21T08:14:48Z</time>
      </trkpt>
      <trkpt lat="48.25466" lon="7.21166">
        <ele>344.6</ele>
        <time>2021-06-21T08:14:57Z</time>
      </trkpt>
      <trkpt lat="48.25449" lon="7.21117">
        <ele>344.8</ele>
        <time>2021-06-21T08:15:06Z</time>
      </trkpt>
      <trkpt lat="48.25432" lon="7.21057">
        <ele>345</ele>
        <time>2021-06-21T08:15:14Z</time>
      </trkpt>
      <trkpt lat="48.25418" lon="7.21001">
        <ele>344.2</ele>
        <time>2021-06-21T08:15:23Z</time>
      </trkpt>
      <trkpt lat="48.25413" lon="7.20963">
        <ele>344.2</ele>
        <time>2021-06-21T08:15:27Z</time>
      </trkpt>
      <trkpt lat="48.25412" lon="7.20941">
        <ele>344</ele>
        <time>2021-06-21T08:15:30Z</time>
      </trkpt>
      <trkpt lat="48.25418" lon="7.20892">
        <ele>344</ele>
        <time>2021-06-21T08:15:37Z</time>
      </trkpt>
      <trkpt lat="48.25427" lon="7.20837">
        <ele>343.6</ele>
        <time>2021-06-21T08:15:44Z</time>
      </trkpt>
      <trkpt lat="48.25428" lon="7.2083">
        <ele>343.4</ele>
        <time>2021-06-21T08:15:45Z</time>
      </trkpt>
      <trkpt lat="48.25429" lon="7.20814">
        <ele>343.2</ele>
        <time>2021-06-21T08:15:47Z</time>
      </trkpt>
      <trkpt lat="48.2543" lon="7.20805">
        <ele>343</ele>
        <time>2021-06-21T08:15:48Z</time>
      </trkpt>
      <trkpt lat="48.25432" lon="7.20797">
        <ele>342.6</ele>
        <time>2021-06-21T08:15:50Z</time>
      </trkpt>
      <trkpt lat="48.25439" lon="7.20779">
        <ele>342.4</ele>
        <time>2021-06-21T08:15:52Z</time>
      </trkpt>
      <trkpt lat="48.25442" lon="7.20774">
        <ele>342.2</ele>
        <time>2021-06-21T08:15:53Z</time>
      </trkpt>
      <trkpt lat="48.25447" lon="7.20769">
        <ele>342.2</ele>
        <time>2021-06-21T08:15:54Z</time>
      </trkpt>
      <trkpt lat="48.25455" lon="7.20764">
        <ele>342</ele>
        <time>2021-06-21T08:15:56Z</time>
      </trkpt>
      <trkpt lat="48.25465" lon="7.20755">
        <ele>342</ele>
        <time>2021-06-21T08:15:58Z</time>
      </trkpt>
      <trkpt lat="48.2547" lon="7.20749">
        <ele>342</ele>
        <time>2021-06-21T08:15:59Z</time>
      </trkpt>
      <trkpt lat="48.25483" lon="7.20723">
        <ele>341.8</ele>
        <time>2021-06-21T08:16:03Z</time>
      </trkpt>
      <trkpt lat="48.25502" lon="7.2067">
        <ele>341</ele>
        <time>2021-06-21T08:16:10Z</time>
      </trkpt>
      <trkpt lat="48.25504" lon="7.20663">
        <ele>340.6</ele>
        <time>2021-06-21T08:16:12Z</time>
      </trkpt>
      <trkpt lat="48.25514" lon="7.20637">
        <ele>339.8</ele>
        <time>2021-06-21T08:16:14Z</time>
      </trkpt>
      <trkpt lat="48.25519" lon="7.20621">
        <ele>339.2</ele>
        <time>2021-06-21T08:16:16Z</time>
      </trkpt>
      <trkpt lat="48.25522" lon="7.20602">
        <ele>338.6</ele>
        <time>2021-06-21T08:16:18Z</time>
      </trkpt>
      <trkpt lat="48.25524" lon="7.20556">
        <ele>337.6</ele>
        <time>2021-06-21T08:16:24Z</time>
      </trkpt>
      <trkpt lat="48.25526" lon="7.20531">
        <ele>337</ele>
        <time>2021-06-21T08:16:26Z</time>
      </trkpt>
      <trkpt lat="48.25527" lon="7.20506">
        <ele>336.6</ele>
        <time>2021-06-21T08:16:29Z</time>
      </trkpt>
      <trkpt lat="48.25528" lon="7.20489">
        <ele>336.4</ele>
        <time>2021-06-21T08:16:32Z</time>
      </trkpt>
      <trkpt lat="48.25527" lon="7.2046">
        <ele>337.6</ele>
        <time>2021-06-21T08:16:37Z</time>
      </trkpt>
      <trkpt lat="48.25526" lon="7.20449">
        <ele>337.8</ele>
        <time>2021-06-21T08:16:39Z</time>
      </trkpt>
      <trkpt lat="48.25526" lon="7.20424">
        <ele>337.8</ele>
        <time>2021-06-21T08:16:44Z</time>
      </trkpt>
      <trkpt lat="48.25525" lon="7.204">
        <ele>338.4</ele>
        <time>2021-06-21T08:16:51Z</time>
      </trkpt>
      <trkpt lat="48.25524" lon="7.20385">
        <ele>338.8</ele>
        <time>2021-06-21T08:16:55Z</time>
      </trkpt>
      <trkpt lat="48.25524" lon="7.20381">
        <ele>338.8</ele>
        <time>2021-06-21T08:16:56Z</time>
      </trkpt>
      <trkpt lat="48.25524" lon="7.20366">
        <ele>339.4</ele>
        <time>2021-06-21T08:17:02Z</time>
      </trkpt>
      <trkpt lat="48.25524" lon="7.20365">
        <ele>339.4</ele>
        <time>2021-06-21T08:17:03Z</time>
      </trkpt>
      <trkpt lat="48.25528" lon="7.20363">
        <ele>339.4</ele>
        <time>2021-06-21T08:17:08Z</time>
      </trkpt>
      <trkpt lat="48.25531" lon="7.20366">
        <ele>339.4</ele>
        <time>2021-06-21T08:17:10Z</time>
      </trkpt>
      <trkpt lat="48.25545" lon="7.20376">
        <ele>339.4</ele>
        <time>2021-06-21T08:17:14Z</time>
      </trkpt>
      <trkpt lat="48.25564" lon="7.20391">
        <ele>339.2</ele>
        <time>2021-06-21T08:17:19Z</time>
      </trkpt>
      <trkpt lat="48.25581" lon="7.20406">
        <ele>339</ele>
        <time>2021-06-21T08:17:23Z</time>
      </trkpt>
      <trkpt lat="48.25584" lon="7.2041">
        <ele>339.4</ele>
        <time>2021-06-21T08:17:24Z</time>
      </trkpt>
      <trkpt lat="48.2559" lon="7.2042">
        <ele>339.4</ele>
        <time>2021-06-21T08:17:26Z</time>
      </trkpt>
      <trkpt lat="48.25594" lon="7.20433">
        <ele>339.4</ele>
        <time>2021-06-21T08:17:28Z</time>
      </trkpt>
      <trkpt lat="48.25595" lon="7.2044">
        <ele>339.6</ele>
        <time>2021-06-21T08:17:29Z</time>
      </trkpt>
      <trkpt lat="48.25595" lon="7.2044">
        <ele>339.6</ele>
        <time>2021-06-21T08:17:30Z</time>
      </trkpt>
      <trkpt lat="48.256" lon="7.2049">
        <ele>339.8</ele>
        <time>2021-06-21T08:17:35Z</time>
      </trkpt>
      <trkpt lat="48.25607" lon="7.20533">
        <ele>340</ele>
        <time>2021-06-21T08:17:40Z</time>
      </trkpt>
      <trkpt lat="48.2562" lon="7.20603">
        <ele>338.8</ele>
        <time>2021-06-21T08:17:48Z</time>
      </trkpt>
      <trkpt lat="48.2562" lon="7.20609">
        <ele>338.8</ele>
        <time>2021-06-21T08:17:49Z</time>
      </trkpt>
      <trkpt lat="48.25615" lon="7.20623">
        <ele>338.4</ele>
        <time>2021-06-21T08:17:51Z</time>
      </trkpt>
      <trkpt lat="48.25606" lon="7.20632">
        <ele>338</ele>
        <time>2021-06-21T08:17:53Z</time>
      </trkpt>
      <trkpt lat="48.25602" lon="7.20634">
        <ele>337.4</ele>
        <time>2021-06-21T08:17:55Z</time>
      </trkpt>
      <trkpt lat="48.25594" lon="7.20641">
        <ele>337.2</ele>
        <time>2021-06-21T08:17:56Z</time>
      </trkpt>
      <trkpt lat="48.25591" lon="7.20645">
        <ele>337.2</ele>
        <time>2021-06-21T08:17:57Z</time>
      </trkpt>
      <trkpt lat="48.25585" lon="7.20653">
        <ele>336.8</ele>
        <time>2021-06-21T08:18:01Z</time>
      </trkpt>
      <trkpt lat="48.25583" lon="7.20662">
        <ele>336.6</ele>
        <time>2021-06-21T08:18:04Z</time>
      </trkpt>
      <trkpt lat="48.25586" lon="7.20669">
        <ele>336.6</ele>
        <time>2021-06-21T08:18:06Z</time>
      </trkpt>
      <trkpt lat="48.2559" lon="7.20672">
        <ele>336.4</ele>
        <time>2021-06-21T08:18:11Z</time>
      </trkpt>
      <trkpt lat="48.2559" lon="7.20672">
        <ele>336.4</ele>
        <time>2021-06-21T08:18:12Z</time>
      </trkpt>
      <trkpt lat="48.25591" lon="7.20666">
        <ele>336.6</ele>
        <time>2021-06-21T08:34:13Z</time>
      </trkpt>
      <trkpt lat="48.25591" lon="7.2066">
        <ele>336.6</ele>
        <time>2021-06-21T08:34:15Z</time>
      </trkpt>
      <trkpt lat="48.25591" lon="7.20647">
        <ele>336.6</ele>
        <time>2021-06-21T08:34:19Z</time>
      </trkpt>
      <trkpt lat="48.25594" lon="7.20642">
        <ele>336.6</ele>
        <time>2021-06-21T08:34:21Z</time>
      </trkpt>
      <trkpt lat="48.25599" lon="7.20639">
        <ele>336.6</ele>
        <time>2021-06-21T08:34:23Z</time>
      </trkpt>
      <trkpt lat="48.25605" lon="7.20636">
        <ele>336.6</ele>
        <time>2021-06-21T08:34:25Z</time>
      </trkpt>
      <trkpt lat="48.25623" lon="7.20631">
        <ele>337.2</ele>
        <time>2021-06-21T08:34:32Z</time>
      </trkpt>
      <trkpt lat="48.25629" lon="7.2062">
        <ele>337.2</ele>
        <time>2021-06-21T08:34:35Z</time>
      </trkpt>
      <trkpt lat="48.25629" lon="7.20615">
        <ele>337.2</ele>
        <time>2021-06-21T08:34:36Z</time>
      </trkpt>
      <trkpt lat="48.25624" lon="7.20594">
        <ele>337.6</ele>
        <time>2021-06-21T08:34:40Z</time>
      </trkpt>
      <trkpt lat="48.25622" lon="7.20583">
        <ele>337.8</ele>
        <time>2021-06-21T08:34:42Z</time>
      </trkpt>
      <trkpt lat="48.25611" lon="7.20539">
        <ele>338.4</ele>
        <time>2021-06-21T08:34:49Z</time>
      </trkpt>
      <trkpt lat="48.25607" lon="7.20522">
        <ele>338.6</ele>
        <time>2021-06-21T08:34:52Z</time>
      </trkpt>
      <trkpt lat="48.25602" lon="7.20488">
        <ele>339.2</ele>
        <time>2021-06-21T08:34:57Z</time>
      </trkpt>
      <trkpt lat="48.25597" lon="7.20462">
        <ele>339.4</ele>
        <time>2021-06-21T08:35:01Z</time>
      </trkpt>
      <trkpt lat="48.25597" lon="7.20455">
        <ele>339.4</ele>
        <time>2021-06-21T08:35:02Z</time>
      </trkpt>
      <trkpt lat="48.25596" lon="7.20447">
        <ele>339.6</ele>
        <time>2021-06-21T08:35:03Z</time>
      </trkpt>
      <trkpt lat="48.25594" lon="7.20435">
        <ele>339.6</ele>
        <time>2021-06-21T08:35:05Z</time>
      </trkpt>
      <trkpt lat="48.25592" lon="7.20426">
        <ele>340</ele>
        <time>2021-06-21T08:35:07Z</time>
      </trkpt>
      <trkpt lat="48.25588" lon="7.20414">
        <ele>340</ele>
        <time>2021-06-21T08:35:09Z</time>
      </trkpt>
      <trkpt lat="48.25583" lon="7.20404">
        <ele>340</ele>
        <time>2021-06-21T08:35:11Z</time>
      </trkpt>
      <trkpt lat="48.25575" lon="7.20396">
        <ele>340</ele>
        <time>2021-06-21T08:35:13Z</time>
      </trkpt>
      <trkpt lat="48.25542" lon="7.20369">
        <ele>339.4</ele>
        <time>2021-06-21T08:35:20Z</time>
      </trkpt>
      <trkpt lat="48.25523" lon="7.20353">
        <ele>339.4</ele>
        <time>2021-06-21T08:35:24Z</time>
      </trkpt>
      <trkpt lat="48.25516" lon="7.20345">
        <ele>339.2</ele>
        <time>2021-06-21T08:35:26Z</time>
      </trkpt>
      <trkpt lat="48.25512" lon="7.20339">
        <ele>339.2</ele>
        <time>2021-06-21T08:35:27Z</time>
      </trkpt>
      <trkpt lat="48.25506" lon="7.20327">
        <ele>339.2</ele>
        <time>2021-06-21T08:35:29Z</time>
      </trkpt>
      <trkpt lat="48.25505" lon="7.20321">
        <ele>339.2</ele>
        <time>2021-06-21T08:35:30Z</time>
      </trkpt>
      <trkpt lat="48.25498" lon="7.20289">
        <ele>339.4</ele>
        <time>2021-06-21T08:35:35Z</time>
      </trkpt>
      <trkpt lat="48.25491" lon="7.20257">
        <ele>339.8</ele>
        <time>2021-06-21T08:35:40Z</time>
      </trkpt>
      <trkpt lat="48.25487" lon="7.2024">
        <ele>339.8</ele>
        <time>2021-06-21T08:35:43Z</time>
      </trkpt>
      <trkpt lat="48.25476" lon="7.2018">
        <ele>340</ele>
        <time>2021-06-21T08:35:52Z</time>
      </trkpt>
      <trkpt lat="48.25471" lon="7.20149">
        <ele>340.6</ele>
        <time>2021-06-21T08:35:57Z</time>
      </trkpt>
      <trkpt lat="48.25469" lon="7.20136">
        <ele>340.6</ele>
        <time>2021-06-21T08:35:59Z</time>
      </trkpt>
      <trkpt lat="48.2546" lon="7.20098">
        <ele>341.4</ele>
        <time>2021-06-21T08:36:05Z</time>
      </trkpt>
      <trkpt lat="48.25457" lon="7.20091">
        <ele>341.6</ele>
        <time>2021-06-21T08:36:06Z</time>
      </trkpt>
      <trkpt lat="48.25455" lon="7.20087">
        <ele>341.6</ele>
        <time>2021-06-21T08:36:07Z</time>
      </trkpt>
      <trkpt lat="48.2545" lon="7.20077">
        <ele>342</ele>
        <time>2021-06-21T08:36:09Z</time>
      </trkpt>
      <trkpt lat="48.25446" lon="7.20073">
        <ele>342.2</ele>
        <time>2021-06-21T08:36:11Z</time>
      </trkpt>
      <trkpt lat="48.25444" lon="7.20072">
        <ele>342.2</ele>
        <time>2021-06-21T08:36:12Z</time>
      </trkpt>
      <trkpt lat="48.25441" lon="7.20066">
        <ele>342.2</ele>
        <time>2021-06-21T08:36:15Z</time>
      </trkpt>
      <trkpt lat="48.2544" lon="7.20063">
        <ele>342.4</ele>
        <time>2021-06-21T08:36:17Z</time>
      </trkpt>
      <trkpt lat="48.25439" lon="7.20061">
        <ele>342.6</ele>
        <time>2021-06-21T08:36:19Z</time>
      </trkpt>
      <trkpt lat="48.25439" lon="7.20061">
        <ele>342.6</ele>
        <time>2021-06-21T08:36:20Z</time>
      </trkpt>
      <trkpt lat="48.25439" lon="7.20061">
        <ele>342.6</ele>
        <time>2021-06-21T08:36:21Z</time>
      </trkpt>
      <trkpt lat="48.25435" lon="7.20059">
        <ele>342.4</ele>
        <time>2021-06-21T08:37:03Z</time>
      </trkpt>
      <trkpt lat="48.25429" lon="7.20053">
        <ele>342.2</ele>
        <time>2021-06-21T08:37:05Z</time>
      </trkpt>
      <trkpt lat="48.25414" lon="7.20033">
        <ele>342.2</ele>
        <time>2021-06-21T08:37:10Z</time>
      </trkpt>
      <trkpt lat="48.25411" lon="7.20028">
        <ele>342.4</ele>
        <time>2021-06-21T08:37:11Z</time>
      </trkpt>
      <trkpt lat="48.25405" lon="7.2001">
        <ele>342.6</ele>
        <time>2021-06-21T08:37:14Z</time>
      </trkpt>
      <trkpt lat="48.254" lon="7.19992">
        <ele>343</ele>
        <time>2021-06-21T08:37:17Z</time>
      </trkpt>
      <trkpt lat="48.25391" lon="7.19954">
        <ele>343.6</ele>
        <time>2021-06-21T08:37:23Z</time>
      </trkpt>
      <trkpt lat="48.25389" lon="7.19948">
        <ele>343.6</ele>
        <time>2021-06-21T08:37:24Z</time>
      </trkpt>
      <trkpt lat="48.25376" lon="7.19899">
        <ele>344.4</ele>
        <time>2021-06-21T08:37:32Z</time>
      </trkpt>
      <trkpt lat="48.25372" lon="7.19884">
        <ele>344.8</ele>
        <time>2021-06-21T08:37:35Z</time>
      </trkpt>
      <trkpt lat="48.25368" lon="7.19869">
        <ele>345.2</ele>
        <time>2021-06-21T08:37:38Z</time>
      </trkpt>
      <trkpt lat="48.25367" lon="7.19866">
        <ele>345.4</ele>
        <time>2021-06-21T08:37:39Z</time>
      </trkpt>
      <trkpt lat="48.25365" lon="7.1985">
        <ele>345.6</ele>
        <time>2021-06-21T08:37:43Z</time>
      </trkpt>
      <trkpt lat="48.25364" lon="7.19845">
        <ele>345.8</ele>
        <time>2021-06-21T08:37:44Z</time>
      </trkpt>
      <trkpt lat="48.25356" lon="7.1981">
        <ele>346.8</ele>
        <time>2021-06-21T08:37:52Z</time>
      </trkpt>
      <trkpt lat="48.25355" lon="7.19806">
        <ele>347</ele>
        <time>2021-06-21T08:37:53Z</time>
      </trkpt>
      <trkpt lat="48.25352" lon="7.19792">
        <ele>347.8</ele>
        <time>2021-06-21T08:37:58Z</time>
      </trkpt>
      <trkpt lat="48.25351" lon="7.19788">
        <ele>348</ele>
        <time>2021-06-21T08:38:02Z</time>
      </trkpt>
      <trkpt lat="48.25351" lon="7.19788">
        <ele>348.2</ele>
        <time>2021-06-21T08:38:03Z</time>
      </trkpt>
      <trkpt lat="48.2535" lon="7.19782">
        <ele>348.6</ele>
        <time>2021-06-21T08:38:20Z</time>
      </trkpt>
      <trkpt lat="48.25348" lon="7.19774">
        <ele>348.6</ele>
        <time>2021-06-21T08:38:22Z</time>
      </trkpt>
      <trkpt lat="48.2534" lon="7.19743">
        <ele>348.8</ele>
        <time>2021-06-21T08:38:29Z</time>
      </trkpt>
      <trkpt lat="48.25328" lon="7.19712">
        <ele>350</ele>
        <time>2021-06-21T08:38:36Z</time>
      </trkpt>
      <trkpt lat="48.25326" lon="7.19707">
        <ele>350.4</ele>
        <time>2021-06-21T08:38:37Z</time>
      </trkpt>
      <trkpt lat="48.25311" lon="7.19676">
        <ele>351.2</ele>
        <time>2021-06-21T08:38:43Z</time>
      </trkpt>
      <trkpt lat="48.253" lon="7.19657">
        <ele>351.6</ele>
        <time>2021-06-21T08:38:47Z</time>
      </trkpt>
      <trkpt lat="48.2529" lon="7.19644">
        <ele>352.4</ele>
        <time>2021-06-21T08:38:50Z</time>
      </trkpt>
      <trkpt lat="48.25287" lon="7.19639">
        <ele>352.6</ele>
        <time>2021-06-21T08:38:51Z</time>
      </trkpt>
      <trkpt lat="48.25284" lon="7.19634">
        <ele>353</ele>
        <time>2021-06-21T08:38:52Z</time>
      </trkpt>
      <trkpt lat="48.25277" lon="7.19619">
        <ele>353.4</ele>
        <time>2021-06-21T08:38:55Z</time>
      </trkpt>
      <trkpt lat="48.25275" lon="7.19613">
        <ele>353.6</ele>
        <time>2021-06-21T08:38:56Z</time>
      </trkpt>
      <trkpt lat="48.25272" lon="7.19607">
        <ele>353.8</ele>
        <time>2021-06-21T08:38:57Z</time>
      </trkpt>
      <trkpt lat="48.25265" lon="7.19599">
        <ele>354.4</ele>
        <time>2021-06-21T08:38:59Z</time>
      </trkpt>
      <trkpt lat="48.25261" lon="7.19598">
        <ele>354.6</ele>
        <time>2021-06-21T08:39:00Z</time>
      </trkpt>
      <trkpt lat="48.25257" lon="7.19599">
        <ele>354.8</ele>
        <time>2021-06-21T08:39:01Z</time>
      </trkpt>
      <trkpt lat="48.25251" lon="7.19605">
        <ele>355.4</ele>
        <time>2021-06-21T08:39:03Z</time>
      </trkpt>
      <trkpt lat="48.25247" lon="7.19616">
        <ele>355.6</ele>
        <time>2021-06-21T08:39:05Z</time>
      </trkpt>
      <trkpt lat="48.25244" lon="7.19627">
        <ele>355.8</ele>
        <time>2021-06-21T08:39:07Z</time>
      </trkpt>
      <trkpt lat="48.25224" lon="7.19663">
        <ele>357</ele>
        <time>2021-06-21T08:39:15Z</time>
      </trkpt>
      <trkpt lat="48.25206" lon="7.19685">
        <ele>357.8</ele>
        <time>2021-06-21T08:39:22Z</time>
      </trkpt>
      <trkpt lat="48.25202" lon="7.1969">
        <ele>358.2</ele>
        <time>2021-06-21T08:39:24Z</time>
      </trkpt>
      <trkpt lat="48.25188" lon="7.1971">
        <ele>359</ele>
        <time>2021-06-21T08:39:30Z</time>
      </trkpt>
      <trkpt lat="48.25185" lon="7.19714">
        <ele>359</ele>
        <time>2021-06-21T08:39:31Z</time>
      </trkpt>
      <trkpt lat="48.25166" lon="7.19736">
        <ele>359.4</ele>
        <time>2021-06-21T08:39:38Z</time>
      </trkpt>
      <trkpt lat="48.25148" lon="7.19755">
        <ele>360.2</ele>
        <time>2021-06-21T08:39:44Z</time>
      </trkpt>
      <trkpt lat="48.25145" lon="7.19758">
        <ele>360.4</ele>
        <time>2021-06-21T08:39:45Z</time>
      </trkpt>
      <trkpt lat="48.25132" lon="7.19769">
        <ele>361.2</ele>
        <time>2021-06-21T08:39:49Z</time>
      </trkpt>
      <trkpt lat="48.25115" lon="7.1978">
        <ele>361.8</ele>
        <time>2021-06-21T08:39:54Z</time>
      </trkpt>
      <trkpt lat="48.25099" lon="7.19788">
        <ele>362.4</ele>
        <time>2021-06-21T08:39:59Z</time>
      </trkpt>
      <trkpt lat="48.25086" lon="7.19793">
        <ele>363.4</ele>
        <time>2021-06-21T08:40:03Z</time>
      </trkpt>
      <trkpt lat="48.25063" lon="7.19806">
        <ele>364.6</ele>
        <time>2021-06-21T08:40:10Z</time>
      </trkpt>
      <trkpt lat="48.25052" lon="7.19815">
        <ele>365.2</ele>
        <time>2021-06-21T08:40:14Z</time>
      </trkpt>
      <trkpt lat="48.25042" lon="7.19823">
        <ele>365.8</ele>
        <time>2021-06-21T08:40:17Z</time>
      </trkpt>
      <trkpt lat="48.25019" lon="7.19841">
        <ele>366.6</ele>
        <time>2021-06-21T08:40:24Z</time>
      </trkpt>
      <trkpt lat="48.25013" lon="7.19846">
        <ele>367</ele>
        <time>2021-06-21T08:40:26Z</time>
      </trkpt>
      <trkpt lat="48.2499" lon="7.19864">
        <ele>368</ele>
        <time>2021-06-21T08:40:33Z</time>
      </trkpt>
      <trkpt lat="48.24979" lon="7.19869">
        <ele>368.2</ele>
        <time>2021-06-21T08:40:36Z</time>
      </trkpt>
      <trkpt lat="48.24956" lon="7.19884">
        <ele>369.2</ele>
        <time>2021-06-21T08:40:43Z</time>
      </trkpt>
      <trkpt lat="48.24946" lon="7.1989">
        <ele>369.8</ele>
        <time>2021-06-21T08:40:46Z</time>
      </trkpt>
      <trkpt lat="48.24932" lon="7.199">
        <ele>370.4</ele>
        <time>2021-06-21T08:40:50Z</time>
      </trkpt>
      <trkpt lat="48.24924" lon="7.19908">
        <ele>371</ele>
        <time>2021-06-21T08:40:53Z</time>
      </trkpt>
      <trkpt lat="48.24914" lon="7.19916">
        <ele>371.6</ele>
        <time>2021-06-21T08:40:56Z</time>
      </trkpt>
      <trkpt lat="48.24902" lon="7.19926">
        <ele>372.4</ele>
        <time>2021-06-21T08:41:00Z</time>
      </trkpt>
      <trkpt lat="48.24896" lon="7.19931">
        <ele>372.6</ele>
        <time>2021-06-21T08:41:02Z</time>
      </trkpt>
      <trkpt lat="48.2489" lon="7.19937">
        <ele>373</ele>
        <time>2021-06-21T08:41:05Z</time>
      </trkpt>
      <trkpt lat="48.24882" lon="7.19939">
        <ele>373.8</ele>
        <time>2021-06-21T08:41:08Z</time>
      </trkpt>
      <trkpt lat="48.24872" lon="7.1994">
        <ele>374.2</ele>
        <time>2021-06-21T08:41:11Z</time>
      </trkpt>
      <trkpt lat="48.24863" lon="7.19941">
        <ele>374.8</ele>
        <time>2021-06-21T08:41:14Z</time>
      </trkpt>
      <trkpt lat="48.2485" lon="7.19943">
        <ele>375.4</ele>
        <time>2021-06-21T08:41:18Z</time>
      </trkpt>
      <trkpt lat="48.24844" lon="7.19944">
        <ele>376</ele>
        <time>2021-06-21T08:41:20Z</time>
      </trkpt>
      <trkpt lat="48.24829" lon="7.19947">
        <ele>377</ele>
        <time>2021-06-21T08:41:25Z</time>
      </trkpt>
      <trkpt lat="48.24823" lon="7.19949">
        <ele>377.4</ele>
        <time>2021-06-21T08:41:27Z</time>
      </trkpt>
      <trkpt lat="48.24814" lon="7.1995">
        <ele>377.8</ele>
        <time>2021-06-21T08:41:30Z</time>
      </trkpt>
      <trkpt lat="48.24801" lon="7.19952">
        <ele>379</ele>
        <time>2021-06-21T08:41:35Z</time>
      </trkpt>
      <trkpt lat="48.24786" lon="7.19951">
        <ele>380</ele>
        <time>2021-06-21T08:41:40Z</time>
      </trkpt>
      <trkpt lat="48.2478" lon="7.19953">
        <ele>380.4</ele>
        <time>2021-06-21T08:41:42Z</time>
      </trkpt>
      <trkpt lat="48.24767" lon="7.19952">
        <ele>381.4</ele>
        <time>2021-06-21T08:41:47Z</time>
      </trkpt>
      <trkpt lat="48.24755" lon="7.1995">
        <ele>382.4</ele>
        <time>2021-06-21T08:41:51Z</time>
      </trkpt>
      <trkpt lat="48.24747" lon="7.1995">
        <ele>383.6</ele>
        <time>2021-06-21T08:41:54Z</time>
      </trkpt>
      <trkpt lat="48.24728" lon="7.19945">
        <ele>384.6</ele>
        <time>2021-06-21T08:42:00Z</time>
      </trkpt>
      <trkpt lat="48.24725" lon="7.19944">
        <ele>384.8</ele>
        <time>2021-06-21T08:42:01Z</time>
      </trkpt>
      <trkpt lat="48.24712" lon="7.19941">
        <ele>385.8</ele>
        <time>2021-06-21T08:42:05Z</time>
      </trkpt>
      <trkpt lat="48.24698" lon="7.19935">
        <ele>386.2</ele>
        <time>2021-06-21T08:42:09Z</time>
      </trkpt>
      <trkpt lat="48.24672" lon="7.19925">
        <ele>386.6</ele>
        <time>2021-06-21T08:42:17Z</time>
      </trkpt>
      <trkpt lat="48.24668" lon="7.19924">
        <ele>386.8</ele>
        <time>2021-06-21T08:42:18Z</time>
      </trkpt>
      <trkpt lat="48.24651" lon="7.19918">
        <ele>387.2</ele>
        <time>2021-06-21T08:42:23Z</time>
      </trkpt>
      <trkpt lat="48.24638" lon="7.19914">
        <ele>387.6</ele>
        <time>2021-06-21T08:42:27Z</time>
      </trkpt>
      <trkpt lat="48.24629" lon="7.19911">
        <ele>388.2</ele>
        <time>2021-06-21T08:42:30Z</time>
      </trkpt>
      <trkpt lat="48.24626" lon="7.1991">
        <ele>388.6</ele>
        <time>2021-06-21T08:42:31Z</time>
      </trkpt>
      <trkpt lat="48.24622" lon="7.19909">
        <ele>388.8</ele>
        <time>2021-06-21T08:42:32Z</time>
      </trkpt>
      <trkpt lat="48.24603" lon="7.19905">
        <ele>390</ele>
        <time>2021-06-21T08:42:38Z</time>
      </trkpt>
      <trkpt lat="48.24582" lon="7.19902">
        <ele>391</ele>
        <time>2021-06-21T08:42:45Z</time>
      </trkpt>
      <trkpt lat="48.24568" lon="7.19901">
        <ele>392.2</ele>
        <time>2021-06-21T08:42:50Z</time>
      </trkpt>
      <trkpt lat="48.24556" lon="7.199">
        <ele>393.2</ele>
        <time>2021-06-21T08:42:54Z</time>
      </trkpt>
      <trkpt lat="48.24541" lon="7.199">
        <ele>394.2</ele>
        <time>2021-06-21T08:42:59Z</time>
      </trkpt>
      <trkpt lat="48.24523" lon="7.19901">
        <ele>395.2</ele>
        <time>2021-06-21T08:43:05Z</time>
      </trkpt>
      <trkpt lat="48.24519" lon="7.19901">
        <ele>395.4</ele>
        <time>2021-06-21T08:43:06Z</time>
      </trkpt>
      <trkpt lat="48.2451" lon="7.19902">
        <ele>396.4</ele>
        <time>2021-06-21T08:43:09Z</time>
      </trkpt>
      <trkpt lat="48.24498" lon="7.19902">
        <ele>397</ele>
        <time>2021-06-21T08:43:13Z</time>
      </trkpt>
      <trkpt lat="48.2449" lon="7.19901">
        <ele>397.8</ele>
        <time>2021-06-21T08:43:16Z</time>
      </trkpt>
      <trkpt lat="48.24475" lon="7.19899">
        <ele>398.8</ele>
        <time>2021-06-21T08:43:21Z</time>
      </trkpt>
      <trkpt lat="48.24454" lon="7.19892">
        <ele>400</ele>
        <time>2021-06-21T08:43:28Z</time>
      </trkpt>
      <trkpt lat="48.24452" lon="7.1989">
        <ele>400.2</ele>
        <time>2021-06-21T08:43:29Z</time>
      </trkpt>
      <trkpt lat="48.24431" lon="7.19877">
        <ele>401</ele>
        <time>2021-06-21T08:43:36Z</time>
      </trkpt>
      <trkpt lat="48.24427" lon="7.19875">
        <ele>401.2</ele>
        <time>2021-06-21T08:43:37Z</time>
      </trkpt>
      <trkpt lat="48.24408" lon="7.19865">
        <ele>402.4</ele>
        <time>2021-06-21T08:43:43Z</time>
      </trkpt>
      <trkpt lat="48.24403" lon="7.19863">
        <ele>402.8</ele>
        <time>2021-06-21T08:43:45Z</time>
      </trkpt>
      <trkpt lat="48.24392" lon="7.1986">
        <ele>403.4</ele>
        <time>2021-06-21T08:43:49Z</time>
      </trkpt>
      <trkpt lat="48.24386" lon="7.19857">
        <ele>403.6</ele>
        <time>2021-06-21T08:43:51Z</time>
      </trkpt>
      <trkpt lat="48.24378" lon="7.19852">
        <ele>404.6</ele>
        <time>2021-06-21T08:43:55Z</time>
      </trkpt>
      <trkpt lat="48.24374" lon="7.19852">
        <ele>404.8</ele>
        <time>2021-06-21T08:43:57Z</time>
      </trkpt>
      <trkpt lat="48.24368" lon="7.1985">
        <ele>405.4</ele>
        <time>2021-06-21T08:44:00Z</time>
      </trkpt>
      <trkpt lat="48.24365" lon="7.1985">
        <ele>406.4</ele>
        <time>2021-06-21T08:44:02Z</time>
      </trkpt>
      <trkpt lat="48.24363" lon="7.1985">
        <ele>406.6</ele>
        <time>2021-06-21T08:44:03Z</time>
      </trkpt>
      <trkpt lat="48.24355" lon="7.19846">
        <ele>407.8</ele>
        <time>2021-06-21T08:44:07Z</time>
      </trkpt>
      <trkpt lat="48.24345" lon="7.19841">
        <ele>408.8</ele>
        <time>2021-06-21T08:44:11Z</time>
      </trkpt>
      <trkpt lat="48.24333" lon="7.19836">
        <ele>410</ele>
        <time>2021-06-21T08:44:16Z</time>
      </trkpt>
      <trkpt lat="48.24327" lon="7.19834">
        <ele>410.6</ele>
        <time>2021-06-21T08:44:18Z</time>
      </trkpt>
      <trkpt lat="48.24319" lon="7.19831">
        <ele>411.2</ele>
        <time>2021-06-21T08:44:21Z</time>
      </trkpt>
      <trkpt lat="48.24309" lon="7.1983">
        <ele>412.4</ele>
        <time>2021-06-21T08:44:25Z</time>
      </trkpt>
      <trkpt lat="48.24303" lon="7.19828">
        <ele>412.8</ele>
        <time>2021-06-21T08:44:27Z</time>
      </trkpt>
      <trkpt lat="48.24297" lon="7.19827">
        <ele>413.4</ele>
        <time>2021-06-21T08:44:30Z</time>
      </trkpt>
      <trkpt lat="48.24287" lon="7.19825">
        <ele>414.6</ele>
        <time>2021-06-21T08:44:34Z</time>
      </trkpt>
      <trkpt lat="48.24276" lon="7.19824">
        <ele>415.4</ele>
        <time>2021-06-21T08:44:38Z</time>
      </trkpt>
      <trkpt lat="48.24274" lon="7.19824">
        <ele>415.6</ele>
        <time>2021-06-21T08:44:39Z</time>
      </trkpt>
      <trkpt lat="48.24258" lon="7.1983">
        <ele>416.6</ele>
        <time>2021-06-21T08:44:45Z</time>
      </trkpt>
      <trkpt lat="48.24253" lon="7.19832">
        <ele>416.8</ele>
        <time>2021-06-21T08:44:47Z</time>
      </trkpt>
      <trkpt lat="48.24243" lon="7.19839">
        <ele>417.6</ele>
        <time>2021-06-21T08:44:51Z</time>
      </trkpt>
      <trkpt lat="48.24233" lon="7.19847">
        <ele>418.6</ele>
        <time>2021-06-21T08:44:56Z</time>
      </trkpt>
      <trkpt lat="48.2423" lon="7.1985">
        <ele>418.8</ele>
        <time>2021-06-21T08:44:57Z</time>
      </trkpt>
      <trkpt lat="48.24221" lon="7.19859">
        <ele>419.4</ele>
        <time>2021-06-21T08:45:01Z</time>
      </trkpt>
      <trkpt lat="48.24215" lon="7.19865">
        <ele>420</ele>
        <time>2021-06-21T08:45:04Z</time>
      </trkpt>
      <trkpt lat="48.24211" lon="7.19868">
        <ele>420.2</ele>
        <time>2021-06-21T08:45:06Z</time>
      </trkpt>
      <trkpt lat="48.24191" lon="7.19886">
        <ele>420.8</ele>
        <time>2021-06-21T08:45:15Z</time>
      </trkpt>
      <trkpt lat="48.24187" lon="7.19892">
        <ele>421</ele>
        <time>2021-06-21T08:45:17Z</time>
      </trkpt>
      <trkpt lat="48.24183" lon="7.19902">
        <ele>421</ele>
        <time>2021-06-21T08:45:20Z</time>
      </trkpt>
      <trkpt lat="48.24182" lon="7.1992">
        <ele>421.2</ele>
        <time>2021-06-21T08:45:24Z</time>
      </trkpt>
      <trkpt lat="48.2419" lon="7.19943">
        <ele>421.4</ele>
        <time>2021-06-21T08:45:29Z</time>
      </trkpt>
      <trkpt lat="48.24205" lon="7.19959">
        <ele>422</ele>
        <time>2021-06-21T08:45:35Z</time>
      </trkpt>
      <trkpt lat="48.24207" lon="7.1996">
        <ele>422.2</ele>
        <time>2021-06-21T08:45:36Z</time>
      </trkpt>
      <trkpt lat="48.24215" lon="7.19964">
        <ele>422.8</ele>
        <time>2021-06-21T08:45:39Z</time>
      </trkpt>
      <trkpt lat="48.24219" lon="7.19964">
        <ele>423</ele>
        <time>2021-06-21T08:45:41Z</time>
      </trkpt>
      <trkpt lat="48.24223" lon="7.19964">
        <ele>423.4</ele>
        <time>2021-06-21T08:45:43Z</time>
      </trkpt>
      <trkpt lat="48.24236" lon="7.19965">
        <ele>424</ele>
        <time>2021-06-21T08:45:47Z</time>
      </trkpt>
      <trkpt lat="48.24239" lon="7.19966">
        <ele>424.2</ele>
        <time>2021-06-21T08:45:48Z</time>
      </trkpt>
      <trkpt lat="48.24244" lon="7.19967">
        <ele>425</ele>
        <time>2021-06-21T08:45:50Z</time>
      </trkpt>
      <trkpt lat="48.2425" lon="7.19965">
        <ele>425.4</ele>
        <time>2021-06-21T08:45:52Z</time>
      </trkpt>
      <trkpt lat="48.24256" lon="7.19964">
        <ele>425.8</ele>
        <time>2021-06-21T08:45:54Z</time>
      </trkpt>
      <trkpt lat="48.24266" lon="7.1996">
        <ele>426.6</ele>
        <time>2021-06-21T08:45:57Z</time>
      </trkpt>
      <trkpt lat="48.24276" lon="7.19959">
        <ele>426.8</ele>
        <time>2021-06-21T08:46:00Z</time>
      </trkpt>
      <trkpt lat="48.24279" lon="7.1996">
        <ele>427</ele>
        <time>2021-06-21T08:46:01Z</time>
      </trkpt>
      <trkpt lat="48.24282" lon="7.1996">
        <ele>427.4</ele>
        <time>2021-06-21T08:46:02Z</time>
      </trkpt>
      <trkpt lat="48.24295" lon="7.19963">
        <ele>428.2</ele>
        <time>2021-06-21T08:46:06Z</time>
      </trkpt>
      <trkpt lat="48.24298" lon="7.19963">
        <ele>428.4</ele>
        <time>2021-06-21T08:46:07Z</time>
      </trkpt>
      <trkpt lat="48.24302" lon="7.19963">
        <ele>428.8</ele>
        <time>2021-06-21T08:46:08Z</time>
      </trkpt>
      <trkpt lat="48.24313" lon="7.19969">
        <ele>429.8</ele>
        <time>2021-06-21T08:46:11Z</time>
      </trkpt>
      <trkpt lat="48.24316" lon="7.19971">
        <ele>430</ele>
        <time>2021-06-21T08:46:12Z</time>
      </trkpt>
      <trkpt lat="48.24319" lon="7.19973">
        <ele>430</ele>
        <time>2021-06-21T08:46:13Z</time>
      </trkpt>
      <trkpt lat="48.24329" lon="7.19979">
        <ele>431</ele>
        <time>2021-06-21T08:46:17Z</time>
      </trkpt>
      <trkpt lat="48.24333" lon="7.19978">
        <ele>431.2</ele>
        <time>2021-06-21T08:46:18Z</time>
      </trkpt>
      <trkpt lat="48.24342" lon="7.19982">
        <ele>432</ele>
        <time>2021-06-21T08:46:21Z</time>
      </trkpt>
      <trkpt lat="48.24347" lon="7.19986">
        <ele>432.4</ele>
        <time>2021-06-21T08:46:23Z</time>
      </trkpt>
      <trkpt lat="48.24355" lon="7.19992">
        <ele>433</ele>
        <time>2021-06-21T08:46:27Z</time>
      </trkpt>
      <trkpt lat="48.24356" lon="7.19993">
        <ele>433</ele>
        <time>2021-06-21T08:46:28Z</time>
      </trkpt>
      <trkpt lat="48.24367" lon="7.20005">
        <ele>433.8</ele>
        <time>2021-06-21T08:46:33Z</time>
      </trkpt>
      <trkpt lat="48.24369" lon="7.20008">
        <ele>434</ele>
        <time>2021-06-21T08:46:34Z</time>
      </trkpt>
      <trkpt lat="48.24384" lon="7.20025">
        <ele>434.8</ele>
        <time>2021-06-21T08:46:40Z</time>
      </trkpt>
      <trkpt lat="48.24389" lon="7.20029">
        <ele>435.2</ele>
        <time>2021-06-21T08:46:42Z</time>
      </trkpt>
      <trkpt lat="48.24402" lon="7.20038">
        <ele>435.8</ele>
        <time>2021-06-21T08:46:46Z</time>
      </trkpt>
      <trkpt lat="48.24415" lon="7.20047">
        <ele>436.4</ele>
        <time>2021-06-21T08:46:50Z</time>
      </trkpt>
      <trkpt lat="48.24425" lon="7.20051">
        <ele>436.6</ele>
        <time>2021-06-21T08:46:53Z</time>
      </trkpt>
      <trkpt lat="48.24433" lon="7.20056">
        <ele>437</ele>
        <time>2021-06-21T08:46:56Z</time>
      </trkpt>
      <trkpt lat="48.24446" lon="7.20066">
        <ele>437.4</ele>
        <time>2021-06-21T08:47:01Z</time>
      </trkpt>
      <trkpt lat="48.24458" lon="7.20078">
        <ele>438.6</ele>
        <time>2021-06-21T08:47:06Z</time>
      </trkpt>
      <trkpt lat="48.24463" lon="7.20083">
        <ele>439</ele>
        <time>2021-06-21T08:47:08Z</time>
      </trkpt>
      <trkpt lat="48.24468" lon="7.20087">
        <ele>439.6</ele>
        <time>2021-06-21T08:47:10Z</time>
      </trkpt>
      <trkpt lat="48.24478" lon="7.20096">
        <ele>440.4</ele>
        <time>2021-06-21T08:47:14Z</time>
      </trkpt>
      <trkpt lat="48.2448" lon="7.20098">
        <ele>440.6</ele>
        <time>2021-06-21T08:47:15Z</time>
      </trkpt>
      <trkpt lat="48.24492" lon="7.20111">
        <ele>441.6</ele>
        <time>2021-06-21T08:47:20Z</time>
      </trkpt>
      <trkpt lat="48.24501" lon="7.20121">
        <ele>442.8</ele>
        <time>2021-06-21T08:47:24Z</time>
      </trkpt>
      <trkpt lat="48.24517" lon="7.20139">
        <ele>444</ele>
        <time>2021-06-21T08:47:31Z</time>
      </trkpt>
      <trkpt lat="48.24529" lon="7.20151">
        <ele>444.8</ele>
        <time>2021-06-21T08:47:36Z</time>
      </trkpt>
      <trkpt lat="48.24533" lon="7.20156">
        <ele>445.2</ele>
        <time>2021-06-21T08:47:38Z</time>
      </trkpt>
      <trkpt lat="48.24549" lon="7.20169">
        <ele>446.2</ele>
        <time>2021-06-21T08:47:44Z</time>
      </trkpt>
      <trkpt lat="48.24565" lon="7.20177">
        <ele>447.2</ele>
        <time>2021-06-21T08:47:50Z</time>
      </trkpt>
      <trkpt lat="48.24568" lon="7.20179">
        <ele>447.4</ele>
        <time>2021-06-21T08:47:51Z</time>
      </trkpt>
      <trkpt lat="48.24574" lon="7.20181">
        <ele>447.8</ele>
        <time>2021-06-21T08:47:54Z</time>
      </trkpt>
      <trkpt lat="48.24583" lon="7.20178">
        <ele>448.4</ele>
        <time>2021-06-21T08:47:57Z</time>
      </trkpt>
      <trkpt lat="48.24588" lon="7.2018">
        <ele>448.8</ele>
        <time>2021-06-21T08:47:59Z</time>
      </trkpt>
      <trkpt lat="48.24596" lon="7.20185">
        <ele>449.4</ele>
        <time>2021-06-21T08:48:02Z</time>
      </trkpt>
      <trkpt lat="48.24603" lon="7.20186">
        <ele>449.8</ele>
        <time>2021-06-21T08:48:05Z</time>
      </trkpt>
      <trkpt lat="48.24621" lon="7.20198">
        <ele>450.2</ele>
        <time>2021-06-21T08:48:11Z</time>
      </trkpt>
      <trkpt lat="48.24627" lon="7.20201">
        <ele>450.4</ele>
        <time>2021-06-21T08:48:13Z</time>
      </trkpt>
      <trkpt lat="48.24635" lon="7.20206">
        <ele>452</ele>
        <time>2021-06-21T08:48:16Z</time>
      </trkpt>
      <trkpt lat="48.24641" lon="7.20208">
        <ele>453</ele>
        <time>2021-06-21T08:48:20Z</time>
      </trkpt>
      <trkpt lat="48.24643" lon="7.2021">
        <ele>453.2</ele>
        <time>2021-06-21T08:48:21Z</time>
      </trkpt>
      <trkpt lat="48.24651" lon="7.20216">
        <ele>453.6</ele>
        <time>2021-06-21T08:48:24Z</time>
      </trkpt>
      <trkpt lat="48.24654" lon="7.20216">
        <ele>453.8</ele>
        <time>2021-06-21T08:48:25Z</time>
      </trkpt>
      <trkpt lat="48.24663" lon="7.20219">
        <ele>454.2</ele>
        <time>2021-06-21T08:48:28Z</time>
      </trkpt>
      <trkpt lat="48.24672" lon="7.20223">
        <ele>455</ele>
        <time>2021-06-21T08:48:31Z</time>
      </trkpt>
      <trkpt lat="48.24676" lon="7.20222">
        <ele>455.2</ele>
        <time>2021-06-21T08:48:32Z</time>
      </trkpt>
      <trkpt lat="48.24693" lon="7.20229">
        <ele>456.2</ele>
        <time>2021-06-21T08:48:38Z</time>
      </trkpt>
      <trkpt lat="48.24695" lon="7.20231">
        <ele>456.6</ele>
        <time>2021-06-21T08:48:39Z</time>
      </trkpt>
      <trkpt lat="48.24701" lon="7.20238">
        <ele>457</ele>
        <time>2021-06-21T08:48:42Z</time>
      </trkpt>
      <trkpt lat="48.24701" lon="7.20241">
        <ele>457.2</ele>
        <time>2021-06-21T08:48:43Z</time>
      </trkpt>
      <trkpt lat="48.247" lon="7.20246">
        <ele>457.4</ele>
        <time>2021-06-21T08:48:44Z</time>
      </trkpt>
      <trkpt lat="48.24698" lon="7.20252">
        <ele>457.6</ele>
        <time>2021-06-21T08:48:45Z</time>
      </trkpt>
      <trkpt lat="48.24696" lon="7.20256">
        <ele>458</ele>
        <time>2021-06-21T08:48:46Z</time>
      </trkpt>
      <trkpt lat="48.24694" lon="7.20255">
        <ele>458</ele>
        <time>2021-06-21T08:48:47Z</time>
      </trkpt>
      <trkpt lat="48.24691" lon="7.20255">
        <ele>458.6</ele>
        <time>2021-06-21T08:48:48Z</time>
      </trkpt>
      <trkpt lat="48.24683" lon="7.20251">
        <ele>459.4</ele>
        <time>2021-06-21T08:48:52Z</time>
      </trkpt>
      <trkpt lat="48.24679" lon="7.20249">
        <ele>459.8</ele>
        <time>2021-06-21T08:48:54Z</time>
      </trkpt>
      <trkpt lat="48.24665" lon="7.20246">
        <ele>460.6</ele>
        <time>2021-06-21T08:48:59Z</time>
      </trkpt>
      <trkpt lat="48.2466" lon="7.20245">
        <ele>461</ele>
        <time>2021-06-21T08:49:01Z</time>
      </trkpt>
      <trkpt lat="48.24649" lon="7.20242">
        <ele>461.8</ele>
        <time>2021-06-21T08:49:05Z</time>
      </trkpt>
      <trkpt lat="48.24647" lon="7.20241">
        <ele>462.2</ele>
        <time>2021-06-21T08:49:06Z</time>
      </trkpt>
      <trkpt lat="48.24637" lon="7.20239">
        <ele>463</ele>
        <time>2021-06-21T08:49:10Z</time>
      </trkpt>
      <trkpt lat="48.24634" lon="7.20239">
        <ele>463.4</ele>
        <time>2021-06-21T08:49:11Z</time>
      </trkpt>
      <trkpt lat="48.24629" lon="7.20237">
        <ele>464</ele>
        <time>2021-06-21T08:49:13Z</time>
      </trkpt>
      <trkpt lat="48.24619" lon="7.20238">
        <ele>464.6</ele>
        <time>2021-06-21T08:49:17Z</time>
      </trkpt>
      <trkpt lat="48.24616" lon="7.20238">
        <ele>464.8</ele>
        <time>2021-06-21T08:49:18Z</time>
      </trkpt>
      <trkpt lat="48.24603" lon="7.20239">
        <ele>465.6</ele>
        <time>2021-06-21T08:49:23Z</time>
      </trkpt>
      <trkpt lat="48.24592" lon="7.20241">
        <ele>466.4</ele>
        <time>2021-06-21T08:49:28Z</time>
      </trkpt>
      <trkpt lat="48.2459" lon="7.20241">
        <ele>467</ele>
        <time>2021-06-21T08:49:29Z</time>
      </trkpt>
      <trkpt lat="48.24579" lon="7.20247">
        <ele>467.8</ele>
        <time>2021-06-21T08:49:34Z</time>
      </trkpt>
      <trkpt lat="48.24577" lon="7.20248">
        <ele>467.8</ele>
        <time>2021-06-21T08:49:35Z</time>
      </trkpt>
      <trkpt lat="48.24569" lon="7.20252">
        <ele>468.6</ele>
        <time>2021-06-21T08:49:39Z</time>
      </trkpt>
      <trkpt lat="48.2456" lon="7.20252">
        <ele>469</ele>
        <time>2021-06-21T08:49:42Z</time>
      </trkpt>
      <trkpt lat="48.24547" lon="7.20254">
        <ele>470</ele>
        <time>2021-06-21T08:49:47Z</time>
      </trkpt>
      <trkpt lat="48.24544" lon="7.20254">
        <ele>470</ele>
        <time>2021-06-21T08:49:48Z</time>
      </trkpt>
      <trkpt lat="48.2454" lon="7.20253">
        <ele>470.4</ele>
        <time>2021-06-21T08:49:49Z</time>
      </trkpt>
      <trkpt lat="48.24531" lon="7.20251">
        <ele>471.2</ele>
        <time>2021-06-21T08:49:52Z</time>
      </trkpt>
      <trkpt lat="48.24529" lon="7.20251">
        <ele>471.4</ele>
        <time>2021-06-21T08:49:53Z</time>
      </trkpt>
      <trkpt lat="48.24511" lon="7.20242">
        <ele>472.4</ele>
        <time>2021-06-21T08:49:59Z</time>
      </trkpt>
      <trkpt lat="48.24493" lon="7.2023">
        <ele>473.4</ele>
        <time>2021-06-21T08:50:04Z</time>
      </trkpt>
      <trkpt lat="48.2449" lon="7.2023">
        <ele>473.4</ele>
        <time>2021-06-21T08:50:05Z</time>
      </trkpt>
      <trkpt lat="48.24467" lon="7.20224">
        <ele>474.4</ele>
        <time>2021-06-21T08:50:11Z</time>
      </trkpt>
      <trkpt lat="48.24463" lon="7.20222">
        <ele>474.6</ele>
        <time>2021-06-21T08:50:12Z</time>
      </trkpt>
      <trkpt lat="48.24446" lon="7.20206">
        <ele>475</ele>
        <time>2021-06-21T08:50:18Z</time>
      </trkpt>
      <trkpt lat="48.24436" lon="7.20198">
        <ele>475.4</ele>
        <time>2021-06-21T08:50:22Z</time>
      </trkpt>
      <trkpt lat="48.24435" lon="7.20197">
        <ele>475.6</ele>
        <time>2021-06-21T08:50:23Z</time>
      </trkpt>
      <trkpt lat="48.2443" lon="7.20195">
        <ele>476.6</ele>
        <time>2021-06-21T08:50:26Z</time>
      </trkpt>
      <trkpt lat="48.24424" lon="7.20193">
        <ele>477.2</ele>
        <time>2021-06-21T08:50:29Z</time>
      </trkpt>
      <trkpt lat="48.24419" lon="7.20193">
        <ele>477.6</ele>
        <time>2021-06-21T08:50:31Z</time>
      </trkpt>
      <trkpt lat="48.24409" lon="7.20192">
        <ele>478.8</ele>
        <time>2021-06-21T08:50:35Z</time>
      </trkpt>
      <trkpt lat="48.24407" lon="7.20192">
        <ele>478.8</ele>
        <time>2021-06-21T08:50:36Z</time>
      </trkpt>
      <trkpt lat="48.24406" lon="7.20192">
        <ele>479</ele>
        <time>2021-06-21T08:50:37Z</time>
      </trkpt>
      <trkpt lat="48.24394" lon="7.20192">
        <ele>480</ele>
        <time>2021-06-21T08:50:42Z</time>
      </trkpt>
      <trkpt lat="48.24382" lon="7.20194">
        <ele>481</ele>
        <time>2021-06-21T08:50:46Z</time>
      </trkpt>
      <trkpt lat="48.24375" lon="7.20191">
        <ele>481.4</ele>
        <time>2021-06-21T08:50:48Z</time>
      </trkpt>
      <trkpt lat="48.24371" lon="7.20192">
        <ele>481.8</ele>
        <time>2021-06-21T08:50:50Z</time>
      </trkpt>
      <trkpt lat="48.24368" lon="7.20193">
        <ele>482</ele>
        <time>2021-06-21T08:50:51Z</time>
      </trkpt>
      <trkpt lat="48.24366" lon="7.20195">
        <ele>482.2</ele>
        <time>2021-06-21T08:50:52Z</time>
      </trkpt>
      <trkpt lat="48.24363" lon="7.20195">
        <ele>482.6</ele>
        <time>2021-06-21T08:50:53Z</time>
      </trkpt>
      <trkpt lat="48.24358" lon="7.20196">
        <ele>482.8</ele>
        <time>2021-06-21T08:50:55Z</time>
      </trkpt>
      <trkpt lat="48.24354" lon="7.20198">
        <ele>483.2</ele>
        <time>2021-06-21T08:50:57Z</time>
      </trkpt>
      <trkpt lat="48.24353" lon="7.20198">
        <ele>483.2</ele>
        <time>2021-06-21T08:50:58Z</time>
      </trkpt>
      <trkpt lat="48.24353" lon="7.20199">
        <ele>484</ele>
        <time>2021-06-21T08:51:01Z</time>
      </trkpt>
      <trkpt lat="48.24353" lon="7.20203">
        <ele>485.6</ele>
        <time>2021-06-21T08:53:11Z</time>
      </trkpt>
      <trkpt lat="48.24356" lon="7.20205">
        <ele>485.8</ele>
        <time>2021-06-21T08:53:12Z</time>
      </trkpt>
      <trkpt lat="48.24373" lon="7.20207">
        <ele>486.6</ele>
        <time>2021-06-21T08:53:18Z</time>
      </trkpt>
      <trkpt lat="48.24376" lon="7.20209">
        <ele>486.8</ele>
        <time>2021-06-21T08:53:19Z</time>
      </trkpt>
      <trkpt lat="48.24392" lon="7.20217">
        <ele>487.2</ele>
        <time>2021-06-21T08:53:25Z</time>
      </trkpt>
      <trkpt lat="48.24402" lon="7.20223">
        <ele>487.6</ele>
        <time>2021-06-21T08:53:28Z</time>
      </trkpt>
      <trkpt lat="48.24407" lon="7.2023">
        <ele>488</ele>
        <time>2021-06-21T08:53:30Z</time>
      </trkpt>
      <trkpt lat="48.24417" lon="7.20246">
        <ele>488.8</ele>
        <time>2021-06-21T08:53:34Z</time>
      </trkpt>
      <trkpt lat="48.24428" lon="7.20266">
        <ele>490</ele>
        <time>2021-06-21T08:53:39Z</time>
      </trkpt>
      <trkpt lat="48.24437" lon="7.20282">
        <ele>491</ele>
        <time>2021-06-21T08:53:44Z</time>
      </trkpt>
      <trkpt lat="48.24444" lon="7.20295">
        <ele>491.6</ele>
        <time>2021-06-21T08:53:48Z</time>
      </trkpt>
      <trkpt lat="48.24445" lon="7.20298">
        <ele>492</ele>
        <time>2021-06-21T08:53:49Z</time>
      </trkpt>
      <trkpt lat="48.24455" lon="7.20311">
        <ele>493</ele>
        <time>2021-06-21T08:53:54Z</time>
      </trkpt>
      <trkpt lat="48.2446" lon="7.20316">
        <ele>493.4</ele>
        <time>2021-06-21T08:53:56Z</time>
      </trkpt>
      <trkpt lat="48.24468" lon="7.20322">
        <ele>494.4</ele>
        <time>2021-06-21T08:54:00Z</time>
      </trkpt>
      <trkpt lat="48.24473" lon="7.20323">
        <ele>494.8</ele>
        <time>2021-06-21T08:54:02Z</time>
      </trkpt>
      <trkpt lat="48.24483" lon="7.20326">
        <ele>495.4</ele>
        <time>2021-06-21T08:54:06Z</time>
      </trkpt>
      <trkpt lat="48.24494" lon="7.20328">
        <ele>495.6</ele>
        <time>2021-06-21T08:54:09Z</time>
      </trkpt>
      <trkpt lat="48.24508" lon="7.20334">
        <ele>496.2</ele>
        <time>2021-06-21T08:54:14Z</time>
      </trkpt>
      <trkpt lat="48.24511" lon="7.20334">
        <ele>496.4</ele>
        <time>2021-06-21T08:54:15Z</time>
      </trkpt>
      <trkpt lat="48.24527" lon="7.20339">
        <ele>497.2</ele>
        <time>2021-06-21T08:54:20Z</time>
      </trkpt>
      <trkpt lat="48.24531" lon="7.20343">
        <ele>497.4</ele>
        <time>2021-06-21T08:54:21Z</time>
      </trkpt>
      <trkpt lat="48.24541" lon="7.20348">
        <ele>498.2</ele>
        <time>2021-06-21T08:54:25Z</time>
      </trkpt>
      <trkpt lat="48.24546" lon="7.20351">
        <ele>498.8</ele>
        <time>2021-06-21T08:54:27Z</time>
      </trkpt>
      <trkpt lat="48.24556" lon="7.20358">
        <ele>499.6</ele>
        <time>2021-06-21T08:54:31Z</time>
      </trkpt>
      <trkpt lat="48.24561" lon="7.20359">
        <ele>499.8</ele>
        <time>2021-06-21T08:54:33Z</time>
      </trkpt>
      <trkpt lat="48.24572" lon="7.2036">
        <ele>501</ele>
        <time>2021-06-21T08:54:37Z</time>
      </trkpt>
      <trkpt lat="48.24574" lon="7.20361">
        <ele>501.2</ele>
        <time>2021-06-21T08:54:38Z</time>
      </trkpt>
      <trkpt lat="48.24583" lon="7.20363">
        <ele>502</ele>
        <time>2021-06-21T08:54:42Z</time>
      </trkpt>
      <trkpt lat="48.24586" lon="7.20364">
        <ele>502.2</ele>
        <time>2021-06-21T08:54:43Z</time>
      </trkpt>
      <trkpt lat="48.24601" lon="7.2036">
        <ele>503.2</ele>
        <time>2021-06-21T08:54:49Z</time>
      </trkpt>
      <trkpt lat="48.24609" lon="7.2036">
        <ele>504</ele>
        <time>2021-06-21T08:54:52Z</time>
      </trkpt>
      <trkpt lat="48.24612" lon="7.2036">
        <ele>504.4</ele>
        <time>2021-06-21T08:54:53Z</time>
      </trkpt>
      <trkpt lat="48.24628" lon="7.20363">
        <ele>505.4</ele>
        <time>2021-06-21T08:54:58Z</time>
      </trkpt>
      <trkpt lat="48.24641" lon="7.20367">
        <ele>506.4</ele>
        <time>2021-06-21T08:55:03Z</time>
      </trkpt>
      <trkpt lat="48.24648" lon="7.20372">
        <ele>507.2</ele>
        <time>2021-06-21T08:55:06Z</time>
      </trkpt>
      <trkpt lat="48.2465" lon="7.20374">
        <ele>507.4</ele>
        <time>2021-06-21T08:55:07Z</time>
      </trkpt>
      <trkpt lat="48.24661" lon="7.20382">
        <ele>508.4</ele>
        <time>2021-06-21T08:55:11Z</time>
      </trkpt>
      <trkpt lat="48.2467" lon="7.20393">
        <ele>509</ele>
        <time>2021-06-21T08:55:14Z</time>
      </trkpt>
      <trkpt lat="48.24678" lon="7.20399">
        <ele>509.6</ele>
        <time>2021-06-21T08:55:17Z</time>
      </trkpt>
      <trkpt lat="48.24688" lon="7.2041">
        <ele>510</ele>
        <time>2021-06-21T08:55:21Z</time>
      </trkpt>
      <trkpt lat="48.24694" lon="7.20417">
        <ele>510.6</ele>
        <time>2021-06-21T08:55:24Z</time>
      </trkpt>
      <trkpt lat="48.247" lon="7.20427">
        <ele>511.6</ele>
        <time>2021-06-21T08:55:27Z</time>
      </trkpt>
      <trkpt lat="48.24707" lon="7.20442">
        <ele>512.8</ele>
        <time>2021-06-21T08:55:32Z</time>
      </trkpt>
      <trkpt lat="48.24713" lon="7.20465">
        <ele>514</ele>
        <time>2021-06-21T08:55:38Z</time>
      </trkpt>
      <trkpt lat="48.24713" lon="7.20471">
        <ele>514.2</ele>
        <time>2021-06-21T08:55:39Z</time>
      </trkpt>
      <trkpt lat="48.24714" lon="7.20489">
        <ele>515.2</ele>
        <time>2021-06-21T08:55:43Z</time>
      </trkpt>
      <trkpt lat="48.24712" lon="7.20506">
        <ele>515.8</ele>
        <time>2021-06-21T08:55:46Z</time>
      </trkpt>
      <trkpt lat="48.24712" lon="7.20511">
        <ele>516.2</ele>
        <time>2021-06-21T08:55:47Z</time>
      </trkpt>
      <trkpt lat="48.2471" lon="7.20527">
        <ele>517</ele>
        <time>2021-06-21T08:55:51Z</time>
      </trkpt>
      <trkpt lat="48.24709" lon="7.20533">
        <ele>517.4</ele>
        <time>2021-06-21T08:55:53Z</time>
      </trkpt>
      <trkpt lat="48.24706" lon="7.20544">
        <ele>518</ele>
        <time>2021-06-21T08:55:57Z</time>
      </trkpt>
      <trkpt lat="48.24704" lon="7.20552">
        <ele>518.4</ele>
        <time>2021-06-21T08:55:59Z</time>
      </trkpt>
      <trkpt lat="48.24704" lon="7.20556">
        <ele>518.6</ele>
        <time>2021-06-21T08:56:00Z</time>
      </trkpt>
      <trkpt lat="48.24701" lon="7.20568">
        <ele>519.4</ele>
        <time>2021-06-21T08:56:03Z</time>
      </trkpt>
      <trkpt lat="48.24701" lon="7.20572">
        <ele>519.6</ele>
        <time>2021-06-21T08:56:04Z</time>
      </trkpt>
      <trkpt lat="48.247" lon="7.20591">
        <ele>520.8</ele>
        <time>2021-06-21T08:56:09Z</time>
      </trkpt>
      <trkpt lat="48.247" lon="7.20605">
        <ele>521.8</ele>
        <time>2021-06-21T08:56:13Z</time>
      </trkpt>
      <trkpt lat="48.247" lon="7.20612">
        <ele>522.2</ele>
        <time>2021-06-21T08:56:15Z</time>
      </trkpt>
      <trkpt lat="48.24701" lon="7.20624">
        <ele>522.8</ele>
        <time>2021-06-21T08:56:18Z</time>
      </trkpt>
      <trkpt lat="48.24707" lon="7.20639">
        <ele>523.6</ele>
        <time>2021-06-21T08:56:22Z</time>
      </trkpt>
      <trkpt lat="48.24706" lon="7.20644">
        <ele>524</ele>
        <time>2021-06-21T08:56:23Z</time>
      </trkpt>
      <trkpt lat="48.24709" lon="7.20665">
        <ele>524.8</ele>
        <time>2021-06-21T08:56:28Z</time>
      </trkpt>
      <trkpt lat="48.2471" lon="7.20671">
        <ele>525</ele>
        <time>2021-06-21T08:56:29Z</time>
      </trkpt>
      <trkpt lat="48.24717" lon="7.207">
        <ele>526</ele>
        <time>2021-06-21T08:56:34Z</time>
      </trkpt>
      <trkpt lat="48.24717" lon="7.20704">
        <ele>526.2</ele>
        <time>2021-06-21T08:56:35Z</time>
      </trkpt>
      <trkpt lat="48.24719" lon="7.20732">
        <ele>527</ele>
        <time>2021-06-21T08:56:40Z</time>
      </trkpt>
      <trkpt lat="48.24717" lon="7.2075">
        <ele>528.2</ele>
        <time>2021-06-21T08:56:45Z</time>
      </trkpt>
      <trkpt lat="48.24712" lon="7.20774">
        <ele>529.4</ele>
        <time>2021-06-21T08:56:50Z</time>
      </trkpt>
      <trkpt lat="48.24714" lon="7.20793">
        <ele>530</ele>
        <time>2021-06-21T08:56:54Z</time>
      </trkpt>
      <trkpt lat="48.24712" lon="7.20797">
        <ele>530.2</ele>
        <time>2021-06-21T08:56:55Z</time>
      </trkpt>
      <trkpt lat="48.2471" lon="7.20803">
        <ele>530.6</ele>
        <time>2021-06-21T08:56:57Z</time>
      </trkpt>
      <trkpt lat="48.2471" lon="7.20821">
        <ele>531.4</ele>
        <time>2021-06-21T08:57:01Z</time>
      </trkpt>
      <trkpt lat="48.2471" lon="7.2083">
        <ele>531.8</ele>
        <time>2021-06-21T08:57:03Z</time>
      </trkpt>
      <trkpt lat="48.24707" lon="7.20847">
        <ele>533</ele>
        <time>2021-06-21T08:57:08Z</time>
      </trkpt>
      <trkpt lat="48.24702" lon="7.20871">
        <ele>533.8</ele>
        <time>2021-06-21T08:57:14Z</time>
      </trkpt>
      <trkpt lat="48.24702" lon="7.20874">
        <ele>534.2</ele>
        <time>2021-06-21T08:57:15Z</time>
      </trkpt>
      <trkpt lat="48.24692" lon="7.209">
        <ele>535.2</ele>
        <time>2021-06-21T08:57:21Z</time>
      </trkpt>
      <trkpt lat="48.24685" lon="7.20919">
        <ele>536.2</ele>
        <time>2021-06-21T08:57:26Z</time>
      </trkpt>
      <trkpt lat="48.24682" lon="7.20925">
        <ele>536.6</ele>
        <time>2021-06-21T08:57:29Z</time>
      </trkpt>
      <trkpt lat="48.24672" lon="7.20936">
        <ele>537.2</ele>
        <time>2021-06-21T08:57:33Z</time>
      </trkpt>
      <trkpt lat="48.24664" lon="7.20941">
        <ele>538</ele>
        <time>2021-06-21T08:57:35Z</time>
      </trkpt>
      <trkpt lat="48.24658" lon="7.20942">
        <ele>538.4</ele>
        <time>2021-06-21T08:57:37Z</time>
      </trkpt>
      <trkpt lat="48.24645" lon="7.20949">
        <ele>539.4</ele>
        <time>2021-06-21T08:57:42Z</time>
      </trkpt>
      <trkpt lat="48.24641" lon="7.2095">
        <ele>540</ele>
        <time>2021-06-21T08:57:44Z</time>
      </trkpt>
      <trkpt lat="48.24628" lon="7.20957">
        <ele>540.6</ele>
        <time>2021-06-21T08:57:49Z</time>
      </trkpt>
      <trkpt lat="48.24616" lon="7.20966">
        <ele>541.2</ele>
        <time>2021-06-21T08:57:52Z</time>
      </trkpt>
      <trkpt lat="48.24609" lon="7.2097">
        <ele>541.6</ele>
        <time>2021-06-21T08:57:54Z</time>
      </trkpt>
      <trkpt lat="48.246" lon="7.20976">
        <ele>542.4</ele>
        <time>2021-06-21T08:57:58Z</time>
      </trkpt>
      <trkpt lat="48.24595" lon="7.2098">
        <ele>542.8</ele>
        <time>2021-06-21T08:58:00Z</time>
      </trkpt>
      <trkpt lat="48.24585" lon="7.20989">
        <ele>543.4</ele>
        <time>2021-06-21T08:58:04Z</time>
      </trkpt>
      <trkpt lat="48.24581" lon="7.20994">
        <ele>543.8</ele>
        <time>2021-06-21T08:58:06Z</time>
      </trkpt>
      <trkpt lat="48.24569" lon="7.2101">
        <ele>544.6</ele>
        <time>2021-06-21T08:58:11Z</time>
      </trkpt>
      <trkpt lat="48.24565" lon="7.21015">
        <ele>544.8</ele>
        <time>2021-06-21T08:58:13Z</time>
      </trkpt>
      <trkpt lat="48.24558" lon="7.21026">
        <ele>545.2</ele>
        <time>2021-06-21T08:58:17Z</time>
      </trkpt>
      <trkpt lat="48.24551" lon="7.21035">
        <ele>545.8</ele>
        <time>2021-06-21T08:58:20Z</time>
      </trkpt>
      <trkpt lat="48.24541" lon="7.21049">
        <ele>546.8</ele>
        <time>2021-06-21T08:58:25Z</time>
      </trkpt>
      <trkpt lat="48.24539" lon="7.21053">
        <ele>547</ele>
        <time>2021-06-21T08:58:26Z</time>
      </trkpt>
      <trkpt lat="48.24531" lon="7.21062">
        <ele>547.8</ele>
        <time>2021-06-21T08:58:29Z</time>
      </trkpt>
      <trkpt lat="48.24517" lon="7.2108">
        <ele>549</ele>
        <time>2021-06-21T08:58:35Z</time>
      </trkpt>
      <trkpt lat="48.24513" lon="7.21086">
        <ele>549.6</ele>
        <time>2021-06-21T08:58:37Z</time>
      </trkpt>
      <trkpt lat="48.24508" lon="7.21091">
        <ele>550</ele>
        <time>2021-06-21T08:58:39Z</time>
      </trkpt>
      <trkpt lat="48.245" lon="7.211">
        <ele>551.2</ele>
        <time>2021-06-21T08:58:43Z</time>
      </trkpt>
      <trkpt lat="48.2449" lon="7.2111">
        <ele>551.8</ele>
        <time>2021-06-21T08:58:47Z</time>
      </trkpt>
      <trkpt lat="48.24485" lon="7.21116">
        <ele>552.2</ele>
        <time>2021-06-21T08:58:49Z</time>
      </trkpt>
      <trkpt lat="48.24468" lon="7.21132">
        <ele>553.2</ele>
        <time>2021-06-21T08:58:56Z</time>
      </trkpt>
      <trkpt lat="48.24466" lon="7.21134">
        <ele>553.4</ele>
        <time>2021-06-21T08:58:57Z</time>
      </trkpt>
      <trkpt lat="48.24453" lon="7.21149">
        <ele>554.4</ele>
        <time>2021-06-21T08:59:02Z</time>
      </trkpt>
      <trkpt lat="48.24444" lon="7.21162">
        <ele>555.2</ele>
        <time>2021-06-21T08:59:06Z</time>
      </trkpt>
      <trkpt lat="48.2444" lon="7.21168">
        <ele>555.6</ele>
        <time>2021-06-21T08:59:08Z</time>
      </trkpt>
      <trkpt lat="48.24429" lon="7.21183">
        <ele>556.2</ele>
        <time>2021-06-21T08:59:13Z</time>
      </trkpt>
      <trkpt lat="48.24425" lon="7.21189">
        <ele>556.4</ele>
        <time>2021-06-21T08:59:15Z</time>
      </trkpt>
      <trkpt lat="48.24423" lon="7.21191">
        <ele>556.8</ele>
        <time>2021-06-21T08:59:16Z</time>
      </trkpt>
      <trkpt lat="48.2441" lon="7.21211">
        <ele>557.6</ele>
        <time>2021-06-21T08:59:22Z</time>
      </trkpt>
      <trkpt lat="48.24406" lon="7.21218">
        <ele>557.8</ele>
        <time>2021-06-21T08:59:24Z</time>
      </trkpt>
      <trkpt lat="48.24396" lon="7.21235">
        <ele>558.8</ele>
        <time>2021-06-21T08:59:29Z</time>
      </trkpt>
      <trkpt lat="48.24395" lon="7.21237">
        <ele>559</ele>
        <time>2021-06-21T08:59:30Z</time>
      </trkpt>
      <trkpt lat="48.24382" lon="7.21261">
        <ele>560</ele>
        <time>2021-06-21T08:59:37Z</time>
      </trkpt>
      <trkpt lat="48.24381" lon="7.21265">
        <ele>560</ele>
        <time>2021-06-21T08:59:38Z</time>
      </trkpt>
      <trkpt lat="48.24373" lon="7.21281">
        <ele>561</ele>
        <time>2021-06-21T08:59:43Z</time>
      </trkpt>
      <trkpt lat="48.24365" lon="7.21299">
        <ele>562.2</ele>
        <time>2021-06-21T08:59:48Z</time>
      </trkpt>
      <trkpt lat="48.24356" lon="7.21324">
        <ele>563.2</ele>
        <time>2021-06-21T08:59:55Z</time>
      </trkpt>
      <trkpt lat="48.24355" lon="7.21329">
        <ele>563.4</ele>
        <time>2021-06-21T08:59:56Z</time>
      </trkpt>
      <trkpt lat="48.24351" lon="7.21345">
        <ele>564.2</ele>
        <time>2021-06-21T09:00:00Z</time>
      </trkpt>
      <trkpt lat="48.24349" lon="7.21363">
        <ele>564.8</ele>
        <time>2021-06-21T09:00:04Z</time>
      </trkpt>
      <trkpt lat="48.24348" lon="7.2138">
        <ele>565.8</ele>
        <time>2021-06-21T09:00:08Z</time>
      </trkpt>
      <trkpt lat="48.24347" lon="7.21389">
        <ele>566.4</ele>
        <time>2021-06-21T09:00:10Z</time>
      </trkpt>
      <trkpt lat="48.24348" lon="7.21396">
        <ele>566.8</ele>
        <time>2021-06-21T09:00:12Z</time>
      </trkpt>
      <trkpt lat="48.24349" lon="7.214">
        <ele>567</ele>
        <time>2021-06-21T09:00:13Z</time>
      </trkpt>
      <trkpt lat="48.24359" lon="7.2142">
        <ele>567.8</ele>
        <time>2021-06-21T09:00:19Z</time>
      </trkpt>
      <trkpt lat="48.24362" lon="7.21421">
        <ele>568</ele>
        <time>2021-06-21T09:00:20Z</time>
      </trkpt>
      <trkpt lat="48.24374" lon="7.21423">
        <ele>568.4</ele>
        <time>2021-06-21T09:00:25Z</time>
      </trkpt>
      <trkpt lat="48.24385" lon="7.21421">
        <ele>569</ele>
        <time>2021-06-21T09:00:29Z</time>
      </trkpt>
      <trkpt lat="48.24391" lon="7.2142">
        <ele>569.2</ele>
        <time>2021-06-21T09:00:31Z</time>
      </trkpt>
      <trkpt lat="48.24409" lon="7.21418">
        <ele>570</ele>
        <time>2021-06-21T09:00:37Z</time>
      </trkpt>
      <trkpt lat="48.24417" lon="7.21417">
        <ele>570.6</ele>
        <time>2021-06-21T09:00:40Z</time>
      </trkpt>
      <trkpt lat="48.24425" lon="7.21418">
        <ele>571</ele>
        <time>2021-06-21T09:00:43Z</time>
      </trkpt>
      <trkpt lat="48.24437" lon="7.21418">
        <ele>572</ele>
        <time>2021-06-21T09:00:47Z</time>
      </trkpt>
      <trkpt lat="48.24439" lon="7.21418">
        <ele>572</ele>
        <time>2021-06-21T09:00:48Z</time>
      </trkpt>
      <trkpt lat="48.24458" lon="7.2142">
        <ele>573.2</ele>
        <time>2021-06-21T09:00:54Z</time>
      </trkpt>
      <trkpt lat="48.24478" lon="7.21423">
        <ele>574.6</ele>
        <time>2021-06-21T09:01:01Z</time>
      </trkpt>
      <trkpt lat="48.24497" lon="7.21427">
        <ele>575.6</ele>
        <time>2021-06-21T09:01:07Z</time>
      </trkpt>
      <trkpt lat="48.245" lon="7.21428">
        <ele>575.6</ele>
        <time>2021-06-21T09:01:08Z</time>
      </trkpt>
      <trkpt lat="48.24517" lon="7.21437">
        <ele>576.8</ele>
        <time>2021-06-21T09:01:14Z</time>
      </trkpt>
      <trkpt lat="48.2452" lon="7.2144">
        <ele>577</ele>
        <time>2021-06-21T09:01:15Z</time>
      </trkpt>
      <trkpt lat="48.24534" lon="7.21463">
        <ele>577.8</ele>
        <time>2021-06-21T09:01:22Z</time>
      </trkpt>
      <trkpt lat="48.24538" lon="7.21477">
        <ele>578.8</ele>
        <time>2021-06-21T09:01:26Z</time>
      </trkpt>
      <trkpt lat="48.24541" lon="7.21489">
        <ele>579.4</ele>
        <time>2021-06-21T09:01:29Z</time>
      </trkpt>
      <trkpt lat="48.24543" lon="7.21501">
        <ele>580</ele>
        <time>2021-06-21T09:01:32Z</time>
      </trkpt>
      <trkpt lat="48.24545" lon="7.2151">
        <ele>580.6</ele>
        <time>2021-06-21T09:01:34Z</time>
      </trkpt>
      <trkpt lat="48.24547" lon="7.2152">
        <ele>581.2</ele>
        <time>2021-06-21T09:01:37Z</time>
      </trkpt>
      <trkpt lat="48.24553" lon="7.21534">
        <ele>582</ele>
        <time>2021-06-21T09:01:41Z</time>
      </trkpt>
      <trkpt lat="48.24558" lon="7.21542">
        <ele>582.2</ele>
        <time>2021-06-21T09:01:43Z</time>
      </trkpt>
      <trkpt lat="48.24567" lon="7.21558">
        <ele>583.2</ele>
        <time>2021-06-21T09:01:47Z</time>
      </trkpt>
      <trkpt lat="48.2457" lon="7.21561">
        <ele>583.6</ele>
        <time>2021-06-21T09:01:48Z</time>
      </trkpt>
      <trkpt lat="48.24583" lon="7.21578">
        <ele>584.6</ele>
        <time>2021-06-21T09:01:53Z</time>
      </trkpt>
      <trkpt lat="48.24588" lon="7.21586">
        <ele>584.8</ele>
        <time>2021-06-21T09:01:55Z</time>
      </trkpt>
      <trkpt lat="48.2459" lon="7.21593">
        <ele>585</ele>
        <time>2021-06-21T09:01:57Z</time>
      </trkpt>
      <trkpt lat="48.24593" lon="7.216">
        <ele>585.4</ele>
        <time>2021-06-21T09:01:59Z</time>
      </trkpt>
      <trkpt lat="48.24594" lon="7.21605">
        <ele>585.8</ele>
        <time>2021-06-21T09:02:00Z</time>
      </trkpt>
      <trkpt lat="48.24598" lon="7.2163">
        <ele>586.6</ele>
        <time>2021-06-21T09:02:06Z</time>
      </trkpt>
      <trkpt lat="48.24598" lon="7.2164">
        <ele>586.8</ele>
        <time>2021-06-21T09:02:08Z</time>
      </trkpt>
      <trkpt lat="48.24598" lon="7.21668">
        <ele>587.8</ele>
        <time>2021-06-21T09:02:14Z</time>
      </trkpt>
      <trkpt lat="48.24602" lon="7.21695">
        <ele>589</ele>
        <time>2021-06-21T09:02:20Z</time>
      </trkpt>
      <trkpt lat="48.24603" lon="7.21698">
        <ele>589.2</ele>
        <time>2021-06-21T09:02:21Z</time>
      </trkpt>
      <trkpt lat="48.24606" lon="7.21706">
        <ele>589.6</ele>
        <time>2021-06-21T09:02:23Z</time>
      </trkpt>
      <trkpt lat="48.24611" lon="7.21721">
        <ele>590</ele>
        <time>2021-06-21T09:02:26Z</time>
      </trkpt>
      <trkpt lat="48.24611" lon="7.21727">
        <ele>590.2</ele>
        <time>2021-06-21T09:02:27Z</time>
      </trkpt>
      <trkpt lat="48.24616" lon="7.21758">
        <ele>591</ele>
        <time>2021-06-21T09:02:33Z</time>
      </trkpt>
      <trkpt lat="48.24617" lon="7.21763">
        <ele>591.4</ele>
        <time>2021-06-21T09:02:34Z</time>
      </trkpt>
      <trkpt lat="48.24613" lon="7.21787">
        <ele>592.2</ele>
        <time>2021-06-21T09:02:39Z</time>
      </trkpt>
      <trkpt lat="48.24612" lon="7.2179">
        <ele>592.4</ele>
        <time>2021-06-21T09:02:40Z</time>
      </trkpt>
      <trkpt lat="48.24601" lon="7.21806">
        <ele>593</ele>
        <time>2021-06-21T09:02:45Z</time>
      </trkpt>
      <trkpt lat="48.24591" lon="7.21812">
        <ele>593.4</ele>
        <time>2021-06-21T09:02:49Z</time>
      </trkpt>
      <trkpt lat="48.24588" lon="7.21814">
        <ele>593.6</ele>
        <time>2021-06-21T09:02:50Z</time>
      </trkpt>
      <trkpt lat="48.24578" lon="7.21817">
        <ele>594.6</ele>
        <time>2021-06-21T09:02:54Z</time>
      </trkpt>
      <trkpt lat="48.24575" lon="7.21817">
        <ele>594.6</ele>
        <time>2021-06-21T09:02:55Z</time>
      </trkpt>
      <trkpt lat="48.24564" lon="7.21814">
        <ele>595.6</ele>
        <time>2021-06-21T09:02:59Z</time>
      </trkpt>
      <trkpt lat="48.24562" lon="7.21812">
        <ele>595.8</ele>
        <time>2021-06-21T09:03:00Z</time>
      </trkpt>
      <trkpt lat="48.2456" lon="7.21809">
        <ele>596</ele>
        <time>2021-06-21T09:03:01Z</time>
      </trkpt>
      <trkpt lat="48.24557" lon="7.21801">
        <ele>596.2</ele>
        <time>2021-06-21T09:03:03Z</time>
      </trkpt>
      <trkpt lat="48.24556" lon="7.21794">
        <ele>597</ele>
        <time>2021-06-21T09:03:05Z</time>
      </trkpt>
      <trkpt lat="48.24555" lon="7.21779">
        <ele>597.6</ele>
        <time>2021-06-21T09:03:08Z</time>
      </trkpt>
      <trkpt lat="48.24553" lon="7.21767">
        <ele>598</ele>
        <time>2021-06-21T09:03:11Z</time>
      </trkpt>
      <trkpt lat="48.24548" lon="7.21748">
        <ele>598.4</ele>
        <time>2021-06-21T09:03:15Z</time>
      </trkpt>
      <trkpt lat="48.24541" lon="7.2173">
        <ele>599.2</ele>
        <time>2021-06-21T09:03:19Z</time>
      </trkpt>
      <trkpt lat="48.24532" lon="7.21713">
        <ele>599.8</ele>
        <time>2021-06-21T09:03:23Z</time>
      </trkpt>
      <trkpt lat="48.24525" lon="7.21702">
        <ele>600.4</ele>
        <time>2021-06-21T09:03:26Z</time>
      </trkpt>
      <trkpt lat="48.24513" lon="7.21688">
        <ele>600.4</ele>
        <time>2021-06-21T09:03:30Z</time>
      </trkpt>
      <trkpt lat="48.2449" lon="7.21674">
        <ele>600.8</ele>
        <time>2021-06-21T09:03:37Z</time>
      </trkpt>
      <trkpt lat="48.24477" lon="7.21674">
        <ele>601.4</ele>
        <time>2021-06-21T09:03:41Z</time>
      </trkpt>
      <trkpt lat="48.24467" lon="7.21678">
        <ele>602</ele>
        <time>2021-06-21T09:03:44Z</time>
      </trkpt>
      <trkpt lat="48.24456" lon="7.21688">
        <ele>602.6</ele>
        <time>2021-06-21T09:03:48Z</time>
      </trkpt>
      <trkpt lat="48.24452" lon="7.21694">
        <ele>603</ele>
        <time>2021-06-21T09:03:50Z</time>
      </trkpt>
      <trkpt lat="48.24448" lon="7.21701">
        <ele>603.6</ele>
        <time>2021-06-21T09:03:52Z</time>
      </trkpt>
      <trkpt lat="48.24436" lon="7.21717">
        <ele>604.6</ele>
        <time>2021-06-21T09:03:57Z</time>
      </trkpt>
      <trkpt lat="48.24433" lon="7.21721">
        <ele>604.6</ele>
        <time>2021-06-21T09:03:58Z</time>
      </trkpt>
      <trkpt lat="48.24415" lon="7.2174">
        <ele>605.6</ele>
        <time>2021-06-21T09:04:05Z</time>
      </trkpt>
      <trkpt lat="48.24398" lon="7.21755">
        <ele>606.8</ele>
        <time>2021-06-21T09:04:11Z</time>
      </trkpt>
      <trkpt lat="48.2439" lon="7.21762">
        <ele>607.2</ele>
        <time>2021-06-21T09:04:14Z</time>
      </trkpt>
      <trkpt lat="48.24385" lon="7.21765">
        <ele>607.8</ele>
        <time>2021-06-21T09:04:16Z</time>
      </trkpt>
      <trkpt lat="48.24368" lon="7.21776">
        <ele>608.8</ele>
        <time>2021-06-21T09:04:22Z</time>
      </trkpt>
      <trkpt lat="48.24352" lon="7.21783">
        <ele>609.8</ele>
        <time>2021-06-21T09:04:28Z</time>
      </trkpt>
      <trkpt lat="48.24349" lon="7.21783">
        <ele>610.2</ele>
        <time>2021-06-21T09:04:29Z</time>
      </trkpt>
      <trkpt lat="48.24335" lon="7.21786">
        <ele>611.4</ele>
        <time>2021-06-21T09:04:34Z</time>
      </trkpt>
      <trkpt lat="48.24324" lon="7.21786">
        <ele>611.8</ele>
        <time>2021-06-21T09:04:38Z</time>
      </trkpt>
      <trkpt lat="48.24316" lon="7.21786">
        <ele>612.4</ele>
        <time>2021-06-21T09:04:41Z</time>
      </trkpt>
      <trkpt lat="48.24301" lon="7.21785">
        <ele>613.4</ele>
        <time>2021-06-21T09:04:46Z</time>
      </trkpt>
      <trkpt lat="48.24294" lon="7.21785">
        <ele>613.8</ele>
        <time>2021-06-21T09:04:48Z</time>
      </trkpt>
      <trkpt lat="48.24286" lon="7.21785">
        <ele>614.4</ele>
        <time>2021-06-21T09:04:51Z</time>
      </trkpt>
      <trkpt lat="48.24272" lon="7.21784">
        <ele>615.4</ele>
        <time>2021-06-21T09:04:56Z</time>
      </trkpt>
      <trkpt lat="48.24266" lon="7.21783">
        <ele>616</ele>
        <time>2021-06-21T09:04:58Z</time>
      </trkpt>
      <trkpt lat="48.24263" lon="7.21783">
        <ele>616.2</ele>
        <time>2021-06-21T09:04:59Z</time>
      </trkpt>
      <trkpt lat="48.24258" lon="7.21783">
        <ele>616.6</ele>
        <time>2021-06-21T09:05:01Z</time>
      </trkpt>
      <trkpt lat="48.24243" lon="7.21782">
        <ele>617.4</ele>
        <time>2021-06-21T09:05:06Z</time>
      </trkpt>
      <trkpt lat="48.24237" lon="7.21781">
        <ele>617.8</ele>
        <time>2021-06-21T09:05:08Z</time>
      </trkpt>
      <trkpt lat="48.24223" lon="7.21781">
        <ele>618.4</ele>
        <time>2021-06-21T09:05:13Z</time>
      </trkpt>
      <trkpt lat="48.24218" lon="7.2178">
        <ele>619</ele>
        <time>2021-06-21T09:05:15Z</time>
      </trkpt>
      <trkpt lat="48.24201" lon="7.2178">
        <ele>620.2</ele>
        <time>2021-06-21T09:05:21Z</time>
      </trkpt>
      <trkpt lat="48.24192" lon="7.21779">
        <ele>621</ele>
        <time>2021-06-21T09:05:24Z</time>
      </trkpt>
      <trkpt lat="48.24186" lon="7.2178">
        <ele>621.4</ele>
        <time>2021-06-21T09:05:26Z</time>
      </trkpt>
      <trkpt lat="48.24175" lon="7.21782">
        <ele>622.4</ele>
        <time>2021-06-21T09:05:30Z</time>
      </trkpt>
      <trkpt lat="48.2417" lon="7.21784">
        <ele>622.8</ele>
        <time>2021-06-21T09:05:32Z</time>
      </trkpt>
      <trkpt lat="48.24167" lon="7.21786">
        <ele>623</ele>
        <time>2021-06-21T09:05:33Z</time>
      </trkpt>
      <trkpt lat="48.24161" lon="7.21789">
        <ele>623.8</ele>
        <time>2021-06-21T09:05:35Z</time>
      </trkpt>
      <trkpt lat="48.24149" lon="7.21801">
        <ele>624.8</ele>
        <time>2021-06-21T09:05:40Z</time>
      </trkpt>
      <trkpt lat="48.24134" lon="7.21817">
        <ele>626</ele>
        <time>2021-06-21T09:05:46Z</time>
      </trkpt>
      <trkpt lat="48.24128" lon="7.21824">
        <ele>626.4</ele>
        <time>2021-06-21T09:05:49Z</time>
      </trkpt>
      <trkpt lat="48.24119" lon="7.21834">
        <ele>627</ele>
        <time>2021-06-21T09:05:53Z</time>
      </trkpt>
      <trkpt lat="48.24107" lon="7.21847">
        <ele>628.2</ele>
        <time>2021-06-21T09:05:58Z</time>
      </trkpt>
      <trkpt lat="48.24105" lon="7.2185">
        <ele>628.4</ele>
        <time>2021-06-21T09:05:59Z</time>
      </trkpt>
      <trkpt lat="48.24092" lon="7.21863">
        <ele>629.2</ele>
        <time>2021-06-21T09:06:04Z</time>
      </trkpt>
      <trkpt lat="48.24085" lon="7.2187">
        <ele>630</ele>
        <time>2021-06-21T09:06:07Z</time>
      </trkpt>
      <trkpt lat="48.24079" lon="7.21873">
        <ele>630.4</ele>
        <time>2021-06-21T09:06:09Z</time>
      </trkpt>
      <trkpt lat="48.24067" lon="7.21873">
        <ele>631.4</ele>
        <time>2021-06-21T09:06:13Z</time>
      </trkpt>
      <trkpt lat="48.24065" lon="7.21872">
        <ele>631.6</ele>
        <time>2021-06-21T09:06:14Z</time>
      </trkpt>
      <trkpt lat="48.24052" lon="7.21863">
        <ele>632.8</ele>
        <time>2021-06-21T09:06:19Z</time>
      </trkpt>
      <trkpt lat="48.2405" lon="7.2186">
        <ele>633</ele>
        <time>2021-06-21T09:06:20Z</time>
      </trkpt>
      <trkpt lat="48.24042" lon="7.21852">
        <ele>633.8</ele>
        <time>2021-06-21T09:06:23Z</time>
      </trkpt>
      <trkpt lat="48.24033" lon="7.21842">
        <ele>634.6</ele>
        <time>2021-06-21T09:06:27Z</time>
      </trkpt>
      <trkpt lat="48.24031" lon="7.21839">
        <ele>635</ele>
        <time>2021-06-21T09:06:28Z</time>
      </trkpt>
      <trkpt lat="48.24017" lon="7.21822">
        <ele>636</ele>
        <time>2021-06-21T09:06:34Z</time>
      </trkpt>
      <trkpt lat="48.24008" lon="7.21812">
        <ele>637</ele>
        <time>2021-06-21T09:06:38Z</time>
      </trkpt>
      <trkpt lat="48.24001" lon="7.21804">
        <ele>637.8</ele>
        <time>2021-06-21T09:06:41Z</time>
      </trkpt>
      <trkpt lat="48.23996" lon="7.21799">
        <ele>638.2</ele>
        <time>2021-06-21T09:06:43Z</time>
      </trkpt>
      <trkpt lat="48.23987" lon="7.2179">
        <ele>639</ele>
        <time>2021-06-21T09:06:47Z</time>
      </trkpt>
      <trkpt lat="48.23984" lon="7.21788">
        <ele>639.2</ele>
        <time>2021-06-21T09:06:48Z</time>
      </trkpt>
      <trkpt lat="48.23972" lon="7.21781">
        <ele>640.4</ele>
        <time>2021-06-21T09:06:53Z</time>
      </trkpt>
      <trkpt lat="48.23966" lon="7.21779">
        <ele>640.8</ele>
        <time>2021-06-21T09:06:55Z</time>
      </trkpt>
      <trkpt lat="48.23955" lon="7.21778">
        <ele>641.8</ele>
        <time>2021-06-21T09:06:59Z</time>
      </trkpt>
      <trkpt lat="48.23938" lon="7.2178">
        <ele>642.8</ele>
        <time>2021-06-21T09:07:05Z</time>
      </trkpt>
      <trkpt lat="48.23936" lon="7.2178">
        <ele>643</ele>
        <time>2021-06-21T09:07:06Z</time>
      </trkpt>
      <trkpt lat="48.23924" lon="7.2178">
        <ele>644</ele>
        <time>2021-06-21T09:07:11Z</time>
      </trkpt>
      <trkpt lat="48.23914" lon="7.21784">
        <ele>645</ele>
        <time>2021-06-21T09:07:15Z</time>
      </trkpt>
      <trkpt lat="48.23907" lon="7.21788">
        <ele>645.6</ele>
        <time>2021-06-21T09:07:18Z</time>
      </trkpt>
      <trkpt lat="48.23902" lon="7.2179">
        <ele>646.2</ele>
        <time>2021-06-21T09:07:20Z</time>
      </trkpt>
      <trkpt lat="48.23899" lon="7.2179">
        <ele>646.2</ele>
        <time>2021-06-21T09:07:21Z</time>
      </trkpt>
      <trkpt lat="48.23895" lon="7.21791">
        <ele>646.6</ele>
        <time>2021-06-21T09:07:23Z</time>
      </trkpt>
      <trkpt lat="48.23887" lon="7.21792">
        <ele>647.2</ele>
        <time>2021-06-21T09:07:26Z</time>
      </trkpt>
      <trkpt lat="48.23881" lon="7.21797">
        <ele>647.6</ele>
        <time>2021-06-21T09:07:28Z</time>
      </trkpt>
      <trkpt lat="48.23878" lon="7.21798">
        <ele>647.8</ele>
        <time>2021-06-21T09:07:29Z</time>
      </trkpt>
      <trkpt lat="48.2387" lon="7.21802">
        <ele>648.2</ele>
        <time>2021-06-21T09:07:32Z</time>
      </trkpt>
      <trkpt lat="48.23868" lon="7.21803">
        <ele>648.4</ele>
        <time>2021-06-21T09:07:33Z</time>
      </trkpt>
      <trkpt lat="48.23855" lon="7.21809">
        <ele>649.4</ele>
        <time>2021-06-21T09:07:38Z</time>
      </trkpt>
      <trkpt lat="48.23852" lon="7.2181">
        <ele>649.4</ele>
        <time>2021-06-21T09:07:39Z</time>
      </trkpt>
      <trkpt lat="48.23838" lon="7.21816">
        <ele>650.4</ele>
        <time>2021-06-21T09:07:44Z</time>
      </trkpt>
      <trkpt lat="48.23833" lon="7.21819">
        <ele>650.8</ele>
        <time>2021-06-21T09:07:46Z</time>
      </trkpt>
      <trkpt lat="48.2383" lon="7.2182">
        <ele>651</ele>
        <time>2021-06-21T09:07:47Z</time>
      </trkpt>
      <trkpt lat="48.23822" lon="7.21822">
        <ele>651.6</ele>
        <time>2021-06-21T09:07:50Z</time>
      </trkpt>
      <trkpt lat="48.2381" lon="7.21825">
        <ele>652</ele>
        <time>2021-06-21T09:07:55Z</time>
      </trkpt>
      <trkpt lat="48.23801" lon="7.21826">
        <ele>652.4</ele>
        <time>2021-06-21T09:07:58Z</time>
      </trkpt>
      <trkpt lat="48.23792" lon="7.21829">
        <ele>653.4</ele>
        <time>2021-06-21T09:08:01Z</time>
      </trkpt>
      <trkpt lat="48.23786" lon="7.2183">
        <ele>653.8</ele>
        <time>2021-06-21T09:08:03Z</time>
      </trkpt>
      <trkpt lat="48.23777" lon="7.2183">
        <ele>654.6</ele>
        <time>2021-06-21T09:08:06Z</time>
      </trkpt>
      <trkpt lat="48.23769" lon="7.21832">
        <ele>655</ele>
        <time>2021-06-21T09:08:09Z</time>
      </trkpt>
      <trkpt lat="48.23758" lon="7.21834">
        <ele>655.8</ele>
        <time>2021-06-21T09:08:13Z</time>
      </trkpt>
      <trkpt lat="48.23755" lon="7.21835">
        <ele>656</ele>
        <time>2021-06-21T09:08:14Z</time>
      </trkpt>
      <trkpt lat="48.23747" lon="7.21838">
        <ele>656.6</ele>
        <time>2021-06-21T09:08:17Z</time>
      </trkpt>
      <trkpt lat="48.23744" lon="7.21839">
        <ele>656.8</ele>
        <time>2021-06-21T09:08:18Z</time>
      </trkpt>
      <trkpt lat="48.23737" lon="7.21843">
        <ele>657.2</ele>
        <time>2021-06-21T09:08:21Z</time>
      </trkpt>
      <trkpt lat="48.23731" lon="7.21845">
        <ele>657.6</ele>
        <time>2021-06-21T09:08:23Z</time>
      </trkpt>
      <trkpt lat="48.23729" lon="7.21846">
        <ele>657.6</ele>
        <time>2021-06-21T09:08:24Z</time>
      </trkpt>
      <trkpt lat="48.23714" lon="7.21855">
        <ele>658.8</ele>
        <time>2021-06-21T09:08:29Z</time>
      </trkpt>
      <trkpt lat="48.23696" lon="7.2187">
        <ele>660</ele>
        <time>2021-06-21T09:08:36Z</time>
      </trkpt>
      <trkpt lat="48.23684" lon="7.2188">
        <ele>661</ele>
        <time>2021-06-21T09:08:41Z</time>
      </trkpt>
      <trkpt lat="48.2368" lon="7.21884">
        <ele>661.4</ele>
        <time>2021-06-21T09:08:43Z</time>
      </trkpt>
      <trkpt lat="48.23667" lon="7.21896">
        <ele>662</ele>
        <time>2021-06-21T09:08:48Z</time>
      </trkpt>
      <trkpt lat="48.23663" lon="7.21901">
        <ele>662.6</ele>
        <time>2021-06-21T09:08:50Z</time>
      </trkpt>
      <trkpt lat="48.23656" lon="7.21908">
        <ele>663</ele>
        <time>2021-06-21T09:08:53Z</time>
      </trkpt>
      <trkpt lat="48.23642" lon="7.21921">
        <ele>664.2</ele>
        <time>2021-06-21T09:08:58Z</time>
      </trkpt>
      <trkpt lat="48.23629" lon="7.21934">
        <ele>665.4</ele>
        <time>2021-06-21T09:09:03Z</time>
      </trkpt>
      <trkpt lat="48.23624" lon="7.2194">
        <ele>665.8</ele>
        <time>2021-06-21T09:09:05Z</time>
      </trkpt>
      <trkpt lat="48.23611" lon="7.21954">
        <ele>666.2</ele>
        <time>2021-06-21T09:09:10Z</time>
      </trkpt>
      <trkpt lat="48.23608" lon="7.21957">
        <ele>666.4</ele>
        <time>2021-06-21T09:09:11Z</time>
      </trkpt>
      <trkpt lat="48.23594" lon="7.21967">
        <ele>667.4</ele>
        <time>2021-06-21T09:09:16Z</time>
      </trkpt>
      <trkpt lat="48.23586" lon="7.21972">
        <ele>667.8</ele>
        <time>2021-06-21T09:09:19Z</time>
      </trkpt>
      <trkpt lat="48.2357" lon="7.21986">
        <ele>668.6</ele>
        <time>2021-06-21T09:09:24Z</time>
      </trkpt>
      <trkpt lat="48.23567" lon="7.21988">
        <ele>668.6</ele>
        <time>2021-06-21T09:09:25Z</time>
      </trkpt>
      <trkpt lat="48.2355" lon="7.21999">
        <ele>669.4</ele>
        <time>2021-06-21T09:09:31Z</time>
      </trkpt>
      <trkpt lat="48.23544" lon="7.22004">
        <ele>669.8</ele>
        <time>2021-06-21T09:09:33Z</time>
      </trkpt>
      <trkpt lat="48.23529" lon="7.22012">
        <ele>670.4</ele>
        <time>2021-06-21T09:09:39Z</time>
      </trkpt>
      <trkpt lat="48.23527" lon="7.22013">
        <ele>670.8</ele>
        <time>2021-06-21T09:09:40Z</time>
      </trkpt>
      <trkpt lat="48.23511" lon="7.22021">
        <ele>671.6</ele>
        <time>2021-06-21T09:09:45Z</time>
      </trkpt>
      <trkpt lat="48.23505" lon="7.22025">
        <ele>671.8</ele>
        <time>2021-06-21T09:09:47Z</time>
      </trkpt>
      <trkpt lat="48.23502" lon="7.22027">
        <ele>672</ele>
        <time>2021-06-21T09:09:48Z</time>
      </trkpt>
      <trkpt lat="48.23488" lon="7.22037">
        <ele>672.4</ele>
        <time>2021-06-21T09:09:52Z</time>
      </trkpt>
      <trkpt lat="48.23485" lon="7.22039">
        <ele>672.4</ele>
        <time>2021-06-21T09:09:53Z</time>
      </trkpt>
      <trkpt lat="48.23475" lon="7.22046">
        <ele>672.8</ele>
        <time>2021-06-21T09:09:56Z</time>
      </trkpt>
      <trkpt lat="48.2346" lon="7.22062">
        <ele>673.6</ele>
        <time>2021-06-21T09:10:01Z</time>
      </trkpt>
      <trkpt lat="48.23457" lon="7.22066">
        <ele>673.6</ele>
        <time>2021-06-21T09:10:02Z</time>
      </trkpt>
      <trkpt lat="48.23438" lon="7.22087">
        <ele>674.6</ele>
        <time>2021-06-21T09:10:08Z</time>
      </trkpt>
      <trkpt lat="48.23421" lon="7.22101">
        <ele>675.2</ele>
        <time>2021-06-21T09:10:13Z</time>
      </trkpt>
      <trkpt lat="48.234" lon="7.22115">
        <ele>675.8</ele>
        <time>2021-06-21T09:10:19Z</time>
      </trkpt>
      <trkpt lat="48.23396" lon="7.22117">
        <ele>675.8</ele>
        <time>2021-06-21T09:10:20Z</time>
      </trkpt>
      <trkpt lat="48.23378" lon="7.22127">
        <ele>676.2</ele>
        <time>2021-06-21T09:10:24Z</time>
      </trkpt>
      <trkpt lat="48.23375" lon="7.22124">
        <ele>676.2</ele>
        <time>2021-06-21T09:10:25Z</time>
      </trkpt>
      <trkpt lat="48.23357" lon="7.22131">
        <ele>676.4</ele>
        <time>2021-06-21T09:10:30Z</time>
      </trkpt>
      <trkpt lat="48.23352" lon="7.22133">
        <ele>676.6</ele>
        <time>2021-06-21T09:10:31Z</time>
      </trkpt>
      <trkpt lat="48.23339" lon="7.22139">
        <ele>676.6</ele>
        <time>2021-06-21T09:10:34Z</time>
      </trkpt>
      <trkpt lat="48.23317" lon="7.22144">
        <ele>676.8</ele>
        <time>2021-06-21T09:10:39Z</time>
      </trkpt>
      <trkpt lat="48.23309" lon="7.22144">
        <ele>677</ele>
        <time>2021-06-21T09:10:41Z</time>
      </trkpt>
      <trkpt lat="48.23302" lon="7.22142">
        <ele>677.2</ele>
        <time>2021-06-21T09:10:43Z</time>
      </trkpt>
      <trkpt lat="48.23293" lon="7.22146">
        <ele>677.4</ele>
        <time>2021-06-21T09:10:45Z</time>
      </trkpt>
      <trkpt lat="48.23286" lon="7.22143">
        <ele>677.6</ele>
        <time>2021-06-21T09:10:47Z</time>
      </trkpt>
      <trkpt lat="48.23263" lon="7.22139">
        <ele>678</ele>
        <time>2021-06-21T09:10:53Z</time>
      </trkpt>
      <trkpt lat="48.23257" lon="7.22137">
        <ele>678.4</ele>
        <time>2021-06-21T09:10:55Z</time>
      </trkpt>
      <trkpt lat="48.2325" lon="7.22138">
        <ele>678.8</ele>
        <time>2021-06-21T09:10:57Z</time>
      </trkpt>
      <trkpt lat="48.23236" lon="7.22135">
        <ele>679.8</ele>
        <time>2021-06-21T09:11:01Z</time>
      </trkpt>
      <trkpt lat="48.23223" lon="7.22121">
        <ele>680.4</ele>
        <time>2021-06-21T09:11:05Z</time>
      </trkpt>
      <trkpt lat="48.23214" lon="7.22119">
        <ele>680.8</ele>
        <time>2021-06-21T09:11:07Z</time>
      </trkpt>
      <trkpt lat="48.23206" lon="7.22116">
        <ele>681</ele>
        <time>2021-06-21T09:11:09Z</time>
      </trkpt>
      <trkpt lat="48.23202" lon="7.2212">
        <ele>681.4</ele>
        <time>2021-06-21T09:11:11Z</time>
      </trkpt>
      <trkpt lat="48.23199" lon="7.22119">
        <ele>681.8</ele>
        <time>2021-06-21T09:11:12Z</time>
      </trkpt>
      <trkpt lat="48.23192" lon="7.22119">
        <ele>682.4</ele>
        <time>2021-06-21T09:11:15Z</time>
      </trkpt>
      <trkpt lat="48.23188" lon="7.22113">
        <ele>683</ele>
        <time>2021-06-21T09:11:17Z</time>
      </trkpt>
      <trkpt lat="48.23181" lon="7.22105">
        <ele>683.4</ele>
        <time>2021-06-21T09:11:22Z</time>
      </trkpt>
      <trkpt lat="48.23175" lon="7.22104">
        <ele>683.8</ele>
        <time>2021-06-21T09:11:25Z</time>
      </trkpt>
      <trkpt lat="48.23171" lon="7.22104">
        <ele>684</ele>
        <time>2021-06-21T09:11:27Z</time>
      </trkpt>
      <trkpt lat="48.23168" lon="7.22104">
        <ele>684.2</ele>
        <time>2021-06-21T09:11:28Z</time>
      </trkpt>
      <trkpt lat="48.23162" lon="7.22104">
        <ele>684.6</ele>
        <time>2021-06-21T09:11:32Z</time>
      </trkpt>
      <trkpt lat="48.2316" lon="7.22104">
        <ele>685</ele>
        <time>2021-06-21T09:11:33Z</time>
      </trkpt>
      <trkpt lat="48.23154" lon="7.22107">
        <ele>685.4</ele>
        <time>2021-06-21T09:11:35Z</time>
      </trkpt>
      <trkpt lat="48.23146" lon="7.22109">
        <ele>685.6</ele>
        <time>2021-06-21T09:11:38Z</time>
      </trkpt>
      <trkpt lat="48.23143" lon="7.2211">
        <ele>685.8</ele>
        <time>2021-06-21T09:11:39Z</time>
      </trkpt>
      <trkpt lat="48.2314" lon="7.22112">
        <ele>686</ele>
        <time>2021-06-21T09:11:40Z</time>
      </trkpt>
      <trkpt lat="48.23132" lon="7.22118">
        <ele>686.6</ele>
        <time>2021-06-21T09:11:43Z</time>
      </trkpt>
      <trkpt lat="48.23121" lon="7.22118">
        <ele>687.2</ele>
        <time>2021-06-21T09:11:47Z</time>
      </trkpt>
      <trkpt lat="48.23117" lon="7.2212">
        <ele>687.6</ele>
        <time>2021-06-21T09:11:49Z</time>
      </trkpt>
      <trkpt lat="48.23107" lon="7.22128">
        <ele>688.2</ele>
        <time>2021-06-21T09:11:52Z</time>
      </trkpt>
      <trkpt lat="48.23099" lon="7.22125">
        <ele>688.8</ele>
        <time>2021-06-21T09:11:55Z</time>
      </trkpt>
      <trkpt lat="48.23093" lon="7.22129">
        <ele>689.2</ele>
        <time>2021-06-21T09:11:57Z</time>
      </trkpt>
      <trkpt lat="48.23091" lon="7.2213">
        <ele>689.4</ele>
        <time>2021-06-21T09:11:58Z</time>
      </trkpt>
      <trkpt lat="48.23089" lon="7.22131">
        <ele>689.4</ele>
        <time>2021-06-21T09:11:59Z</time>
      </trkpt>
      <trkpt lat="48.23087" lon="7.22131">
        <ele>689.8</ele>
        <time>2021-06-21T09:12:00Z</time>
      </trkpt>
      <trkpt lat="48.23077" lon="7.2214">
        <ele>690.4</ele>
        <time>2021-06-21T09:12:03Z</time>
      </trkpt>
      <trkpt lat="48.23072" lon="7.22143">
        <ele>690.6</ele>
        <time>2021-06-21T09:12:05Z</time>
      </trkpt>
      <trkpt lat="48.23067" lon="7.22142">
        <ele>691</ele>
        <time>2021-06-21T09:12:07Z</time>
      </trkpt>
      <trkpt lat="48.23058" lon="7.22149">
        <ele>691.6</ele>
        <time>2021-06-21T09:12:10Z</time>
      </trkpt>
      <trkpt lat="48.23051" lon="7.22142">
        <ele>691.8</ele>
        <time>2021-06-21T09:12:14Z</time>
      </trkpt>
      <trkpt lat="48.23045" lon="7.22143">
        <ele>692.6</ele>
        <time>2021-06-21T09:12:16Z</time>
      </trkpt>
      <trkpt lat="48.23035" lon="7.22149">
        <ele>693.8</ele>
        <time>2021-06-21T09:12:21Z</time>
      </trkpt>
      <trkpt lat="48.23029" lon="7.22152">
        <ele>694.2</ele>
        <time>2021-06-21T09:12:23Z</time>
      </trkpt>
      <trkpt lat="48.23019" lon="7.22158">
        <ele>694.8</ele>
        <time>2021-06-21T09:12:26Z</time>
      </trkpt>
      <trkpt lat="48.23018" lon="7.22159">
        <ele>694.8</ele>
        <time>2021-06-21T09:12:27Z</time>
      </trkpt>
      <trkpt lat="48.23015" lon="7.22161">
        <ele>695</ele>
        <time>2021-06-21T09:12:28Z</time>
      </trkpt>
      <trkpt lat="48.23012" lon="7.22165">
        <ele>695.4</ele>
        <time>2021-06-21T09:12:30Z</time>
      </trkpt>
      <trkpt lat="48.23015" lon="7.22164">
        <ele>695.4</ele>
        <time>2021-06-21T09:12:31Z</time>
      </trkpt>
      <trkpt lat="48.23014" lon="7.2217">
        <ele>695.8</ele>
        <time>2021-06-21T09:12:33Z</time>
      </trkpt>
      <trkpt lat="48.23014" lon="7.22177">
        <ele>696.2</ele>
        <time>2021-06-21T09:12:35Z</time>
      </trkpt>
      <trkpt lat="48.23015" lon="7.22181">
        <ele>696.2</ele>
        <time>2021-06-21T09:12:36Z</time>
      </trkpt>
      <trkpt lat="48.23016" lon="7.22183">
        <ele>696.6</ele>
        <time>2021-06-21T09:12:37Z</time>
      </trkpt>
      <trkpt lat="48.23016" lon="7.22193">
        <ele>696.6</ele>
        <time>2021-06-21T09:12:39Z</time>
      </trkpt>
      <trkpt lat="48.23017" lon="7.22198">
        <ele>697.2</ele>
        <time>2021-06-21T09:12:41Z</time>
      </trkpt>
      <trkpt lat="48.23018" lon="7.22205">
        <ele>697.6</ele>
        <time>2021-06-21T09:12:43Z</time>
      </trkpt>
      <trkpt lat="48.23019" lon="7.22212">
        <ele>697.8</ele>
        <time>2021-06-21T09:12:45Z</time>
      </trkpt>
      <trkpt lat="48.23022" lon="7.22226">
        <ele>698.2</ele>
        <time>2021-06-21T09:12:49Z</time>
      </trkpt>
      <trkpt lat="48.23025" lon="7.22233">
        <ele>698.4</ele>
        <time>2021-06-21T09:12:51Z</time>
      </trkpt>
      <trkpt lat="48.23031" lon="7.22252">
        <ele>698.6</ele>
        <time>2021-06-21T09:12:56Z</time>
      </trkpt>
      <trkpt lat="48.23035" lon="7.22259">
        <ele>698.8</ele>
        <time>2021-06-21T09:12:58Z</time>
      </trkpt>
      <trkpt lat="48.23038" lon="7.2227">
        <ele>698.6</ele>
        <time>2021-06-21T09:13:00Z</time>
      </trkpt>
      <trkpt lat="48.23049" lon="7.22304">
        <ele>698.6</ele>
        <time>2021-06-21T09:13:07Z</time>
      </trkpt>
      <trkpt lat="48.23052" lon="7.2231">
        <ele>698.6</ele>
        <time>2021-06-21T09:13:08Z</time>
      </trkpt>
      <trkpt lat="48.23055" lon="7.2232">
        <ele>698.6</ele>
        <time>2021-06-21T09:13:10Z</time>
      </trkpt>
      <trkpt lat="48.23058" lon="7.22327">
        <ele>698.6</ele>
        <time>2021-06-21T09:13:12Z</time>
      </trkpt>
      <trkpt lat="48.2307" lon="7.2236">
        <ele>698.6</ele>
        <time>2021-06-21T09:13:19Z</time>
      </trkpt>
      <trkpt lat="48.2308" lon="7.22387">
        <ele>698.8</ele>
        <time>2021-06-21T09:13:24Z</time>
      </trkpt>
      <trkpt lat="48.2308" lon="7.22393">
        <ele>699</ele>
        <time>2021-06-21T09:13:25Z</time>
      </trkpt>
      <trkpt lat="48.23083" lon="7.22414">
        <ele>699.8</ele>
        <time>2021-06-21T09:13:30Z</time>
      </trkpt>
      <trkpt lat="48.23079" lon="7.22419">
        <ele>700.2</ele>
        <time>2021-06-21T09:13:32Z</time>
      </trkpt>
      <trkpt lat="48.23079" lon="7.22423">
        <ele>700.2</ele>
        <time>2021-06-21T09:13:33Z</time>
      </trkpt>
      <trkpt lat="48.23077" lon="7.22426">
        <ele>700.4</ele>
        <time>2021-06-21T09:13:34Z</time>
      </trkpt>
      <trkpt lat="48.23075" lon="7.22431">
        <ele>700.6</ele>
        <time>2021-06-21T09:13:35Z</time>
      </trkpt>
      <trkpt lat="48.23072" lon="7.22442">
        <ele>701.2</ele>
        <time>2021-06-21T09:13:38Z</time>
      </trkpt>
      <trkpt lat="48.2307" lon="7.22454">
        <ele>701.6</ele>
        <time>2021-06-21T09:13:42Z</time>
      </trkpt>
      <trkpt lat="48.2307" lon="7.22459">
        <ele>701.8</ele>
        <time>2021-06-21T09:13:44Z</time>
      </trkpt>
      <trkpt lat="48.23067" lon="7.22465">
        <ele>702</ele>
        <time>2021-06-21T09:13:46Z</time>
      </trkpt>
      <trkpt lat="48.23061" lon="7.22475">
        <ele>702.4</ele>
        <time>2021-06-21T09:13:49Z</time>
      </trkpt>
      <trkpt lat="48.23056" lon="7.22481">
        <ele>702.6</ele>
        <time>2021-06-21T09:13:53Z</time>
      </trkpt>
      <trkpt lat="48.23054" lon="7.22482">
        <ele>702.8</ele>
        <time>2021-06-21T09:13:54Z</time>
      </trkpt>
      <trkpt lat="48.23045" lon="7.22493">
        <ele>703.4</ele>
        <time>2021-06-21T09:13:59Z</time>
      </trkpt>
      <trkpt lat="48.23029" lon="7.22502">
        <ele>704.4</ele>
        <time>2021-06-21T09:14:06Z</time>
      </trkpt>
      <trkpt lat="48.23024" lon="7.22505">
        <ele>705</ele>
        <time>2021-06-21T09:14:09Z</time>
      </trkpt>
      <trkpt lat="48.23018" lon="7.22508">
        <ele>705.6</ele>
        <time>2021-06-21T09:14:11Z</time>
      </trkpt>
      <trkpt lat="48.23015" lon="7.2251">
        <ele>705.6</ele>
        <time>2021-06-21T09:14:12Z</time>
      </trkpt>
      <trkpt lat="48.22997" lon="7.22514">
        <ele>706.6</ele>
        <time>2021-06-21T09:14:19Z</time>
      </trkpt>
      <trkpt lat="48.22977" lon="7.22516">
        <ele>707.6</ele>
        <time>2021-06-21T09:14:25Z</time>
      </trkpt>
      <trkpt lat="48.22967" lon="7.22517">
        <ele>707.8</ele>
        <time>2021-06-21T09:14:28Z</time>
      </trkpt>
      <trkpt lat="48.22943" lon="7.22522">
        <ele>708.6</ele>
        <time>2021-06-21T09:14:34Z</time>
      </trkpt>
      <trkpt lat="48.2294" lon="7.22521">
        <ele>708.8</ele>
        <time>2021-06-21T09:14:35Z</time>
      </trkpt>
      <trkpt lat="48.22935" lon="7.22518">
        <ele>709</ele>
        <time>2021-06-21T09:14:37Z</time>
      </trkpt>
      <trkpt lat="48.22929" lon="7.22519">
        <ele>709.4</ele>
        <time>2021-06-21T09:14:39Z</time>
      </trkpt>
      <trkpt lat="48.22927" lon="7.22518">
        <ele>709.6</ele>
        <time>2021-06-21T09:14:40Z</time>
      </trkpt>
      <trkpt lat="48.22924" lon="7.22518">
        <ele>709.6</ele>
        <time>2021-06-21T09:14:41Z</time>
      </trkpt>
      <trkpt lat="48.22911" lon="7.22519">
        <ele>710.4</ele>
        <time>2021-06-21T09:14:46Z</time>
      </trkpt>
      <trkpt lat="48.22907" lon="7.22519">
        <ele>710.8</ele>
        <time>2021-06-21T09:14:48Z</time>
      </trkpt>
      <trkpt lat="48.229" lon="7.2252">
        <ele>711</ele>
        <time>2021-06-21T09:14:50Z</time>
      </trkpt>
      <trkpt lat="48.22898" lon="7.2252">
        <ele>711.2</ele>
        <time>2021-06-21T09:14:51Z</time>
      </trkpt>
      <trkpt lat="48.22891" lon="7.22514">
        <ele>711.8</ele>
        <time>2021-06-21T09:14:54Z</time>
      </trkpt>
      <trkpt lat="48.2289" lon="7.22513">
        <ele>711.8</ele>
        <time>2021-06-21T09:14:55Z</time>
      </trkpt>
      <trkpt lat="48.22888" lon="7.22511">
        <ele>712</ele>
        <time>2021-06-21T09:14:56Z</time>
      </trkpt>
      <trkpt lat="48.22882" lon="7.22513">
        <ele>712.2</ele>
        <time>2021-06-21T09:14:58Z</time>
      </trkpt>
      <trkpt lat="48.22874" lon="7.22521">
        <ele>712.2</ele>
        <time>2021-06-21T09:15:00Z</time>
      </trkpt>
      <trkpt lat="48.22871" lon="7.2252">
        <ele>712.2</ele>
        <time>2021-06-21T09:15:01Z</time>
      </trkpt>
      <trkpt lat="48.2286" lon="7.22518">
        <ele>712.6</ele>
        <time>2021-06-21T09:15:05Z</time>
      </trkpt>
      <trkpt lat="48.22857" lon="7.22519">
        <ele>712.6</ele>
        <time>2021-06-21T09:15:06Z</time>
      </trkpt>
      <trkpt lat="48.22842" lon="7.22525">
        <ele>713.4</ele>
        <time>2021-06-21T09:15:12Z</time>
      </trkpt>
      <trkpt lat="48.22838" lon="7.22523">
        <ele>713.6</ele>
        <time>2021-06-21T09:15:14Z</time>
      </trkpt>
      <trkpt lat="48.22837" lon="7.22528">
        <ele>714</ele>
        <time>2021-06-21T09:15:17Z</time>
      </trkpt>
      <trkpt lat="48.22836" lon="7.22545">
        <ele>714.2</ele>
        <time>2021-06-21T09:15:21Z</time>
      </trkpt>
      <trkpt lat="48.22835" lon="7.22549">
        <ele>714.4</ele>
        <time>2021-06-21T09:15:22Z</time>
      </trkpt>
      <trkpt lat="48.22835" lon="7.22552">
        <ele>714.6</ele>
        <time>2021-06-21T09:15:23Z</time>
      </trkpt>
      <trkpt lat="48.22831" lon="7.22581">
        <ele>715.6</ele>
        <time>2021-06-21T09:15:30Z</time>
      </trkpt>
      <trkpt lat="48.2283" lon="7.22585">
        <ele>715.8</ele>
        <time>2021-06-21T09:15:31Z</time>
      </trkpt>
      <trkpt lat="48.2282" lon="7.22608">
        <ele>716.4</ele>
        <time>2021-06-21T09:15:37Z</time>
      </trkpt>
      <trkpt lat="48.22815" lon="7.22612">
        <ele>716.6</ele>
        <time>2021-06-21T09:15:39Z</time>
      </trkpt>
      <trkpt lat="48.22805" lon="7.22617">
        <ele>717.4</ele>
        <time>2021-06-21T09:15:43Z</time>
      </trkpt>
      <trkpt lat="48.22802" lon="7.22617">
        <ele>717.6</ele>
        <time>2021-06-21T09:15:44Z</time>
      </trkpt>
      <trkpt lat="48.22784" lon="7.22616">
        <ele>718.6</ele>
        <time>2021-06-21T09:15:50Z</time>
      </trkpt>
      <trkpt lat="48.2278" lon="7.22614">
        <ele>718.8</ele>
        <time>2021-06-21T09:15:51Z</time>
      </trkpt>
      <trkpt lat="48.2276" lon="7.22617">
        <ele>719.2</ele>
        <time>2021-06-21T09:15:56Z</time>
      </trkpt>
      <trkpt lat="48.22753" lon="7.22615">
        <ele>719.6</ele>
        <time>2021-06-21T09:15:58Z</time>
      </trkpt>
      <trkpt lat="48.22736" lon="7.22622">
        <ele>720.2</ele>
        <time>2021-06-21T09:16:03Z</time>
      </trkpt>
      <trkpt lat="48.22724" lon="7.22628">
        <ele>720.6</ele>
        <time>2021-06-21T09:16:08Z</time>
      </trkpt>
      <trkpt lat="48.22722" lon="7.22628">
        <ele>720.8</ele>
        <time>2021-06-21T09:16:09Z</time>
      </trkpt>
      <trkpt lat="48.22709" lon="7.22643">
        <ele>721.4</ele>
        <time>2021-06-21T09:16:14Z</time>
      </trkpt>
      <trkpt lat="48.22708" lon="7.22646">
        <ele>721.6</ele>
        <time>2021-06-21T09:16:15Z</time>
      </trkpt>
      <trkpt lat="48.22706" lon="7.2265">
        <ele>721.8</ele>
        <time>2021-06-21T09:16:16Z</time>
      </trkpt>
      <trkpt lat="48.22705" lon="7.22654">
        <ele>722.4</ele>
        <time>2021-06-21T09:16:18Z</time>
      </trkpt>
      <trkpt lat="48.22703" lon="7.22659">
        <ele>722.6</ele>
        <time>2021-06-21T09:16:21Z</time>
      </trkpt>
      <trkpt lat="48.22703" lon="7.22663">
        <ele>723</ele>
        <time>2021-06-21T09:16:24Z</time>
      </trkpt>
      <trkpt lat="48.22697" lon="7.22684">
        <ele>723.4</ele>
        <time>2021-06-21T09:16:30Z</time>
      </trkpt>
      <trkpt lat="48.22695" lon="7.22687">
        <ele>723.6</ele>
        <time>2021-06-21T09:16:31Z</time>
      </trkpt>
      <trkpt lat="48.22686" lon="7.22708">
        <ele>724.4</ele>
        <time>2021-06-21T09:16:37Z</time>
      </trkpt>
      <trkpt lat="48.22685" lon="7.22716">
        <ele>724.6</ele>
        <time>2021-06-21T09:16:39Z</time>
      </trkpt>
      <trkpt lat="48.22679" lon="7.22735">
        <ele>725</ele>
        <time>2021-06-21T09:16:44Z</time>
      </trkpt>
      <trkpt lat="48.22672" lon="7.22755">
        <ele>725.4</ele>
        <time>2021-06-21T09:16:49Z</time>
      </trkpt>
      <trkpt lat="48.22668" lon="7.22769">
        <ele>725.4</ele>
        <time>2021-06-21T09:16:52Z</time>
      </trkpt>
      <trkpt lat="48.22661" lon="7.22784">
        <ele>725.8</ele>
        <time>2021-06-21T09:16:56Z</time>
      </trkpt>
      <trkpt lat="48.22659" lon="7.22791">
        <ele>726</ele>
        <time>2021-06-21T09:17:01Z</time>
      </trkpt>
      <trkpt lat="48.22659" lon="7.22791">
        <ele>726</ele>
        <time>2021-06-21T09:17:03Z</time>
      </trkpt>
      <trkpt lat="48.22654" lon="7.22806">
        <ele>725.8</ele>
        <time>2021-06-21T09:33:24Z</time>
      </trkpt>
      <trkpt lat="48.22653" lon="7.22816">
        <ele>725.6</ele>
        <time>2021-06-21T09:33:27Z</time>
      </trkpt>
      <trkpt lat="48.22648" lon="7.22835">
        <ele>725.6</ele>
        <time>2021-06-21T09:33:32Z</time>
      </trkpt>
      <trkpt lat="48.22641" lon="7.22863">
        <ele>725.6</ele>
        <time>2021-06-21T09:33:37Z</time>
      </trkpt>
      <trkpt lat="48.2263" lon="7.22893">
        <ele>725.6</ele>
        <time>2021-06-21T09:33:42Z</time>
      </trkpt>
      <trkpt lat="48.22621" lon="7.2292">
        <ele>725.6</ele>
        <time>2021-06-21T09:33:46Z</time>
      </trkpt>
      <trkpt lat="48.22617" lon="7.22942">
        <ele>725.8</ele>
        <time>2021-06-21T09:33:49Z</time>
      </trkpt>
      <trkpt lat="48.22616" lon="7.22956">
        <ele>725.6</ele>
        <time>2021-06-21T09:33:51Z</time>
      </trkpt>
      <trkpt lat="48.22622" lon="7.22992">
        <ele>726</ele>
        <time>2021-06-21T09:33:56Z</time>
      </trkpt>
      <trkpt lat="48.22625" lon="7.23">
        <ele>726</ele>
        <time>2021-06-21T09:33:57Z</time>
      </trkpt>
      <trkpt lat="48.22631" lon="7.23015">
        <ele>726</ele>
        <time>2021-06-21T09:33:59Z</time>
      </trkpt>
      <trkpt lat="48.22637" lon="7.2303">
        <ele>726.2</ele>
        <time>2021-06-21T09:34:01Z</time>
      </trkpt>
      <trkpt lat="48.22641" lon="7.23038">
        <ele>726.2</ele>
        <time>2021-06-21T09:34:02Z</time>
      </trkpt>
      <trkpt lat="48.22653" lon="7.2307">
        <ele>726.2</ele>
        <time>2021-06-21T09:34:06Z</time>
      </trkpt>
      <trkpt lat="48.22665" lon="7.23103">
        <ele>726.4</ele>
        <time>2021-06-21T09:34:10Z</time>
      </trkpt>
      <trkpt lat="48.22671" lon="7.2312">
        <ele>726.4</ele>
        <time>2021-06-21T09:34:12Z</time>
      </trkpt>
      <trkpt lat="48.22673" lon="7.23128">
        <ele>726.4</ele>
        <time>2021-06-21T09:34:13Z</time>
      </trkpt>
      <trkpt lat="48.22679" lon="7.23156">
        <ele>726.6</ele>
        <time>2021-06-21T09:34:16Z</time>
      </trkpt>
      <trkpt lat="48.22682" lon="7.23172">
        <ele>726.6</ele>
        <time>2021-06-21T09:34:18Z</time>
      </trkpt>
      <trkpt lat="48.22683" lon="7.23181">
        <ele>726.4</ele>
        <time>2021-06-21T09:34:19Z</time>
      </trkpt>
      <trkpt lat="48.22685" lon="7.23189">
        <ele>726</ele>
        <time>2021-06-21T09:34:20Z</time>
      </trkpt>
      <trkpt lat="48.22695" lon="7.23205">
        <ele>725.4</ele>
        <time>2021-06-21T09:34:22Z</time>
      </trkpt>
      <trkpt lat="48.22712" lon="7.23222">
        <ele>724.8</ele>
        <time>2021-06-21T09:34:24Z</time>
      </trkpt>
      <trkpt lat="48.2272" lon="7.2323">
        <ele>724.6</ele>
        <time>2021-06-21T09:34:25Z</time>
      </trkpt>
      <trkpt lat="48.22727" lon="7.23241">
        <ele>724</ele>
        <time>2021-06-21T09:34:26Z</time>
      </trkpt>
      <trkpt lat="48.22733" lon="7.23254">
        <ele>723.8</ele>
        <time>2021-06-21T09:34:27Z</time>
      </trkpt>
      <trkpt lat="48.22738" lon="7.23268">
        <ele>722.6</ele>
        <time>2021-06-21T09:34:28Z</time>
      </trkpt>
      <trkpt lat="48.22741" lon="7.23298">
        <ele>720.8</ele>
        <time>2021-06-21T09:34:30Z</time>
      </trkpt>
      <trkpt lat="48.22741" lon="7.23313">
        <ele>720</ele>
        <time>2021-06-21T09:34:31Z</time>
      </trkpt>
      <trkpt lat="48.22739" lon="7.23329">
        <ele>719.8</ele>
        <time>2021-06-21T09:34:32Z</time>
      </trkpt>
      <trkpt lat="48.22737" lon="7.23343">
        <ele>718.2</ele>
        <time>2021-06-21T09:34:33Z</time>
      </trkpt>
      <trkpt lat="48.22737" lon="7.23373">
        <ele>716.6</ele>
        <time>2021-06-21T09:34:35Z</time>
      </trkpt>
      <trkpt lat="48.22748" lon="7.23399">
        <ele>715.6</ele>
        <time>2021-06-21T09:34:37Z</time>
      </trkpt>
      <trkpt lat="48.22754" lon="7.23413">
        <ele>715.2</ele>
        <time>2021-06-21T09:34:38Z</time>
      </trkpt>
      <trkpt lat="48.22768" lon="7.23455">
        <ele>714</ele>
        <time>2021-06-21T09:34:41Z</time>
      </trkpt>
      <trkpt lat="48.22773" lon="7.23469">
        <ele>713.6</ele>
        <time>2021-06-21T09:34:42Z</time>
      </trkpt>
      <trkpt lat="48.22778" lon="7.23482">
        <ele>713.6</ele>
        <time>2021-06-21T09:34:43Z</time>
      </trkpt>
      <trkpt lat="48.22792" lon="7.23503">
        <ele>712</ele>
        <time>2021-06-21T09:34:45Z</time>
      </trkpt>
      <trkpt lat="48.22808" lon="7.23527">
        <ele>709.6</ele>
        <time>2021-06-21T09:34:47Z</time>
      </trkpt>
      <trkpt lat="48.22822" lon="7.23554">
        <ele>708.6</ele>
        <time>2021-06-21T09:34:49Z</time>
      </trkpt>
      <trkpt lat="48.22837" lon="7.2358">
        <ele>705.2</ele>
        <time>2021-06-21T09:34:51Z</time>
      </trkpt>
      <trkpt lat="48.22845" lon="7.23592">
        <ele>704</ele>
        <time>2021-06-21T09:34:52Z</time>
      </trkpt>
      <trkpt lat="48.22853" lon="7.23604">
        <ele>703.6</ele>
        <time>2021-06-21T09:34:53Z</time>
      </trkpt>
      <trkpt lat="48.22861" lon="7.23616">
        <ele>702.6</ele>
        <time>2021-06-21T09:34:54Z</time>
      </trkpt>
      <trkpt lat="48.22871" lon="7.23645">
        <ele>701.2</ele>
        <time>2021-06-21T09:34:56Z</time>
      </trkpt>
      <trkpt lat="48.22879" lon="7.23689">
        <ele>700</ele>
        <time>2021-06-21T09:34:59Z</time>
      </trkpt>
      <trkpt lat="48.22879" lon="7.237">
        <ele>699.6</ele>
        <time>2021-06-21T09:35:00Z</time>
      </trkpt>
      <trkpt lat="48.22868" lon="7.23718">
        <ele>698.8</ele>
        <time>2021-06-21T09:35:02Z</time>
      </trkpt>
      <trkpt lat="48.22854" lon="7.23721">
        <ele>697</ele>
        <time>2021-06-21T09:35:04Z</time>
      </trkpt>
      <trkpt lat="48.22839" lon="7.23719">
        <ele>695.4</ele>
        <time>2021-06-21T09:35:06Z</time>
      </trkpt>
      <trkpt lat="48.22823" lon="7.23715">
        <ele>693.6</ele>
        <time>2021-06-21T09:35:08Z</time>
      </trkpt>
      <trkpt lat="48.22807" lon="7.23711">
        <ele>692.6</ele>
        <time>2021-06-21T09:35:10Z</time>
      </trkpt>
      <trkpt lat="48.22797" lon="7.2371">
        <ele>692.4</ele>
        <time>2021-06-21T09:35:11Z</time>
      </trkpt>
      <trkpt lat="48.22788" lon="7.2371">
        <ele>691.6</ele>
        <time>2021-06-21T09:35:12Z</time>
      </trkpt>
      <trkpt lat="48.2278" lon="7.2371">
        <ele>690.6</ele>
        <time>2021-06-21T09:35:13Z</time>
      </trkpt>
      <trkpt lat="48.22773" lon="7.2371">
        <ele>690.2</ele>
        <time>2021-06-21T09:35:14Z</time>
      </trkpt>
      <trkpt lat="48.22768" lon="7.2371">
        <ele>689.2</ele>
        <time>2021-06-21T09:35:15Z</time>
      </trkpt>
      <trkpt lat="48.22766" lon="7.23705">
        <ele>688.4</ele>
        <time>2021-06-21T09:35:16Z</time>
      </trkpt>
      <trkpt lat="48.22767" lon="7.23697">
        <ele>687.6</ele>
        <time>2021-06-21T09:35:17Z</time>
      </trkpt>
      <trkpt lat="48.2277" lon="7.23691">
        <ele>687.2</ele>
        <time>2021-06-21T09:35:18Z</time>
      </trkpt>
      <trkpt lat="48.22776" lon="7.23689">
        <ele>686.6</ele>
        <time>2021-06-21T09:35:19Z</time>
      </trkpt>
      <trkpt lat="48.22781" lon="7.23687">
        <ele>686</ele>
        <time>2021-06-21T09:35:20Z</time>
      </trkpt>
      <trkpt lat="48.22787" lon="7.23684">
        <ele>685.4</ele>
        <time>2021-06-21T09:35:21Z</time>
      </trkpt>
      <trkpt lat="48.228" lon="7.23677">
        <ele>684.4</ele>
        <time>2021-06-21T09:35:23Z</time>
      </trkpt>
      <trkpt lat="48.22804" lon="7.23671">
        <ele>683.8</ele>
        <time>2021-06-21T09:35:24Z</time>
      </trkpt>
      <trkpt lat="48.22811" lon="7.23655">
        <ele>683</ele>
        <time>2021-06-21T09:35:26Z</time>
      </trkpt>
      <trkpt lat="48.2281" lon="7.23648">
        <ele>682.4</ele>
        <time>2021-06-21T09:35:27Z</time>
      </trkpt>
      <trkpt lat="48.22796" lon="7.23638">
        <ele>681.6</ele>
        <time>2021-06-21T09:35:29Z</time>
      </trkpt>
      <trkpt lat="48.22774" lon="7.23623">
        <ele>680.6</ele>
        <time>2021-06-21T09:35:31Z</time>
      </trkpt>
      <trkpt lat="48.22763" lon="7.23615">
        <ele>680.4</ele>
        <time>2021-06-21T09:35:32Z</time>
      </trkpt>
      <trkpt lat="48.22738" lon="7.236">
        <ele>679</ele>
        <time>2021-06-21T09:35:34Z</time>
      </trkpt>
      <trkpt lat="48.22731" lon="7.23596">
        <ele>678</ele>
        <time>2021-06-21T09:35:35Z</time>
      </trkpt>
      <trkpt lat="48.22711" lon="7.2359">
        <ele>676.6</ele>
        <time>2021-06-21T09:35:37Z</time>
      </trkpt>
      <trkpt lat="48.22702" lon="7.23589">
        <ele>675.8</ele>
        <time>2021-06-21T09:35:38Z</time>
      </trkpt>
      <trkpt lat="48.22692" lon="7.23591">
        <ele>675.2</ele>
        <time>2021-06-21T09:35:39Z</time>
      </trkpt>
      <trkpt lat="48.22681" lon="7.23593">
        <ele>674.2</ele>
        <time>2021-06-21T09:35:40Z</time>
      </trkpt>
      <trkpt lat="48.22657" lon="7.23597">
        <ele>673</ele>
        <time>2021-06-21T09:35:42Z</time>
      </trkpt>
      <trkpt lat="48.22648" lon="7.23596">
        <ele>671.4</ele>
        <time>2021-06-21T09:35:43Z</time>
      </trkpt>
      <trkpt lat="48.22638" lon="7.23595">
        <ele>670.4</ele>
        <time>2021-06-21T09:35:44Z</time>
      </trkpt>
      <trkpt lat="48.22628" lon="7.23592">
        <ele>669.2</ele>
        <time>2021-06-21T09:35:45Z</time>
      </trkpt>
      <trkpt lat="48.22618" lon="7.23587">
        <ele>668.8</ele>
        <time>2021-06-21T09:35:46Z</time>
      </trkpt>
      <trkpt lat="48.22608" lon="7.23579">
        <ele>667.8</ele>
        <time>2021-06-21T09:35:47Z</time>
      </trkpt>
      <trkpt lat="48.22589" lon="7.2356">
        <ele>666.4</ele>
        <time>2021-06-21T09:35:49Z</time>
      </trkpt>
      <trkpt lat="48.22581" lon="7.2355">
        <ele>665</ele>
        <time>2021-06-21T09:35:50Z</time>
      </trkpt>
      <trkpt lat="48.22564" lon="7.23527">
        <ele>663.2</ele>
        <time>2021-06-21T09:35:52Z</time>
      </trkpt>
      <trkpt lat="48.22554" lon="7.23515">
        <ele>662.6</ele>
        <time>2021-06-21T09:35:53Z</time>
      </trkpt>
      <trkpt lat="48.22541" lon="7.23505">
        <ele>661.4</ele>
        <time>2021-06-21T09:35:54Z</time>
      </trkpt>
      <trkpt lat="48.22532" lon="7.23499">
        <ele>661.2</ele>
        <time>2021-06-21T09:35:55Z</time>
      </trkpt>
      <trkpt lat="48.2252" lon="7.23494">
        <ele>660.6</ele>
        <time>2021-06-21T09:35:56Z</time>
      </trkpt>
      <trkpt lat="48.22508" lon="7.23489">
        <ele>659</ele>
        <time>2021-06-21T09:35:57Z</time>
      </trkpt>
      <trkpt lat="48.22496" lon="7.23486">
        <ele>658.6</ele>
        <time>2021-06-21T09:35:58Z</time>
      </trkpt>
      <trkpt lat="48.22472" lon="7.23479">
        <ele>657.8</ele>
        <time>2021-06-21T09:36:00Z</time>
      </trkpt>
      <trkpt lat="48.22459" lon="7.23476">
        <ele>656.6</ele>
        <time>2021-06-21T09:36:01Z</time>
      </trkpt>
      <trkpt lat="48.22434" lon="7.23471">
        <ele>654.8</ele>
        <time>2021-06-21T09:36:03Z</time>
      </trkpt>
      <trkpt lat="48.22422" lon="7.23469">
        <ele>653.2</ele>
        <time>2021-06-21T09:36:04Z</time>
      </trkpt>
      <trkpt lat="48.22398" lon="7.23462">
        <ele>651.4</ele>
        <time>2021-06-21T09:36:06Z</time>
      </trkpt>
      <trkpt lat="48.22386" lon="7.23461">
        <ele>650.8</ele>
        <time>2021-06-21T09:36:07Z</time>
      </trkpt>
      <trkpt lat="48.22374" lon="7.23461">
        <ele>649.6</ele>
        <time>2021-06-21T09:36:08Z</time>
      </trkpt>
      <trkpt lat="48.22349" lon="7.23459">
        <ele>648</ele>
        <time>2021-06-21T09:36:10Z</time>
      </trkpt>
      <trkpt lat="48.22336" lon="7.2346">
        <ele>646.8</ele>
        <time>2021-06-21T09:36:11Z</time>
      </trkpt>
      <trkpt lat="48.22325" lon="7.23463">
        <ele>645.8</ele>
        <time>2021-06-21T09:36:12Z</time>
      </trkpt>
      <trkpt lat="48.22315" lon="7.23469">
        <ele>644.4</ele>
        <time>2021-06-21T09:36:13Z</time>
      </trkpt>
      <trkpt lat="48.22295" lon="7.2348">
        <ele>642.4</ele>
        <time>2021-06-21T09:36:15Z</time>
      </trkpt>
      <trkpt lat="48.22284" lon="7.2348">
        <ele>641.8</ele>
        <time>2021-06-21T09:36:16Z</time>
      </trkpt>
      <trkpt lat="48.22274" lon="7.23478">
        <ele>640.4</ele>
        <time>2021-06-21T09:36:17Z</time>
      </trkpt>
      <trkpt lat="48.22256" lon="7.23471">
        <ele>639</ele>
        <time>2021-06-21T09:36:19Z</time>
      </trkpt>
      <trkpt lat="48.22241" lon="7.23469">
        <ele>637.6</ele>
        <time>2021-06-21T09:36:21Z</time>
      </trkpt>
      <trkpt lat="48.22235" lon="7.23475">
        <ele>637</ele>
        <time>2021-06-21T09:36:22Z</time>
      </trkpt>
      <trkpt lat="48.22232" lon="7.23483">
        <ele>636.6</ele>
        <time>2021-06-21T09:36:23Z</time>
      </trkpt>
      <trkpt lat="48.22234" lon="7.23492">
        <ele>635.8</ele>
        <time>2021-06-21T09:36:24Z</time>
      </trkpt>
      <trkpt lat="48.22238" lon="7.23499">
        <ele>635.4</ele>
        <time>2021-06-21T09:36:25Z</time>
      </trkpt>
      <trkpt lat="48.2225" lon="7.23515">
        <ele>633.8</ele>
        <time>2021-06-21T09:36:27Z</time>
      </trkpt>
      <trkpt lat="48.22255" lon="7.23541">
        <ele>632.8</ele>
        <time>2021-06-21T09:36:29Z</time>
      </trkpt>
      <trkpt lat="48.22254" lon="7.2355">
        <ele>632.2</ele>
        <time>2021-06-21T09:36:30Z</time>
      </trkpt>
      <trkpt lat="48.2225" lon="7.23559">
        <ele>631.4</ele>
        <time>2021-06-21T09:36:31Z</time>
      </trkpt>
      <trkpt lat="48.22244" lon="7.23565">
        <ele>630.8</ele>
        <time>2021-06-21T09:36:32Z</time>
      </trkpt>
      <trkpt lat="48.22237" lon="7.2357">
        <ele>629.8</ele>
        <time>2021-06-21T09:36:33Z</time>
      </trkpt>
      <trkpt lat="48.22227" lon="7.23576">
        <ele>629.2</ele>
        <time>2021-06-21T09:36:34Z</time>
      </trkpt>
      <trkpt lat="48.2221" lon="7.23584">
        <ele>628.6</ele>
        <time>2021-06-21T09:36:36Z</time>
      </trkpt>
      <trkpt lat="48.22194" lon="7.23588">
        <ele>627.4</ele>
        <time>2021-06-21T09:36:38Z</time>
      </trkpt>
      <trkpt lat="48.22174" lon="7.23592">
        <ele>626.4</ele>
        <time>2021-06-21T09:36:40Z</time>
      </trkpt>
      <trkpt lat="48.22154" lon="7.23595">
        <ele>625.2</ele>
        <time>2021-06-21T09:36:42Z</time>
      </trkpt>
      <trkpt lat="48.22144" lon="7.23596">
        <ele>624.2</ele>
        <time>2021-06-21T09:36:43Z</time>
      </trkpt>
      <trkpt lat="48.22132" lon="7.23598">
        <ele>623.2</ele>
        <time>2021-06-21T09:36:44Z</time>
      </trkpt>
      <trkpt lat="48.22123" lon="7.23597">
        <ele>622</ele>
        <time>2021-06-21T09:36:45Z</time>
      </trkpt>
      <trkpt lat="48.22091" lon="7.23598">
        <ele>621</ele>
        <time>2021-06-21T09:36:48Z</time>
      </trkpt>
      <trkpt lat="48.22081" lon="7.23598">
        <ele>620.2</ele>
        <time>2021-06-21T09:36:49Z</time>
      </trkpt>
      <trkpt lat="48.22071" lon="7.23599">
        <ele>619.6</ele>
        <time>2021-06-21T09:36:50Z</time>
      </trkpt>
      <trkpt lat="48.22052" lon="7.23603">
        <ele>618</ele>
        <time>2021-06-21T09:36:52Z</time>
      </trkpt>
      <trkpt lat="48.22039" lon="7.23607">
        <ele>617.4</ele>
        <time>2021-06-21T09:36:53Z</time>
      </trkpt>
      <trkpt lat="48.2203" lon="7.23614">
        <ele>616.2</ele>
        <time>2021-06-21T09:36:54Z</time>
      </trkpt>
      <trkpt lat="48.22023" lon="7.23621">
        <ele>615.6</ele>
        <time>2021-06-21T09:36:55Z</time>
      </trkpt>
      <trkpt lat="48.22013" lon="7.23632">
        <ele>614.6</ele>
        <time>2021-06-21T09:36:56Z</time>
      </trkpt>
      <trkpt lat="48.2199" lon="7.23662">
        <ele>612.8</ele>
        <time>2021-06-21T09:36:59Z</time>
      </trkpt>
      <trkpt lat="48.21969" lon="7.2368">
        <ele>611.4</ele>
        <time>2021-06-21T09:37:01Z</time>
      </trkpt>
      <trkpt lat="48.21949" lon="7.23688">
        <ele>610.2</ele>
        <time>2021-06-21T09:37:03Z</time>
      </trkpt>
      <trkpt lat="48.2194" lon="7.23692">
        <ele>608.8</ele>
        <time>2021-06-21T09:37:04Z</time>
      </trkpt>
      <trkpt lat="48.21932" lon="7.23694">
        <ele>608.2</ele>
        <time>2021-06-21T09:37:05Z</time>
      </trkpt>
      <trkpt lat="48.21925" lon="7.23693">
        <ele>607.4</ele>
        <time>2021-06-21T09:37:06Z</time>
      </trkpt>
      <trkpt lat="48.21921" lon="7.23687">
        <ele>607</ele>
        <time>2021-06-21T09:37:07Z</time>
      </trkpt>
      <trkpt lat="48.21922" lon="7.23678">
        <ele>605.8</ele>
        <time>2021-06-21T09:37:08Z</time>
      </trkpt>
      <trkpt lat="48.21924" lon="7.23671">
        <ele>605.4</ele>
        <time>2021-06-21T09:37:09Z</time>
      </trkpt>
      <trkpt lat="48.21929" lon="7.23666">
        <ele>604.2</ele>
        <time>2021-06-21T09:37:10Z</time>
      </trkpt>
      <trkpt lat="48.21934" lon="7.23664">
        <ele>603.8</ele>
        <time>2021-06-21T09:37:11Z</time>
      </trkpt>
      <trkpt lat="48.21949" lon="7.23662">
        <ele>603</ele>
        <time>2021-06-21T09:37:13Z</time>
      </trkpt>
      <trkpt lat="48.21956" lon="7.23656">
        <ele>602.6</ele>
        <time>2021-06-21T09:37:14Z</time>
      </trkpt>
      <trkpt lat="48.21962" lon="7.23649">
        <ele>602.2</ele>
        <time>2021-06-21T09:37:15Z</time>
      </trkpt>
      <trkpt lat="48.21972" lon="7.23628">
        <ele>601.4</ele>
        <time>2021-06-21T09:37:17Z</time>
      </trkpt>
      <trkpt lat="48.21975" lon="7.23607">
        <ele>600.6</ele>
        <time>2021-06-21T09:37:19Z</time>
      </trkpt>
      <trkpt lat="48.2197" lon="7.236">
        <ele>599.8</ele>
        <time>2021-06-21T09:37:20Z</time>
      </trkpt>
      <trkpt lat="48.21955" lon="7.23597">
        <ele>599</ele>
        <time>2021-06-21T09:37:22Z</time>
      </trkpt>
      <trkpt lat="48.21948" lon="7.23597">
        <ele>598.8</ele>
        <time>2021-06-21T09:37:23Z</time>
      </trkpt>
      <trkpt lat="48.21934" lon="7.23599">
        <ele>597.6</ele>
        <time>2021-06-21T09:37:25Z</time>
      </trkpt>
      <trkpt lat="48.21913" lon="7.23598">
        <ele>596.6</ele>
        <time>2021-06-21T09:37:27Z</time>
      </trkpt>
      <trkpt lat="48.21892" lon="7.23596">
        <ele>594.8</ele>
        <time>2021-06-21T09:37:29Z</time>
      </trkpt>
      <trkpt lat="48.2188" lon="7.23598">
        <ele>594.2</ele>
        <time>2021-06-21T09:37:30Z</time>
      </trkpt>
      <trkpt lat="48.2187" lon="7.23601">
        <ele>592.6</ele>
        <time>2021-06-21T09:37:31Z</time>
      </trkpt>
      <trkpt lat="48.21849" lon="7.2361">
        <ele>591.2</ele>
        <time>2021-06-21T09:37:33Z</time>
      </trkpt>
      <trkpt lat="48.21842" lon="7.23617">
        <ele>590.8</ele>
        <time>2021-06-21T09:37:34Z</time>
      </trkpt>
      <trkpt lat="48.21825" lon="7.23637">
        <ele>588.6</ele>
        <time>2021-06-21T09:37:36Z</time>
      </trkpt>
      <trkpt lat="48.21808" lon="7.23664">
        <ele>587.2</ele>
        <time>2021-06-21T09:37:38Z</time>
      </trkpt>
      <trkpt lat="48.21795" lon="7.23685">
        <ele>585.6</ele>
        <time>2021-06-21T09:37:40Z</time>
      </trkpt>
      <trkpt lat="48.21779" lon="7.23712">
        <ele>584.4</ele>
        <time>2021-06-21T09:37:42Z</time>
      </trkpt>
      <trkpt lat="48.21773" lon="7.23726">
        <ele>584</ele>
        <time>2021-06-21T09:37:43Z</time>
      </trkpt>
      <trkpt lat="48.21767" lon="7.23738">
        <ele>583.2</ele>
        <time>2021-06-21T09:37:44Z</time>
      </trkpt>
      <trkpt lat="48.2176" lon="7.2375">
        <ele>582.2</ele>
        <time>2021-06-21T09:37:45Z</time>
      </trkpt>
      <trkpt lat="48.21751" lon="7.23764">
        <ele>581.8</ele>
        <time>2021-06-21T09:37:46Z</time>
      </trkpt>
      <trkpt lat="48.21737" lon="7.23789">
        <ele>580.6</ele>
        <time>2021-06-21T09:37:48Z</time>
      </trkpt>
      <trkpt lat="48.21721" lon="7.23817">
        <ele>579.2</ele>
        <time>2021-06-21T09:37:50Z</time>
      </trkpt>
      <trkpt lat="48.21713" lon="7.23831">
        <ele>578.4</ele>
        <time>2021-06-21T09:37:51Z</time>
      </trkpt>
      <trkpt lat="48.21702" lon="7.23844">
        <ele>577.6</ele>
        <time>2021-06-21T09:37:52Z</time>
      </trkpt>
      <trkpt lat="48.21693" lon="7.23853">
        <ele>577.2</ele>
        <time>2021-06-21T09:37:53Z</time>
      </trkpt>
      <trkpt lat="48.21685" lon="7.23861">
        <ele>575.8</ele>
        <time>2021-06-21T09:37:54Z</time>
      </trkpt>
      <trkpt lat="48.21673" lon="7.23874">
        <ele>575.6</ele>
        <time>2021-06-21T09:37:55Z</time>
      </trkpt>
      <trkpt lat="48.21652" lon="7.23892">
        <ele>574.6</ele>
        <time>2021-06-21T09:37:57Z</time>
      </trkpt>
      <trkpt lat="48.2164" lon="7.239">
        <ele>573.2</ele>
        <time>2021-06-21T09:37:58Z</time>
      </trkpt>
      <trkpt lat="48.2163" lon="7.23906">
        <ele>571.6</ele>
        <time>2021-06-21T09:37:59Z</time>
      </trkpt>
      <trkpt lat="48.21604" lon="7.23922">
        <ele>569.6</ele>
        <time>2021-06-21T09:38:01Z</time>
      </trkpt>
      <trkpt lat="48.21593" lon="7.23927">
        <ele>568.8</ele>
        <time>2021-06-21T09:38:02Z</time>
      </trkpt>
      <trkpt lat="48.21582" lon="7.23929">
        <ele>568</ele>
        <time>2021-06-21T09:38:03Z</time>
      </trkpt>
      <trkpt lat="48.21559" lon="7.23927">
        <ele>566.4</ele>
        <time>2021-06-21T09:38:05Z</time>
      </trkpt>
      <trkpt lat="48.21538" lon="7.23913">
        <ele>564.4</ele>
        <time>2021-06-21T09:38:07Z</time>
      </trkpt>
      <trkpt lat="48.21528" lon="7.23902">
        <ele>562.8</ele>
        <time>2021-06-21T09:38:08Z</time>
      </trkpt>
      <trkpt lat="48.21511" lon="7.2388">
        <ele>560.8</ele>
        <time>2021-06-21T09:38:10Z</time>
      </trkpt>
      <trkpt lat="48.21493" lon="7.23859">
        <ele>560</ele>
        <time>2021-06-21T09:38:12Z</time>
      </trkpt>
      <trkpt lat="48.21484" lon="7.23849">
        <ele>559.6</ele>
        <time>2021-06-21T09:38:13Z</time>
      </trkpt>
      <trkpt lat="48.21467" lon="7.23834">
        <ele>558.2</ele>
        <time>2021-06-21T09:38:15Z</time>
      </trkpt>
      <trkpt lat="48.21459" lon="7.23826">
        <ele>558</ele>
        <time>2021-06-21T09:38:16Z</time>
      </trkpt>
      <trkpt lat="48.21444" lon="7.23812">
        <ele>557.4</ele>
        <time>2021-06-21T09:38:18Z</time>
      </trkpt>
      <trkpt lat="48.21438" lon="7.2381">
        <ele>556.2</ele>
        <time>2021-06-21T09:38:19Z</time>
      </trkpt>
      <trkpt lat="48.21434" lon="7.23813">
        <ele>555.8</ele>
        <time>2021-06-21T09:38:20Z</time>
      </trkpt>
      <trkpt lat="48.21432" lon="7.23818">
        <ele>555</ele>
        <time>2021-06-21T09:38:21Z</time>
      </trkpt>
      <trkpt lat="48.21433" lon="7.23826">
        <ele>555.2</ele>
        <time>2021-06-21T09:38:22Z</time>
      </trkpt>
      <trkpt lat="48.21439" lon="7.23832">
        <ele>554.4</ele>
        <time>2021-06-21T09:38:23Z</time>
      </trkpt>
      <trkpt lat="48.21442" lon="7.23835">
        <ele>554.2</ele>
        <time>2021-06-21T09:38:24Z</time>
      </trkpt>
      <trkpt lat="48.21448" lon="7.23839">
        <ele>553.8</ele>
        <time>2021-06-21T09:38:25Z</time>
      </trkpt>
      <trkpt lat="48.21453" lon="7.23844">
        <ele>553.2</ele>
        <time>2021-06-21T09:38:26Z</time>
      </trkpt>
      <trkpt lat="48.21457" lon="7.23851">
        <ele>553</ele>
        <time>2021-06-21T09:38:27Z</time>
      </trkpt>
      <trkpt lat="48.2146" lon="7.23858">
        <ele>552.4</ele>
        <time>2021-06-21T09:38:28Z</time>
      </trkpt>
      <trkpt lat="48.21458" lon="7.23865">
        <ele>552.2</ele>
        <time>2021-06-21T09:38:29Z</time>
      </trkpt>
      <trkpt lat="48.21447" lon="7.23865">
        <ele>551.4</ele>
        <time>2021-06-21T09:38:31Z</time>
      </trkpt>
      <trkpt lat="48.21423" lon="7.23847">
        <ele>549.8</ele>
        <time>2021-06-21T09:38:35Z</time>
      </trkpt>
      <trkpt lat="48.21417" lon="7.23844">
        <ele>549.6</ele>
        <time>2021-06-21T09:38:36Z</time>
      </trkpt>
      <trkpt lat="48.21408" lon="7.23842">
        <ele>548.8</ele>
        <time>2021-06-21T09:38:37Z</time>
      </trkpt>
      <trkpt lat="48.21402" lon="7.23842">
        <ele>548.6</ele>
        <time>2021-06-21T09:38:38Z</time>
      </trkpt>
      <trkpt lat="48.21394" lon="7.23842">
        <ele>547.6</ele>
        <time>2021-06-21T09:38:39Z</time>
      </trkpt>
      <trkpt lat="48.21387" lon="7.23845">
        <ele>547.2</ele>
        <time>2021-06-21T09:38:40Z</time>
      </trkpt>
      <trkpt lat="48.2138" lon="7.23848">
        <ele>546.8</ele>
        <time>2021-06-21T09:38:41Z</time>
      </trkpt>
      <trkpt lat="48.21372" lon="7.23853">
        <ele>546</ele>
        <time>2021-06-21T09:38:42Z</time>
      </trkpt>
      <trkpt lat="48.21366" lon="7.2386">
        <ele>545.8</ele>
        <time>2021-06-21T09:38:43Z</time>
      </trkpt>
      <trkpt lat="48.21357" lon="7.23875">
        <ele>544.8</ele>
        <time>2021-06-21T09:38:45Z</time>
      </trkpt>
      <trkpt lat="48.21351" lon="7.23888">
        <ele>543.8</ele>
        <time>2021-06-21T09:38:46Z</time>
      </trkpt>
      <trkpt lat="48.21346" lon="7.23902">
        <ele>543.2</ele>
        <time>2021-06-21T09:38:47Z</time>
      </trkpt>
      <trkpt lat="48.21335" lon="7.2393">
        <ele>542</ele>
        <time>2021-06-21T09:38:49Z</time>
      </trkpt>
      <trkpt lat="48.21327" lon="7.23963">
        <ele>540</ele>
        <time>2021-06-21T09:38:51Z</time>
      </trkpt>
      <trkpt lat="48.21323" lon="7.23975">
        <ele>539.4</ele>
        <time>2021-06-21T09:38:52Z</time>
      </trkpt>
      <trkpt lat="48.21316" lon="7.2399">
        <ele>538.8</ele>
        <time>2021-06-21T09:38:53Z</time>
      </trkpt>
      <trkpt lat="48.21311" lon="7.23998">
        <ele>538</ele>
        <time>2021-06-21T09:38:54Z</time>
      </trkpt>
      <trkpt lat="48.21305" lon="7.24007">
        <ele>536.8</ele>
        <time>2021-06-21T09:38:55Z</time>
      </trkpt>
      <trkpt lat="48.21301" lon="7.24014">
        <ele>535.4</ele>
        <time>2021-06-21T09:38:56Z</time>
      </trkpt>
      <trkpt lat="48.21301" lon="7.24022">
        <ele>535</ele>
        <time>2021-06-21T09:38:57Z</time>
      </trkpt>
      <trkpt lat="48.21303" lon="7.24028">
        <ele>534.2</ele>
        <time>2021-06-21T09:38:58Z</time>
      </trkpt>
      <trkpt lat="48.21306" lon="7.24033">
        <ele>534</ele>
        <time>2021-06-21T09:38:59Z</time>
      </trkpt>
      <trkpt lat="48.21315" lon="7.24037">
        <ele>532.8</ele>
        <time>2021-06-21T09:39:01Z</time>
      </trkpt>
      <trkpt lat="48.21322" lon="7.24034">
        <ele>532</ele>
        <time>2021-06-21T09:39:02Z</time>
      </trkpt>
      <trkpt lat="48.21328" lon="7.2403">
        <ele>531.4</ele>
        <time>2021-06-21T09:39:03Z</time>
      </trkpt>
      <trkpt lat="48.21338" lon="7.24027">
        <ele>531</ele>
        <time>2021-06-21T09:39:05Z</time>
      </trkpt>
      <trkpt lat="48.21347" lon="7.24038">
        <ele>530.6</ele>
        <time>2021-06-21T09:39:07Z</time>
      </trkpt>
      <trkpt lat="48.21344" lon="7.24049">
        <ele>530</ele>
        <time>2021-06-21T09:39:08Z</time>
      </trkpt>
      <trkpt lat="48.21341" lon="7.24059">
        <ele>529.2</ele>
        <time>2021-06-21T09:39:09Z</time>
      </trkpt>
      <trkpt lat="48.21336" lon="7.24068">
        <ele>529.2</ele>
        <time>2021-06-21T09:39:10Z</time>
      </trkpt>
      <trkpt lat="48.21328" lon="7.24077">
        <ele>528.2</ele>
        <time>2021-06-21T09:39:11Z</time>
      </trkpt>
      <trkpt lat="48.21303" lon="7.24093">
        <ele>526.2</ele>
        <time>2021-06-21T09:39:14Z</time>
      </trkpt>
      <trkpt lat="48.21286" lon="7.24105">
        <ele>525.2</ele>
        <time>2021-06-21T09:39:16Z</time>
      </trkpt>
      <trkpt lat="48.21272" lon="7.24119">
        <ele>523.8</ele>
        <time>2021-06-21T09:39:18Z</time>
      </trkpt>
      <trkpt lat="48.21265" lon="7.24129">
        <ele>523</ele>
        <time>2021-06-21T09:39:19Z</time>
      </trkpt>
      <trkpt lat="48.21255" lon="7.24141">
        <ele>522.2</ele>
        <time>2021-06-21T09:39:20Z</time>
      </trkpt>
      <trkpt lat="48.2124" lon="7.24163">
        <ele>521.2</ele>
        <time>2021-06-21T09:39:22Z</time>
      </trkpt>
      <trkpt lat="48.2123" lon="7.24178">
        <ele>519.8</ele>
        <time>2021-06-21T09:39:23Z</time>
      </trkpt>
      <trkpt lat="48.21213" lon="7.24198">
        <ele>517.2</ele>
        <time>2021-06-21T09:39:25Z</time>
      </trkpt>
      <trkpt lat="48.21201" lon="7.24208">
        <ele>516.2</ele>
        <time>2021-06-21T09:39:26Z</time>
      </trkpt>
      <trkpt lat="48.2119" lon="7.24215">
        <ele>514.4</ele>
        <time>2021-06-21T09:39:27Z</time>
      </trkpt>
      <trkpt lat="48.21182" lon="7.24221">
        <ele>513</ele>
        <time>2021-06-21T09:39:28Z</time>
      </trkpt>
      <trkpt lat="48.21156" lon="7.24237">
        <ele>510.8</ele>
        <time>2021-06-21T09:39:30Z</time>
      </trkpt>
      <trkpt lat="48.21144" lon="7.24244">
        <ele>509.8</ele>
        <time>2021-06-21T09:39:31Z</time>
      </trkpt>
      <trkpt lat="48.21131" lon="7.24251">
        <ele>507.4</ele>
        <time>2021-06-21T09:39:32Z</time>
      </trkpt>
      <trkpt lat="48.21112" lon="7.24265">
        <ele>503.8</ele>
        <time>2021-06-21T09:39:34Z</time>
      </trkpt>
      <trkpt lat="48.211" lon="7.24276">
        <ele>502.4</ele>
        <time>2021-06-21T09:39:35Z</time>
      </trkpt>
      <trkpt lat="48.2109" lon="7.24289">
        <ele>501.2</ele>
        <time>2021-06-21T09:39:36Z</time>
      </trkpt>
      <trkpt lat="48.21082" lon="7.24304">
        <ele>500.4</ele>
        <time>2021-06-21T09:39:37Z</time>
      </trkpt>
      <trkpt lat="48.21078" lon="7.24317">
        <ele>499.2</ele>
        <time>2021-06-21T09:39:38Z</time>
      </trkpt>
      <trkpt lat="48.21073" lon="7.24335">
        <ele>497.6</ele>
        <time>2021-06-21T09:39:39Z</time>
      </trkpt>
      <trkpt lat="48.21062" lon="7.24375">
        <ele>495</ele>
        <time>2021-06-21T09:39:42Z</time>
      </trkpt>
      <trkpt lat="48.21051" lon="7.2441">
        <ele>492.8</ele>
        <time>2021-06-21T09:39:44Z</time>
      </trkpt>
      <trkpt lat="48.21044" lon="7.24426">
        <ele>491.6</ele>
        <time>2021-06-21T09:39:45Z</time>
      </trkpt>
      <trkpt lat="48.21037" lon="7.24442">
        <ele>490.2</ele>
        <time>2021-06-21T09:39:46Z</time>
      </trkpt>
      <trkpt lat="48.21025" lon="7.24475">
        <ele>488.8</ele>
        <time>2021-06-21T09:39:48Z</time>
      </trkpt>
      <trkpt lat="48.21018" lon="7.24491">
        <ele>487.2</ele>
        <time>2021-06-21T09:39:49Z</time>
      </trkpt>
      <trkpt lat="48.21005" lon="7.24522">
        <ele>484.8</ele>
        <time>2021-06-21T09:39:51Z</time>
      </trkpt>
      <trkpt lat="48.20995" lon="7.24555">
        <ele>482.4</ele>
        <time>2021-06-21T09:39:53Z</time>
      </trkpt>
      <trkpt lat="48.20986" lon="7.24587">
        <ele>481</ele>
        <time>2021-06-21T09:39:55Z</time>
      </trkpt>
      <trkpt lat="48.20971" lon="7.24637">
        <ele>479.8</ele>
        <time>2021-06-21T09:39:58Z</time>
      </trkpt>
      <trkpt lat="48.20963" lon="7.24668">
        <ele>478.6</ele>
        <time>2021-06-21T09:40:00Z</time>
      </trkpt>
      <trkpt lat="48.20963" lon="7.24684">
        <ele>478.2</ele>
        <time>2021-06-21T09:40:01Z</time>
      </trkpt>
      <trkpt lat="48.20964" lon="7.247">
        <ele>476.6</ele>
        <time>2021-06-21T09:40:02Z</time>
      </trkpt>
      <trkpt lat="48.20966" lon="7.24717">
        <ele>475.6</ele>
        <time>2021-06-21T09:40:03Z</time>
      </trkpt>
      <trkpt lat="48.20968" lon="7.2473">
        <ele>475</ele>
        <time>2021-06-21T09:40:04Z</time>
      </trkpt>
      <trkpt lat="48.20971" lon="7.24748">
        <ele>474.2</ele>
        <time>2021-06-21T09:40:05Z</time>
      </trkpt>
      <trkpt lat="48.20975" lon="7.24768">
        <ele>472.4</ele>
        <time>2021-06-21T09:40:07Z</time>
      </trkpt>
      <trkpt lat="48.20976" lon="7.24785">
        <ele>471.6</ele>
        <time>2021-06-21T09:40:09Z</time>
      </trkpt>
      <trkpt lat="48.20975" lon="7.24793">
        <ele>471.4</ele>
        <time>2021-06-21T09:40:10Z</time>
      </trkpt>
      <trkpt lat="48.20973" lon="7.248">
        <ele>471</ele>
        <time>2021-06-21T09:40:11Z</time>
      </trkpt>
      <trkpt lat="48.2097" lon="7.24805">
        <ele>469.2</ele>
        <time>2021-06-21T09:40:14Z</time>
      </trkpt>
      <trkpt lat="48.20969" lon="7.2479">
        <ele>468</ele>
        <time>2021-06-21T09:40:16Z</time>
      </trkpt>
      <trkpt lat="48.2097" lon="7.24774">
        <ele>467.6</ele>
        <time>2021-06-21T09:40:18Z</time>
      </trkpt>
      <trkpt lat="48.20971" lon="7.24743">
        <ele>467.2</ele>
        <time>2021-06-21T09:40:22Z</time>
      </trkpt>
      <trkpt lat="48.20969" lon="7.24736">
        <ele>467.2</ele>
        <time>2021-06-21T09:40:23Z</time>
      </trkpt>
      <trkpt lat="48.20967" lon="7.24731">
        <ele>467</ele>
        <time>2021-06-21T09:40:24Z</time>
      </trkpt>
      <trkpt lat="48.20964" lon="7.24725">
        <ele>466.8</ele>
        <time>2021-06-21T09:40:25Z</time>
      </trkpt>
      <trkpt lat="48.20959" lon="7.24722">
        <ele>466.6</ele>
        <time>2021-06-21T09:40:26Z</time>
      </trkpt>
      <trkpt lat="48.2095" lon="7.24723">
        <ele>465.8</ele>
        <time>2021-06-21T09:40:28Z</time>
      </trkpt>
      <trkpt lat="48.20946" lon="7.24728">
        <ele>465.6</ele>
        <time>2021-06-21T09:40:29Z</time>
      </trkpt>
      <trkpt lat="48.20944" lon="7.24733">
        <ele>465.6</ele>
        <time>2021-06-21T09:40:30Z</time>
      </trkpt>
      <trkpt lat="48.20942" lon="7.24748">
        <ele>465.4</ele>
        <time>2021-06-21T09:40:32Z</time>
      </trkpt>
      <trkpt lat="48.20944" lon="7.24773">
        <ele>465.4</ele>
        <time>2021-06-21T09:40:35Z</time>
      </trkpt>
      <trkpt lat="48.20945" lon="7.24782">
        <ele>465</ele>
        <time>2021-06-21T09:40:36Z</time>
      </trkpt>
      <trkpt lat="48.20947" lon="7.24791">
        <ele>464.8</ele>
        <time>2021-06-21T09:40:37Z</time>
      </trkpt>
      <trkpt lat="48.20949" lon="7.24799">
        <ele>464.6</ele>
        <time>2021-06-21T09:40:38Z</time>
      </trkpt>
      <trkpt lat="48.20952" lon="7.2481">
        <ele>464.4</ele>
        <time>2021-06-21T09:40:39Z</time>
      </trkpt>
      <trkpt lat="48.20954" lon="7.24817">
        <ele>464.2</ele>
        <time>2021-06-21T09:40:40Z</time>
      </trkpt>
      <trkpt lat="48.20959" lon="7.24832">
        <ele>463.6</ele>
        <time>2021-06-21T09:40:42Z</time>
      </trkpt>
      <trkpt lat="48.20969" lon="7.24853">
        <ele>462</ele>
        <time>2021-06-21T09:40:45Z</time>
      </trkpt>
      <trkpt lat="48.20972" lon="7.2486">
        <ele>461.4</ele>
        <time>2021-06-21T09:40:46Z</time>
      </trkpt>
      <trkpt lat="48.20979" lon="7.24871">
        <ele>460.6</ele>
        <time>2021-06-21T09:40:48Z</time>
      </trkpt>
      <trkpt lat="48.20982" lon="7.24876">
        <ele>460.4</ele>
        <time>2021-06-21T09:40:49Z</time>
      </trkpt>
      <trkpt lat="48.20986" lon="7.24891">
        <ele>460</ele>
        <time>2021-06-21T09:40:51Z</time>
      </trkpt>
      <trkpt lat="48.20989" lon="7.2491">
        <ele>459.8</ele>
        <time>2021-06-21T09:40:53Z</time>
      </trkpt>
      <trkpt lat="48.20996" lon="7.24937">
        <ele>459.4</ele>
        <time>2021-06-21T09:40:55Z</time>
      </trkpt>
      <trkpt lat="48.21" lon="7.24951">
        <ele>459</ele>
        <time>2021-06-21T09:40:56Z</time>
      </trkpt>
      <trkpt lat="48.21004" lon="7.24965">
        <ele>458</ele>
        <time>2021-06-21T09:40:57Z</time>
      </trkpt>
      <trkpt lat="48.21012" lon="7.24995">
        <ele>456.2</ele>
        <time>2021-06-21T09:40:59Z</time>
      </trkpt>
      <trkpt lat="48.21018" lon="7.25023">
        <ele>455.2</ele>
        <time>2021-06-21T09:41:01Z</time>
      </trkpt>
      <trkpt lat="48.2102" lon="7.25037">
        <ele>454.2</ele>
        <time>2021-06-21T09:41:02Z</time>
      </trkpt>
      <trkpt lat="48.21021" lon="7.25051">
        <ele>453.8</ele>
        <time>2021-06-21T09:41:03Z</time>
      </trkpt>
      <trkpt lat="48.21022" lon="7.25065">
        <ele>452.8</ele>
        <time>2021-06-21T09:41:04Z</time>
      </trkpt>
      <trkpt lat="48.21022" lon="7.25078">
        <ele>452.4</ele>
        <time>2021-06-21T09:41:05Z</time>
      </trkpt>
      <trkpt lat="48.2102" lon="7.25092">
        <ele>451.4</ele>
        <time>2021-06-21T09:41:06Z</time>
      </trkpt>
      <trkpt lat="48.21017" lon="7.25106">
        <ele>451</ele>
        <time>2021-06-21T09:41:07Z</time>
      </trkpt>
      <trkpt lat="48.21013" lon="7.2512">
        <ele>450.4</ele>
        <time>2021-06-21T09:41:08Z</time>
      </trkpt>
      <trkpt lat="48.21005" lon="7.25145">
        <ele>448.8</ele>
        <time>2021-06-21T09:41:10Z</time>
      </trkpt>
      <trkpt lat="48.20996" lon="7.25173">
        <ele>447.6</ele>
        <time>2021-06-21T09:41:12Z</time>
      </trkpt>
      <trkpt lat="48.20991" lon="7.25188">
        <ele>446.4</ele>
        <time>2021-06-21T09:41:13Z</time>
      </trkpt>
      <trkpt lat="48.20986" lon="7.25205">
        <ele>446</ele>
        <time>2021-06-21T09:41:14Z</time>
      </trkpt>
      <trkpt lat="48.20982" lon="7.25216">
        <ele>445</ele>
        <time>2021-06-21T09:41:15Z</time>
      </trkpt>
      <trkpt lat="48.20972" lon="7.25244">
        <ele>443.4</ele>
        <time>2021-06-21T09:41:17Z</time>
      </trkpt>
      <trkpt lat="48.20967" lon="7.25258">
        <ele>442.2</ele>
        <time>2021-06-21T09:41:18Z</time>
      </trkpt>
      <trkpt lat="48.20951" lon="7.25304">
        <ele>441</ele>
        <time>2021-06-21T09:41:21Z</time>
      </trkpt>
      <trkpt lat="48.20941" lon="7.2533">
        <ele>439.6</ele>
        <time>2021-06-21T09:41:23Z</time>
      </trkpt>
      <trkpt lat="48.20934" lon="7.25347">
        <ele>438.8</ele>
        <time>2021-06-21T09:41:24Z</time>
      </trkpt>
      <trkpt lat="48.20928" lon="7.25361">
        <ele>438.4</ele>
        <time>2021-06-21T09:41:25Z</time>
      </trkpt>
      <trkpt lat="48.20922" lon="7.25375">
        <ele>437.2</ele>
        <time>2021-06-21T09:41:26Z</time>
      </trkpt>
      <trkpt lat="48.20912" lon="7.25401">
        <ele>435.8</ele>
        <time>2021-06-21T09:41:28Z</time>
      </trkpt>
      <trkpt lat="48.209" lon="7.25429">
        <ele>434.8</ele>
        <time>2021-06-21T09:41:30Z</time>
      </trkpt>
      <trkpt lat="48.20893" lon="7.25441">
        <ele>434</ele>
        <time>2021-06-21T09:41:31Z</time>
      </trkpt>
      <trkpt lat="48.20885" lon="7.2545">
        <ele>433.6</ele>
        <time>2021-06-21T09:41:32Z</time>
      </trkpt>
      <trkpt lat="48.20874" lon="7.25455">
        <ele>432.6</ele>
        <time>2021-06-21T09:41:33Z</time>
      </trkpt>
      <trkpt lat="48.20863" lon="7.25459">
        <ele>431</ele>
        <time>2021-06-21T09:41:34Z</time>
      </trkpt>
      <trkpt lat="48.2085" lon="7.25461">
        <ele>430.4</ele>
        <time>2021-06-21T09:41:35Z</time>
      </trkpt>
      <trkpt lat="48.20839" lon="7.25461">
        <ele>429.6</ele>
        <time>2021-06-21T09:41:36Z</time>
      </trkpt>
      <trkpt lat="48.20829" lon="7.25463">
        <ele>429.4</ele>
        <time>2021-06-21T09:41:37Z</time>
      </trkpt>
      <trkpt lat="48.20807" lon="7.25471">
        <ele>428.2</ele>
        <time>2021-06-21T09:41:39Z</time>
      </trkpt>
      <trkpt lat="48.20785" lon="7.25482">
        <ele>427.2</ele>
        <time>2021-06-21T09:41:41Z</time>
      </trkpt>
      <trkpt lat="48.20777" lon="7.2549">
        <ele>426</ele>
        <time>2021-06-21T09:41:42Z</time>
      </trkpt>
      <trkpt lat="48.20759" lon="7.25506">
        <ele>424.6</ele>
        <time>2021-06-21T09:41:44Z</time>
      </trkpt>
      <trkpt lat="48.20731" lon="7.25527">
        <ele>422.8</ele>
        <time>2021-06-21T09:41:47Z</time>
      </trkpt>
      <trkpt lat="48.20711" lon="7.2554">
        <ele>421.6</ele>
        <time>2021-06-21T09:41:49Z</time>
      </trkpt>
      <trkpt lat="48.20702" lon="7.25546">
        <ele>421</ele>
        <time>2021-06-21T09:41:50Z</time>
      </trkpt>
      <trkpt lat="48.20692" lon="7.25552">
        <ele>420.2</ele>
        <time>2021-06-21T09:41:51Z</time>
      </trkpt>
      <trkpt lat="48.20665" lon="7.25571">
        <ele>418.8</ele>
        <time>2021-06-21T09:41:54Z</time>
      </trkpt>
      <trkpt lat="48.20638" lon="7.25594">
        <ele>417.6</ele>
        <time>2021-06-21T09:41:57Z</time>
      </trkpt>
      <trkpt lat="48.20622" lon="7.25613">
        <ele>416.2</ele>
        <time>2021-06-21T09:41:59Z</time>
      </trkpt>
      <trkpt lat="48.20608" lon="7.25636">
        <ele>415</ele>
        <time>2021-06-21T09:42:01Z</time>
      </trkpt>
      <trkpt lat="48.20593" lon="7.25658">
        <ele>414</ele>
        <time>2021-06-21T09:42:03Z</time>
      </trkpt>
      <trkpt lat="48.20586" lon="7.25668">
        <ele>414</ele>
        <time>2021-06-21T09:42:04Z</time>
      </trkpt>
      <trkpt lat="48.20579" lon="7.2568">
        <ele>413.4</ele>
        <time>2021-06-21T09:42:05Z</time>
      </trkpt>
      <trkpt lat="48.20573" lon="7.25692">
        <ele>412.6</ele>
        <time>2021-06-21T09:42:06Z</time>
      </trkpt>
      <trkpt lat="48.2057" lon="7.25707">
        <ele>411.2</ele>
        <time>2021-06-21T09:42:07Z</time>
      </trkpt>
      <trkpt lat="48.20566" lon="7.25737">
        <ele>410</ele>
        <time>2021-06-21T09:42:09Z</time>
      </trkpt>
      <trkpt lat="48.20565" lon="7.25753">
        <ele>409.2</ele>
        <time>2021-06-21T09:42:10Z</time>
      </trkpt>
      <trkpt lat="48.20564" lon="7.25769">
        <ele>408.8</ele>
        <time>2021-06-21T09:42:11Z</time>
      </trkpt>
      <trkpt lat="48.20561" lon="7.25814">
        <ele>406.8</ele>
        <time>2021-06-21T09:42:14Z</time>
      </trkpt>
      <trkpt lat="48.2056" lon="7.25829">
        <ele>406.4</ele>
        <time>2021-06-21T09:42:15Z</time>
      </trkpt>
      <trkpt lat="48.20557" lon="7.25857">
        <ele>405.4</ele>
        <time>2021-06-21T09:42:17Z</time>
      </trkpt>
      <trkpt lat="48.20551" lon="7.25883">
        <ele>404.2</ele>
        <time>2021-06-21T09:42:19Z</time>
      </trkpt>
      <trkpt lat="48.20547" lon="7.25896">
        <ele>403.8</ele>
        <time>2021-06-21T09:42:20Z</time>
      </trkpt>
      <trkpt lat="48.20539" lon="7.25919">
        <ele>403</ele>
        <time>2021-06-21T09:42:22Z</time>
      </trkpt>
      <trkpt lat="48.20527" lon="7.25951">
        <ele>402</ele>
        <time>2021-06-21T09:42:25Z</time>
      </trkpt>
      <trkpt lat="48.20516" lon="7.26">
        <ele>400.8</ele>
        <time>2021-06-21T09:42:29Z</time>
      </trkpt>
      <trkpt lat="48.20513" lon="7.26013">
        <ele>400.4</ele>
        <time>2021-06-21T09:42:30Z</time>
      </trkpt>
      <trkpt lat="48.2051" lon="7.26026">
        <ele>400</ele>
        <time>2021-06-21T09:42:31Z</time>
      </trkpt>
      <trkpt lat="48.20505" lon="7.26038">
        <ele>399.6</ele>
        <time>2021-06-21T09:42:32Z</time>
      </trkpt>
      <trkpt lat="48.20496" lon="7.26061">
        <ele>398.6</ele>
        <time>2021-06-21T09:42:34Z</time>
      </trkpt>
      <trkpt lat="48.2049" lon="7.26072">
        <ele>397.8</ele>
        <time>2021-06-21T09:42:35Z</time>
      </trkpt>
      <trkpt lat="48.20479" lon="7.26093">
        <ele>396.6</ele>
        <time>2021-06-21T09:42:37Z</time>
      </trkpt>
      <trkpt lat="48.20469" lon="7.26115">
        <ele>395.6</ele>
        <time>2021-06-21T09:42:39Z</time>
      </trkpt>
      <trkpt lat="48.20464" lon="7.26127">
        <ele>395.4</ele>
        <time>2021-06-21T09:42:40Z</time>
      </trkpt>
      <trkpt lat="48.2046" lon="7.26139">
        <ele>394.6</ele>
        <time>2021-06-21T09:42:41Z</time>
      </trkpt>
      <trkpt lat="48.20458" lon="7.2615">
        <ele>394.2</ele>
        <time>2021-06-21T09:42:42Z</time>
      </trkpt>
      <trkpt lat="48.20456" lon="7.26165">
        <ele>394</ele>
        <time>2021-06-21T09:42:43Z</time>
      </trkpt>
      <trkpt lat="48.20454" lon="7.26196">
        <ele>393.4</ele>
        <time>2021-06-21T09:42:45Z</time>
      </trkpt>
      <trkpt lat="48.20455" lon="7.2621">
        <ele>392.8</ele>
        <time>2021-06-21T09:42:46Z</time>
      </trkpt>
      <trkpt lat="48.20456" lon="7.26221">
        <ele>392.6</ele>
        <time>2021-06-21T09:42:47Z</time>
      </trkpt>
      <trkpt lat="48.20457" lon="7.26237">
        <ele>391.8</ele>
        <time>2021-06-21T09:42:48Z</time>
      </trkpt>
      <trkpt lat="48.20459" lon="7.26249">
        <ele>391.4</ele>
        <time>2021-06-21T09:42:49Z</time>
      </trkpt>
      <trkpt lat="48.20464" lon="7.26284">
        <ele>390.8</ele>
        <time>2021-06-21T09:42:52Z</time>
      </trkpt>
      <trkpt lat="48.20467" lon="7.26312">
        <ele>390.2</ele>
        <time>2021-06-21T09:42:54Z</time>
      </trkpt>
      <trkpt lat="48.20467" lon="7.26325">
        <ele>389.6</ele>
        <time>2021-06-21T09:42:55Z</time>
      </trkpt>
      <trkpt lat="48.20466" lon="7.26349">
        <ele>389</ele>
        <time>2021-06-21T09:42:57Z</time>
      </trkpt>
      <trkpt lat="48.20462" lon="7.26385">
        <ele>388.2</ele>
        <time>2021-06-21T09:43:00Z</time>
      </trkpt>
      <trkpt lat="48.2046" lon="7.26396">
        <ele>388</ele>
        <time>2021-06-21T09:43:01Z</time>
      </trkpt>
      <trkpt lat="48.20457" lon="7.26408">
        <ele>387.6</ele>
        <time>2021-06-21T09:43:02Z</time>
      </trkpt>
      <trkpt lat="48.20454" lon="7.2642">
        <ele>387.4</ele>
        <time>2021-06-21T09:43:03Z</time>
      </trkpt>
      <trkpt lat="48.2045" lon="7.26431">
        <ele>386.6</ele>
        <time>2021-06-21T09:43:04Z</time>
      </trkpt>
      <trkpt lat="48.20433" lon="7.26473">
        <ele>385.4</ele>
        <time>2021-06-21T09:43:08Z</time>
      </trkpt>
      <trkpt lat="48.20416" lon="7.26517">
        <ele>384.4</ele>
        <time>2021-06-21T09:43:12Z</time>
      </trkpt>
      <trkpt lat="48.20406" lon="7.26541">
        <ele>383</ele>
        <time>2021-06-21T09:43:14Z</time>
      </trkpt>
      <trkpt lat="48.20393" lon="7.26589">
        <ele>381.8</ele>
        <time>2021-06-21T09:43:18Z</time>
      </trkpt>
      <trkpt lat="48.20389" lon="7.266">
        <ele>381.6</ele>
        <time>2021-06-21T09:43:19Z</time>
      </trkpt>
      <trkpt lat="48.20386" lon="7.26612">
        <ele>381.4</ele>
        <time>2021-06-21T09:43:20Z</time>
      </trkpt>
      <trkpt lat="48.2038" lon="7.26648">
        <ele>380.4</ele>
        <time>2021-06-21T09:43:23Z</time>
      </trkpt>
      <trkpt lat="48.20379" lon="7.26661">
        <ele>380.4</ele>
        <time>2021-06-21T09:43:24Z</time>
      </trkpt>
      <trkpt lat="48.20377" lon="7.26697">
        <ele>379.4</ele>
        <time>2021-06-21T09:43:27Z</time>
      </trkpt>
      <trkpt lat="48.20378" lon="7.26713">
        <ele>379.2</ele>
        <time>2021-06-21T09:43:28Z</time>
      </trkpt>
      <trkpt lat="48.20377" lon="7.26739">
        <ele>378.2</ele>
        <time>2021-06-21T09:43:30Z</time>
      </trkpt>
      <trkpt lat="48.20368" lon="7.26786">
        <ele>377</ele>
        <time>2021-06-21T09:43:34Z</time>
      </trkpt>
      <trkpt lat="48.20364" lon="7.26796">
        <ele>376.8</ele>
        <time>2021-06-21T09:43:35Z</time>
      </trkpt>
      <trkpt lat="48.20354" lon="7.26815">
        <ele>375.8</ele>
        <time>2021-06-21T09:43:37Z</time>
      </trkpt>
      <trkpt lat="48.20339" lon="7.26843">
        <ele>374.8</ele>
        <time>2021-06-21T09:43:40Z</time>
      </trkpt>
      <trkpt lat="48.20334" lon="7.26853">
        <ele>374.2</ele>
        <time>2021-06-21T09:43:41Z</time>
      </trkpt>
      <trkpt lat="48.20318" lon="7.26899">
        <ele>372.8</ele>
        <time>2021-06-21T09:43:45Z</time>
      </trkpt>
      <trkpt lat="48.20306" lon="7.26934">
        <ele>371.6</ele>
        <time>2021-06-21T09:43:48Z</time>
      </trkpt>
      <trkpt lat="48.20295" lon="7.26969">
        <ele>370.6</ele>
        <time>2021-06-21T09:43:51Z</time>
      </trkpt>
      <trkpt lat="48.20293" lon="7.26983">
        <ele>370</ele>
        <time>2021-06-21T09:43:52Z</time>
      </trkpt>
      <trkpt lat="48.20293" lon="7.26997">
        <ele>369.6</ele>
        <time>2021-06-21T09:43:53Z</time>
      </trkpt>
      <trkpt lat="48.20296" lon="7.27014">
        <ele>368.6</ele>
        <time>2021-06-21T09:43:54Z</time>
      </trkpt>
      <trkpt lat="48.203" lon="7.27028">
        <ele>368</ele>
        <time>2021-06-21T09:43:55Z</time>
      </trkpt>
      <trkpt lat="48.20318" lon="7.27082">
        <ele>366.4</ele>
        <time>2021-06-21T09:43:59Z</time>
      </trkpt>
      <trkpt lat="48.20322" lon="7.27096">
        <ele>366</ele>
        <time>2021-06-21T09:44:00Z</time>
      </trkpt>
      <trkpt lat="48.20325" lon="7.27106">
        <ele>365.2</ele>
        <time>2021-06-21T09:44:01Z</time>
      </trkpt>
      <trkpt lat="48.20327" lon="7.2712">
        <ele>364.4</ele>
        <time>2021-06-21T09:44:02Z</time>
      </trkpt>
      <trkpt lat="48.20328" lon="7.27136">
        <ele>364</ele>
        <time>2021-06-21T09:44:03Z</time>
      </trkpt>
      <trkpt lat="48.20327" lon="7.2715">
        <ele>363.4</ele>
        <time>2021-06-21T09:44:04Z</time>
      </trkpt>
      <trkpt lat="48.20325" lon="7.27163">
        <ele>363.2</ele>
        <time>2021-06-21T09:44:05Z</time>
      </trkpt>
      <trkpt lat="48.20323" lon="7.27175">
        <ele>362.6</ele>
        <time>2021-06-21T09:44:06Z</time>
      </trkpt>
      <trkpt lat="48.20317" lon="7.27199">
        <ele>362</ele>
        <time>2021-06-21T09:44:08Z</time>
      </trkpt>
      <trkpt lat="48.20314" lon="7.27222">
        <ele>361.4</ele>
        <time>2021-06-21T09:44:10Z</time>
      </trkpt>
      <trkpt lat="48.20306" lon="7.27271">
        <ele>360.4</ele>
        <time>2021-06-21T09:44:14Z</time>
      </trkpt>
      <trkpt lat="48.20305" lon="7.27283">
        <ele>359.8</ele>
        <time>2021-06-21T09:44:15Z</time>
      </trkpt>
      <trkpt lat="48.20303" lon="7.27337">
        <ele>358.8</ele>
        <time>2021-06-21T09:44:19Z</time>
      </trkpt>
      <trkpt lat="48.20307" lon="7.27379">
        <ele>357.2</ele>
        <time>2021-06-21T09:44:22Z</time>
      </trkpt>
      <trkpt lat="48.2031" lon="7.27393">
        <ele>356.6</ele>
        <time>2021-06-21T09:44:23Z</time>
      </trkpt>
      <trkpt lat="48.20313" lon="7.27407">
        <ele>355.8</ele>
        <time>2021-06-21T09:44:24Z</time>
      </trkpt>
      <trkpt lat="48.20319" lon="7.27434">
        <ele>354.8</ele>
        <time>2021-06-21T09:44:26Z</time>
      </trkpt>
      <trkpt lat="48.20323" lon="7.27475">
        <ele>353.6</ele>
        <time>2021-06-21T09:44:29Z</time>
      </trkpt>
      <trkpt lat="48.20323" lon="7.27514">
        <ele>352.8</ele>
        <time>2021-06-21T09:44:32Z</time>
      </trkpt>
      <trkpt lat="48.20321" lon="7.27526">
        <ele>352.4</ele>
        <time>2021-06-21T09:44:33Z</time>
      </trkpt>
      <trkpt lat="48.20316" lon="7.27563">
        <ele>351.2</ele>
        <time>2021-06-21T09:44:36Z</time>
      </trkpt>
      <trkpt lat="48.20307" lon="7.27597">
        <ele>350.6</ele>
        <time>2021-06-21T09:44:39Z</time>
      </trkpt>
      <trkpt lat="48.20297" lon="7.27617">
        <ele>350</ele>
        <time>2021-06-21T09:44:41Z</time>
      </trkpt>
      <trkpt lat="48.20281" lon="7.27642">
        <ele>348.8</ele>
        <time>2021-06-21T09:44:44Z</time>
      </trkpt>
      <trkpt lat="48.20261" lon="7.27679">
        <ele>347.8</ele>
        <time>2021-06-21T09:44:48Z</time>
      </trkpt>
      <trkpt lat="48.20256" lon="7.2769">
        <ele>347.6</ele>
        <time>2021-06-21T09:44:49Z</time>
      </trkpt>
      <trkpt lat="48.20242" lon="7.27722">
        <ele>346.8</ele>
        <time>2021-06-21T09:44:52Z</time>
      </trkpt>
      <trkpt lat="48.20229" lon="7.27757">
        <ele>346</ele>
        <time>2021-06-21T09:44:55Z</time>
      </trkpt>
      <trkpt lat="48.20227" lon="7.2777">
        <ele>345.6</ele>
        <time>2021-06-21T09:44:56Z</time>
      </trkpt>
      <trkpt lat="48.20226" lon="7.27783">
        <ele>345.4</ele>
        <time>2021-06-21T09:44:57Z</time>
      </trkpt>
      <trkpt lat="48.20226" lon="7.27797">
        <ele>345</ele>
        <time>2021-06-21T09:44:58Z</time>
      </trkpt>
      <trkpt lat="48.20226" lon="7.27811">
        <ele>344.4</ele>
        <time>2021-06-21T09:44:59Z</time>
      </trkpt>
      <trkpt lat="48.20229" lon="7.2785">
        <ele>343.4</ele>
        <time>2021-06-21T09:45:02Z</time>
      </trkpt>
      <trkpt lat="48.2023" lon="7.27862">
        <ele>343</ele>
        <time>2021-06-21T09:45:03Z</time>
      </trkpt>
      <trkpt lat="48.2023" lon="7.27874">
        <ele>342.8</ele>
        <time>2021-06-21T09:45:04Z</time>
      </trkpt>
      <trkpt lat="48.20231" lon="7.27886">
        <ele>342</ele>
        <time>2021-06-21T09:45:05Z</time>
      </trkpt>
      <trkpt lat="48.20235" lon="7.27922">
        <ele>340.8</ele>
        <time>2021-06-21T09:45:08Z</time>
      </trkpt>
      <trkpt lat="48.20241" lon="7.27968">
        <ele>339.6</ele>
        <time>2021-06-21T09:45:12Z</time>
      </trkpt>
      <trkpt lat="48.20243" lon="7.2798">
        <ele>339.6</ele>
        <time>2021-06-21T09:45:13Z</time>
      </trkpt>
      <trkpt lat="48.20246" lon="7.28025">
        <ele>338.6</ele>
        <time>2021-06-21T09:45:17Z</time>
      </trkpt>
      <trkpt lat="48.20245" lon="7.28048">
        <ele>338.4</ele>
        <time>2021-06-21T09:45:19Z</time>
      </trkpt>
      <trkpt lat="48.20238" lon="7.2813">
        <ele>338</ele>
        <time>2021-06-21T09:45:26Z</time>
      </trkpt>
      <trkpt lat="48.20236" lon="7.2814">
        <ele>338</ele>
        <time>2021-06-21T09:45:27Z</time>
      </trkpt>
      <trkpt lat="48.20228" lon="7.28173">
        <ele>337.4</ele>
        <time>2021-06-21T09:45:30Z</time>
      </trkpt>
      <trkpt lat="48.20226" lon="7.28184">
        <ele>337</ele>
        <time>2021-06-21T09:45:31Z</time>
      </trkpt>
      <trkpt lat="48.20219" lon="7.28219">
        <ele>336.6</ele>
        <time>2021-06-21T09:45:34Z</time>
      </trkpt>
      <trkpt lat="48.20219" lon="7.28229">
        <ele>336.4</ele>
        <time>2021-06-21T09:45:35Z</time>
      </trkpt>
      <trkpt lat="48.20218" lon="7.28241">
        <ele>336.2</ele>
        <time>2021-06-21T09:45:36Z</time>
      </trkpt>
      <trkpt lat="48.20216" lon="7.28281">
        <ele>335</ele>
        <time>2021-06-21T09:45:39Z</time>
      </trkpt>
      <trkpt lat="48.20215" lon="7.28296">
        <ele>334.2</ele>
        <time>2021-06-21T09:45:40Z</time>
      </trkpt>
      <trkpt lat="48.20215" lon="7.2831">
        <ele>333.8</ele>
        <time>2021-06-21T09:45:41Z</time>
      </trkpt>
      <trkpt lat="48.20214" lon="7.28325">
        <ele>332.8</ele>
        <time>2021-06-21T09:45:42Z</time>
      </trkpt>
      <trkpt lat="48.20214" lon="7.2834">
        <ele>332.8</ele>
        <time>2021-06-21T09:45:43Z</time>
      </trkpt>
      <trkpt lat="48.20212" lon="7.28382">
        <ele>331.4</ele>
        <time>2021-06-21T09:45:46Z</time>
      </trkpt>
      <trkpt lat="48.20211" lon="7.28396">
        <ele>331</ele>
        <time>2021-06-21T09:45:47Z</time>
      </trkpt>
      <trkpt lat="48.2021" lon="7.28411">
        <ele>330.8</ele>
        <time>2021-06-21T09:45:48Z</time>
      </trkpt>
      <trkpt lat="48.20204" lon="7.28437">
        <ele>330.2</ele>
        <time>2021-06-21T09:45:50Z</time>
      </trkpt>
      <trkpt lat="48.20199" lon="7.28449">
        <ele>330</ele>
        <time>2021-06-21T09:45:51Z</time>
      </trkpt>
      <trkpt lat="48.2019" lon="7.28471">
        <ele>329.2</ele>
        <time>2021-06-21T09:45:53Z</time>
      </trkpt>
      <trkpt lat="48.20182" lon="7.28493">
        <ele>328.2</ele>
        <time>2021-06-21T09:45:55Z</time>
      </trkpt>
      <trkpt lat="48.20178" lon="7.28508">
        <ele>327.6</ele>
        <time>2021-06-21T09:45:56Z</time>
      </trkpt>
      <trkpt lat="48.20172" lon="7.28529">
        <ele>327</ele>
        <time>2021-06-21T09:45:58Z</time>
      </trkpt>
      <trkpt lat="48.20165" lon="7.28568">
        <ele>326.2</ele>
        <time>2021-06-21T09:46:01Z</time>
      </trkpt>
      <trkpt lat="48.20163" lon="7.28581">
        <ele>325.4</ele>
        <time>2021-06-21T09:46:02Z</time>
      </trkpt>
      <trkpt lat="48.2016" lon="7.28624">
        <ele>324</ele>
        <time>2021-06-21T09:46:05Z</time>
      </trkpt>
      <trkpt lat="48.2016" lon="7.28638">
        <ele>323.6</ele>
        <time>2021-06-21T09:46:06Z</time>
      </trkpt>
      <trkpt lat="48.2016" lon="7.28652">
        <ele>322.8</ele>
        <time>2021-06-21T09:46:07Z</time>
      </trkpt>
      <trkpt lat="48.20164" lon="7.28709">
        <ele>321.2</ele>
        <time>2021-06-21T09:46:11Z</time>
      </trkpt>
      <trkpt lat="48.20165" lon="7.28738">
        <ele>320.4</ele>
        <time>2021-06-21T09:46:13Z</time>
      </trkpt>
      <trkpt lat="48.20165" lon="7.28752">
        <ele>319.6</ele>
        <time>2021-06-21T09:46:14Z</time>
      </trkpt>
      <trkpt lat="48.20169" lon="7.28808">
        <ele>318.2</ele>
        <time>2021-06-21T09:46:18Z</time>
      </trkpt>
      <trkpt lat="48.20169" lon="7.2882">
        <ele>317.8</ele>
        <time>2021-06-21T09:46:19Z</time>
      </trkpt>
      <trkpt lat="48.2017" lon="7.28847">
        <ele>317.2</ele>
        <time>2021-06-21T09:46:21Z</time>
      </trkpt>
      <trkpt lat="48.20171" lon="7.28863">
        <ele>317.2</ele>
        <time>2021-06-21T09:46:22Z</time>
      </trkpt>
      <trkpt lat="48.20175" lon="7.28915">
        <ele>316.4</ele>
        <time>2021-06-21T09:46:26Z</time>
      </trkpt>
      <trkpt lat="48.20176" lon="7.28945">
        <ele>316.2</ele>
        <time>2021-06-21T09:46:28Z</time>
      </trkpt>
      <trkpt lat="48.20175" lon="7.28969">
        <ele>315.6</ele>
        <time>2021-06-21T09:46:30Z</time>
      </trkpt>
      <trkpt lat="48.20174" lon="7.28983">
        <ele>315.6</ele>
        <time>2021-06-21T09:46:31Z</time>
      </trkpt>
      <trkpt lat="48.20171" lon="7.29014">
        <ele>315</ele>
        <time>2021-06-21T09:46:33Z</time>
      </trkpt>
      <trkpt lat="48.20162" lon="7.29054">
        <ele>314.4</ele>
        <time>2021-06-21T09:46:36Z</time>
      </trkpt>
      <trkpt lat="48.20156" lon="7.29082">
        <ele>313.8</ele>
        <time>2021-06-21T09:46:38Z</time>
      </trkpt>
      <trkpt lat="48.20147" lon="7.29109">
        <ele>313</ele>
        <time>2021-06-21T09:46:40Z</time>
      </trkpt>
      <trkpt lat="48.20143" lon="7.29118">
        <ele>312</ele>
        <time>2021-06-21T09:46:41Z</time>
      </trkpt>
      <trkpt lat="48.20137" lon="7.29129">
        <ele>311.8</ele>
        <time>2021-06-21T09:46:42Z</time>
      </trkpt>
      <trkpt lat="48.20125" lon="7.29151">
        <ele>311.2</ele>
        <time>2021-06-21T09:46:44Z</time>
      </trkpt>
      <trkpt lat="48.20119" lon="7.29162">
        <ele>311</ele>
        <time>2021-06-21T09:46:45Z</time>
      </trkpt>
      <trkpt lat="48.20109" lon="7.29185">
        <ele>310.6</ele>
        <time>2021-06-21T09:46:47Z</time>
      </trkpt>
      <trkpt lat="48.20105" lon="7.29198">
        <ele>310.4</ele>
        <time>2021-06-21T09:46:48Z</time>
      </trkpt>
      <trkpt lat="48.20105" lon="7.29215">
        <ele>310.2</ele>
        <time>2021-06-21T09:46:49Z</time>
      </trkpt>
      <trkpt lat="48.20106" lon="7.29247">
        <ele>309.8</ele>
        <time>2021-06-21T09:46:51Z</time>
      </trkpt>
      <trkpt lat="48.2011" lon="7.29302">
        <ele>308.6</ele>
        <time>2021-06-21T09:46:55Z</time>
      </trkpt>
      <trkpt lat="48.2011" lon="7.29313">
        <ele>308.4</ele>
        <time>2021-06-21T09:46:56Z</time>
      </trkpt>
      <trkpt lat="48.20113" lon="7.29353">
        <ele>307.6</ele>
        <time>2021-06-21T09:46:59Z</time>
      </trkpt>
      <trkpt lat="48.20118" lon="7.2938">
        <ele>307</ele>
        <time>2021-06-21T09:47:01Z</time>
      </trkpt>
      <trkpt lat="48.20125" lon="7.29419">
        <ele>306.2</ele>
        <time>2021-06-21T09:47:04Z</time>
      </trkpt>
      <trkpt lat="48.20128" lon="7.2945">
        <ele>306</ele>
        <time>2021-06-21T09:47:07Z</time>
      </trkpt>
      <trkpt lat="48.20128" lon="7.29479">
        <ele>305.4</ele>
        <time>2021-06-21T09:47:10Z</time>
      </trkpt>
      <trkpt lat="48.20126" lon="7.29489">
        <ele>304.8</ele>
        <time>2021-06-21T09:47:11Z</time>
      </trkpt>
      <trkpt lat="48.20123" lon="7.29498">
        <ele>304.8</ele>
        <time>2021-06-21T09:47:12Z</time>
      </trkpt>
      <trkpt lat="48.20115" lon="7.29513">
        <ele>304.2</ele>
        <time>2021-06-21T09:47:14Z</time>
      </trkpt>
      <trkpt lat="48.2011" lon="7.29518">
        <ele>303.8</ele>
        <time>2021-06-21T09:47:15Z</time>
      </trkpt>
      <trkpt lat="48.20104" lon="7.29523">
        <ele>303</ele>
        <time>2021-06-21T09:47:16Z</time>
      </trkpt>
      <trkpt lat="48.20098" lon="7.29526">
        <ele>302.6</ele>
        <time>2021-06-21T09:47:17Z</time>
      </trkpt>
      <trkpt lat="48.20087" lon="7.29533">
        <ele>301.8</ele>
        <time>2021-06-21T09:47:19Z</time>
      </trkpt>
      <trkpt lat="48.20082" lon="7.29537">
        <ele>301.2</ele>
        <time>2021-06-21T09:47:20Z</time>
      </trkpt>
      <trkpt lat="48.20077" lon="7.2954">
        <ele>301</ele>
        <time>2021-06-21T09:47:21Z</time>
      </trkpt>
      <trkpt lat="48.20071" lon="7.29543">
        <ele>300.6</ele>
        <time>2021-06-21T09:47:22Z</time>
      </trkpt>
      <trkpt lat="48.20066" lon="7.29548">
        <ele>300.6</ele>
        <time>2021-06-21T09:47:23Z</time>
      </trkpt>
      <trkpt lat="48.20061" lon="7.29553">
        <ele>300.2</ele>
        <time>2021-06-21T09:47:24Z</time>
      </trkpt>
      <trkpt lat="48.20057" lon="7.29559">
        <ele>299.4</ele>
        <time>2021-06-21T09:47:25Z</time>
      </trkpt>
      <trkpt lat="48.20052" lon="7.29574">
        <ele>298.4</ele>
        <time>2021-06-21T09:47:27Z</time>
      </trkpt>
      <trkpt lat="48.20049" lon="7.29592">
        <ele>298</ele>
        <time>2021-06-21T09:47:29Z</time>
      </trkpt>
      <trkpt lat="48.20049" lon="7.29601">
        <ele>297.8</ele>
        <time>2021-06-21T09:47:30Z</time>
      </trkpt>
      <trkpt lat="48.2005" lon="7.2961">
        <ele>297.4</ele>
        <time>2021-06-21T09:47:31Z</time>
      </trkpt>
      <trkpt lat="48.20051" lon="7.29617">
        <ele>296.4</ele>
        <time>2021-06-21T09:47:32Z</time>
      </trkpt>
      <trkpt lat="48.20052" lon="7.29625">
        <ele>296</ele>
        <time>2021-06-21T09:47:33Z</time>
      </trkpt>
      <trkpt lat="48.20055" lon="7.2964">
        <ele>295.8</ele>
        <time>2021-06-21T09:47:35Z</time>
      </trkpt>
      <trkpt lat="48.2006" lon="7.2966">
        <ele>296</ele>
        <time>2021-06-21T09:47:38Z</time>
      </trkpt>
      <trkpt lat="48.20073" lon="7.29705">
        <ele>296.4</ele>
        <time>2021-06-21T09:47:45Z</time>
      </trkpt>
      <trkpt lat="48.2008" lon="7.29729">
        <ele>296</ele>
        <time>2021-06-21T09:47:48Z</time>
      </trkpt>
      <trkpt lat="48.20083" lon="7.29747">
        <ele>295.8</ele>
        <time>2021-06-21T09:47:50Z</time>
      </trkpt>
      <trkpt lat="48.20087" lon="7.29766">
        <ele>295.4</ele>
        <time>2021-06-21T09:47:52Z</time>
      </trkpt>
      <trkpt lat="48.20095" lon="7.29804">
        <ele>294.4</ele>
        <time>2021-06-21T09:47:56Z</time>
      </trkpt>
      <trkpt lat="48.20097" lon="7.29815">
        <ele>294.2</ele>
        <time>2021-06-21T09:47:57Z</time>
      </trkpt>
      <trkpt lat="48.20106" lon="7.2987">
        <ele>293.2</ele>
        <time>2021-06-21T09:48:02Z</time>
      </trkpt>
      <trkpt lat="48.20109" lon="7.29892">
        <ele>292.4</ele>
        <time>2021-06-21T09:48:04Z</time>
      </trkpt>
      <trkpt lat="48.20112" lon="7.29913">
        <ele>292.2</ele>
        <time>2021-06-21T09:48:06Z</time>
      </trkpt>
      <trkpt lat="48.20115" lon="7.29946">
        <ele>291.8</ele>
        <time>2021-06-21T09:48:09Z</time>
      </trkpt>
      <trkpt lat="48.20116" lon="7.29959">
        <ele>291.6</ele>
        <time>2021-06-21T09:48:10Z</time>
      </trkpt>
      <trkpt lat="48.20113" lon="7.29989">
        <ele>291.4</ele>
        <time>2021-06-21T09:48:13Z</time>
      </trkpt>
      <trkpt lat="48.20111" lon="7.29998">
        <ele>291.4</ele>
        <time>2021-06-21T09:48:14Z</time>
      </trkpt>
      <trkpt lat="48.201" lon="7.30037">
        <ele>291.2</ele>
        <time>2021-06-21T09:48:18Z</time>
      </trkpt>
      <trkpt lat="48.20097" lon="7.30046">
        <ele>291</ele>
        <time>2021-06-21T09:48:19Z</time>
      </trkpt>
      <trkpt lat="48.20083" lon="7.30072">
        <ele>290.8</ele>
        <time>2021-06-21T09:48:22Z</time>
      </trkpt>
      <trkpt lat="48.20077" lon="7.3008">
        <ele>290.8</ele>
        <time>2021-06-21T09:48:23Z</time>
      </trkpt>
      <trkpt lat="48.20065" lon="7.30094">
        <ele>290.6</ele>
        <time>2021-06-21T09:48:25Z</time>
      </trkpt>
      <trkpt lat="48.20059" lon="7.301">
        <ele>290.4</ele>
        <time>2021-06-21T09:48:26Z</time>
      </trkpt>
      <trkpt lat="48.20051" lon="7.30106">
        <ele>290.2</ele>
        <time>2021-06-21T09:48:27Z</time>
      </trkpt>
      <trkpt lat="48.20043" lon="7.30112">
        <ele>289.4</ele>
        <time>2021-06-21T09:48:28Z</time>
      </trkpt>
      <trkpt lat="48.20019" lon="7.30126">
        <ele>288.4</ele>
        <time>2021-06-21T09:48:31Z</time>
      </trkpt>
      <trkpt lat="48.20011" lon="7.30131">
        <ele>288</ele>
        <time>2021-06-21T09:48:32Z</time>
      </trkpt>
      <trkpt lat="48.20002" lon="7.30133">
        <ele>287.2</ele>
        <time>2021-06-21T09:48:33Z</time>
      </trkpt>
      <trkpt lat="48.19987" lon="7.30142">
        <ele>286</ele>
        <time>2021-06-21T09:48:35Z</time>
      </trkpt>
      <trkpt lat="48.19964" lon="7.30157">
        <ele>285</ele>
        <time>2021-06-21T09:48:38Z</time>
      </trkpt>
      <trkpt lat="48.19933" lon="7.30194">
        <ele>284.2</ele>
        <time>2021-06-21T09:48:43Z</time>
      </trkpt>
      <trkpt lat="48.19926" lon="7.30201">
        <ele>283.6</ele>
        <time>2021-06-21T09:48:44Z</time>
      </trkpt>
      <trkpt lat="48.19899" lon="7.30226">
        <ele>282.8</ele>
        <time>2021-06-21T09:48:48Z</time>
      </trkpt>
      <trkpt lat="48.19892" lon="7.3023">
        <ele>282.4</ele>
        <time>2021-06-21T09:48:49Z</time>
      </trkpt>
      <trkpt lat="48.1986" lon="7.30244">
        <ele>281.2</ele>
        <time>2021-06-21T09:48:53Z</time>
      </trkpt>
      <trkpt lat="48.1983" lon="7.30263">
        <ele>280.2</ele>
        <time>2021-06-21T09:48:57Z</time>
      </trkpt>
      <trkpt lat="48.19818" lon="7.30278">
        <ele>279.8</ele>
        <time>2021-06-21T09:48:59Z</time>
      </trkpt>
      <trkpt lat="48.19808" lon="7.30297">
        <ele>279.4</ele>
        <time>2021-06-21T09:49:01Z</time>
      </trkpt>
      <trkpt lat="48.19801" lon="7.30317">
        <ele>279</ele>
        <time>2021-06-21T09:49:03Z</time>
      </trkpt>
      <trkpt lat="48.19793" lon="7.30348">
        <ele>278.2</ele>
        <time>2021-06-21T09:49:06Z</time>
      </trkpt>
      <trkpt lat="48.1979" lon="7.30359">
        <ele>278</ele>
        <time>2021-06-21T09:49:07Z</time>
      </trkpt>
      <trkpt lat="48.19788" lon="7.30369">
        <ele>277.8</ele>
        <time>2021-06-21T09:49:08Z</time>
      </trkpt>
      <trkpt lat="48.19786" lon="7.30378">
        <ele>277.6</ele>
        <time>2021-06-21T09:49:09Z</time>
      </trkpt>
      <trkpt lat="48.19784" lon="7.30387">
        <ele>277.4</ele>
        <time>2021-06-21T09:49:10Z</time>
      </trkpt>
      <trkpt lat="48.19785" lon="7.30397">
        <ele>277.2</ele>
        <time>2021-06-21T09:49:11Z</time>
      </trkpt>
      <trkpt lat="48.19788" lon="7.30421">
        <ele>276.8</ele>
        <time>2021-06-21T09:49:13Z</time>
      </trkpt>
      <trkpt lat="48.1979" lon="7.30432">
        <ele>276.4</ele>
        <time>2021-06-21T09:49:14Z</time>
      </trkpt>
      <trkpt lat="48.198" lon="7.30487">
        <ele>275.6</ele>
        <time>2021-06-21T09:49:19Z</time>
      </trkpt>
      <trkpt lat="48.19806" lon="7.30523">
        <ele>275.4</ele>
        <time>2021-06-21T09:49:22Z</time>
      </trkpt>
      <trkpt lat="48.1981" lon="7.30553">
        <ele>274.6</ele>
        <time>2021-06-21T09:49:25Z</time>
      </trkpt>
      <trkpt lat="48.19816" lon="7.30601">
        <ele>274.4</ele>
        <time>2021-06-21T09:49:30Z</time>
      </trkpt>
      <trkpt lat="48.19819" lon="7.30646">
        <ele>274.8</ele>
        <time>2021-06-21T09:49:35Z</time>
      </trkpt>
      <trkpt lat="48.19819" lon="7.30656">
        <ele>274.8</ele>
        <time>2021-06-21T09:49:36Z</time>
      </trkpt>
      <trkpt lat="48.19821" lon="7.30707">
        <ele>275.2</ele>
        <time>2021-06-21T09:49:42Z</time>
      </trkpt>
      <trkpt lat="48.19823" lon="7.30732">
        <ele>275.4</ele>
        <time>2021-06-21T09:49:45Z</time>
      </trkpt>
      <trkpt lat="48.19826" lon="7.30748">
        <ele>275.8</ele>
        <time>2021-06-21T09:49:47Z</time>
      </trkpt>
      <trkpt lat="48.19828" lon="7.30763">
        <ele>276</ele>
        <time>2021-06-21T09:49:49Z</time>
      </trkpt>
      <trkpt lat="48.19832" lon="7.30786">
        <ele>276</ele>
        <time>2021-06-21T09:49:52Z</time>
      </trkpt>
      <trkpt lat="48.19829" lon="7.30831">
        <ele>275.8</ele>
        <time>2021-06-21T09:49:57Z</time>
      </trkpt>
      <trkpt lat="48.19821" lon="7.30873">
        <ele>274.4</ele>
        <time>2021-06-21T09:50:01Z</time>
      </trkpt>
      <trkpt lat="48.19818" lon="7.30883">
        <ele>274</ele>
        <time>2021-06-21T09:50:02Z</time>
      </trkpt>
      <trkpt lat="48.19814" lon="7.30892">
        <ele>273.6</ele>
        <time>2021-06-21T09:50:03Z</time>
      </trkpt>
      <trkpt lat="48.19805" lon="7.30908">
        <ele>272.6</ele>
        <time>2021-06-21T09:50:05Z</time>
      </trkpt>
      <trkpt lat="48.19794" lon="7.30926">
        <ele>271.6</ele>
        <time>2021-06-21T09:50:07Z</time>
      </trkpt>
      <trkpt lat="48.19789" lon="7.30935">
        <ele>271.4</ele>
        <time>2021-06-21T09:50:08Z</time>
      </trkpt>
      <trkpt lat="48.19778" lon="7.30954">
        <ele>270.4</ele>
        <time>2021-06-21T09:50:10Z</time>
      </trkpt>
      <trkpt lat="48.19767" lon="7.30971">
        <ele>268.8</ele>
        <time>2021-06-21T09:50:12Z</time>
      </trkpt>
      <trkpt lat="48.19762" lon="7.3098">
        <ele>268.6</ele>
        <time>2021-06-21T09:50:13Z</time>
      </trkpt>
      <trkpt lat="48.19747" lon="7.31007">
        <ele>267.8</ele>
        <time>2021-06-21T09:50:16Z</time>
      </trkpt>
      <trkpt lat="48.19737" lon="7.31025">
        <ele>267.2</ele>
        <time>2021-06-21T09:50:18Z</time>
      </trkpt>
      <trkpt lat="48.19732" lon="7.31033">
        <ele>267</ele>
        <time>2021-06-21T09:50:19Z</time>
      </trkpt>
      <trkpt lat="48.19725" lon="7.31038">
        <ele>266.4</ele>
        <time>2021-06-21T09:50:20Z</time>
      </trkpt>
      <trkpt lat="48.19719" lon="7.31043">
        <ele>266</ele>
        <time>2021-06-21T09:50:21Z</time>
      </trkpt>
      <trkpt lat="48.19706" lon="7.31049">
        <ele>265.4</ele>
        <time>2021-06-21T09:50:23Z</time>
      </trkpt>
      <trkpt lat="48.19683" lon="7.31051">
        <ele>264.6</ele>
        <time>2021-06-21T09:50:27Z</time>
      </trkpt>
      <trkpt lat="48.19653" lon="7.31046">
        <ele>265.4</ele>
        <time>2021-06-21T09:50:33Z</time>
      </trkpt>
      <trkpt lat="48.19639" lon="7.31044">
        <ele>266.6</ele>
        <time>2021-06-21T09:50:36Z</time>
      </trkpt>
      <trkpt lat="48.19631" lon="7.31045">
        <ele>267.4</ele>
        <time>2021-06-21T09:50:38Z</time>
      </trkpt>
      <trkpt lat="48.19627" lon="7.31047">
        <ele>267.6</ele>
        <time>2021-06-21T09:50:39Z</time>
      </trkpt>
      <trkpt lat="48.19623" lon="7.31049">
        <ele>267.8</ele>
        <time>2021-06-21T09:50:40Z</time>
      </trkpt>
      <trkpt lat="48.1962" lon="7.31051">
        <ele>268.2</ele>
        <time>2021-06-21T09:50:41Z</time>
      </trkpt>
      <trkpt lat="48.1961" lon="7.31059">
        <ele>268.8</ele>
        <time>2021-06-21T09:50:44Z</time>
      </trkpt>
      <trkpt lat="48.19601" lon="7.31068">
        <ele>269.2</ele>
        <time>2021-06-21T09:50:47Z</time>
      </trkpt>
      <trkpt lat="48.19592" lon="7.31076">
        <ele>270.2</ele>
        <time>2021-06-21T09:50:50Z</time>
      </trkpt>
      <trkpt lat="48.19589" lon="7.31078">
        <ele>270.6</ele>
        <time>2021-06-21T09:50:51Z</time>
      </trkpt>
      <trkpt lat="48.19577" lon="7.31086">
        <ele>271.2</ele>
        <time>2021-06-21T09:50:55Z</time>
      </trkpt>
      <trkpt lat="48.19568" lon="7.31092">
        <ele>271.6</ele>
        <time>2021-06-21T09:50:58Z</time>
      </trkpt>
      <trkpt lat="48.19559" lon="7.31099">
        <ele>271.8</ele>
        <time>2021-06-21T09:51:01Z</time>
      </trkpt>
      <trkpt lat="48.19542" lon="7.31111">
        <ele>273</ele>
        <time>2021-06-21T09:51:06Z</time>
      </trkpt>
      <trkpt lat="48.19535" lon="7.31117">
        <ele>273.4</ele>
        <time>2021-06-21T09:51:08Z</time>
      </trkpt>
      <trkpt lat="48.19504" lon="7.31144">
        <ele>273.6</ele>
        <time>2021-06-21T09:51:16Z</time>
      </trkpt>
      <trkpt lat="48.19484" lon="7.31165">
        <ele>273.4</ele>
        <time>2021-06-21T09:51:21Z</time>
      </trkpt>
      <trkpt lat="48.19476" lon="7.31176">
        <ele>273</ele>
        <time>2021-06-21T09:51:23Z</time>
      </trkpt>
      <trkpt lat="48.19456" lon="7.31207">
        <ele>272.4</ele>
        <time>2021-06-21T09:51:28Z</time>
      </trkpt>
      <trkpt lat="48.19452" lon="7.31214">
        <ele>271.8</ele>
        <time>2021-06-21T09:51:29Z</time>
      </trkpt>
      <trkpt lat="48.19441" lon="7.31237">
        <ele>270.8</ele>
        <time>2021-06-21T09:51:32Z</time>
      </trkpt>
      <trkpt lat="48.19436" lon="7.3125">
        <ele>270.2</ele>
        <time>2021-06-21T09:51:34Z</time>
      </trkpt>
      <trkpt lat="48.1943" lon="7.31269">
        <ele>269.6</ele>
        <time>2021-06-21T09:51:36Z</time>
      </trkpt>
      <trkpt lat="48.19421" lon="7.31302">
        <ele>269.2</ele>
        <time>2021-06-21T09:51:40Z</time>
      </trkpt>
      <trkpt lat="48.19417" lon="7.31318">
        <ele>268.8</ele>
        <time>2021-06-21T09:51:42Z</time>
      </trkpt>
      <trkpt lat="48.19407" lon="7.31354">
        <ele>267.8</ele>
        <time>2021-06-21T09:51:47Z</time>
      </trkpt>
      <trkpt lat="48.19406" lon="7.31359">
        <ele>267.6</ele>
        <time>2021-06-21T09:51:48Z</time>
      </trkpt>
      <trkpt lat="48.19399" lon="7.31383">
        <ele>267.2</ele>
        <time>2021-06-21T09:51:53Z</time>
      </trkpt>
      <trkpt lat="48.19393" lon="7.31389">
        <ele>267.4</ele>
        <time>2021-06-21T09:51:56Z</time>
      </trkpt>
      <trkpt lat="48.19391" lon="7.31389">
        <ele>267.4</ele>
        <time>2021-06-21T09:51:57Z</time>
      </trkpt>
      <trkpt lat="48.19387" lon="7.31386">
        <ele>267.4</ele>
        <time>2021-06-21T09:51:59Z</time>
      </trkpt>
      <trkpt lat="48.19381" lon="7.31378">
        <ele>267.4</ele>
        <time>2021-06-21T09:52:01Z</time>
      </trkpt>
      <trkpt lat="48.19375" lon="7.31371">
        <ele>267.4</ele>
        <time>2021-06-21T09:52:03Z</time>
      </trkpt>
      <trkpt lat="48.19362" lon="7.31354">
        <ele>267.6</ele>
        <time>2021-06-21T09:52:07Z</time>
      </trkpt>
      <trkpt lat="48.19352" lon="7.31343">
        <ele>268.2</ele>
        <time>2021-06-21T09:52:10Z</time>
      </trkpt>
      <trkpt lat="48.19343" lon="7.31333">
        <ele>269.2</ele>
        <time>2021-06-21T09:52:13Z</time>
      </trkpt>
      <trkpt lat="48.19336" lon="7.31326">
        <ele>270</ele>
        <time>2021-06-21T09:52:15Z</time>
      </trkpt>
      <trkpt lat="48.19333" lon="7.31323">
        <ele>270.2</ele>
        <time>2021-06-21T09:52:16Z</time>
      </trkpt>
      <trkpt lat="48.19309" lon="7.31304">
        <ele>271</ele>
        <time>2021-06-21T09:52:23Z</time>
      </trkpt>
      <trkpt lat="48.19306" lon="7.31301">
        <ele>271.4</ele>
        <time>2021-06-21T09:52:24Z</time>
      </trkpt>
      <trkpt lat="48.19294" lon="7.31291">
        <ele>272.2</ele>
        <time>2021-06-21T09:52:28Z</time>
      </trkpt>
      <trkpt lat="48.19291" lon="7.3129">
        <ele>272.4</ele>
        <time>2021-06-21T09:52:29Z</time>
      </trkpt>
      <trkpt lat="48.19277" lon="7.31272">
        <ele>273.8</ele>
        <time>2021-06-21T09:52:34Z</time>
      </trkpt>
      <trkpt lat="48.1927" lon="7.31259">
        <ele>274.8</ele>
        <time>2021-06-21T09:52:37Z</time>
      </trkpt>
      <trkpt lat="48.19265" lon="7.3125">
        <ele>275.4</ele>
        <time>2021-06-21T09:52:39Z</time>
      </trkpt>
      <trkpt lat="48.19256" lon="7.31232">
        <ele>275.8</ele>
        <time>2021-06-21T09:52:43Z</time>
      </trkpt>
      <trkpt lat="48.19252" lon="7.31229">
        <ele>276</ele>
        <time>2021-06-21T09:52:44Z</time>
      </trkpt>
      <trkpt lat="48.19249" lon="7.31227">
        <ele>276.4</ele>
        <time>2021-06-21T09:52:45Z</time>
      </trkpt>
      <trkpt lat="48.19239" lon="7.31222">
        <ele>277.4</ele>
        <time>2021-06-21T09:52:48Z</time>
      </trkpt>
      <trkpt lat="48.19235" lon="7.3122">
        <ele>277.4</ele>
        <time>2021-06-21T09:52:49Z</time>
      </trkpt>
      <trkpt lat="48.19221" lon="7.31216">
        <ele>278.4</ele>
        <time>2021-06-21T09:52:53Z</time>
      </trkpt>
      <trkpt lat="48.19207" lon="7.31211">
        <ele>279.2</ele>
        <time>2021-06-21T09:52:57Z</time>
      </trkpt>
      <trkpt lat="48.192" lon="7.31207">
        <ele>279.6</ele>
        <time>2021-06-21T09:52:59Z</time>
      </trkpt>
      <trkpt lat="48.19187" lon="7.31199">
        <ele>280.4</ele>
        <time>2021-06-21T09:53:03Z</time>
      </trkpt>
      <trkpt lat="48.19181" lon="7.31195">
        <ele>280.8</ele>
        <time>2021-06-21T09:53:05Z</time>
      </trkpt>
      <trkpt lat="48.19178" lon="7.31194">
        <ele>280.8</ele>
        <time>2021-06-21T09:53:06Z</time>
      </trkpt>
      <trkpt lat="48.19159" lon="7.31183">
        <ele>282</ele>
        <time>2021-06-21T09:53:12Z</time>
      </trkpt>
      <trkpt lat="48.19148" lon="7.31175">
        <ele>283</ele>
        <time>2021-06-21T09:53:16Z</time>
      </trkpt>
      <trkpt lat="48.19136" lon="7.31167">
        <ele>284.2</ele>
        <time>2021-06-21T09:53:20Z</time>
      </trkpt>
      <trkpt lat="48.19126" lon="7.31161">
        <ele>285</ele>
        <time>2021-06-21T09:53:24Z</time>
      </trkpt>
      <trkpt lat="48.19118" lon="7.31156">
        <ele>285.8</ele>
        <time>2021-06-21T09:53:27Z</time>
      </trkpt>
      <trkpt lat="48.19107" lon="7.31149">
        <ele>286.8</ele>
        <time>2021-06-21T09:53:31Z</time>
      </trkpt>
      <trkpt lat="48.19102" lon="7.31146">
        <ele>287.2</ele>
        <time>2021-06-21T09:53:33Z</time>
      </trkpt>
      <trkpt lat="48.19096" lon="7.31144">
        <ele>287.8</ele>
        <time>2021-06-21T09:53:35Z</time>
      </trkpt>
      <trkpt lat="48.19086" lon="7.31139">
        <ele>289.2</ele>
        <time>2021-06-21T09:53:39Z</time>
      </trkpt>
      <trkpt lat="48.19083" lon="7.31139">
        <ele>289.4</ele>
        <time>2021-06-21T09:53:40Z</time>
      </trkpt>
      <trkpt lat="48.19074" lon="7.31136">
        <ele>290.2</ele>
        <time>2021-06-21T09:53:44Z</time>
      </trkpt>
      <trkpt lat="48.19068" lon="7.31134">
        <ele>291.4</ele>
        <time>2021-06-21T09:53:46Z</time>
      </trkpt>
      <trkpt lat="48.19063" lon="7.31131">
        <ele>291.8</ele>
        <time>2021-06-21T09:53:48Z</time>
      </trkpt>
      <trkpt lat="48.1906" lon="7.3113">
        <ele>292</ele>
        <time>2021-06-21T09:53:49Z</time>
      </trkpt>
      <trkpt lat="48.19056" lon="7.31126">
        <ele>292.6</ele>
        <time>2021-06-21T09:53:51Z</time>
      </trkpt>
      <trkpt lat="48.19045" lon="7.31123">
        <ele>293.6</ele>
        <time>2021-06-21T09:53:55Z</time>
      </trkpt>
      <trkpt lat="48.19042" lon="7.31122">
        <ele>293.8</ele>
        <time>2021-06-21T09:53:56Z</time>
      </trkpt>
      <trkpt lat="48.19031" lon="7.31121">
        <ele>295</ele>
        <time>2021-06-21T09:54:00Z</time>
      </trkpt>
      <trkpt lat="48.19022" lon="7.31117">
        <ele>296</ele>
        <time>2021-06-21T09:54:04Z</time>
      </trkpt>
      <trkpt lat="48.19016" lon="7.31116">
        <ele>296.6</ele>
        <time>2021-06-21T09:54:06Z</time>
      </trkpt>
      <trkpt lat="48.19009" lon="7.31116">
        <ele>297.6</ele>
        <time>2021-06-21T09:54:09Z</time>
      </trkpt>
      <trkpt lat="48.19004" lon="7.31115">
        <ele>298</ele>
        <time>2021-06-21T09:54:11Z</time>
      </trkpt>
      <trkpt lat="48.19" lon="7.31115">
        <ele>298.6</ele>
        <time>2021-06-21T09:54:13Z</time>
      </trkpt>
      <trkpt lat="48.18995" lon="7.31117">
        <ele>299.6</ele>
        <time>2021-06-21T09:54:16Z</time>
      </trkpt>
      <trkpt lat="48.18993" lon="7.31118">
        <ele>300</ele>
        <time>2021-06-21T09:54:17Z</time>
      </trkpt>
      <trkpt lat="48.1899" lon="7.31119">
        <ele>300.4</ele>
        <time>2021-06-21T09:54:19Z</time>
      </trkpt>
      <trkpt lat="48.18983" lon="7.31118">
        <ele>301</ele>
        <time>2021-06-21T09:54:22Z</time>
      </trkpt>
      <trkpt lat="48.1898" lon="7.31118">
        <ele>301.2</ele>
        <time>2021-06-21T09:54:23Z</time>
      </trkpt>
      <trkpt lat="48.18962" lon="7.31117">
        <ele>302.4</ele>
        <time>2021-06-21T09:54:29Z</time>
      </trkpt>
      <trkpt lat="48.18946" lon="7.31111">
        <ele>303.2</ele>
        <time>2021-06-21T09:54:37Z</time>
      </trkpt>
      <trkpt lat="48.18946" lon="7.31111">
        <ele>303.2</ele>
        <time>2021-06-21T09:54:39Z</time>
      </trkpt>
      <trkpt lat="48.18943" lon="7.3111">
        <ele>303.2</ele>
        <time>2021-06-21T09:57:42Z</time>
      </trkpt>
      <trkpt lat="48.1894" lon="7.31109">
        <ele>303.2</ele>
        <time>2021-06-21T09:57:43Z</time>
      </trkpt>
      <trkpt lat="48.1891" lon="7.31099">
        <ele>302.8</ele>
        <time>2021-06-21T09:57:51Z</time>
      </trkpt>
      <trkpt lat="48.18884" lon="7.3109">
        <ele>302.8</ele>
        <time>2021-06-21T09:57:57Z</time>
      </trkpt>
      <trkpt lat="48.18849" lon="7.31082">
        <ele>302</ele>
        <time>2021-06-21T09:58:03Z</time>
      </trkpt>
      <trkpt lat="48.18826" lon="7.31072">
        <ele>301</ele>
        <time>2021-06-21T09:58:07Z</time>
      </trkpt>
      <trkpt lat="48.18812" lon="7.31065">
        <ele>300.4</ele>
        <time>2021-06-21T09:58:09Z</time>
      </trkpt>
      <trkpt lat="48.18793" lon="7.31056">
        <ele>299.8</ele>
        <time>2021-06-21T09:58:12Z</time>
      </trkpt>
      <trkpt lat="48.18771" lon="7.3105">
        <ele>299</ele>
        <time>2021-06-21T09:58:15Z</time>
      </trkpt>
      <trkpt lat="48.18763" lon="7.31047">
        <ele>298.4</ele>
        <time>2021-06-21T09:58:16Z</time>
      </trkpt>
      <trkpt lat="48.18733" lon="7.31038">
        <ele>297</ele>
        <time>2021-06-21T09:58:20Z</time>
      </trkpt>
      <trkpt lat="48.18726" lon="7.31035">
        <ele>296.8</ele>
        <time>2021-06-21T09:58:21Z</time>
      </trkpt>
      <trkpt lat="48.18704" lon="7.31028">
        <ele>295.8</ele>
        <time>2021-06-21T09:58:24Z</time>
      </trkpt>
      <trkpt lat="48.18684" lon="7.31023">
        <ele>294.8</ele>
        <time>2021-06-21T09:58:27Z</time>
      </trkpt>
      <trkpt lat="48.18677" lon="7.3102">
        <ele>294.6</ele>
        <time>2021-06-21T09:58:28Z</time>
      </trkpt>
      <trkpt lat="48.18659" lon="7.31014">
        <ele>294.2</ele>
        <time>2021-06-21T09:58:31Z</time>
      </trkpt>
      <trkpt lat="48.1865" lon="7.31013">
        <ele>294.2</ele>
        <time>2021-06-21T09:58:33Z</time>
      </trkpt>
      <trkpt lat="48.18612" lon="7.31009">
        <ele>294.8</ele>
        <time>2021-06-21T09:58:40Z</time>
      </trkpt>
      <trkpt lat="48.18575" lon="7.31002">
        <ele>295.6</ele>
        <time>2021-06-21T09:58:47Z</time>
      </trkpt>
      <trkpt lat="48.1857" lon="7.31001">
        <ele>296</ele>
        <time>2021-06-21T09:58:48Z</time>
      </trkpt>
      <trkpt lat="48.18533" lon="7.30993">
        <ele>297.2</ele>
        <time>2021-06-21T09:58:55Z</time>
      </trkpt>
      <trkpt lat="48.18529" lon="7.30992">
        <ele>297.6</ele>
        <time>2021-06-21T09:58:56Z</time>
      </trkpt>
      <trkpt lat="48.18506" lon="7.30985">
        <ele>298.4</ele>
        <time>2021-06-21T09:59:01Z</time>
      </trkpt>
      <trkpt lat="48.18486" lon="7.30977">
        <ele>298.4</ele>
        <time>2021-06-21T09:59:05Z</time>
      </trkpt>
      <trkpt lat="48.18478" lon="7.3097">
        <ele>298.2</ele>
        <time>2021-06-21T09:59:07Z</time>
      </trkpt>
      <trkpt lat="48.18441" lon="7.30947">
        <ele>297.4</ele>
        <time>2021-06-21T09:59:13Z</time>
      </trkpt>
      <trkpt lat="48.18434" lon="7.30943">
        <ele>296.6</ele>
        <time>2021-06-21T09:59:14Z</time>
      </trkpt>
      <trkpt lat="48.1842" lon="7.30935">
        <ele>295.6</ele>
        <time>2021-06-21T09:59:16Z</time>
      </trkpt>
      <trkpt lat="48.18398" lon="7.30922">
        <ele>294.4</ele>
        <time>2021-06-21T09:59:19Z</time>
      </trkpt>
      <trkpt lat="48.18391" lon="7.30918">
        <ele>294</ele>
        <time>2021-06-21T09:59:20Z</time>
      </trkpt>
      <trkpt lat="48.18376" lon="7.30909">
        <ele>293.2</ele>
        <time>2021-06-21T09:59:22Z</time>
      </trkpt>
      <trkpt lat="48.18357" lon="7.30898">
        <ele>292.2</ele>
        <time>2021-06-21T09:59:25Z</time>
      </trkpt>
      <trkpt lat="48.18338" lon="7.30887">
        <ele>291.6</ele>
        <time>2021-06-21T09:59:28Z</time>
      </trkpt>
      <trkpt lat="48.18306" lon="7.30872">
        <ele>291.2</ele>
        <time>2021-06-21T09:59:34Z</time>
      </trkpt>
      <trkpt lat="48.18275" lon="7.30863">
        <ele>290.8</ele>
        <time>2021-06-21T09:59:40Z</time>
      </trkpt>
      <trkpt lat="48.18262" lon="7.30862">
        <ele>290</ele>
        <time>2021-06-21T09:59:42Z</time>
      </trkpt>
      <trkpt lat="48.18239" lon="7.30858">
        <ele>289.2</ele>
        <time>2021-06-21T09:59:45Z</time>
      </trkpt>
      <trkpt lat="48.1823" lon="7.30857">
        <ele>288.8</ele>
        <time>2021-06-21T09:59:46Z</time>
      </trkpt>
      <trkpt lat="48.18202" lon="7.30854">
        <ele>287.2</ele>
        <time>2021-06-21T09:59:49Z</time>
      </trkpt>
      <trkpt lat="48.18184" lon="7.30854">
        <ele>286.2</ele>
        <time>2021-06-21T09:59:51Z</time>
      </trkpt>
      <trkpt lat="48.18175" lon="7.30854">
        <ele>285.2</ele>
        <time>2021-06-21T09:59:52Z</time>
      </trkpt>
      <trkpt lat="48.1816" lon="7.30854">
        <ele>284.4</ele>
        <time>2021-06-21T09:59:54Z</time>
      </trkpt>
      <trkpt lat="48.18145" lon="7.30854">
        <ele>283.6</ele>
        <time>2021-06-21T09:59:56Z</time>
      </trkpt>
      <trkpt lat="48.18139" lon="7.30854">
        <ele>283.2</ele>
        <time>2021-06-21T09:59:57Z</time>
      </trkpt>
      <trkpt lat="48.18107" lon="7.30849">
        <ele>282.2</ele>
        <time>2021-06-21T10:00:02Z</time>
      </trkpt>
      <trkpt lat="48.18101" lon="7.30848">
        <ele>281.8</ele>
        <time>2021-06-21T10:00:03Z</time>
      </trkpt>
      <trkpt lat="48.18072" lon="7.30842">
        <ele>280.6</ele>
        <time>2021-06-21T10:00:08Z</time>
      </trkpt>
      <trkpt lat="48.18067" lon="7.30841">
        <ele>280.2</ele>
        <time>2021-06-21T10:00:09Z</time>
      </trkpt>
      <trkpt lat="48.18055" lon="7.30837">
        <ele>279.6</ele>
        <time>2021-06-21T10:00:11Z</time>
      </trkpt>
      <trkpt lat="48.18034" lon="7.3083">
        <ele>279</ele>
        <time>2021-06-21T10:00:15Z</time>
      </trkpt>
      <trkpt lat="48.18029" lon="7.30829">
        <ele>278.8</ele>
        <time>2021-06-21T10:00:16Z</time>
      </trkpt>
      <trkpt lat="48.18019" lon="7.30827">
        <ele>278.4</ele>
        <time>2021-06-21T10:00:18Z</time>
      </trkpt>
      <trkpt lat="48.18005" lon="7.30825">
        <ele>277.6</ele>
        <time>2021-06-21T10:00:22Z</time>
      </trkpt>
      <trkpt lat="48.17998" lon="7.30823">
        <ele>277.2</ele>
        <time>2021-06-21T10:00:26Z</time>
      </trkpt>
      <trkpt lat="48.17997" lon="7.30822">
        <ele>277.2</ele>
        <time>2021-06-21T10:00:27Z</time>
      </trkpt>
      <trkpt lat="48.17995" lon="7.30819">
        <ele>277</ele>
        <time>2021-06-21T10:00:28Z</time>
      </trkpt>
      <trkpt lat="48.17993" lon="7.30811">
        <ele>277</ele>
        <time>2021-06-21T10:00:30Z</time>
      </trkpt>
      <trkpt lat="48.17994" lon="7.30806">
        <ele>277</ele>
        <time>2021-06-21T10:00:31Z</time>
      </trkpt>
      <trkpt lat="48.17992" lon="7.30782">
        <ele>277.2</ele>
        <time>2021-06-21T10:00:36Z</time>
      </trkpt>
      <trkpt lat="48.17982" lon="7.30756">
        <ele>278</ele>
        <time>2021-06-21T10:00:41Z</time>
      </trkpt>
      <trkpt lat="48.17975" lon="7.30743">
        <ele>278.4</ele>
        <time>2021-06-21T10:00:44Z</time>
      </trkpt>
      <trkpt lat="48.17972" lon="7.30734">
        <ele>279.4</ele>
        <time>2021-06-21T10:00:46Z</time>
      </trkpt>
      <trkpt lat="48.1797" lon="7.30731">
        <ele>279.6</ele>
        <time>2021-06-21T10:00:47Z</time>
      </trkpt>
      <trkpt lat="48.17967" lon="7.30731">
        <ele>280</ele>
        <time>2021-06-21T10:00:49Z</time>
      </trkpt>
      <trkpt lat="48.17966" lon="7.30733">
        <ele>280.2</ele>
        <time>2021-06-21T10:00:50Z</time>
      </trkpt>
      <trkpt lat="48.17965" lon="7.30737">
        <ele>280.6</ele>
        <time>2021-06-21T10:00:52Z</time>
      </trkpt>
      <trkpt lat="48.17963" lon="7.30738">
        <ele>281</ele>
        <time>2021-06-21T10:00:53Z</time>
      </trkpt>
      <trkpt lat="48.1796" lon="7.30739">
        <ele>281.2</ele>
        <time>2021-06-21T10:00:54Z</time>
      </trkpt>
      <trkpt lat="48.17943" lon="7.30732">
        <ele>282</ele>
        <time>2021-06-21T10:00:59Z</time>
      </trkpt>
      <trkpt lat="48.17935" lon="7.30728">
        <ele>283.2</ele>
        <time>2021-06-21T10:01:02Z</time>
      </trkpt>
      <trkpt lat="48.17927" lon="7.30723">
        <ele>284</ele>
        <time>2021-06-21T10:01:05Z</time>
      </trkpt>
      <trkpt lat="48.17925" lon="7.30721">
        <ele>284.4</ele>
        <time>2021-06-21T10:01:06Z</time>
      </trkpt>
      <trkpt lat="48.17916" lon="7.30714">
        <ele>285.4</ele>
        <time>2021-06-21T10:01:10Z</time>
      </trkpt>
      <trkpt lat="48.17914" lon="7.30712">
        <ele>285.6</ele>
        <time>2021-06-21T10:01:11Z</time>
      </trkpt>
      <trkpt lat="48.17903" lon="7.30702">
        <ele>286.6</ele>
        <time>2021-06-21T10:01:16Z</time>
      </trkpt>
      <trkpt lat="48.17901" lon="7.307">
        <ele>286.8</ele>
        <time>2021-06-21T10:01:17Z</time>
      </trkpt>
      <trkpt lat="48.17894" lon="7.30692">
        <ele>287.8</ele>
        <time>2021-06-21T10:01:21Z</time>
      </trkpt>
      <trkpt lat="48.17887" lon="7.30684">
        <ele>288.6</ele>
        <time>2021-06-21T10:01:25Z</time>
      </trkpt>
      <trkpt lat="48.17885" lon="7.30681">
        <ele>289</ele>
        <time>2021-06-21T10:01:26Z</time>
      </trkpt>
      <trkpt lat="48.17879" lon="7.30672">
        <ele>290</ele>
        <time>2021-06-21T10:01:30Z</time>
      </trkpt>
      <trkpt lat="48.17878" lon="7.30669">
        <ele>290.2</ele>
        <time>2021-06-21T10:01:31Z</time>
      </trkpt>
      <trkpt lat="48.17869" lon="7.3066">
        <ele>291.2</ele>
        <time>2021-06-21T10:01:36Z</time>
      </trkpt>
      <trkpt lat="48.17867" lon="7.30658">
        <ele>291.4</ele>
        <time>2021-06-21T10:01:37Z</time>
      </trkpt>
      <trkpt lat="48.17859" lon="7.30649">
        <ele>292.8</ele>
        <time>2021-06-21T10:01:42Z</time>
      </trkpt>
      <trkpt lat="48.17853" lon="7.30641">
        <ele>294</ele>
        <time>2021-06-21T10:01:46Z</time>
      </trkpt>
      <trkpt lat="48.17847" lon="7.30632">
        <ele>295.2</ele>
        <time>2021-06-21T10:01:50Z</time>
      </trkpt>
      <trkpt lat="48.17846" lon="7.3063">
        <ele>295.4</ele>
        <time>2021-06-21T10:01:51Z</time>
      </trkpt>
      <trkpt lat="48.1784" lon="7.30622">
        <ele>296.4</ele>
        <time>2021-06-21T10:01:55Z</time>
      </trkpt>
      <trkpt lat="48.17837" lon="7.30619">
        <ele>297</ele>
        <time>2021-06-21T10:01:57Z</time>
      </trkpt>
      <trkpt lat="48.17834" lon="7.30614">
        <ele>297.4</ele>
        <time>2021-06-21T10:01:59Z</time>
      </trkpt>
      <trkpt lat="48.17828" lon="7.30603">
        <ele>298.2</ele>
        <time>2021-06-21T10:02:04Z</time>
      </trkpt>
      <trkpt lat="48.17827" lon="7.30601">
        <ele>298.6</ele>
        <time>2021-06-21T10:02:05Z</time>
      </trkpt>
      <trkpt lat="48.17824" lon="7.30591">
        <ele>299.8</ele>
        <time>2021-06-21T10:02:09Z</time>
      </trkpt>
      <trkpt lat="48.17822" lon="7.30586">
        <ele>300.4</ele>
        <time>2021-06-21T10:02:11Z</time>
      </trkpt>
      <trkpt lat="48.17819" lon="7.30578">
        <ele>301</ele>
        <time>2021-06-21T10:02:14Z</time>
      </trkpt>
      <trkpt lat="48.17814" lon="7.30566">
        <ele>302.2</ele>
        <time>2021-06-21T10:02:18Z</time>
      </trkpt>
      <trkpt lat="48.17811" lon="7.3056">
        <ele>302.6</ele>
        <time>2021-06-21T10:02:20Z</time>
      </trkpt>
      <trkpt lat="48.17806" lon="7.30548">
        <ele>303.6</ele>
        <time>2021-06-21T10:02:24Z</time>
      </trkpt>
      <trkpt lat="48.17804" lon="7.30536">
        <ele>304.4</ele>
        <time>2021-06-21T10:02:28Z</time>
      </trkpt>
      <trkpt lat="48.17803" lon="7.30533">
        <ele>304.6</ele>
        <time>2021-06-21T10:02:29Z</time>
      </trkpt>
      <trkpt lat="48.178" lon="7.30516">
        <ele>305.6</ele>
        <time>2021-06-21T10:02:34Z</time>
      </trkpt>
      <trkpt lat="48.178" lon="7.30514">
        <ele>306.2</ele>
        <time>2021-06-21T10:02:35Z</time>
      </trkpt>
      <trkpt lat="48.17799" lon="7.30494">
        <ele>307.4</ele>
        <time>2021-06-21T10:02:41Z</time>
      </trkpt>
      <trkpt lat="48.17796" lon="7.30477">
        <ele>308.6</ele>
        <time>2021-06-21T10:02:46Z</time>
      </trkpt>
      <trkpt lat="48.17792" lon="7.30462">
        <ele>309.6</ele>
        <time>2021-06-21T10:02:50Z</time>
      </trkpt>
      <trkpt lat="48.17781" lon="7.30439">
        <ele>311</ele>
        <time>2021-06-21T10:02:57Z</time>
      </trkpt>
      <trkpt lat="48.1777" lon="7.30418">
        <ele>312</ele>
        <time>2021-06-21T10:03:03Z</time>
      </trkpt>
      <trkpt lat="48.17763" lon="7.30404">
        <ele>312.8</ele>
        <time>2021-06-21T10:03:06Z</time>
      </trkpt>
      <trkpt lat="48.17758" lon="7.30392">
        <ele>313</ele>
        <time>2021-06-21T10:03:09Z</time>
      </trkpt>
      <trkpt lat="48.17748" lon="7.30371">
        <ele>313.6</ele>
        <time>2021-06-21T10:03:14Z</time>
      </trkpt>
      <trkpt lat="48.17743" lon="7.30362">
        <ele>314</ele>
        <time>2021-06-21T10:03:16Z</time>
      </trkpt>
      <trkpt lat="48.17739" lon="7.30354">
        <ele>314.2</ele>
        <time>2021-06-21T10:03:18Z</time>
      </trkpt>
      <trkpt lat="48.17729" lon="7.30337">
        <ele>315</ele>
        <time>2021-06-21T10:03:22Z</time>
      </trkpt>
      <trkpt lat="48.17724" lon="7.3033">
        <ele>315.4</ele>
        <time>2021-06-21T10:03:24Z</time>
      </trkpt>
      <trkpt lat="48.17712" lon="7.3031">
        <ele>316</ele>
        <time>2021-06-21T10:03:29Z</time>
      </trkpt>
      <trkpt lat="48.17704" lon="7.30299">
        <ele>316.6</ele>
        <time>2021-06-21T10:03:32Z</time>
      </trkpt>
      <trkpt lat="48.1769" lon="7.30281">
        <ele>317.6</ele>
        <time>2021-06-21T10:03:37Z</time>
      </trkpt>
      <trkpt lat="48.17675" lon="7.30258">
        <ele>318.2</ele>
        <time>2021-06-21T10:03:43Z</time>
      </trkpt>
      <trkpt lat="48.17667" lon="7.30247">
        <ele>318.8</ele>
        <time>2021-06-21T10:03:46Z</time>
      </trkpt>
      <trkpt lat="48.17659" lon="7.30231">
        <ele>319.6</ele>
        <time>2021-06-21T10:03:50Z</time>
      </trkpt>
      <trkpt lat="48.17655" lon="7.30223">
        <ele>320</ele>
        <time>2021-06-21T10:03:52Z</time>
      </trkpt>
      <trkpt lat="48.17645" lon="7.30202">
        <ele>320.8</ele>
        <time>2021-06-21T10:03:57Z</time>
      </trkpt>
      <trkpt lat="48.17643" lon="7.30198">
        <ele>321</ele>
        <time>2021-06-21T10:03:58Z</time>
      </trkpt>
      <trkpt lat="48.17633" lon="7.30174">
        <ele>322.2</ele>
        <time>2021-06-21T10:04:04Z</time>
      </trkpt>
      <trkpt lat="48.1763" lon="7.30166">
        <ele>322.2</ele>
        <time>2021-06-21T10:04:06Z</time>
      </trkpt>
      <trkpt lat="48.17621" lon="7.30147">
        <ele>323.6</ele>
        <time>2021-06-21T10:04:11Z</time>
      </trkpt>
      <trkpt lat="48.17613" lon="7.30125">
        <ele>324.8</ele>
        <time>2021-06-21T10:04:17Z</time>
      </trkpt>
      <trkpt lat="48.17612" lon="7.30122">
        <ele>325</ele>
        <time>2021-06-21T10:04:18Z</time>
      </trkpt>
      <trkpt lat="48.17607" lon="7.30107">
        <ele>325.8</ele>
        <time>2021-06-21T10:04:22Z</time>
      </trkpt>
      <trkpt lat="48.176" lon="7.3009">
        <ele>326.8</ele>
        <time>2021-06-21T10:04:27Z</time>
      </trkpt>
      <trkpt lat="48.17599" lon="7.30087">
        <ele>327</ele>
        <time>2021-06-21T10:04:28Z</time>
      </trkpt>
      <trkpt lat="48.17592" lon="7.30073">
        <ele>328</ele>
        <time>2021-06-21T10:04:33Z</time>
      </trkpt>
      <trkpt lat="48.17589" lon="7.30067">
        <ele>328.6</ele>
        <time>2021-06-21T10:04:35Z</time>
      </trkpt>
      <trkpt lat="48.17584" lon="7.3006">
        <ele>329</ele>
        <time>2021-06-21T10:04:38Z</time>
      </trkpt>
      <trkpt lat="48.17578" lon="7.30052">
        <ele>330.4</ele>
        <time>2021-06-21T10:04:42Z</time>
      </trkpt>
      <trkpt lat="48.17576" lon="7.30048">
        <ele>330.6</ele>
        <time>2021-06-21T10:04:44Z</time>
      </trkpt>
      <trkpt lat="48.17573" lon="7.30042">
        <ele>331</ele>
        <time>2021-06-21T10:04:47Z</time>
      </trkpt>
      <trkpt lat="48.17571" lon="7.30038">
        <ele>331.6</ele>
        <time>2021-06-21T10:04:49Z</time>
      </trkpt>
      <trkpt lat="48.17565" lon="7.30032">
        <ele>332.6</ele>
        <time>2021-06-21T10:04:53Z</time>
      </trkpt>
      <trkpt lat="48.17556" lon="7.30025">
        <ele>334.2</ele>
        <time>2021-06-21T10:04:58Z</time>
      </trkpt>
      <trkpt lat="48.17554" lon="7.30022">
        <ele>334.6</ele>
        <time>2021-06-21T10:05:00Z</time>
      </trkpt>
      <trkpt lat="48.17551" lon="7.30019">
        <ele>335.2</ele>
        <time>2021-06-21T10:05:02Z</time>
      </trkpt>
      <trkpt lat="48.17542" lon="7.30011">
        <ele>336.2</ele>
        <time>2021-06-21T10:05:07Z</time>
      </trkpt>
      <trkpt lat="48.17541" lon="7.30009">
        <ele>336.6</ele>
        <time>2021-06-21T10:05:08Z</time>
      </trkpt>
      <trkpt lat="48.17537" lon="7.30002">
        <ele>337</ele>
        <time>2021-06-21T10:05:11Z</time>
      </trkpt>
      <trkpt lat="48.17535" lon="7.29996">
        <ele>337.2</ele>
        <time>2021-06-21T10:05:13Z</time>
      </trkpt>
      <trkpt lat="48.17534" lon="7.29994">
        <ele>337.4</ele>
        <time>2021-06-21T10:05:14Z</time>
      </trkpt>
      <trkpt lat="48.17531" lon="7.29988">
        <ele>338.4</ele>
        <time>2021-06-21T10:05:17Z</time>
      </trkpt>
      <trkpt lat="48.1753" lon="7.29983">
        <ele>338.8</ele>
        <time>2021-06-21T10:05:19Z</time>
      </trkpt>
      <trkpt lat="48.17528" lon="7.29977">
        <ele>339.2</ele>
        <time>2021-06-21T10:05:21Z</time>
      </trkpt>
      <trkpt lat="48.17527" lon="7.29975">
        <ele>339.6</ele>
        <time>2021-06-21T10:05:22Z</time>
      </trkpt>
      <trkpt lat="48.17524" lon="7.29971">
        <ele>340.6</ele>
        <time>2021-06-21T10:05:24Z</time>
      </trkpt>
      <trkpt lat="48.17521" lon="7.29967">
        <ele>341</ele>
        <time>2021-06-21T10:05:26Z</time>
      </trkpt>
      <trkpt lat="48.17518" lon="7.29959">
        <ele>341.8</ele>
        <time>2021-06-21T10:05:29Z</time>
      </trkpt>
      <trkpt lat="48.17516" lon="7.29955">
        <ele>342.2</ele>
        <time>2021-06-21T10:05:31Z</time>
      </trkpt>
      <trkpt lat="48.17513" lon="7.29946">
        <ele>343.2</ele>
        <time>2021-06-21T10:05:35Z</time>
      </trkpt>
      <trkpt lat="48.17509" lon="7.29942">
        <ele>343.6</ele>
        <time>2021-06-21T10:05:37Z</time>
      </trkpt>
      <trkpt lat="48.17504" lon="7.29936">
        <ele>344.4</ele>
        <time>2021-06-21T10:05:40Z</time>
      </trkpt>
      <trkpt lat="48.17502" lon="7.29931">
        <ele>345</ele>
        <time>2021-06-21T10:05:42Z</time>
      </trkpt>
      <trkpt lat="48.17501" lon="7.2993">
        <ele>345.2</ele>
        <time>2021-06-21T10:05:43Z</time>
      </trkpt>
      <trkpt lat="48.17499" lon="7.29925">
        <ele>345.6</ele>
        <time>2021-06-21T10:05:45Z</time>
      </trkpt>
      <trkpt lat="48.17495" lon="7.29917">
        <ele>346.2</ele>
        <time>2021-06-21T10:05:48Z</time>
      </trkpt>
      <trkpt lat="48.17494" lon="7.29916">
        <ele>346.8</ele>
        <time>2021-06-21T10:05:49Z</time>
      </trkpt>
      <trkpt lat="48.17489" lon="7.29903">
        <ele>347.8</ele>
        <time>2021-06-21T10:05:54Z</time>
      </trkpt>
      <trkpt lat="48.17488" lon="7.29899">
        <ele>348</ele>
        <time>2021-06-21T10:05:55Z</time>
      </trkpt>
      <trkpt lat="48.17485" lon="7.29892">
        <ele>348.8</ele>
        <time>2021-06-21T10:05:58Z</time>
      </trkpt>
      <trkpt lat="48.17484" lon="7.29889">
        <ele>349</ele>
        <time>2021-06-21T10:05:59Z</time>
      </trkpt>
      <trkpt lat="48.17484" lon="7.29882">
        <ele>349.6</ele>
        <time>2021-06-21T10:06:01Z</time>
      </trkpt>
      <trkpt lat="48.17479" lon="7.29873">
        <ele>350</ele>
        <time>2021-06-21T10:06:04Z</time>
      </trkpt>
      <trkpt lat="48.17475" lon="7.29865">
        <ele>351</ele>
        <time>2021-06-21T10:06:08Z</time>
      </trkpt>
      <trkpt lat="48.17473" lon="7.29864">
        <ele>351.2</ele>
        <time>2021-06-21T10:06:09Z</time>
      </trkpt>
      <trkpt lat="48.17469" lon="7.2986">
        <ele>351.8</ele>
        <time>2021-06-21T10:06:11Z</time>
      </trkpt>
      <trkpt lat="48.17467" lon="7.29858">
        <ele>352.2</ele>
        <time>2021-06-21T10:06:12Z</time>
      </trkpt>
      <trkpt lat="48.17465" lon="7.29854">
        <ele>352.8</ele>
        <time>2021-06-21T10:06:14Z</time>
      </trkpt>
      <trkpt lat="48.17464" lon="7.29852">
        <ele>353.4</ele>
        <time>2021-06-21T10:06:15Z</time>
      </trkpt>
      <trkpt lat="48.17459" lon="7.29846">
        <ele>354</ele>
        <time>2021-06-21T10:06:18Z</time>
      </trkpt>
      <trkpt lat="48.17455" lon="7.29842">
        <ele>354.6</ele>
        <time>2021-06-21T10:06:20Z</time>
      </trkpt>
      <trkpt lat="48.17447" lon="7.29831">
        <ele>355.6</ele>
        <time>2021-06-21T10:06:25Z</time>
      </trkpt>
      <trkpt lat="48.17443" lon="7.29829">
        <ele>355.8</ele>
        <time>2021-06-21T10:06:26Z</time>
      </trkpt>
      <trkpt lat="48.17438" lon="7.29822">
        <ele>356.6</ele>
        <time>2021-06-21T10:06:29Z</time>
      </trkpt>
      <trkpt lat="48.17427" lon="7.29811">
        <ele>358</ele>
        <time>2021-06-21T10:06:34Z</time>
      </trkpt>
      <trkpt lat="48.17423" lon="7.29806">
        <ele>358.8</ele>
        <time>2021-06-21T10:06:38Z</time>
      </trkpt>
      <trkpt lat="48.17422" lon="7.29804">
        <ele>359</ele>
        <time>2021-06-21T10:06:39Z</time>
      </trkpt>
      <trkpt lat="48.1742" lon="7.298">
        <ele>359.8</ele>
        <time>2021-06-21T10:06:41Z</time>
      </trkpt>
      <trkpt lat="48.17418" lon="7.29799">
        <ele>360</ele>
        <time>2021-06-21T10:06:42Z</time>
      </trkpt>
      <trkpt lat="48.17416" lon="7.29797">
        <ele>360.4</ele>
        <time>2021-06-21T10:06:43Z</time>
      </trkpt>
      <trkpt lat="48.17413" lon="7.29794">
        <ele>360.4</ele>
        <time>2021-06-21T10:06:44Z</time>
      </trkpt>
      <trkpt lat="48.1741" lon="7.29787">
        <ele>361</ele>
        <time>2021-06-21T10:06:47Z</time>
      </trkpt>
      <trkpt lat="48.17408" lon="7.29784">
        <ele>361.4</ele>
        <time>2021-06-21T10:06:49Z</time>
      </trkpt>
      <trkpt lat="48.17407" lon="7.29782">
        <ele>361.6</ele>
        <time>2021-06-21T10:06:50Z</time>
      </trkpt>
      <trkpt lat="48.17403" lon="7.29777">
        <ele>362</ele>
        <time>2021-06-21T10:06:53Z</time>
      </trkpt>
      <trkpt lat="48.17398" lon="7.29768">
        <ele>363.2</ele>
        <time>2021-06-21T10:06:57Z</time>
      </trkpt>
      <trkpt lat="48.17391" lon="7.29752">
        <ele>364.2</ele>
        <time>2021-06-21T10:07:03Z</time>
      </trkpt>
      <trkpt lat="48.17389" lon="7.2975">
        <ele>364.6</ele>
        <time>2021-06-21T10:07:04Z</time>
      </trkpt>
      <trkpt lat="48.17385" lon="7.29745">
        <ele>365.2</ele>
        <time>2021-06-21T10:07:06Z</time>
      </trkpt>
      <trkpt lat="48.17382" lon="7.29737">
        <ele>365.8</ele>
        <time>2021-06-21T10:07:09Z</time>
      </trkpt>
      <trkpt lat="48.17379" lon="7.29732">
        <ele>366.2</ele>
        <time>2021-06-21T10:07:11Z</time>
      </trkpt>
      <trkpt lat="48.17367" lon="7.29723">
        <ele>367.2</ele>
        <time>2021-06-21T10:07:15Z</time>
      </trkpt>
      <trkpt lat="48.17365" lon="7.29721">
        <ele>367.8</ele>
        <time>2021-06-21T10:07:16Z</time>
      </trkpt>
      <trkpt lat="48.17355" lon="7.2971">
        <ele>368.6</ele>
        <time>2021-06-21T10:07:20Z</time>
      </trkpt>
      <trkpt lat="48.17352" lon="7.29706">
        <ele>368.8</ele>
        <time>2021-06-21T10:07:21Z</time>
      </trkpt>
      <trkpt lat="48.17342" lon="7.29686">
        <ele>369.6</ele>
        <time>2021-06-21T10:07:27Z</time>
      </trkpt>
      <trkpt lat="48.17337" lon="7.29673">
        <ele>369.6</ele>
        <time>2021-06-21T10:07:31Z</time>
      </trkpt>
      <trkpt lat="48.17333" lon="7.29666">
        <ele>369.6</ele>
        <time>2021-06-21T10:07:33Z</time>
      </trkpt>
      <trkpt lat="48.17322" lon="7.29646">
        <ele>369.4</ele>
        <time>2021-06-21T10:07:38Z</time>
      </trkpt>
      <trkpt lat="48.17312" lon="7.29627">
        <ele>368.8</ele>
        <time>2021-06-21T10:07:42Z</time>
      </trkpt>
      <trkpt lat="48.17308" lon="7.29621">
        <ele>368.8</ele>
        <time>2021-06-21T10:07:43Z</time>
      </trkpt>
      <trkpt lat="48.17282" lon="7.29584">
        <ele>367.8</ele>
        <time>2021-06-21T10:07:48Z</time>
      </trkpt>
      <trkpt lat="48.17262" lon="7.29556">
        <ele>366.6</ele>
        <time>2021-06-21T10:07:51Z</time>
      </trkpt>
      <trkpt lat="48.17248" lon="7.29541">
        <ele>364.8</ele>
        <time>2021-06-21T10:07:53Z</time>
      </trkpt>
      <trkpt lat="48.17234" lon="7.29523">
        <ele>363.2</ele>
        <time>2021-06-21T10:07:55Z</time>
      </trkpt>
      <trkpt lat="48.17219" lon="7.29506">
        <ele>361.6</ele>
        <time>2021-06-21T10:07:57Z</time>
      </trkpt>
      <trkpt lat="48.17212" lon="7.29499">
        <ele>361.2</ele>
        <time>2021-06-21T10:07:58Z</time>
      </trkpt>
      <trkpt lat="48.17204" lon="7.29493">
        <ele>360.2</ele>
        <time>2021-06-21T10:07:59Z</time>
      </trkpt>
      <trkpt lat="48.17196" lon="7.29488">
        <ele>359.6</ele>
        <time>2021-06-21T10:08:00Z</time>
      </trkpt>
      <trkpt lat="48.17188" lon="7.29484">
        <ele>359.2</ele>
        <time>2021-06-21T10:08:01Z</time>
      </trkpt>
      <trkpt lat="48.1718" lon="7.2948">
        <ele>358.4</ele>
        <time>2021-06-21T10:08:02Z</time>
      </trkpt>
      <trkpt lat="48.17173" lon="7.29476">
        <ele>357.6</ele>
        <time>2021-06-21T10:08:03Z</time>
      </trkpt>
      <trkpt lat="48.17165" lon="7.29472">
        <ele>356.4</ele>
        <time>2021-06-21T10:08:04Z</time>
      </trkpt>
      <trkpt lat="48.1715" lon="7.29465">
        <ele>354.8</ele>
        <time>2021-06-21T10:08:06Z</time>
      </trkpt>
      <trkpt lat="48.17141" lon="7.29462">
        <ele>353.6</ele>
        <time>2021-06-21T10:08:07Z</time>
      </trkpt>
      <trkpt lat="48.17133" lon="7.2946">
        <ele>353</ele>
        <time>2021-06-21T10:08:08Z</time>
      </trkpt>
      <trkpt lat="48.17125" lon="7.29458">
        <ele>352</ele>
        <time>2021-06-21T10:08:09Z</time>
      </trkpt>
      <trkpt lat="48.17114" lon="7.29455">
        <ele>350.6</ele>
        <time>2021-06-21T10:08:11Z</time>
      </trkpt>
      <trkpt lat="48.17108" lon="7.29451">
        <ele>349.4</ele>
        <time>2021-06-21T10:08:13Z</time>
      </trkpt>
      <trkpt lat="48.17107" lon="7.29449">
        <ele>348.6</ele>
        <time>2021-06-21T10:08:14Z</time>
      </trkpt>
      <trkpt lat="48.17106" lon="7.29445">
        <ele>348.4</ele>
        <time>2021-06-21T10:08:15Z</time>
      </trkpt>
      <trkpt lat="48.17108" lon="7.29429">
        <ele>347.8</ele>
        <time>2021-06-21T10:08:18Z</time>
      </trkpt>
      <trkpt lat="48.17107" lon="7.29423">
        <ele>347.6</ele>
        <time>2021-06-21T10:08:19Z</time>
      </trkpt>
      <trkpt lat="48.17105" lon="7.29407">
        <ele>347.4</ele>
        <time>2021-06-21T10:08:21Z</time>
      </trkpt>
      <trkpt lat="48.17102" lon="7.29398">
        <ele>347.2</ele>
        <time>2021-06-21T10:08:22Z</time>
      </trkpt>
      <trkpt lat="48.17091" lon="7.29369">
        <ele>345.6</ele>
        <time>2021-06-21T10:08:25Z</time>
      </trkpt>
      <trkpt lat="48.17087" lon="7.29361">
        <ele>345.2</ele>
        <time>2021-06-21T10:08:26Z</time>
      </trkpt>
      <trkpt lat="48.17082" lon="7.29353">
        <ele>344.2</ele>
        <time>2021-06-21T10:08:27Z</time>
      </trkpt>
      <trkpt lat="48.17071" lon="7.29335">
        <ele>342.8</ele>
        <time>2021-06-21T10:08:29Z</time>
      </trkpt>
      <trkpt lat="48.1706" lon="7.29316">
        <ele>341.6</ele>
        <time>2021-06-21T10:08:31Z</time>
      </trkpt>
      <trkpt lat="48.17055" lon="7.29307">
        <ele>341</ele>
        <time>2021-06-21T10:08:32Z</time>
      </trkpt>
      <trkpt lat="48.17044" lon="7.29288">
        <ele>340.2</ele>
        <time>2021-06-21T10:08:34Z</time>
      </trkpt>
      <trkpt lat="48.17039" lon="7.29278">
        <ele>339.6</ele>
        <time>2021-06-21T10:08:35Z</time>
      </trkpt>
      <trkpt lat="48.17035" lon="7.29267">
        <ele>339</ele>
        <time>2021-06-21T10:08:36Z</time>
      </trkpt>
      <trkpt lat="48.17031" lon="7.29258">
        <ele>338.2</ele>
        <time>2021-06-21T10:08:37Z</time>
      </trkpt>
      <trkpt lat="48.17029" lon="7.29249">
        <ele>338</ele>
        <time>2021-06-21T10:08:38Z</time>
      </trkpt>
      <trkpt lat="48.17028" lon="7.29241">
        <ele>337.2</ele>
        <time>2021-06-21T10:08:39Z</time>
      </trkpt>
      <trkpt lat="48.17027" lon="7.29232">
        <ele>336.8</ele>
        <time>2021-06-21T10:08:40Z</time>
      </trkpt>
      <trkpt lat="48.17028" lon="7.29223">
        <ele>335.8</ele>
        <time>2021-06-21T10:08:42Z</time>
      </trkpt>
      <trkpt lat="48.17028" lon="7.29217">
        <ele>335.2</ele>
        <time>2021-06-21T10:08:44Z</time>
      </trkpt>
      <trkpt lat="48.17029" lon="7.29206">
        <ele>335</ele>
        <time>2021-06-21T10:08:48Z</time>
      </trkpt>
      <trkpt lat="48.17028" lon="7.29203">
        <ele>335</ele>
        <time>2021-06-21T10:08:49Z</time>
      </trkpt>
      <trkpt lat="48.17029" lon="7.29182">
        <ele>335</ele>
        <time>2021-06-21T10:08:53Z</time>
      </trkpt>
      <trkpt lat="48.17026" lon="7.29155">
        <ele>334.8</ele>
        <time>2021-06-21T10:08:58Z</time>
      </trkpt>
      <trkpt lat="48.17024" lon="7.29152">
        <ele>334.8</ele>
        <time>2021-06-21T10:08:59Z</time>
      </trkpt>
      <trkpt lat="48.1702" lon="7.29149">
        <ele>334.6</ele>
        <time>2021-06-21T10:09:01Z</time>
      </trkpt>
      <trkpt lat="48.17016" lon="7.29148">
        <ele>334.6</ele>
        <time>2021-06-21T10:09:02Z</time>
      </trkpt>
      <trkpt lat="48.1701" lon="7.29153">
        <ele>334.4</ele>
        <time>2021-06-21T10:09:04Z</time>
      </trkpt>
      <trkpt lat="48.17" lon="7.29173">
        <ele>334.4</ele>
        <time>2021-06-21T10:09:08Z</time>
      </trkpt>
      <trkpt lat="48.16985" lon="7.2921">
        <ele>334</ele>
        <time>2021-06-21T10:09:14Z</time>
      </trkpt>
      <trkpt lat="48.16972" lon="7.29232">
        <ele>333.8</ele>
        <time>2021-06-21T10:09:17Z</time>
      </trkpt>
      <trkpt lat="48.16966" lon="7.29245">
        <ele>333.6</ele>
        <time>2021-06-21T10:09:19Z</time>
      </trkpt>
      <trkpt lat="48.16963" lon="7.29249">
        <ele>333.6</ele>
        <time>2021-06-21T10:09:20Z</time>
      </trkpt>
      <trkpt lat="48.16956" lon="7.29261">
        <ele>333.6</ele>
        <time>2021-06-21T10:09:22Z</time>
      </trkpt>
      <trkpt lat="48.16944" lon="7.29278">
        <ele>333.4</ele>
        <time>2021-06-21T10:09:25Z</time>
      </trkpt>
      <trkpt lat="48.16932" lon="7.29296">
        <ele>333.4</ele>
        <time>2021-06-21T10:09:28Z</time>
      </trkpt>
      <trkpt lat="48.16917" lon="7.29309">
        <ele>333.2</ele>
        <time>2021-06-21T10:09:31Z</time>
      </trkpt>
      <trkpt lat="48.16898" lon="7.29322">
        <ele>333</ele>
        <time>2021-06-21T10:09:35Z</time>
      </trkpt>
      <trkpt lat="48.16889" lon="7.29328">
        <ele>332.8</ele>
        <time>2021-06-21T10:09:37Z</time>
      </trkpt>
      <trkpt lat="48.16887" lon="7.29328">
        <ele>332.6</ele>
        <time>2021-06-21T10:09:38Z</time>
      </trkpt>
      <trkpt lat="48.16882" lon="7.29328">
        <ele>332.4</ele>
        <time>2021-06-21T10:09:40Z</time>
      </trkpt>
      <trkpt lat="48.16874" lon="7.29331">
        <ele>331.6</ele>
        <time>2021-06-21T10:09:46Z</time>
      </trkpt>
      <trkpt lat="48.16874" lon="7.29331">
        <ele>331.4</ele>
        <time>2021-06-21T10:09:47Z</time>
      </trkpt>
      <trkpt lat="48.16866" lon="7.29332">
        <ele>330.6</ele>
        <time>2021-06-21T10:10:00Z</time>
      </trkpt>
      <trkpt lat="48.16863" lon="7.29332">
        <ele>330.6</ele>
        <time>2021-06-21T10:10:01Z</time>
      </trkpt>
      <trkpt lat="48.16837" lon="7.29336">
        <ele>329.8</ele>
        <time>2021-06-21T10:10:06Z</time>
      </trkpt>
      <trkpt lat="48.1683" lon="7.29338">
        <ele>329.2</ele>
        <time>2021-06-21T10:10:07Z</time>
      </trkpt>
      <trkpt lat="48.1682" lon="7.29342">
        <ele>327.8</ele>
        <time>2021-06-21T10:10:09Z</time>
      </trkpt>
      <trkpt lat="48.16815" lon="7.29346">
        <ele>327.4</ele>
        <time>2021-06-21T10:10:10Z</time>
      </trkpt>
      <trkpt lat="48.16811" lon="7.29351">
        <ele>326.8</ele>
        <time>2021-06-21T10:10:11Z</time>
      </trkpt>
      <trkpt lat="48.16806" lon="7.29356">
        <ele>326.2</ele>
        <time>2021-06-21T10:10:12Z</time>
      </trkpt>
      <trkpt lat="48.16802" lon="7.29361">
        <ele>325.8</ele>
        <time>2021-06-21T10:10:13Z</time>
      </trkpt>
      <trkpt lat="48.16795" lon="7.29373">
        <ele>324.2</ele>
        <time>2021-06-21T10:10:15Z</time>
      </trkpt>
      <trkpt lat="48.16789" lon="7.29384">
        <ele>322.8</ele>
        <time>2021-06-21T10:10:17Z</time>
      </trkpt>
      <trkpt lat="48.16784" lon="7.29392">
        <ele>321</ele>
        <time>2021-06-21T10:10:19Z</time>
      </trkpt>
      <trkpt lat="48.16777" lon="7.29399">
        <ele>319.8</ele>
        <time>2021-06-21T10:10:21Z</time>
      </trkpt>
      <trkpt lat="48.16768" lon="7.29406">
        <ele>318.4</ele>
        <time>2021-06-21T10:10:23Z</time>
      </trkpt>
      <trkpt lat="48.16764" lon="7.29411">
        <ele>318</ele>
        <time>2021-06-21T10:10:24Z</time>
      </trkpt>
      <trkpt lat="48.16759" lon="7.29415">
        <ele>317.4</ele>
        <time>2021-06-21T10:10:25Z</time>
      </trkpt>
      <trkpt lat="48.16752" lon="7.29425">
        <ele>316.6</ele>
        <time>2021-06-21T10:10:27Z</time>
      </trkpt>
      <trkpt lat="48.1675" lon="7.29428">
        <ele>316.2</ele>
        <time>2021-06-21T10:10:28Z</time>
      </trkpt>
      <trkpt lat="48.16745" lon="7.29437">
        <ele>315</ele>
        <time>2021-06-21T10:10:31Z</time>
      </trkpt>
      <trkpt lat="48.16739" lon="7.29445">
        <ele>313.6</ele>
        <time>2021-06-21T10:10:35Z</time>
      </trkpt>
      <trkpt lat="48.16739" lon="7.29447">
        <ele>313.4</ele>
        <time>2021-06-21T10:10:36Z</time>
      </trkpt>
      <trkpt lat="48.16739" lon="7.29448">
        <ele>313.2</ele>
        <time>2021-06-21T10:10:37Z</time>
      </trkpt>
      <trkpt lat="48.16739" lon="7.29448">
        <ele>313.2</ele>
        <time>2021-06-21T10:10:38Z</time>
      </trkpt>
      <trkpt lat="48.16732" lon="7.29452">
        <ele>312.2</ele>
        <time>2021-06-21T10:10:55Z</time>
      </trkpt>
      <trkpt lat="48.16731" lon="7.29452">
        <ele>312</ele>
        <time>2021-06-21T10:10:57Z</time>
      </trkpt>
      <trkpt lat="48.16727" lon="7.29451">
        <ele>311.8</ele>
        <time>2021-06-21T10:11:09Z</time>
      </trkpt>
      <trkpt lat="48.16722" lon="7.29451">
        <ele>311.8</ele>
        <time>2021-06-21T10:11:11Z</time>
      </trkpt>
      <trkpt lat="48.167" lon="7.29449">
        <ele>311.8</ele>
        <time>2021-06-21T10:11:17Z</time>
      </trkpt>
      <trkpt lat="48.16669" lon="7.2945">
        <ele>311.2</ele>
        <time>2021-06-21T10:11:23Z</time>
      </trkpt>
      <trkpt lat="48.16664" lon="7.2945">
        <ele>311.2</ele>
        <time>2021-06-21T10:11:24Z</time>
      </trkpt>
      <trkpt lat="48.16626" lon="7.29449">
        <ele>310.6</ele>
        <time>2021-06-21T10:11:31Z</time>
      </trkpt>
      <trkpt lat="48.16595" lon="7.29447">
        <ele>310.2</ele>
        <time>2021-06-21T10:11:37Z</time>
      </trkpt>
      <trkpt lat="48.16585" lon="7.2945">
        <ele>310.2</ele>
        <time>2021-06-21T10:11:39Z</time>
      </trkpt>
      <trkpt lat="48.16576" lon="7.29455">
        <ele>310.2</ele>
        <time>2021-06-21T10:11:41Z</time>
      </trkpt>
      <trkpt lat="48.16568" lon="7.29462">
        <ele>310.2</ele>
        <time>2021-06-21T10:11:43Z</time>
      </trkpt>
      <trkpt lat="48.16564" lon="7.29467">
        <ele>310.2</ele>
        <time>2021-06-21T10:11:44Z</time>
      </trkpt>
      <trkpt lat="48.1654" lon="7.29495">
        <ele>309.8</ele>
        <time>2021-06-21T10:11:49Z</time>
      </trkpt>
      <trkpt lat="48.16528" lon="7.29507">
        <ele>309.2</ele>
        <time>2021-06-21T10:11:51Z</time>
      </trkpt>
      <trkpt lat="48.16509" lon="7.29528">
        <ele>307.8</ele>
        <time>2021-06-21T10:11:54Z</time>
      </trkpt>
      <trkpt lat="48.16503" lon="7.29535">
        <ele>307.4</ele>
        <time>2021-06-21T10:11:55Z</time>
      </trkpt>
      <trkpt lat="48.16496" lon="7.29542">
        <ele>306.6</ele>
        <time>2021-06-21T10:11:56Z</time>
      </trkpt>
      <trkpt lat="48.16485" lon="7.29558">
        <ele>305.4</ele>
        <time>2021-06-21T10:11:58Z</time>
      </trkpt>
      <trkpt lat="48.16476" lon="7.29575">
        <ele>303.4</ele>
        <time>2021-06-21T10:12:00Z</time>
      </trkpt>
      <trkpt lat="48.16472" lon="7.29584">
        <ele>302.8</ele>
        <time>2021-06-21T10:12:01Z</time>
      </trkpt>
      <trkpt lat="48.16465" lon="7.29604">
        <ele>302</ele>
        <time>2021-06-21T10:12:03Z</time>
      </trkpt>
      <trkpt lat="48.16459" lon="7.29623">
        <ele>301.2</ele>
        <time>2021-06-21T10:12:05Z</time>
      </trkpt>
      <trkpt lat="48.16455" lon="7.29632">
        <ele>301</ele>
        <time>2021-06-21T10:12:06Z</time>
      </trkpt>
      <trkpt lat="48.16451" lon="7.29636">
        <ele>300.6</ele>
        <time>2021-06-21T10:12:07Z</time>
      </trkpt>
      <trkpt lat="48.16445" lon="7.29637">
        <ele>300.2</ele>
        <time>2021-06-21T10:12:08Z</time>
      </trkpt>
      <trkpt lat="48.16434" lon="7.29635">
        <ele>299.2</ele>
        <time>2021-06-21T10:12:10Z</time>
      </trkpt>
      <trkpt lat="48.16422" lon="7.29631">
        <ele>298.4</ele>
        <time>2021-06-21T10:12:12Z</time>
      </trkpt>
      <trkpt lat="48.16416" lon="7.29629">
        <ele>298.2</ele>
        <time>2021-06-21T10:12:13Z</time>
      </trkpt>
      <trkpt lat="48.16411" lon="7.29628">
        <ele>298</ele>
        <time>2021-06-21T10:12:14Z</time>
      </trkpt>
      <trkpt lat="48.16388" lon="7.29626">
        <ele>298</ele>
        <time>2021-06-21T10:12:18Z</time>
      </trkpt>
      <trkpt lat="48.16383" lon="7.29626">
        <ele>298</ele>
        <time>2021-06-21T10:12:19Z</time>
      </trkpt>
      <trkpt lat="48.16378" lon="7.29627">
        <ele>298</ele>
        <time>2021-06-21T10:12:20Z</time>
      </trkpt>
      <trkpt lat="48.16358" lon="7.29632">
        <ele>298.8</ele>
        <time>2021-06-21T10:12:24Z</time>
      </trkpt>
      <trkpt lat="48.1635" lon="7.29631">
        <ele>299.4</ele>
        <time>2021-06-21T10:12:26Z</time>
      </trkpt>
      <trkpt lat="48.16346" lon="7.2963">
        <ele>299.6</ele>
        <time>2021-06-21T10:12:27Z</time>
      </trkpt>
      <trkpt lat="48.16339" lon="7.29627">
        <ele>300</ele>
        <time>2021-06-21T10:12:29Z</time>
      </trkpt>
      <trkpt lat="48.16333" lon="7.29625">
        <ele>300.6</ele>
        <time>2021-06-21T10:12:31Z</time>
      </trkpt>
      <trkpt lat="48.1632" lon="7.2962">
        <ele>301.8</ele>
        <time>2021-06-21T10:12:35Z</time>
      </trkpt>
      <trkpt lat="48.16308" lon="7.29616">
        <ele>303</ele>
        <time>2021-06-21T10:12:39Z</time>
      </trkpt>
      <trkpt lat="48.16302" lon="7.29615">
        <ele>303.6</ele>
        <time>2021-06-21T10:12:41Z</time>
      </trkpt>
      <trkpt lat="48.16297" lon="7.29613">
        <ele>304</ele>
        <time>2021-06-21T10:12:43Z</time>
      </trkpt>
      <trkpt lat="48.16287" lon="7.29608">
        <ele>305.2</ele>
        <time>2021-06-21T10:12:47Z</time>
      </trkpt>
      <trkpt lat="48.16285" lon="7.29607">
        <ele>305.2</ele>
        <time>2021-06-21T10:12:48Z</time>
      </trkpt>
      <trkpt lat="48.16275" lon="7.29603">
        <ele>306.4</ele>
        <time>2021-06-21T10:12:52Z</time>
      </trkpt>
      <trkpt lat="48.16269" lon="7.29601">
        <ele>306.6</ele>
        <time>2021-06-21T10:12:54Z</time>
      </trkpt>
      <trkpt lat="48.16258" lon="7.29597">
        <ele>307.6</ele>
        <time>2021-06-21T10:12:59Z</time>
      </trkpt>
      <trkpt lat="48.16249" lon="7.29594">
        <ele>308.6</ele>
        <time>2021-06-21T10:13:03Z</time>
      </trkpt>
      <trkpt lat="48.16236" lon="7.2959">
        <ele>309.8</ele>
        <time>2021-06-21T10:13:08Z</time>
      </trkpt>
      <trkpt lat="48.16226" lon="7.29587">
        <ele>310.6</ele>
        <time>2021-06-21T10:13:12Z</time>
      </trkpt>
      <trkpt lat="48.16224" lon="7.29586">
        <ele>310.8</ele>
        <time>2021-06-21T10:13:13Z</time>
      </trkpt>
      <trkpt lat="48.16215" lon="7.29584">
        <ele>312</ele>
        <time>2021-06-21T10:13:17Z</time>
      </trkpt>
      <trkpt lat="48.1621" lon="7.29582">
        <ele>312.4</ele>
        <time>2021-06-21T10:13:19Z</time>
      </trkpt>
      <trkpt lat="48.16204" lon="7.29578">
        <ele>313.4</ele>
        <time>2021-06-21T10:13:22Z</time>
      </trkpt>
      <trkpt lat="48.16199" lon="7.29577">
        <ele>313.6</ele>
        <time>2021-06-21T10:13:24Z</time>
      </trkpt>
      <trkpt lat="48.16195" lon="7.29574">
        <ele>314</ele>
        <time>2021-06-21T10:13:26Z</time>
      </trkpt>
      <trkpt lat="48.16189" lon="7.2957">
        <ele>314.6</ele>
        <time>2021-06-21T10:13:29Z</time>
      </trkpt>
      <trkpt lat="48.1618" lon="7.29564">
        <ele>315.6</ele>
        <time>2021-06-21T10:13:34Z</time>
      </trkpt>
      <trkpt lat="48.16173" lon="7.29557">
        <ele>317</ele>
        <time>2021-06-21T10:13:38Z</time>
      </trkpt>
      <trkpt lat="48.16165" lon="7.2955">
        <ele>318</ele>
        <time>2021-06-21T10:13:43Z</time>
      </trkpt>
      <trkpt lat="48.16163" lon="7.29549">
        <ele>318.2</ele>
        <time>2021-06-21T10:13:44Z</time>
      </trkpt>
      <trkpt lat="48.16157" lon="7.29544">
        <ele>319.4</ele>
        <time>2021-06-21T10:13:48Z</time>
      </trkpt>
      <trkpt lat="48.16149" lon="7.29539">
        <ele>320.4</ele>
        <time>2021-06-21T10:13:52Z</time>
      </trkpt>
      <trkpt lat="48.16146" lon="7.29538">
        <ele>320.6</ele>
        <time>2021-06-21T10:13:53Z</time>
      </trkpt>
      <trkpt lat="48.16136" lon="7.29535">
        <ele>321.6</ele>
        <time>2021-06-21T10:13:58Z</time>
      </trkpt>
      <trkpt lat="48.16132" lon="7.29534">
        <ele>322.2</ele>
        <time>2021-06-21T10:14:00Z</time>
      </trkpt>
      <trkpt lat="48.16126" lon="7.29534">
        <ele>322.8</ele>
        <time>2021-06-21T10:14:03Z</time>
      </trkpt>
      <trkpt lat="48.16122" lon="7.29533">
        <ele>323.4</ele>
        <time>2021-06-21T10:14:05Z</time>
      </trkpt>
      <trkpt lat="48.16118" lon="7.29532">
        <ele>324</ele>
        <time>2021-06-21T10:14:07Z</time>
      </trkpt>
      <trkpt lat="48.16116" lon="7.29531">
        <ele>324.4</ele>
        <time>2021-06-21T10:14:08Z</time>
      </trkpt>
      <trkpt lat="48.1611" lon="7.29526">
        <ele>325.2</ele>
        <time>2021-06-21T10:14:11Z</time>
      </trkpt>
      <trkpt lat="48.16101" lon="7.29521">
        <ele>326.2</ele>
        <time>2021-06-21T10:14:15Z</time>
      </trkpt>
      <trkpt lat="48.16099" lon="7.29519">
        <ele>326.4</ele>
        <time>2021-06-21T10:14:16Z</time>
      </trkpt>
      <trkpt lat="48.16093" lon="7.29514">
        <ele>327.6</ele>
        <time>2021-06-21T10:14:19Z</time>
      </trkpt>
      <trkpt lat="48.16086" lon="7.29508">
        <ele>328.4</ele>
        <time>2021-06-21T10:14:22Z</time>
      </trkpt>
      <trkpt lat="48.16079" lon="7.29501">
        <ele>328.6</ele>
        <time>2021-06-21T10:14:25Z</time>
      </trkpt>
      <trkpt lat="48.1607" lon="7.29491">
        <ele>329.6</ele>
        <time>2021-06-21T10:14:30Z</time>
      </trkpt>
      <trkpt lat="48.16069" lon="7.29489">
        <ele>329.8</ele>
        <time>2021-06-21T10:14:31Z</time>
      </trkpt>
      <trkpt lat="48.16068" lon="7.29489">
        <ele>330</ele>
        <time>2021-06-21T10:14:32Z</time>
      </trkpt>
      <trkpt lat="48.16068" lon="7.29488">
        <ele>330.4</ele>
        <time>2021-06-21T10:14:34Z</time>
      </trkpt>
      <trkpt lat="48.16068" lon="7.29488">
        <ele>330.4</ele>
        <time>2021-06-21T10:14:35Z</time>
      </trkpt>
      <trkpt lat="48.16068" lon="7.29485">
        <ele>330.2</ele>
        <time>2021-06-21T10:15:34Z</time>
      </trkpt>
      <trkpt lat="48.16065" lon="7.29477">
        <ele>330.2</ele>
        <time>2021-06-21T10:15:36Z</time>
      </trkpt>
      <trkpt lat="48.16047" lon="7.29462">
        <ele>330.6</ele>
        <time>2021-06-21T10:15:42Z</time>
      </trkpt>
      <trkpt lat="48.1602" lon="7.29445">
        <ele>330.6</ele>
        <time>2021-06-21T10:15:49Z</time>
      </trkpt>
      <trkpt lat="48.15988" lon="7.29429">
        <ele>330.2</ele>
        <time>2021-06-21T10:15:55Z</time>
      </trkpt>
      <trkpt lat="48.1597" lon="7.29422">
        <ele>329.6</ele>
        <time>2021-06-21T10:15:58Z</time>
      </trkpt>
      <trkpt lat="48.15964" lon="7.29419">
        <ele>329.4</ele>
        <time>2021-06-21T10:15:59Z</time>
      </trkpt>
      <trkpt lat="48.15952" lon="7.29411">
        <ele>329</ele>
        <time>2021-06-21T10:16:01Z</time>
      </trkpt>
      <trkpt lat="48.1594" lon="7.29403">
        <ele>328</ele>
        <time>2021-06-21T10:16:03Z</time>
      </trkpt>
      <trkpt lat="48.15913" lon="7.29376">
        <ele>327.8</ele>
        <time>2021-06-21T10:16:08Z</time>
      </trkpt>
      <trkpt lat="48.15878" lon="7.29334">
        <ele>327.8</ele>
        <time>2021-06-21T10:16:15Z</time>
      </trkpt>
      <trkpt lat="48.15841" lon="7.293">
        <ele>327.8</ele>
        <time>2021-06-21T10:16:22Z</time>
      </trkpt>
      <trkpt lat="48.15793" lon="7.29265">
        <ele>327.6</ele>
        <time>2021-06-21T10:16:30Z</time>
      </trkpt>
      <trkpt lat="48.1578" lon="7.29256">
        <ele>327</ele>
        <time>2021-06-21T10:16:32Z</time>
      </trkpt>
      <trkpt lat="48.15752" lon="7.2924">
        <ele>325.8</ele>
        <time>2021-06-21T10:16:36Z</time>
      </trkpt>
      <trkpt lat="48.15719" lon="7.29219">
        <ele>324.8</ele>
        <time>2021-06-21T10:16:40Z</time>
      </trkpt>
      <trkpt lat="48.15705" lon="7.29208">
        <ele>323.6</ele>
        <time>2021-06-21T10:16:42Z</time>
      </trkpt>
      <trkpt lat="48.1568" lon="7.29185">
        <ele>322.2</ele>
        <time>2021-06-21T10:16:45Z</time>
      </trkpt>
      <trkpt lat="48.15667" lon="7.2917">
        <ele>321.2</ele>
        <time>2021-06-21T10:16:47Z</time>
      </trkpt>
      <trkpt lat="48.15659" lon="7.29161">
        <ele>321</ele>
        <time>2021-06-21T10:16:48Z</time>
      </trkpt>
      <trkpt lat="48.15639" lon="7.29141">
        <ele>319.8</ele>
        <time>2021-06-21T10:16:51Z</time>
      </trkpt>
      <trkpt lat="48.15617" lon="7.29121">
        <ele>318.8</ele>
        <time>2021-06-21T10:16:54Z</time>
      </trkpt>
      <trkpt lat="48.15587" lon="7.29102">
        <ele>317.6</ele>
        <time>2021-06-21T10:16:58Z</time>
      </trkpt>
      <trkpt lat="48.15574" lon="7.29094">
        <ele>317.2</ele>
        <time>2021-06-21T10:17:00Z</time>
      </trkpt>
      <trkpt lat="48.15538" lon="7.29063">
        <ele>316.6</ele>
        <time>2021-06-21T10:17:05Z</time>
      </trkpt>
      <trkpt lat="48.15532" lon="7.29055">
        <ele>316.6</ele>
        <time>2021-06-21T10:17:06Z</time>
      </trkpt>
      <trkpt lat="48.15525" lon="7.29047">
        <ele>316.4</ele>
        <time>2021-06-21T10:17:07Z</time>
      </trkpt>
      <trkpt lat="48.15507" lon="7.29032">
        <ele>316.2</ele>
        <time>2021-06-21T10:17:10Z</time>
      </trkpt>
      <trkpt lat="48.15479" lon="7.29011">
        <ele>315.6</ele>
        <time>2021-06-21T10:17:14Z</time>
      </trkpt>
      <trkpt lat="48.15458" lon="7.28999">
        <ele>314.8</ele>
        <time>2021-06-21T10:17:17Z</time>
      </trkpt>
      <trkpt lat="48.15439" lon="7.28988">
        <ele>314.6</ele>
        <time>2021-06-21T10:17:20Z</time>
      </trkpt>
      <trkpt lat="48.15412" lon="7.28974">
        <ele>314</ele>
        <time>2021-06-21T10:17:24Z</time>
      </trkpt>
      <trkpt lat="48.15396" lon="7.28969">
        <ele>313.6</ele>
        <time>2021-06-21T10:17:26Z</time>
      </trkpt>
      <trkpt lat="48.15355" lon="7.28954">
        <ele>313.2</ele>
        <time>2021-06-21T10:17:32Z</time>
      </trkpt>
      <trkpt lat="48.1533" lon="7.28941">
        <ele>312.8</ele>
        <time>2021-06-21T10:17:36Z</time>
      </trkpt>
      <trkpt lat="48.15318" lon="7.28932">
        <ele>313</ele>
        <time>2021-06-21T10:17:38Z</time>
      </trkpt>
      <trkpt lat="48.15307" lon="7.28921">
        <ele>313.2</ele>
        <time>2021-06-21T10:17:40Z</time>
      </trkpt>
      <trkpt lat="48.15289" lon="7.289">
        <ele>313.6</ele>
        <time>2021-06-21T10:17:44Z</time>
      </trkpt>
      <trkpt lat="48.1527" lon="7.28878">
        <ele>314.8</ele>
        <time>2021-06-21T10:17:48Z</time>
      </trkpt>
      <trkpt lat="48.1526" lon="7.28868">
        <ele>315.2</ele>
        <time>2021-06-21T10:17:50Z</time>
      </trkpt>
      <trkpt lat="48.15213" lon="7.28814">
        <ele>316</ele>
        <time>2021-06-21T10:18:00Z</time>
      </trkpt>
      <trkpt lat="48.1519" lon="7.28786">
        <ele>317</ele>
        <time>2021-06-21T10:18:06Z</time>
      </trkpt>
      <trkpt lat="48.15186" lon="7.28783">
        <ele>317.2</ele>
        <time>2021-06-21T10:18:07Z</time>
      </trkpt>
      <trkpt lat="48.15173" lon="7.28769">
        <ele>318.4</ele>
        <time>2021-06-21T10:18:11Z</time>
      </trkpt>
      <trkpt lat="48.15166" lon="7.28762">
        <ele>319</ele>
        <time>2021-06-21T10:18:13Z</time>
      </trkpt>
      <trkpt lat="48.1516" lon="7.28757">
        <ele>319.4</ele>
        <time>2021-06-21T10:18:15Z</time>
      </trkpt>
      <trkpt lat="48.15147" lon="7.28749">
        <ele>320.2</ele>
        <time>2021-06-21T10:18:19Z</time>
      </trkpt>
      <trkpt lat="48.15141" lon="7.28746">
        <ele>320.6</ele>
        <time>2021-06-21T10:18:21Z</time>
      </trkpt>
      <trkpt lat="48.15128" lon="7.2874">
        <ele>321.6</ele>
        <time>2021-06-21T10:18:25Z</time>
      </trkpt>
      <trkpt lat="48.15125" lon="7.28739">
        <ele>321.8</ele>
        <time>2021-06-21T10:18:26Z</time>
      </trkpt>
      <trkpt lat="48.15109" lon="7.28735">
        <ele>322.8</ele>
        <time>2021-06-21T10:18:31Z</time>
      </trkpt>
      <trkpt lat="48.15106" lon="7.28735">
        <ele>323</ele>
        <time>2021-06-21T10:18:32Z</time>
      </trkpt>
      <trkpt lat="48.15086" lon="7.28732">
        <ele>324.2</ele>
        <time>2021-06-21T10:18:38Z</time>
      </trkpt>
      <trkpt lat="48.15083" lon="7.28731">
        <ele>324.2</ele>
        <time>2021-06-21T10:18:39Z</time>
      </trkpt>
      <trkpt lat="48.15064" lon="7.28725">
        <ele>325.2</ele>
        <time>2021-06-21T10:18:44Z</time>
      </trkpt>
      <trkpt lat="48.15061" lon="7.28724">
        <ele>325.2</ele>
        <time>2021-06-21T10:18:45Z</time>
      </trkpt>
      <trkpt lat="48.15047" lon="7.28718">
        <ele>325.8</ele>
        <time>2021-06-21T10:18:49Z</time>
      </trkpt>
      <trkpt lat="48.15035" lon="7.28711">
        <ele>326.4</ele>
        <time>2021-06-21T10:18:52Z</time>
      </trkpt>
      <trkpt lat="48.15008" lon="7.28692">
        <ele>327</ele>
        <time>2021-06-21T10:18:59Z</time>
      </trkpt>
      <trkpt lat="48.14999" lon="7.28685">
        <ele>327</ele>
        <time>2021-06-21T10:19:01Z</time>
      </trkpt>
      <trkpt lat="48.14976" lon="7.28669">
        <ele>326</ele>
        <time>2021-06-21T10:19:05Z</time>
      </trkpt>
      <trkpt lat="48.14967" lon="7.28664">
        <ele>325.2</ele>
        <time>2021-06-21T10:19:06Z</time>
      </trkpt>
      <trkpt lat="48.14951" lon="7.28655">
        <ele>324.2</ele>
        <time>2021-06-21T10:19:08Z</time>
      </trkpt>
      <trkpt lat="48.14944" lon="7.2865">
        <ele>323.8</ele>
        <time>2021-06-21T10:19:09Z</time>
      </trkpt>
      <trkpt lat="48.14935" lon="7.28644">
        <ele>323</ele>
        <time>2021-06-21T10:19:10Z</time>
      </trkpt>
      <trkpt lat="48.14916" lon="7.2863">
        <ele>322</ele>
        <time>2021-06-21T10:19:12Z</time>
      </trkpt>
      <trkpt lat="48.14897" lon="7.28615">
        <ele>320.4</ele>
        <time>2021-06-21T10:19:14Z</time>
      </trkpt>
      <trkpt lat="48.14887" lon="7.28608">
        <ele>319</ele>
        <time>2021-06-21T10:19:15Z</time>
      </trkpt>
      <trkpt lat="48.14878" lon="7.28601">
        <ele>318.4</ele>
        <time>2021-06-21T10:19:16Z</time>
      </trkpt>
      <trkpt lat="48.14868" lon="7.28596">
        <ele>317</ele>
        <time>2021-06-21T10:19:17Z</time>
      </trkpt>
      <trkpt lat="48.14858" lon="7.28594">
        <ele>316.2</ele>
        <time>2021-06-21T10:19:18Z</time>
      </trkpt>
      <trkpt lat="48.14848" lon="7.28592">
        <ele>314.8</ele>
        <time>2021-06-21T10:19:19Z</time>
      </trkpt>
      <trkpt lat="48.14838" lon="7.2859">
        <ele>313.6</ele>
        <time>2021-06-21T10:19:20Z</time>
      </trkpt>
      <trkpt lat="48.14828" lon="7.28586">
        <ele>312.6</ele>
        <time>2021-06-21T10:19:21Z</time>
      </trkpt>
      <trkpt lat="48.14818" lon="7.28581">
        <ele>311.2</ele>
        <time>2021-06-21T10:19:22Z</time>
      </trkpt>
      <trkpt lat="48.14799" lon="7.28567">
        <ele>309.8</ele>
        <time>2021-06-21T10:19:24Z</time>
      </trkpt>
      <trkpt lat="48.1478" lon="7.28552">
        <ele>307.8</ele>
        <time>2021-06-21T10:19:26Z</time>
      </trkpt>
      <trkpt lat="48.14769" lon="7.28544">
        <ele>306.8</ele>
        <time>2021-06-21T10:19:27Z</time>
      </trkpt>
      <trkpt lat="48.14749" lon="7.28527">
        <ele>305.2</ele>
        <time>2021-06-21T10:19:29Z</time>
      </trkpt>
      <trkpt lat="48.14729" lon="7.28509">
        <ele>303.6</ele>
        <time>2021-06-21T10:19:31Z</time>
      </trkpt>
      <trkpt lat="48.14719" lon="7.28499">
        <ele>303</ele>
        <time>2021-06-21T10:19:32Z</time>
      </trkpt>
      <trkpt lat="48.14709" lon="7.28491">
        <ele>301.6</ele>
        <time>2021-06-21T10:19:33Z</time>
      </trkpt>
      <trkpt lat="48.14699" lon="7.28484">
        <ele>300</ele>
        <time>2021-06-21T10:19:34Z</time>
      </trkpt>
      <trkpt lat="48.14686" lon="7.28477">
        <ele>299.4</ele>
        <time>2021-06-21T10:19:35Z</time>
      </trkpt>
      <trkpt lat="48.14674" lon="7.28472">
        <ele>297.8</ele>
        <time>2021-06-21T10:19:36Z</time>
      </trkpt>
      <trkpt lat="48.1465" lon="7.28464">
        <ele>296.2</ele>
        <time>2021-06-21T10:19:38Z</time>
      </trkpt>
      <trkpt lat="48.14629" lon="7.28458">
        <ele>293.6</ele>
        <time>2021-06-21T10:19:40Z</time>
      </trkpt>
      <trkpt lat="48.14615" lon="7.28454">
        <ele>291.4</ele>
        <time>2021-06-21T10:19:41Z</time>
      </trkpt>
      <trkpt lat="48.1459" lon="7.28443">
        <ele>289.2</ele>
        <time>2021-06-21T10:19:43Z</time>
      </trkpt>
      <trkpt lat="48.14578" lon="7.28438">
        <ele>287.8</ele>
        <time>2021-06-21T10:19:44Z</time>
      </trkpt>
      <trkpt lat="48.14568" lon="7.28433">
        <ele>286</ele>
        <time>2021-06-21T10:19:45Z</time>
      </trkpt>
      <trkpt lat="48.14554" lon="7.28428">
        <ele>285</ele>
        <time>2021-06-21T10:19:46Z</time>
      </trkpt>
      <trkpt lat="48.14542" lon="7.28425">
        <ele>283.4</ele>
        <time>2021-06-21T10:19:47Z</time>
      </trkpt>
      <trkpt lat="48.1453" lon="7.28423">
        <ele>281.4</ele>
        <time>2021-06-21T10:19:48Z</time>
      </trkpt>
      <trkpt lat="48.14522" lon="7.28422">
        <ele>280.2</ele>
        <time>2021-06-21T10:19:49Z</time>
      </trkpt>
      <trkpt lat="48.14511" lon="7.2842">
        <ele>278.2</ele>
        <time>2021-06-21T10:19:50Z</time>
      </trkpt>
      <trkpt lat="48.14488" lon="7.28415">
        <ele>275.6</ele>
        <time>2021-06-21T10:19:52Z</time>
      </trkpt>
      <trkpt lat="48.14479" lon="7.28412">
        <ele>275</ele>
        <time>2021-06-21T10:19:53Z</time>
      </trkpt>
      <trkpt lat="48.14472" lon="7.2841">
        <ele>273.8</ele>
        <time>2021-06-21T10:19:54Z</time>
      </trkpt>
      <trkpt lat="48.14455" lon="7.28403">
        <ele>272.6</ele>
        <time>2021-06-21T10:19:56Z</time>
      </trkpt>
      <trkpt lat="48.14448" lon="7.284">
        <ele>271.8</ele>
        <time>2021-06-21T10:19:57Z</time>
      </trkpt>
      <trkpt lat="48.14443" lon="7.28396">
        <ele>271.8</ele>
        <time>2021-06-21T10:19:58Z</time>
      </trkpt>
      <trkpt lat="48.14431" lon="7.28389">
        <ele>270.4</ele>
        <time>2021-06-21T10:20:01Z</time>
      </trkpt>
      <trkpt lat="48.14421" lon="7.28384">
        <ele>269.4</ele>
        <time>2021-06-21T10:20:05Z</time>
      </trkpt>
      <trkpt lat="48.14421" lon="7.28384">
        <ele>269.2</ele>
        <time>2021-06-21T10:20:06Z</time>
      </trkpt>
      <trkpt lat="48.14421" lon="7.28384">
        <ele>269</ele>
        <time>2021-06-21T10:20:08Z</time>
      </trkpt>
      <trkpt lat="48.1442" lon="7.28387">
        <ele>268.4</ele>
        <time>2021-06-21T10:20:23Z</time>
      </trkpt>
      <trkpt lat="48.14419" lon="7.2839">
        <ele>268</ele>
        <time>2021-06-21T10:20:24Z</time>
      </trkpt>
      <trkpt lat="48.14413" lon="7.28412">
        <ele>267.8</ele>
        <time>2021-06-21T10:20:30Z</time>
      </trkpt>
      <trkpt lat="48.1441" lon="7.28424">
        <ele>267.4</ele>
        <time>2021-06-21T10:20:32Z</time>
      </trkpt>
      <trkpt lat="48.14408" lon="7.28429">
        <ele>267.2</ele>
        <time>2021-06-21T10:20:33Z</time>
      </trkpt>
      <trkpt lat="48.14404" lon="7.28445">
        <ele>267</ele>
        <time>2021-06-21T10:20:35Z</time>
      </trkpt>
      <trkpt lat="48.14398" lon="7.2847">
        <ele>266.2</ele>
        <time>2021-06-21T10:20:38Z</time>
      </trkpt>
      <trkpt lat="48.1439" lon="7.28497">
        <ele>264.8</ele>
        <time>2021-06-21T10:20:41Z</time>
      </trkpt>
      <trkpt lat="48.14384" lon="7.28514">
        <ele>263.8</ele>
        <time>2021-06-21T10:20:43Z</time>
      </trkpt>
      <trkpt lat="48.14374" lon="7.28543">
        <ele>262.6</ele>
        <time>2021-06-21T10:20:46Z</time>
      </trkpt>
      <trkpt lat="48.14371" lon="7.28551">
        <ele>262.4</ele>
        <time>2021-06-21T10:20:47Z</time>
      </trkpt>
      <trkpt lat="48.14367" lon="7.28558">
        <ele>262</ele>
        <time>2021-06-21T10:20:48Z</time>
      </trkpt>
      <trkpt lat="48.14363" lon="7.28563">
        <ele>262</ele>
        <time>2021-06-21T10:20:49Z</time>
      </trkpt>
      <trkpt lat="48.1436" lon="7.28567">
        <ele>261.6</ele>
        <time>2021-06-21T10:20:50Z</time>
      </trkpt>
      <trkpt lat="48.14356" lon="7.28573">
        <ele>260.8</ele>
        <time>2021-06-21T10:20:52Z</time>
      </trkpt>
      <trkpt lat="48.14354" lon="7.28575">
        <ele>260.6</ele>
        <time>2021-06-21T10:20:53Z</time>
      </trkpt>
      <trkpt lat="48.14353" lon="7.28576">
        <ele>260</ele>
        <time>2021-06-21T10:20:56Z</time>
      </trkpt>
      <trkpt lat="48.1435" lon="7.28583">
        <ele>259</ele>
        <time>2021-06-21T10:21:14Z</time>
      </trkpt>
      <trkpt lat="48.14345" lon="7.28591">
        <ele>259</ele>
        <time>2021-06-21T10:21:16Z</time>
      </trkpt>
      <trkpt lat="48.14332" lon="7.28608">
        <ele>258.6</ele>
        <time>2021-06-21T10:21:19Z</time>
      </trkpt>
      <trkpt lat="48.14327" lon="7.28611">
        <ele>258.4</ele>
        <time>2021-06-21T10:21:20Z</time>
      </trkpt>
      <trkpt lat="48.1432" lon="7.28613">
        <ele>258</ele>
        <time>2021-06-21T10:21:21Z</time>
      </trkpt>
      <trkpt lat="48.14297" lon="7.28618">
        <ele>257.2</ele>
        <time>2021-06-21T10:21:24Z</time>
      </trkpt>
      <trkpt lat="48.14289" lon="7.28622">
        <ele>256.6</ele>
        <time>2021-06-21T10:21:25Z</time>
      </trkpt>
      <trkpt lat="48.14272" lon="7.28632">
        <ele>255.4</ele>
        <time>2021-06-21T10:21:27Z</time>
      </trkpt>
      <trkpt lat="48.14262" lon="7.28639">
        <ele>255</ele>
        <time>2021-06-21T10:21:28Z</time>
      </trkpt>
      <trkpt lat="48.14254" lon="7.28644">
        <ele>254.6</ele>
        <time>2021-06-21T10:21:29Z</time>
      </trkpt>
      <trkpt lat="48.1424" lon="7.28657">
        <ele>253.4</ele>
        <time>2021-06-21T10:21:31Z</time>
      </trkpt>
      <trkpt lat="48.14232" lon="7.28664">
        <ele>252.6</ele>
        <time>2021-06-21T10:21:32Z</time>
      </trkpt>
      <trkpt lat="48.14223" lon="7.28674">
        <ele>252.4</ele>
        <time>2021-06-21T10:21:33Z</time>
      </trkpt>
      <trkpt lat="48.14209" lon="7.2869">
        <ele>250.6</ele>
        <time>2021-06-21T10:21:35Z</time>
      </trkpt>
      <trkpt lat="48.14196" lon="7.28704">
        <ele>249.2</ele>
        <time>2021-06-21T10:21:37Z</time>
      </trkpt>
      <trkpt lat="48.14176" lon="7.28732">
        <ele>248.4</ele>
        <time>2021-06-21T10:21:40Z</time>
      </trkpt>
      <trkpt lat="48.14171" lon="7.28739">
        <ele>248</ele>
        <time>2021-06-21T10:21:41Z</time>
      </trkpt>
      <trkpt lat="48.14159" lon="7.28753">
        <ele>247.6</ele>
        <time>2021-06-21T10:21:43Z</time>
      </trkpt>
      <trkpt lat="48.14154" lon="7.28755">
        <ele>247.4</ele>
        <time>2021-06-21T10:21:44Z</time>
      </trkpt>
      <trkpt lat="48.14146" lon="7.28758">
        <ele>247.4</ele>
        <time>2021-06-21T10:21:45Z</time>
      </trkpt>
      <trkpt lat="48.14133" lon="7.28756">
        <ele>246.8</ele>
        <time>2021-06-21T10:21:47Z</time>
      </trkpt>
      <trkpt lat="48.14109" lon="7.28755">
        <ele>245.4</ele>
        <time>2021-06-21T10:21:50Z</time>
      </trkpt>
      <trkpt lat="48.14092" lon="7.28755">
        <ele>244</ele>
        <time>2021-06-21T10:21:52Z</time>
      </trkpt>
      <trkpt lat="48.14075" lon="7.28755">
        <ele>242.8</ele>
        <time>2021-06-21T10:21:54Z</time>
      </trkpt>
      <trkpt lat="48.14068" lon="7.28755">
        <ele>241.6</ele>
        <time>2021-06-21T10:21:55Z</time>
      </trkpt>
      <trkpt lat="48.14054" lon="7.28754">
        <ele>240.2</ele>
        <time>2021-06-21T10:21:57Z</time>
      </trkpt>
      <trkpt lat="48.14046" lon="7.28754">
        <ele>239.2</ele>
        <time>2021-06-21T10:21:58Z</time>
      </trkpt>
      <trkpt lat="48.14031" lon="7.28755">
        <ele>237.8</ele>
        <time>2021-06-21T10:22:00Z</time>
      </trkpt>
      <trkpt lat="48.14005" lon="7.28757">
        <ele>236.4</ele>
        <time>2021-06-21T10:22:03Z</time>
      </trkpt>
      <trkpt lat="48.1398" lon="7.28763">
        <ele>235.2</ele>
        <time>2021-06-21T10:22:06Z</time>
      </trkpt>
      <trkpt lat="48.1396" lon="7.28768">
        <ele>233.8</ele>
        <time>2021-06-21T10:22:08Z</time>
      </trkpt>
      <trkpt lat="48.13952" lon="7.28771">
        <ele>233</ele>
        <time>2021-06-21T10:22:09Z</time>
      </trkpt>
      <trkpt lat="48.13943" lon="7.28773">
        <ele>232.8</ele>
        <time>2021-06-21T10:22:10Z</time>
      </trkpt>
      <trkpt lat="48.13928" lon="7.28775">
        <ele>231.4</ele>
        <time>2021-06-21T10:22:12Z</time>
      </trkpt>
      <trkpt lat="48.13904" lon="7.28776">
        <ele>230.8</ele>
        <time>2021-06-21T10:22:15Z</time>
      </trkpt>
      <trkpt lat="48.13896" lon="7.28776">
        <ele>230.4</ele>
        <time>2021-06-21T10:22:16Z</time>
      </trkpt>
      <trkpt lat="48.13865" lon="7.28772">
        <ele>229.2</ele>
        <time>2021-06-21T10:22:20Z</time>
      </trkpt>
      <trkpt lat="48.13841" lon="7.2877">
        <ele>227.6</ele>
        <time>2021-06-21T10:22:23Z</time>
      </trkpt>
      <trkpt lat="48.1381" lon="7.28769">
        <ele>226.6</ele>
        <time>2021-06-21T10:22:27Z</time>
      </trkpt>
      <trkpt lat="48.13785" lon="7.28769">
        <ele>225.4</ele>
        <time>2021-06-21T10:22:30Z</time>
      </trkpt>
      <trkpt lat="48.13765" lon="7.2877">
        <ele>224.4</ele>
        <time>2021-06-21T10:22:33Z</time>
      </trkpt>
      <trkpt lat="48.13748" lon="7.28769">
        <ele>223.6</ele>
        <time>2021-06-21T10:22:37Z</time>
      </trkpt>
      <trkpt lat="48.13743" lon="7.28768">
        <ele>223.2</ele>
        <time>2021-06-21T10:22:39Z</time>
      </trkpt>
      <trkpt lat="48.13741" lon="7.28767">
        <ele>223</ele>
        <time>2021-06-21T10:22:41Z</time>
      </trkpt>
      <trkpt lat="48.13738" lon="7.28766">
        <ele>222.8</ele>
        <time>2021-06-21T10:22:44Z</time>
      </trkpt>
      <trkpt lat="48.13736" lon="7.28766">
        <ele>222.8</ele>
        <time>2021-06-21T10:22:48Z</time>
      </trkpt>
      <trkpt lat="48.13736" lon="7.28766">
        <ele>222.8</ele>
        <time>2021-06-21T10:22:49Z</time>
      </trkpt>
      <trkpt lat="48.13738" lon="7.28773">
        <ele>223.4</ele>
        <time>2021-06-21T10:24:21Z</time>
      </trkpt>
      <trkpt lat="48.1374" lon="7.28783">
        <ele>223.4</ele>
        <time>2021-06-21T10:24:23Z</time>
      </trkpt>
      <trkpt lat="48.13742" lon="7.28811">
        <ele>223.4</ele>
        <time>2021-06-21T10:24:27Z</time>
      </trkpt>
      <trkpt lat="48.13747" lon="7.28865">
        <ele>223</ele>
        <time>2021-06-21T10:24:34Z</time>
      </trkpt>
      <trkpt lat="48.13747" lon="7.28874">
        <ele>223</ele>
        <time>2021-06-21T10:24:35Z</time>
      </trkpt>
      <trkpt lat="48.13743" lon="7.2889">
        <ele>223</ele>
        <time>2021-06-21T10:24:37Z</time>
      </trkpt>
      <trkpt lat="48.13735" lon="7.28908">
        <ele>222.8</ele>
        <time>2021-06-21T10:24:40Z</time>
      </trkpt>
      <trkpt lat="48.13729" lon="7.28932">
        <ele>222.4</ele>
        <time>2021-06-21T10:24:43Z</time>
      </trkpt>
      <trkpt lat="48.13728" lon="7.28949">
        <ele>221.8</ele>
        <time>2021-06-21T10:24:45Z</time>
      </trkpt>
      <trkpt lat="48.13728" lon="7.28983">
        <ele>221.4</ele>
        <time>2021-06-21T10:24:49Z</time>
      </trkpt>
      <trkpt lat="48.13729" lon="7.29005">
        <ele>221.2</ele>
        <time>2021-06-21T10:24:52Z</time>
      </trkpt>
      <trkpt lat="48.13727" lon="7.29013">
        <ele>221.2</ele>
        <time>2021-06-21T10:24:54Z</time>
      </trkpt>
      <trkpt lat="48.13725" lon="7.29016">
        <ele>221.2</ele>
        <time>2021-06-21T10:24:55Z</time>
      </trkpt>
      <trkpt lat="48.13719" lon="7.29017">
        <ele>221.2</ele>
        <time>2021-06-21T10:24:57Z</time>
      </trkpt>
      <trkpt lat="48.13698" lon="7.29014">
        <ele>221.2</ele>
        <time>2021-06-21T10:25:01Z</time>
      </trkpt>
      <trkpt lat="48.13659" lon="7.2901">
        <ele>221</ele>
        <time>2021-06-21T10:25:08Z</time>
      </trkpt>
      <trkpt lat="48.13647" lon="7.29007">
        <ele>221</ele>
        <time>2021-06-21T10:25:10Z</time>
      </trkpt>
      <trkpt lat="48.13641" lon="7.29005">
        <ele>220.8</ele>
        <time>2021-06-21T10:25:11Z</time>
      </trkpt>
      <trkpt lat="48.13629" lon="7.28999">
        <ele>220.8</ele>
        <time>2021-06-21T10:25:13Z</time>
      </trkpt>
      <trkpt lat="48.13592" lon="7.28974">
        <ele>221</ele>
        <time>2021-06-21T10:25:20Z</time>
      </trkpt>
      <trkpt lat="48.13587" lon="7.28971">
        <ele>221</ele>
        <time>2021-06-21T10:25:21Z</time>
      </trkpt>
      <trkpt lat="48.13567" lon="7.28957">
        <ele>221</ele>
        <time>2021-06-21T10:25:25Z</time>
      </trkpt>
      <trkpt lat="48.13551" lon="7.28947">
        <ele>221</ele>
        <time>2021-06-21T10:25:28Z</time>
      </trkpt>
      <trkpt lat="48.13538" lon="7.28943">
        <ele>221</ele>
        <time>2021-06-21T10:25:30Z</time>
      </trkpt>
      <trkpt lat="48.13511" lon="7.28933">
        <ele>221.2</ele>
        <time>2021-06-21T10:25:36Z</time>
      </trkpt>
      <trkpt lat="48.13506" lon="7.28932">
        <ele>221.2</ele>
        <time>2021-06-21T10:25:37Z</time>
      </trkpt>
      <trkpt lat="48.13498" lon="7.28934">
        <ele>221.2</ele>
        <time>2021-06-21T10:25:39Z</time>
      </trkpt>
      <trkpt lat="48.13492" lon="7.28956">
        <ele>221</ele>
        <time>2021-06-21T10:25:42Z</time>
      </trkpt>
      <trkpt lat="48.13487" lon="7.28983">
        <ele>220.8</ele>
        <time>2021-06-21T10:25:46Z</time>
      </trkpt>
      <trkpt lat="48.13481" lon="7.2899">
        <ele>220.6</ele>
        <time>2021-06-21T10:25:48Z</time>
      </trkpt>
      <trkpt lat="48.13474" lon="7.28991">
        <ele>220.6</ele>
        <time>2021-06-21T10:25:51Z</time>
      </trkpt>
      <trkpt lat="48.13473" lon="7.2899">
        <ele>220.6</ele>
        <time>2021-06-21T10:25:52Z</time>
      </trkpt>
      <trkpt lat="48.13471" lon="7.28987">
        <ele>220.6</ele>
        <time>2021-06-21T10:25:56Z</time>
      </trkpt>
      <trkpt lat="48.13469" lon="7.28981">
        <ele>220.8</ele>
        <time>2021-06-21T10:26:05Z</time>
      </trkpt>
      <trkpt lat="48.13463" lon="7.28962">
        <ele>220.6</ele>
        <time>2021-06-21T10:26:09Z</time>
      </trkpt>
      <trkpt lat="48.13456" lon="7.28939">
        <ele>220.6</ele>
        <time>2021-06-21T10:26:14Z</time>
      </trkpt>
      <trkpt lat="48.13442" lon="7.28895">
        <ele>221</ele>
        <time>2021-06-21T10:26:23Z</time>
      </trkpt>
      <trkpt lat="48.13435" lon="7.28875">
        <ele>221.2</ele>
        <time>2021-06-21T10:26:28Z</time>
      </trkpt>
      <trkpt lat="48.13433" lon="7.28871">
        <ele>221.2</ele>
        <time>2021-06-21T10:26:29Z</time>
      </trkpt>
      <trkpt lat="48.13431" lon="7.28873">
        <ele>221.2</ele>
        <time>2021-06-21T10:26:31Z</time>
      </trkpt>
      <trkpt lat="48.13435" lon="7.28889">
        <ele>221.4</ele>
        <time>2021-06-21T10:26:34Z</time>
      </trkpt>
      <trkpt lat="48.13445" lon="7.28921">
        <ele>221.2</ele>
        <time>2021-06-21T10:26:39Z</time>
      </trkpt>
      <trkpt lat="48.13459" lon="7.28974">
        <ele>221.2</ele>
        <time>2021-06-21T10:26:46Z</time>
      </trkpt>
      <trkpt lat="48.13467" lon="7.2901">
        <ele>220.6</ele>
        <time>2021-06-21T10:26:51Z</time>
      </trkpt>
      <trkpt lat="48.13469" lon="7.29024">
        <ele>220.4</ele>
        <time>2021-06-21T10:26:53Z</time>
      </trkpt>
      <trkpt lat="48.13469" lon="7.2903">
        <ele>220.4</ele>
        <time>2021-06-21T10:26:54Z</time>
      </trkpt>
      <trkpt lat="48.13467" lon="7.29034">
        <ele>220.4</ele>
        <time>2021-06-21T10:26:55Z</time>
      </trkpt>
      <trkpt lat="48.13465" lon="7.29035">
        <ele>220.2</ele>
        <time>2021-06-21T10:26:56Z</time>
      </trkpt>
      <trkpt lat="48.13465" lon="7.29036">
        <ele>220.2</ele>
        <time>2021-06-21T10:26:59Z</time>
      </trkpt>
      <trkpt lat="48.13462" lon="7.29036">
        <ele>220</ele>
        <time>2021-06-21T10:27:57Z</time>
      </trkpt>
      <trkpt lat="48.13455" lon="7.29038">
        <ele>220</ele>
        <time>2021-06-21T10:27:59Z</time>
      </trkpt>
      <trkpt lat="48.13443" lon="7.29038">
        <ele>220</ele>
        <time>2021-06-21T10:28:02Z</time>
      </trkpt>
      <trkpt lat="48.13437" lon="7.29038">
        <ele>220</ele>
        <time>2021-06-21T10:28:03Z</time>
      </trkpt>
      <trkpt lat="48.13411" lon="7.29037">
        <ele>220</ele>
        <time>2021-06-21T10:28:07Z</time>
      </trkpt>
      <trkpt lat="48.13399" lon="7.29035">
        <ele>220</ele>
        <time>2021-06-21T10:28:09Z</time>
      </trkpt>
      <trkpt lat="48.1338" lon="7.29031">
        <ele>220</ele>
        <time>2021-06-21T10:28:12Z</time>
      </trkpt>
      <trkpt lat="48.13354" lon="7.29025">
        <ele>219.6</ele>
        <time>2021-06-21T10:28:16Z</time>
      </trkpt>
      <trkpt lat="48.13297" lon="7.29012">
        <ele>219.2</ele>
        <time>2021-06-21T10:28:25Z</time>
      </trkpt>
      <trkpt lat="48.13291" lon="7.2901">
        <ele>219.2</ele>
        <time>2021-06-21T10:28:26Z</time>
      </trkpt>
      <trkpt lat="48.13245" lon="7.28998">
        <ele>219</ele>
        <time>2021-06-21T10:28:34Z</time>
      </trkpt>
      <trkpt lat="48.13201" lon="7.28981">
        <ele>219.2</ele>
        <time>2021-06-21T10:28:42Z</time>
      </trkpt>
      <trkpt lat="48.1319" lon="7.28977">
        <ele>219.4</ele>
        <time>2021-06-21T10:28:44Z</time>
      </trkpt>
      <trkpt lat="48.13161" lon="7.28963">
        <ele>219.8</ele>
        <time>2021-06-21T10:28:50Z</time>
      </trkpt>
      <trkpt lat="48.13115" lon="7.2895">
        <ele>220.2</ele>
        <time>2021-06-21T10:28:58Z</time>
      </trkpt>
      <trkpt lat="48.13079" lon="7.2895">
        <ele>219</ele>
        <time>2021-06-21T10:29:04Z</time>
      </trkpt>
      <trkpt lat="48.13031" lon="7.2895">
        <ele>218.6</ele>
        <time>2021-06-21T10:29:12Z</time>
      </trkpt>
      <trkpt lat="48.12991" lon="7.28941">
        <ele>219.4</ele>
        <time>2021-06-21T10:29:19Z</time>
      </trkpt>
      <trkpt lat="48.12952" lon="7.28925">
        <ele>220</ele>
        <time>2021-06-21T10:29:26Z</time>
      </trkpt>
      <trkpt lat="48.12946" lon="7.28922">
        <ele>220.2</ele>
        <time>2021-06-21T10:29:27Z</time>
      </trkpt>
      <trkpt lat="48.12894" lon="7.28901">
        <ele>220.8</ele>
        <time>2021-06-21T10:29:36Z</time>
      </trkpt>
      <trkpt lat="48.12855" lon="7.28884">
        <ele>221.2</ele>
        <time>2021-06-21T10:29:43Z</time>
      </trkpt>
      <trkpt lat="48.1285" lon="7.28882">
        <ele>221.4</ele>
        <time>2021-06-21T10:29:44Z</time>
      </trkpt>
      <trkpt lat="48.12823" lon="7.2887">
        <ele>222.4</ele>
        <time>2021-06-21T10:29:49Z</time>
      </trkpt>
      <trkpt lat="48.12808" lon="7.28862">
        <ele>222.8</ele>
        <time>2021-06-21T10:29:52Z</time>
      </trkpt>
      <trkpt lat="48.12791" lon="7.28849">
        <ele>223.4</ele>
        <time>2021-06-21T10:29:56Z</time>
      </trkpt>
      <trkpt lat="48.1278" lon="7.28837">
        <ele>224</ele>
        <time>2021-06-21T10:29:59Z</time>
      </trkpt>
      <trkpt lat="48.12777" lon="7.28832">
        <ele>224.2</ele>
        <time>2021-06-21T10:30:00Z</time>
      </trkpt>
      <trkpt lat="48.12775" lon="7.28827">
        <ele>224.4</ele>
        <time>2021-06-21T10:30:01Z</time>
      </trkpt>
      <trkpt lat="48.12771" lon="7.28818">
        <ele>224.8</ele>
        <time>2021-06-21T10:30:03Z</time>
      </trkpt>
      <trkpt lat="48.12766" lon="7.28796">
        <ele>225.4</ele>
        <time>2021-06-21T10:30:08Z</time>
      </trkpt>
      <trkpt lat="48.12765" lon="7.28792">
        <ele>225.4</ele>
        <time>2021-06-21T10:30:09Z</time>
      </trkpt>
      <trkpt lat="48.1276" lon="7.28763">
        <ele>225.6</ele>
        <time>2021-06-21T10:30:15Z</time>
      </trkpt>
      <trkpt lat="48.12756" lon="7.28752">
        <ele>226</ele>
        <time>2021-06-21T10:30:19Z</time>
      </trkpt>
      <trkpt lat="48.12753" lon="7.28745">
        <ele>226.2</ele>
        <time>2021-06-21T10:30:21Z</time>
      </trkpt>
      <trkpt lat="48.12747" lon="7.28743">
        <ele>226.4</ele>
        <time>2021-06-21T10:30:23Z</time>
      </trkpt>
      <trkpt lat="48.12733" lon="7.28741">
        <ele>226.8</ele>
        <time>2021-06-21T10:30:28Z</time>
      </trkpt>
      <trkpt lat="48.12716" lon="7.28733">
        <ele>226.8</ele>
        <time>2021-06-21T10:30:32Z</time>
      </trkpt>
      <trkpt lat="48.12713" lon="7.28731">
        <ele>226.8</ele>
        <time>2021-06-21T10:30:33Z</time>
      </trkpt>
      <trkpt lat="48.12692" lon="7.28722">
        <ele>227.2</ele>
        <time>2021-06-21T10:30:40Z</time>
      </trkpt>
      <trkpt lat="48.12692" lon="7.28722">
        <ele>227.2</ele>
        <time>2021-06-21T10:30:42Z</time>
      </trkpt>
      <trkpt lat="48.12688" lon="7.28722">
        <ele>227.2</ele>
        <time>2021-06-21T10:30:45Z</time>
      </trkpt>
      <trkpt lat="48.12676" lon="7.2872">
        <ele>227.2</ele>
        <time>2021-06-21T10:30:48Z</time>
      </trkpt>
      <trkpt lat="48.12654" lon="7.28715">
        <ele>227.2</ele>
        <time>2021-06-21T10:30:53Z</time>
      </trkpt>
      <trkpt lat="48.1265" lon="7.28714">
        <ele>227.2</ele>
        <time>2021-06-21T10:30:54Z</time>
      </trkpt>
      <trkpt lat="48.12622" lon="7.28707">
        <ele>227.6</ele>
        <time>2021-06-21T10:30:59Z</time>
      </trkpt>
      <trkpt lat="48.12589" lon="7.28692">
        <ele>227.8</ele>
        <time>2021-06-21T10:31:05Z</time>
      </trkpt>
      <trkpt lat="48.12583" lon="7.28687">
        <ele>227.8</ele>
        <time>2021-06-21T10:31:06Z</time>
      </trkpt>
      <trkpt lat="48.1257" lon="7.28675">
        <ele>228</ele>
        <time>2021-06-21T10:31:09Z</time>
      </trkpt>
      <trkpt lat="48.12566" lon="7.28671">
        <ele>228</ele>
        <time>2021-06-21T10:31:10Z</time>
      </trkpt>
      <trkpt lat="48.12551" lon="7.28655">
        <ele>228</ele>
        <time>2021-06-21T10:31:13Z</time>
      </trkpt>
      <trkpt lat="48.12544" lon="7.28646">
        <ele>227.8</ele>
        <time>2021-06-21T10:31:15Z</time>
      </trkpt>
      <trkpt lat="48.12511" lon="7.28611">
        <ele>228.4</ele>
        <time>2021-06-21T10:31:22Z</time>
      </trkpt>
      <trkpt lat="48.12477" lon="7.28577">
        <ele>229</ele>
        <time>2021-06-21T10:31:29Z</time>
      </trkpt>
      <trkpt lat="48.12467" lon="7.28568">
        <ele>229.2</ele>
        <time>2021-06-21T10:31:31Z</time>
      </trkpt>
      <trkpt lat="48.12429" lon="7.28542">
        <ele>229.8</ele>
        <time>2021-06-21T10:31:38Z</time>
      </trkpt>
      <trkpt lat="48.12407" lon="7.28527">
        <ele>230</ele>
        <time>2021-06-21T10:31:42Z</time>
      </trkpt>
      <trkpt lat="48.12397" lon="7.28519">
        <ele>230.2</ele>
        <time>2021-06-21T10:31:44Z</time>
      </trkpt>
      <trkpt lat="48.12393" lon="7.28514">
        <ele>230.4</ele>
        <time>2021-06-21T10:31:45Z</time>
      </trkpt>
      <trkpt lat="48.1239" lon="7.28509">
        <ele>230.4</ele>
        <time>2021-06-21T10:31:46Z</time>
      </trkpt>
      <trkpt lat="48.12387" lon="7.285">
        <ele>230.6</ele>
        <time>2021-06-21T10:31:48Z</time>
      </trkpt>
      <trkpt lat="48.12386" lon="7.28493">
        <ele>230.6</ele>
        <time>2021-06-21T10:31:52Z</time>
      </trkpt>
      <trkpt lat="48.12386" lon="7.28493">
        <ele>230.6</ele>
        <time>2021-06-21T10:31:53Z</time>
      </trkpt>
      <trkpt lat="48.12381" lon="7.28488">
        <ele>229.6</ele>
        <time>2021-06-21T10:32:14Z</time>
      </trkpt>
      <trkpt lat="48.12377" lon="7.28486">
        <ele>229.6</ele>
        <time>2021-06-21T10:32:15Z</time>
      </trkpt>
      <trkpt lat="48.12347" lon="7.28483">
        <ele>229.6</ele>
        <time>2021-06-21T10:32:21Z</time>
      </trkpt>
      <trkpt lat="48.12321" lon="7.28483">
        <ele>229.4</ele>
        <time>2021-06-21T10:32:25Z</time>
      </trkpt>
      <trkpt lat="48.12316" lon="7.28484">
        <ele>229.4</ele>
        <time>2021-06-21T10:32:26Z</time>
      </trkpt>
      <trkpt lat="48.1231" lon="7.28485">
        <ele>229.4</ele>
        <time>2021-06-21T10:32:27Z</time>
      </trkpt>
      <trkpt lat="48.12295" lon="7.28485">
        <ele>229.4</ele>
        <time>2021-06-21T10:32:30Z</time>
      </trkpt>
      <trkpt lat="48.1229" lon="7.28485">
        <ele>229.4</ele>
        <time>2021-06-21T10:32:31Z</time>
      </trkpt>
      <trkpt lat="48.1228" lon="7.2849">
        <ele>229.6</ele>
        <time>2021-06-21T10:32:33Z</time>
      </trkpt>
      <trkpt lat="48.12274" lon="7.28493">
        <ele>229.8</ele>
        <time>2021-06-21T10:32:34Z</time>
      </trkpt>
      <trkpt lat="48.12239" lon="7.28519">
        <ele>231</ele>
        <time>2021-06-21T10:32:41Z</time>
      </trkpt>
      <trkpt lat="48.12197" lon="7.28556">
        <ele>231.2</ele>
        <time>2021-06-21T10:32:49Z</time>
      </trkpt>
      <trkpt lat="48.12183" lon="7.28569">
        <ele>231.4</ele>
        <time>2021-06-21T10:32:52Z</time>
      </trkpt>
      <trkpt lat="48.12168" lon="7.28577">
        <ele>231.6</ele>
        <time>2021-06-21T10:32:55Z</time>
      </trkpt>
      <trkpt lat="48.12163" lon="7.2858">
        <ele>231.6</ele>
        <time>2021-06-21T10:32:56Z</time>
      </trkpt>
      <trkpt lat="48.12141" lon="7.28585">
        <ele>232</ele>
        <time>2021-06-21T10:33:00Z</time>
      </trkpt>
      <trkpt lat="48.12129" lon="7.28589">
        <ele>232</ele>
        <time>2021-06-21T10:33:02Z</time>
      </trkpt>
      <trkpt lat="48.12108" lon="7.28591">
        <ele>232.2</ele>
        <time>2021-06-21T10:33:06Z</time>
      </trkpt>
      <trkpt lat="48.12102" lon="7.2859">
        <ele>232.6</ele>
        <time>2021-06-21T10:33:07Z</time>
      </trkpt>
      <trkpt lat="48.12065" lon="7.28576">
        <ele>233.6</ele>
        <time>2021-06-21T10:33:14Z</time>
      </trkpt>
      <trkpt lat="48.12048" lon="7.28564">
        <ele>233.8</ele>
        <time>2021-06-21T10:33:18Z</time>
      </trkpt>
      <trkpt lat="48.12026" lon="7.28547">
        <ele>234.6</ele>
        <time>2021-06-21T10:33:23Z</time>
      </trkpt>
      <trkpt lat="48.12013" lon="7.28539">
        <ele>234.6</ele>
        <time>2021-06-21T10:33:26Z</time>
      </trkpt>
      <trkpt lat="48.12" lon="7.28535">
        <ele>234.8</ele>
        <time>2021-06-21T10:33:29Z</time>
      </trkpt>
      <trkpt lat="48.11984" lon="7.2853">
        <ele>236</ele>
        <time>2021-06-21T10:33:33Z</time>
      </trkpt>
      <trkpt lat="48.11963" lon="7.28524">
        <ele>237</ele>
        <time>2021-06-21T10:33:38Z</time>
      </trkpt>
      <trkpt lat="48.11947" lon="7.2852">
        <ele>238.4</ele>
        <time>2021-06-21T10:33:42Z</time>
      </trkpt>
      <trkpt lat="48.11931" lon="7.28518">
        <ele>238.6</ele>
        <time>2021-06-21T10:33:46Z</time>
      </trkpt>
      <trkpt lat="48.11902" lon="7.28513">
        <ele>239</ele>
        <time>2021-06-21T10:33:53Z</time>
      </trkpt>
      <trkpt lat="48.11898" lon="7.28514">
        <ele>239.4</ele>
        <time>2021-06-21T10:33:54Z</time>
      </trkpt>
      <trkpt lat="48.11889" lon="7.28514">
        <ele>240</ele>
        <time>2021-06-21T10:33:56Z</time>
      </trkpt>
      <trkpt lat="48.11869" lon="7.28516">
        <ele>240.6</ele>
        <time>2021-06-21T10:34:01Z</time>
      </trkpt>
      <trkpt lat="48.11855" lon="7.28518">
        <ele>241</ele>
        <time>2021-06-21T10:34:05Z</time>
      </trkpt>
      <trkpt lat="48.11836" lon="7.28522">
        <ele>241.8</ele>
        <time>2021-06-21T10:34:10Z</time>
      </trkpt>
      <trkpt lat="48.11824" lon="7.28523">
        <ele>242.4</ele>
        <time>2021-06-21T10:34:13Z</time>
      </trkpt>
      <trkpt lat="48.1181" lon="7.28523">
        <ele>243.2</ele>
        <time>2021-06-21T10:34:17Z</time>
      </trkpt>
      <trkpt lat="48.11791" lon="7.28522">
        <ele>244.2</ele>
        <time>2021-06-21T10:34:22Z</time>
      </trkpt>
      <trkpt lat="48.11784" lon="7.28522">
        <ele>244.4</ele>
        <time>2021-06-21T10:34:24Z</time>
      </trkpt>
      <trkpt lat="48.11769" lon="7.2852">
        <ele>245.6</ele>
        <time>2021-06-21T10:34:28Z</time>
      </trkpt>
      <trkpt lat="48.11765" lon="7.28519">
        <ele>246</ele>
        <time>2021-06-21T10:34:29Z</time>
      </trkpt>
      <trkpt lat="48.11761" lon="7.28518">
        <ele>246.2</ele>
        <time>2021-06-21T10:34:30Z</time>
      </trkpt>
      <trkpt lat="48.11747" lon="7.28515">
        <ele>246.6</ele>
        <time>2021-06-21T10:34:34Z</time>
      </trkpt>
      <trkpt lat="48.11735" lon="7.28513">
        <ele>247.2</ele>
        <time>2021-06-21T10:34:38Z</time>
      </trkpt>
      <trkpt lat="48.1173" lon="7.28513">
        <ele>247.8</ele>
        <time>2021-06-21T10:34:40Z</time>
      </trkpt>
      <trkpt lat="48.11728" lon="7.28513">
        <ele>248.4</ele>
        <time>2021-06-21T10:34:42Z</time>
      </trkpt>
      <trkpt lat="48.11726" lon="7.28512">
        <ele>248.8</ele>
        <time>2021-06-21T10:34:43Z</time>
      </trkpt>
      <trkpt lat="48.11717" lon="7.2851">
        <ele>249.2</ele>
        <time>2021-06-21T10:34:46Z</time>
      </trkpt>
      <trkpt lat="48.11697" lon="7.28507">
        <ele>250</ele>
        <time>2021-06-21T10:34:52Z</time>
      </trkpt>
      <trkpt lat="48.11681" lon="7.28511">
        <ele>251</ele>
        <time>2021-06-21T10:34:57Z</time>
      </trkpt>
      <trkpt lat="48.11678" lon="7.28513">
        <ele>251.2</ele>
        <time>2021-06-21T10:34:58Z</time>
      </trkpt>
      <trkpt lat="48.11672" lon="7.28517">
        <ele>252.4</ele>
        <time>2021-06-21T10:35:00Z</time>
      </trkpt>
      <trkpt lat="48.11665" lon="7.28524">
        <ele>253.2</ele>
        <time>2021-06-21T10:35:03Z</time>
      </trkpt>
      <trkpt lat="48.11662" lon="7.28527">
        <ele>253.4</ele>
        <time>2021-06-21T10:35:04Z</time>
      </trkpt>
      <trkpt lat="48.11648" lon="7.28539">
        <ele>254.6</ele>
        <time>2021-06-21T10:35:09Z</time>
      </trkpt>
      <trkpt lat="48.11642" lon="7.28544">
        <ele>255.2</ele>
        <time>2021-06-21T10:35:11Z</time>
      </trkpt>
      <trkpt lat="48.11638" lon="7.28549">
        <ele>255.8</ele>
        <time>2021-06-21T10:35:13Z</time>
      </trkpt>
      <trkpt lat="48.11624" lon="7.2856">
        <ele>256.8</ele>
        <time>2021-06-21T10:35:18Z</time>
      </trkpt>
      <trkpt lat="48.1162" lon="7.2856">
        <ele>257</ele>
        <time>2021-06-21T10:35:19Z</time>
      </trkpt>
      <trkpt lat="48.11612" lon="7.28555">
        <ele>257.6</ele>
        <time>2021-06-21T10:35:22Z</time>
      </trkpt>
      <trkpt lat="48.11609" lon="7.28553">
        <ele>257.8</ele>
        <time>2021-06-21T10:35:23Z</time>
      </trkpt>
      <trkpt lat="48.11593" lon="7.28545">
        <ele>259</ele>
        <time>2021-06-21T10:35:28Z</time>
      </trkpt>
      <trkpt lat="48.11569" lon="7.28544">
        <ele>260.4</ele>
        <time>2021-06-21T10:35:35Z</time>
      </trkpt>
      <trkpt lat="48.11565" lon="7.28544">
        <ele>260.6</ele>
        <time>2021-06-21T10:35:36Z</time>
      </trkpt>
      <trkpt lat="48.11546" lon="7.28545">
        <ele>261.2</ele>
        <time>2021-06-21T10:35:41Z</time>
      </trkpt>
      <trkpt lat="48.11542" lon="7.28545">
        <ele>261.2</ele>
        <time>2021-06-21T10:35:42Z</time>
      </trkpt>
      <trkpt lat="48.11507" lon="7.28545">
        <ele>260.8</ele>
        <time>2021-06-21T10:35:49Z</time>
      </trkpt>
      <trkpt lat="48.11473" lon="7.28536">
        <ele>260</ele>
        <time>2021-06-21T10:35:55Z</time>
      </trkpt>
      <trkpt lat="48.11463" lon="7.28533">
        <ele>259</ele>
        <time>2021-06-21T10:35:57Z</time>
      </trkpt>
      <trkpt lat="48.11436" lon="7.28522">
        <ele>258.6</ele>
        <time>2021-06-21T10:36:02Z</time>
      </trkpt>
      <trkpt lat="48.11425" lon="7.28523">
        <ele>258.6</ele>
        <time>2021-06-21T10:36:04Z</time>
      </trkpt>
      <trkpt lat="48.11413" lon="7.28528">
        <ele>258.4</ele>
        <time>2021-06-21T10:36:06Z</time>
      </trkpt>
      <trkpt lat="48.11399" lon="7.2854">
        <ele>258.2</ele>
        <time>2021-06-21T10:36:09Z</time>
      </trkpt>
      <trkpt lat="48.11376" lon="7.28557">
        <ele>258.6</ele>
        <time>2021-06-21T10:36:14Z</time>
      </trkpt>
      <trkpt lat="48.11367" lon="7.28562">
        <ele>258.8</ele>
        <time>2021-06-21T10:36:16Z</time>
      </trkpt>
      <trkpt lat="48.11359" lon="7.28569">
        <ele>259.4</ele>
        <time>2021-06-21T10:36:18Z</time>
      </trkpt>
      <trkpt lat="48.11355" lon="7.28573">
        <ele>259.8</ele>
        <time>2021-06-21T10:36:19Z</time>
      </trkpt>
      <trkpt lat="48.11342" lon="7.28592">
        <ele>260.6</ele>
        <time>2021-06-21T10:36:23Z</time>
      </trkpt>
      <trkpt lat="48.11338" lon="7.28599">
        <ele>260.4</ele>
        <time>2021-06-21T10:36:24Z</time>
      </trkpt>
      <trkpt lat="48.11315" lon="7.28639">
        <ele>259.8</ele>
        <time>2021-06-21T10:36:29Z</time>
      </trkpt>
      <trkpt lat="48.11308" lon="7.28662">
        <ele>259</ele>
        <time>2021-06-21T10:36:31Z</time>
      </trkpt>
      <trkpt lat="48.11302" lon="7.28688">
        <ele>257.6</ele>
        <time>2021-06-21T10:36:33Z</time>
      </trkpt>
      <trkpt lat="48.11299" lon="7.287">
        <ele>257.2</ele>
        <time>2021-06-21T10:36:34Z</time>
      </trkpt>
      <trkpt lat="48.11295" lon="7.28711">
        <ele>256.2</ele>
        <time>2021-06-21T10:36:35Z</time>
      </trkpt>
      <trkpt lat="48.1129" lon="7.28721">
        <ele>255.6</ele>
        <time>2021-06-21T10:36:36Z</time>
      </trkpt>
      <trkpt lat="48.11284" lon="7.2873">
        <ele>254.6</ele>
        <time>2021-06-21T10:36:37Z</time>
      </trkpt>
      <trkpt lat="48.11277" lon="7.28736">
        <ele>253.8</ele>
        <time>2021-06-21T10:36:38Z</time>
      </trkpt>
      <trkpt lat="48.1127" lon="7.28741">
        <ele>253.4</ele>
        <time>2021-06-21T10:36:39Z</time>
      </trkpt>
      <trkpt lat="48.11263" lon="7.28745">
        <ele>252.8</ele>
        <time>2021-06-21T10:36:40Z</time>
      </trkpt>
      <trkpt lat="48.11236" lon="7.2875">
        <ele>252.2</ele>
        <time>2021-06-21T10:36:44Z</time>
      </trkpt>
      <trkpt lat="48.11223" lon="7.28749">
        <ele>252.2</ele>
        <time>2021-06-21T10:36:46Z</time>
      </trkpt>
      <trkpt lat="48.11204" lon="7.28745">
        <ele>252.2</ele>
        <time>2021-06-21T10:36:49Z</time>
      </trkpt>
      <trkpt lat="48.11159" lon="7.28731">
        <ele>253.2</ele>
        <time>2021-06-21T10:36:57Z</time>
      </trkpt>
      <trkpt lat="48.11139" lon="7.2872">
        <ele>253.6</ele>
        <time>2021-06-21T10:37:01Z</time>
      </trkpt>
      <trkpt lat="48.11124" lon="7.28709">
        <ele>254.2</ele>
        <time>2021-06-21T10:37:04Z</time>
      </trkpt>
      <trkpt lat="48.11097" lon="7.28691">
        <ele>254.6</ele>
        <time>2021-06-21T10:37:10Z</time>
      </trkpt>
      <trkpt lat="48.11093" lon="7.28688">
        <ele>254.8</ele>
        <time>2021-06-21T10:37:11Z</time>
      </trkpt>
      <trkpt lat="48.1108" lon="7.28675">
        <ele>255.8</ele>
        <time>2021-06-21T10:37:15Z</time>
      </trkpt>
      <trkpt lat="48.11076" lon="7.2867">
        <ele>256</ele>
        <time>2021-06-21T10:37:16Z</time>
      </trkpt>
      <trkpt lat="48.11066" lon="7.28657">
        <ele>256.6</ele>
        <time>2021-06-21T10:37:19Z</time>
      </trkpt>
      <trkpt lat="48.11063" lon="7.28653">
        <ele>256.8</ele>
        <time>2021-06-21T10:37:20Z</time>
      </trkpt>
      <trkpt lat="48.11057" lon="7.28646">
        <ele>257</ele>
        <time>2021-06-21T10:37:22Z</time>
      </trkpt>
      <trkpt lat="48.11048" lon="7.28634">
        <ele>257.2</ele>
        <time>2021-06-21T10:37:25Z</time>
      </trkpt>
      <trkpt lat="48.11036" lon="7.28621">
        <ele>257.4</ele>
        <time>2021-06-21T10:37:28Z</time>
      </trkpt>
      <trkpt lat="48.11016" lon="7.28605">
        <ele>257.6</ele>
        <time>2021-06-21T10:37:32Z</time>
      </trkpt>
      <trkpt lat="48.11011" lon="7.28602">
        <ele>257.4</ele>
        <time>2021-06-21T10:37:33Z</time>
      </trkpt>
      <trkpt lat="48.11006" lon="7.28598">
        <ele>257.4</ele>
        <time>2021-06-21T10:37:34Z</time>
      </trkpt>
      <trkpt lat="48.11" lon="7.28595">
        <ele>257.2</ele>
        <time>2021-06-21T10:37:35Z</time>
      </trkpt>
      <trkpt lat="48.10983" lon="7.28586">
        <ele>256.8</ele>
        <time>2021-06-21T10:37:38Z</time>
      </trkpt>
      <trkpt lat="48.10961" lon="7.28576">
        <ele>256.2</ele>
        <time>2021-06-21T10:37:42Z</time>
      </trkpt>
      <trkpt lat="48.10951" lon="7.28571">
        <ele>256</ele>
        <time>2021-06-21T10:37:44Z</time>
      </trkpt>
      <trkpt lat="48.10925" lon="7.28556">
        <ele>256</ele>
        <time>2021-06-21T10:37:50Z</time>
      </trkpt>
      <trkpt lat="48.10914" lon="7.28557">
        <ele>256.4</ele>
        <time>2021-06-21T10:37:53Z</time>
      </trkpt>
      <trkpt lat="48.109" lon="7.28565">
        <ele>256.6</ele>
        <time>2021-06-21T10:37:56Z</time>
      </trkpt>
      <trkpt lat="48.10891" lon="7.28569">
        <ele>256.6</ele>
        <time>2021-06-21T10:37:58Z</time>
      </trkpt>
      <trkpt lat="48.10882" lon="7.28573">
        <ele>256.8</ele>
        <time>2021-06-21T10:38:00Z</time>
      </trkpt>
      <trkpt lat="48.10866" lon="7.28574">
        <ele>256.8</ele>
        <time>2021-06-21T10:38:03Z</time>
      </trkpt>
      <trkpt lat="48.10824" lon="7.28575">
        <ele>257.8</ele>
        <time>2021-06-21T10:38:12Z</time>
      </trkpt>
      <trkpt lat="48.10802" lon="7.28574">
        <ele>257.8</ele>
        <time>2021-06-21T10:38:19Z</time>
      </trkpt>
      <trkpt lat="48.10797" lon="7.28564">
        <ele>257.6</ele>
        <time>2021-06-21T10:38:22Z</time>
      </trkpt>
      <trkpt lat="48.10798" lon="7.2853">
        <ele>257.6</ele>
        <time>2021-06-21T10:38:29Z</time>
      </trkpt>
      <trkpt lat="48.10798" lon="7.28524">
        <ele>258.2</ele>
        <time>2021-06-21T10:38:30Z</time>
      </trkpt>
      <trkpt lat="48.10798" lon="7.28502">
        <ele>259.4</ele>
        <time>2021-06-21T10:38:34Z</time>
      </trkpt>
      <trkpt lat="48.10797" lon="7.28486">
        <ele>260.4</ele>
        <time>2021-06-21T10:38:37Z</time>
      </trkpt>
      <trkpt lat="48.10798" lon="7.28472">
        <ele>261</ele>
        <time>2021-06-21T10:38:40Z</time>
      </trkpt>
      <trkpt lat="48.10798" lon="7.28467">
        <ele>261.6</ele>
        <time>2021-06-21T10:38:41Z</time>
      </trkpt>
      <trkpt lat="48.10798" lon="7.28464">
        <ele>261.6</ele>
        <time>2021-06-21T10:38:42Z</time>
      </trkpt>
      <trkpt lat="48.10796" lon="7.28457">
        <ele>262.4</ele>
        <time>2021-06-21T10:38:44Z</time>
      </trkpt>
      <trkpt lat="48.10791" lon="7.28457">
        <ele>262.6</ele>
        <time>2021-06-21T10:38:46Z</time>
      </trkpt>
      <trkpt lat="48.10781" lon="7.28457">
        <ele>263.8</ele>
        <time>2021-06-21T10:38:51Z</time>
      </trkpt>
      <trkpt lat="48.10773" lon="7.28455">
        <ele>265</ele>
        <time>2021-06-21T10:38:55Z</time>
      </trkpt>
      <trkpt lat="48.10766" lon="7.28453">
        <ele>265.6</ele>
        <time>2021-06-21T10:38:58Z</time>
      </trkpt>
      <trkpt lat="48.10761" lon="7.28454">
        <ele>266.2</ele>
        <time>2021-06-21T10:39:00Z</time>
      </trkpt>
      <trkpt lat="48.10759" lon="7.28454">
        <ele>266.4</ele>
        <time>2021-06-21T10:39:01Z</time>
      </trkpt>
      <trkpt lat="48.10754" lon="7.28457">
        <ele>267.2</ele>
        <time>2021-06-21T10:39:03Z</time>
      </trkpt>
      <trkpt lat="48.10752" lon="7.2846">
        <ele>267.4</ele>
        <time>2021-06-21T10:39:04Z</time>
      </trkpt>
      <trkpt lat="48.10741" lon="7.28469">
        <ele>268.8</ele>
        <time>2021-06-21T10:39:09Z</time>
      </trkpt>
      <trkpt lat="48.10739" lon="7.28472">
        <ele>268.8</ele>
        <time>2021-06-21T10:39:10Z</time>
      </trkpt>
      <trkpt lat="48.10733" lon="7.2848">
        <ele>269.8</ele>
        <time>2021-06-21T10:39:13Z</time>
      </trkpt>
      <trkpt lat="48.10725" lon="7.28492">
        <ele>270.6</ele>
        <time>2021-06-21T10:39:17Z</time>
      </trkpt>
      <trkpt lat="48.10721" lon="7.28498">
        <ele>271.2</ele>
        <time>2021-06-21T10:39:19Z</time>
      </trkpt>
      <trkpt lat="48.10711" lon="7.28509">
        <ele>272.2</ele>
        <time>2021-06-21T10:39:23Z</time>
      </trkpt>
      <trkpt lat="48.10709" lon="7.28512">
        <ele>272.4</ele>
        <time>2021-06-21T10:39:24Z</time>
      </trkpt>
      <trkpt lat="48.10695" lon="7.28531">
        <ele>273.4</ele>
        <time>2021-06-21T10:39:30Z</time>
      </trkpt>
      <trkpt lat="48.10677" lon="7.28553">
        <ele>274.4</ele>
        <time>2021-06-21T10:39:36Z</time>
      </trkpt>
      <trkpt lat="48.10645" lon="7.28578">
        <ele>274</ele>
        <time>2021-06-21T10:39:44Z</time>
      </trkpt>
      <trkpt lat="48.10635" lon="7.28585">
        <ele>273.6</ele>
        <time>2021-06-21T10:39:46Z</time>
      </trkpt>
      <trkpt lat="48.10617" lon="7.28594">
        <ele>273.2</ele>
        <time>2021-06-21T10:39:49Z</time>
      </trkpt>
      <trkpt lat="48.10603" lon="7.28597">
        <ele>272.2</ele>
        <time>2021-06-21T10:39:51Z</time>
      </trkpt>
      <trkpt lat="48.10584" lon="7.28603">
        <ele>271</ele>
        <time>2021-06-21T10:39:54Z</time>
      </trkpt>
      <trkpt lat="48.10578" lon="7.28605">
        <ele>270.8</ele>
        <time>2021-06-21T10:39:55Z</time>
      </trkpt>
      <trkpt lat="48.10538" lon="7.28623">
        <ele>270</ele>
        <time>2021-06-21T10:40:02Z</time>
      </trkpt>
      <trkpt lat="48.10532" lon="7.28625">
        <ele>270</ele>
        <time>2021-06-21T10:40:03Z</time>
      </trkpt>
      <trkpt lat="48.10496" lon="7.28642">
        <ele>269.8</ele>
        <time>2021-06-21T10:40:09Z</time>
      </trkpt>
      <trkpt lat="48.10491" lon="7.28645">
        <ele>269.8</ele>
        <time>2021-06-21T10:40:10Z</time>
      </trkpt>
      <trkpt lat="48.10449" lon="7.28672">
        <ele>269</ele>
        <time>2021-06-21T10:40:17Z</time>
      </trkpt>
      <trkpt lat="48.10439" lon="7.28677">
        <ele>268.8</ele>
        <time>2021-06-21T10:40:19Z</time>
      </trkpt>
      <trkpt lat="48.10406" lon="7.28694">
        <ele>269</ele>
        <time>2021-06-21T10:40:25Z</time>
      </trkpt>
      <trkpt lat="48.10374" lon="7.28709">
        <ele>269.6</ele>
        <time>2021-06-21T10:40:32Z</time>
      </trkpt>
      <trkpt lat="48.1037" lon="7.28711">
        <ele>270</ele>
        <time>2021-06-21T10:40:33Z</time>
      </trkpt>
      <trkpt lat="48.10366" lon="7.28713">
        <ele>270.2</ele>
        <time>2021-06-21T10:40:34Z</time>
      </trkpt>
      <trkpt lat="48.10355" lon="7.28717">
        <ele>271.2</ele>
        <time>2021-06-21T10:40:37Z</time>
      </trkpt>
      <trkpt lat="48.10351" lon="7.28719">
        <ele>271.6</ele>
        <time>2021-06-21T10:40:38Z</time>
      </trkpt>
      <trkpt lat="48.10335" lon="7.28728">
        <ele>272.2</ele>
        <time>2021-06-21T10:40:43Z</time>
      </trkpt>
      <trkpt lat="48.10328" lon="7.28732">
        <ele>272.8</ele>
        <time>2021-06-21T10:40:45Z</time>
      </trkpt>
      <trkpt lat="48.10316" lon="7.28739">
        <ele>274</ele>
        <time>2021-06-21T10:40:49Z</time>
      </trkpt>
      <trkpt lat="48.10309" lon="7.28743">
        <ele>274.8</ele>
        <time>2021-06-21T10:40:51Z</time>
      </trkpt>
      <trkpt lat="48.10306" lon="7.28746">
        <ele>275</ele>
        <time>2021-06-21T10:40:52Z</time>
      </trkpt>
      <trkpt lat="48.10303" lon="7.28749">
        <ele>275.2</ele>
        <time>2021-06-21T10:40:53Z</time>
      </trkpt>
      <trkpt lat="48.10298" lon="7.28764">
        <ele>275.6</ele>
        <time>2021-06-21T10:40:56Z</time>
      </trkpt>
      <trkpt lat="48.10297" lon="7.28771">
        <ele>275.6</ele>
        <time>2021-06-21T10:40:57Z</time>
      </trkpt>
      <trkpt lat="48.10295" lon="7.28789">
        <ele>275.4</ele>
        <time>2021-06-21T10:40:59Z</time>
      </trkpt>
      <trkpt lat="48.10287" lon="7.28805">
        <ele>275.2</ele>
        <time>2021-06-21T10:41:01Z</time>
      </trkpt>
      <trkpt lat="48.10281" lon="7.2881">
        <ele>274.8</ele>
        <time>2021-06-21T10:41:02Z</time>
      </trkpt>
      <trkpt lat="48.10275" lon="7.28812">
        <ele>274.2</ele>
        <time>2021-06-21T10:41:03Z</time>
      </trkpt>
      <trkpt lat="48.10268" lon="7.28812">
        <ele>274</ele>
        <time>2021-06-21T10:41:04Z</time>
      </trkpt>
      <trkpt lat="48.1026" lon="7.28812">
        <ele>273.4</ele>
        <time>2021-06-21T10:41:05Z</time>
      </trkpt>
      <trkpt lat="48.10246" lon="7.28813">
        <ele>272.2</ele>
        <time>2021-06-21T10:41:07Z</time>
      </trkpt>
      <trkpt lat="48.10224" lon="7.28811">
        <ele>271</ele>
        <time>2021-06-21T10:41:10Z</time>
      </trkpt>
      <trkpt lat="48.10215" lon="7.2881">
        <ele>270.6</ele>
        <time>2021-06-21T10:41:11Z</time>
      </trkpt>
      <trkpt lat="48.10189" lon="7.28803">
        <ele>270</ele>
        <time>2021-06-21T10:41:14Z</time>
      </trkpt>
      <trkpt lat="48.1017" lon="7.28798">
        <ele>269.2</ele>
        <time>2021-06-21T10:41:16Z</time>
      </trkpt>
      <trkpt lat="48.1016" lon="7.28794">
        <ele>268.4</ele>
        <time>2021-06-21T10:41:17Z</time>
      </trkpt>
      <trkpt lat="48.10139" lon="7.28788">
        <ele>266.4</ele>
        <time>2021-06-21T10:41:19Z</time>
      </trkpt>
      <trkpt lat="48.1012" lon="7.28783">
        <ele>265.2</ele>
        <time>2021-06-21T10:41:21Z</time>
      </trkpt>
      <trkpt lat="48.10112" lon="7.28781">
        <ele>264.2</ele>
        <time>2021-06-21T10:41:22Z</time>
      </trkpt>
      <trkpt lat="48.10102" lon="7.28779">
        <ele>263.6</ele>
        <time>2021-06-21T10:41:23Z</time>
      </trkpt>
      <trkpt lat="48.10093" lon="7.28777">
        <ele>262</ele>
        <time>2021-06-21T10:41:24Z</time>
      </trkpt>
      <trkpt lat="48.10081" lon="7.28774">
        <ele>260.2</ele>
        <time>2021-06-21T10:41:26Z</time>
      </trkpt>
      <trkpt lat="48.10071" lon="7.28771">
        <ele>258.2</ele>
        <time>2021-06-21T10:41:28Z</time>
      </trkpt>
      <trkpt lat="48.10068" lon="7.2877">
        <ele>257.2</ele>
        <time>2021-06-21T10:41:29Z</time>
      </trkpt>
      <trkpt lat="48.10066" lon="7.28769">
        <ele>256.8</ele>
        <time>2021-06-21T10:41:30Z</time>
      </trkpt>
      <trkpt lat="48.10063" lon="7.2877">
        <ele>256</ele>
        <time>2021-06-21T10:41:31Z</time>
      </trkpt>
      <trkpt lat="48.10061" lon="7.28771">
        <ele>255.6</ele>
        <time>2021-06-21T10:41:32Z</time>
      </trkpt>
      <trkpt lat="48.10052" lon="7.28774">
        <ele>255</ele>
        <time>2021-06-21T10:41:34Z</time>
      </trkpt>
      <trkpt lat="48.10043" lon="7.28774">
        <ele>254.2</ele>
        <time>2021-06-21T10:41:36Z</time>
      </trkpt>
      <trkpt lat="48.10025" lon="7.2877">
        <ele>254</ele>
        <time>2021-06-21T10:41:39Z</time>
      </trkpt>
      <trkpt lat="48.10015" lon="7.28768">
        <ele>253.8</ele>
        <time>2021-06-21T10:41:41Z</time>
      </trkpt>
      <trkpt lat="48.09979" lon="7.28755">
        <ele>252.8</ele>
        <time>2021-06-21T10:41:47Z</time>
      </trkpt>
      <trkpt lat="48.09973" lon="7.28753">
        <ele>252.8</ele>
        <time>2021-06-21T10:41:48Z</time>
      </trkpt>
      <trkpt lat="48.0995" lon="7.28749">
        <ele>252.6</ele>
        <time>2021-06-21T10:41:52Z</time>
      </trkpt>
      <trkpt lat="48.09938" lon="7.28752">
        <ele>252.4</ele>
        <time>2021-06-21T10:41:54Z</time>
      </trkpt>
      <trkpt lat="48.0992" lon="7.28769">
        <ele>252.6</ele>
        <time>2021-06-21T10:41:58Z</time>
      </trkpt>
      <trkpt lat="48.09892" lon="7.28794">
        <ele>253</ele>
        <time>2021-06-21T10:42:04Z</time>
      </trkpt>
      <trkpt lat="48.09887" lon="7.28798">
        <ele>253</ele>
        <time>2021-06-21T10:42:05Z</time>
      </trkpt>
      <trkpt lat="48.09861" lon="7.28809">
        <ele>253.4</ele>
        <time>2021-06-21T10:42:10Z</time>
      </trkpt>
      <trkpt lat="48.09845" lon="7.28811">
        <ele>253.8</ele>
        <time>2021-06-21T10:42:13Z</time>
      </trkpt>
      <trkpt lat="48.09829" lon="7.2881">
        <ele>254</ele>
        <time>2021-06-21T10:42:16Z</time>
      </trkpt>
      <trkpt lat="48.09823" lon="7.28809">
        <ele>254</ele>
        <time>2021-06-21T10:42:17Z</time>
      </trkpt>
      <trkpt lat="48.09812" lon="7.28805">
        <ele>254</ele>
        <time>2021-06-21T10:42:19Z</time>
      </trkpt>
      <trkpt lat="48.09801" lon="7.28803">
        <ele>254</ele>
        <time>2021-06-21T10:42:21Z</time>
      </trkpt>
      <trkpt lat="48.0979" lon="7.28801">
        <ele>254.2</ele>
        <time>2021-06-21T10:42:23Z</time>
      </trkpt>
      <trkpt lat="48.09769" lon="7.28799">
        <ele>255</ele>
        <time>2021-06-21T10:42:27Z</time>
      </trkpt>
      <trkpt lat="48.09764" lon="7.288">
        <ele>255.2</ele>
        <time>2021-06-21T10:42:28Z</time>
      </trkpt>
      <trkpt lat="48.09754" lon="7.28802">
        <ele>255.4</ele>
        <time>2021-06-21T10:42:30Z</time>
      </trkpt>
      <trkpt lat="48.0973" lon="7.28814">
        <ele>255.6</ele>
        <time>2021-06-21T10:42:35Z</time>
      </trkpt>
      <trkpt lat="48.09704" lon="7.28828">
        <ele>256.4</ele>
        <time>2021-06-21T10:42:41Z</time>
      </trkpt>
      <trkpt lat="48.097" lon="7.2883">
        <ele>256.8</ele>
        <time>2021-06-21T10:42:42Z</time>
      </trkpt>
      <trkpt lat="48.09672" lon="7.2884">
        <ele>257.8</ele>
        <time>2021-06-21T10:42:49Z</time>
      </trkpt>
      <trkpt lat="48.09664" lon="7.28843">
        <ele>258</ele>
        <time>2021-06-21T10:42:51Z</time>
      </trkpt>
      <trkpt lat="48.09631" lon="7.2885">
        <ele>259</ele>
        <time>2021-06-21T10:42:59Z</time>
      </trkpt>
      <trkpt lat="48.09584" lon="7.28849">
        <ele>260.2</ele>
        <time>2021-06-21T10:43:10Z</time>
      </trkpt>
      <trkpt lat="48.0955" lon="7.28844">
        <ele>261.2</ele>
        <time>2021-06-21T10:43:18Z</time>
      </trkpt>
      <trkpt lat="48.09515" lon="7.28835">
        <ele>262</ele>
        <time>2021-06-21T10:43:26Z</time>
      </trkpt>
      <trkpt lat="48.09506" lon="7.28833">
        <ele>262.2</ele>
        <time>2021-06-21T10:43:28Z</time>
      </trkpt>
      <trkpt lat="48.09484" lon="7.2882">
        <ele>262.8</ele>
        <time>2021-06-21T10:43:34Z</time>
      </trkpt>
      <trkpt lat="48.09465" lon="7.28798">
        <ele>263.4</ele>
        <time>2021-06-21T10:43:40Z</time>
      </trkpt>
      <trkpt lat="48.09459" lon="7.2879">
        <ele>263.6</ele>
        <time>2021-06-21T10:43:42Z</time>
      </trkpt>
      <trkpt lat="48.09437" lon="7.28755">
        <ele>263</ele>
        <time>2021-06-21T10:43:51Z</time>
      </trkpt>
      <trkpt lat="48.09435" lon="7.28753">
        <ele>262.8</ele>
        <time>2021-06-21T10:43:54Z</time>
      </trkpt>
      <trkpt lat="48.09433" lon="7.2875">
        <ele>262.2</ele>
        <time>2021-06-21T10:44:08Z</time>
      </trkpt>
      <trkpt lat="48.09428" lon="7.28743">
        <ele>262.2</ele>
        <time>2021-06-21T10:44:10Z</time>
      </trkpt>
      <trkpt lat="48.09413" lon="7.28716">
        <ele>261.4</ele>
        <time>2021-06-21T10:44:15Z</time>
      </trkpt>
      <trkpt lat="48.09406" lon="7.28702">
        <ele>261.2</ele>
        <time>2021-06-21T10:44:17Z</time>
      </trkpt>
      <trkpt lat="48.09392" lon="7.28672">
        <ele>260.4</ele>
        <time>2021-06-21T10:44:21Z</time>
      </trkpt>
      <trkpt lat="48.09379" lon="7.28646">
        <ele>259.6</ele>
        <time>2021-06-21T10:44:24Z</time>
      </trkpt>
      <trkpt lat="48.09373" lon="7.28636">
        <ele>259.2</ele>
        <time>2021-06-21T10:44:25Z</time>
      </trkpt>
      <trkpt lat="48.09368" lon="7.2863">
        <ele>258.6</ele>
        <time>2021-06-21T10:44:26Z</time>
      </trkpt>
      <trkpt lat="48.09354" lon="7.28615">
        <ele>258</ele>
        <time>2021-06-21T10:44:28Z</time>
      </trkpt>
      <trkpt lat="48.09346" lon="7.28609">
        <ele>257</ele>
        <time>2021-06-21T10:44:29Z</time>
      </trkpt>
      <trkpt lat="48.09337" lon="7.28604">
        <ele>256.4</ele>
        <time>2021-06-21T10:44:30Z</time>
      </trkpt>
      <trkpt lat="48.09328" lon="7.286">
        <ele>255.8</ele>
        <time>2021-06-21T10:44:31Z</time>
      </trkpt>
      <trkpt lat="48.093" lon="7.28588">
        <ele>253.6</ele>
        <time>2021-06-21T10:44:34Z</time>
      </trkpt>
      <trkpt lat="48.09282" lon="7.28581">
        <ele>252.6</ele>
        <time>2021-06-21T10:44:36Z</time>
      </trkpt>
      <trkpt lat="48.09265" lon="7.28576">
        <ele>250.2</ele>
        <time>2021-06-21T10:44:38Z</time>
      </trkpt>
      <trkpt lat="48.0925" lon="7.28572">
        <ele>247.8</ele>
        <time>2021-06-21T10:44:40Z</time>
      </trkpt>
      <trkpt lat="48.09244" lon="7.2857">
        <ele>246.2</ele>
        <time>2021-06-21T10:44:41Z</time>
      </trkpt>
      <trkpt lat="48.09239" lon="7.28568">
        <ele>245.2</ele>
        <time>2021-06-21T10:44:42Z</time>
      </trkpt>
      <trkpt lat="48.09234" lon="7.28567">
        <ele>243.8</ele>
        <time>2021-06-21T10:44:43Z</time>
      </trkpt>
      <trkpt lat="48.0923" lon="7.28567">
        <ele>243.2</ele>
        <time>2021-06-21T10:44:44Z</time>
      </trkpt>
      <trkpt lat="48.09225" lon="7.28567">
        <ele>241.8</ele>
        <time>2021-06-21T10:44:45Z</time>
      </trkpt>
      <trkpt lat="48.09219" lon="7.28568">
        <ele>241.4</ele>
        <time>2021-06-21T10:44:46Z</time>
      </trkpt>
      <trkpt lat="48.09212" lon="7.2857">
        <ele>240.8</ele>
        <time>2021-06-21T10:44:47Z</time>
      </trkpt>
      <trkpt lat="48.09197" lon="7.28575">
        <ele>239.2</ele>
        <time>2021-06-21T10:44:49Z</time>
      </trkpt>
      <trkpt lat="48.09189" lon="7.28577">
        <ele>237.6</ele>
        <time>2021-06-21T10:44:50Z</time>
      </trkpt>
      <trkpt lat="48.09172" lon="7.28582">
        <ele>236</ele>
        <time>2021-06-21T10:44:52Z</time>
      </trkpt>
      <trkpt lat="48.09156" lon="7.28588">
        <ele>234.8</ele>
        <time>2021-06-21T10:44:54Z</time>
      </trkpt>
      <trkpt lat="48.09149" lon="7.2859">
        <ele>234.6</ele>
        <time>2021-06-21T10:44:55Z</time>
      </trkpt>
      <trkpt lat="48.09141" lon="7.28593">
        <ele>233.8</ele>
        <time>2021-06-21T10:44:56Z</time>
      </trkpt>
      <trkpt lat="48.09119" lon="7.286">
        <ele>232.4</ele>
        <time>2021-06-21T10:44:59Z</time>
      </trkpt>
      <trkpt lat="48.09113" lon="7.28602">
        <ele>232.2</ele>
        <time>2021-06-21T10:45:00Z</time>
      </trkpt>
      <trkpt lat="48.09107" lon="7.28605">
        <ele>231.8</ele>
        <time>2021-06-21T10:45:01Z</time>
      </trkpt>
      <trkpt lat="48.09095" lon="7.28608">
        <ele>231.2</ele>
        <time>2021-06-21T10:45:03Z</time>
      </trkpt>
      <trkpt lat="48.09089" lon="7.28609">
        <ele>231</ele>
        <time>2021-06-21T10:45:04Z</time>
      </trkpt>
      <trkpt lat="48.09082" lon="7.28607">
        <ele>230.6</ele>
        <time>2021-06-21T10:45:06Z</time>
      </trkpt>
      <trkpt lat="48.09073" lon="7.2859">
        <ele>230.4</ele>
        <time>2021-06-21T10:45:10Z</time>
      </trkpt>
      <trkpt lat="48.0907" lon="7.28577">
        <ele>230.4</ele>
        <time>2021-06-21T10:45:12Z</time>
      </trkpt>
      <trkpt lat="48.09063" lon="7.28569">
        <ele>230.2</ele>
        <time>2021-06-21T10:45:14Z</time>
      </trkpt>
      <trkpt lat="48.09054" lon="7.28562">
        <ele>230.2</ele>
        <time>2021-06-21T10:45:16Z</time>
      </trkpt>
      <trkpt lat="48.09049" lon="7.28557">
        <ele>230.2</ele>
        <time>2021-06-21T10:45:17Z</time>
      </trkpt>
      <trkpt lat="48.09045" lon="7.28551">
        <ele>230.2</ele>
        <time>2021-06-21T10:45:18Z</time>
      </trkpt>
      <trkpt lat="48.09019" lon="7.28515">
        <ele>230.2</ele>
        <time>2021-06-21T10:45:24Z</time>
      </trkpt>
      <trkpt lat="48.08985" lon="7.2847">
        <ele>230.4</ele>
        <time>2021-06-21T10:45:32Z</time>
      </trkpt>
      <trkpt lat="48.08981" lon="7.28463">
        <ele>230.4</ele>
        <time>2021-06-21T10:45:33Z</time>
      </trkpt>
      <trkpt lat="48.08972" lon="7.28425">
        <ele>230.8</ele>
        <time>2021-06-21T10:45:38Z</time>
      </trkpt>
      <trkpt lat="48.08964" lon="7.28394">
        <ele>230.8</ele>
        <time>2021-06-21T10:45:42Z</time>
      </trkpt>
      <trkpt lat="48.08955" lon="7.28373">
        <ele>231.4</ele>
        <time>2021-06-21T10:45:45Z</time>
      </trkpt>
      <trkpt lat="48.08949" lon="7.28359">
        <ele>231.4</ele>
        <time>2021-06-21T10:45:47Z</time>
      </trkpt>
      <trkpt lat="48.08934" lon="7.28323">
        <ele>231.6</ele>
        <time>2021-06-21T10:45:52Z</time>
      </trkpt>
      <trkpt lat="48.08933" lon="7.28315">
        <ele>231.6</ele>
        <time>2021-06-21T10:45:53Z</time>
      </trkpt>
      <trkpt lat="48.0892" lon="7.28262">
        <ele>232</ele>
        <time>2021-06-21T10:46:00Z</time>
      </trkpt>
      <trkpt lat="48.08915" lon="7.28247">
        <ele>232.2</ele>
        <time>2021-06-21T10:46:02Z</time>
      </trkpt>
      <trkpt lat="48.08907" lon="7.28237">
        <ele>232.2</ele>
        <time>2021-06-21T10:46:04Z</time>
      </trkpt>
      <trkpt lat="48.08876" lon="7.28198">
        <ele>232.2</ele>
        <time>2021-06-21T10:46:11Z</time>
      </trkpt>
      <trkpt lat="48.0885" lon="7.28167">
        <ele>232.4</ele>
        <time>2021-06-21T10:46:17Z</time>
      </trkpt>
      <trkpt lat="48.08845" lon="7.28163">
        <ele>232.4</ele>
        <time>2021-06-21T10:46:18Z</time>
      </trkpt>
      <trkpt lat="48.08834" lon="7.28157">
        <ele>232.4</ele>
        <time>2021-06-21T10:46:20Z</time>
      </trkpt>
      <trkpt lat="48.08814" lon="7.28146">
        <ele>232.4</ele>
        <time>2021-06-21T10:46:24Z</time>
      </trkpt>
      <trkpt lat="48.088" lon="7.28137">
        <ele>232.2</ele>
        <time>2021-06-21T10:46:27Z</time>
      </trkpt>
      <trkpt lat="48.08783" lon="7.28121">
        <ele>232.2</ele>
        <time>2021-06-21T10:46:31Z</time>
      </trkpt>
      <trkpt lat="48.08754" lon="7.28095">
        <ele>232.8</ele>
        <time>2021-06-21T10:46:38Z</time>
      </trkpt>
      <trkpt lat="48.08746" lon="7.28087">
        <ele>232.8</ele>
        <time>2021-06-21T10:46:40Z</time>
      </trkpt>
      <trkpt lat="48.08731" lon="7.28071">
        <ele>232.8</ele>
        <time>2021-06-21T10:46:44Z</time>
      </trkpt>
      <trkpt lat="48.08704" lon="7.28043">
        <ele>233.2</ele>
        <time>2021-06-21T10:46:51Z</time>
      </trkpt>
      <trkpt lat="48.08701" lon="7.28039">
        <ele>233.4</ele>
        <time>2021-06-21T10:46:52Z</time>
      </trkpt>
      <trkpt lat="48.08694" lon="7.28021">
        <ele>233.4</ele>
        <time>2021-06-21T10:46:56Z</time>
      </trkpt>
      <trkpt lat="48.08688" lon="7.28014">
        <ele>233.4</ele>
        <time>2021-06-21T10:46:58Z</time>
      </trkpt>
      <trkpt lat="48.08679" lon="7.28008">
        <ele>233.4</ele>
        <time>2021-06-21T10:47:00Z</time>
      </trkpt>
      <trkpt lat="48.08675" lon="7.28005">
        <ele>233.4</ele>
        <time>2021-06-21T10:47:01Z</time>
      </trkpt>
      <trkpt lat="48.08656" lon="7.27986">
        <ele>233.6</ele>
        <time>2021-06-21T10:47:06Z</time>
      </trkpt>
      <trkpt lat="48.08647" lon="7.27976">
        <ele>233.6</ele>
        <time>2021-06-21T10:47:09Z</time>
      </trkpt>
      <trkpt lat="48.08642" lon="7.27971">
        <ele>233.8</ele>
        <time>2021-06-21T10:47:11Z</time>
      </trkpt>
      <trkpt lat="48.08636" lon="7.27962">
        <ele>234.2</ele>
        <time>2021-06-21T10:47:16Z</time>
      </trkpt>
      <trkpt lat="48.08635" lon="7.27961">
        <ele>234.6</ele>
        <time>2021-06-21T10:47:19Z</time>
      </trkpt>
      <trkpt lat="48.08628" lon="7.27955">
        <ele>235</ele>
        <time>2021-06-21T10:47:28Z</time>
      </trkpt>
      <trkpt lat="48.08617" lon="7.27958">
        <ele>234.8</ele>
        <time>2021-06-21T10:47:31Z</time>
      </trkpt>
      <trkpt lat="48.08607" lon="7.27972">
        <ele>234.6</ele>
        <time>2021-06-21T10:47:34Z</time>
      </trkpt>
      <trkpt lat="48.08604" lon="7.27978">
        <ele>234.6</ele>
        <time>2021-06-21T10:47:35Z</time>
      </trkpt>
      <trkpt lat="48.08595" lon="7.27993">
        <ele>234.6</ele>
        <time>2021-06-21T10:47:38Z</time>
      </trkpt>
      <trkpt lat="48.08589" lon="7.27994">
        <ele>234.6</ele>
        <time>2021-06-21T10:47:40Z</time>
      </trkpt>
      <trkpt lat="48.08587" lon="7.27979">
        <ele>234.6</ele>
        <time>2021-06-21T10:47:43Z</time>
      </trkpt>
      <trkpt lat="48.08582" lon="7.27941">
        <ele>235</ele>
        <time>2021-06-21T10:47:49Z</time>
      </trkpt>
      <trkpt lat="48.08581" lon="7.27934">
        <ele>235</ele>
        <time>2021-06-21T10:47:50Z</time>
      </trkpt>
      <trkpt lat="48.08578" lon="7.27912">
        <ele>235</ele>
        <time>2021-06-21T10:47:53Z</time>
      </trkpt>
      <trkpt lat="48.08576" lon="7.27906">
        <ele>235</ele>
        <time>2021-06-21T10:47:54Z</time>
      </trkpt>
      <trkpt lat="48.08572" lon="7.27884">
        <ele>235</ele>
        <time>2021-06-21T10:47:57Z</time>
      </trkpt>
      <trkpt lat="48.08567" lon="7.27856">
        <ele>235</ele>
        <time>2021-06-21T10:48:01Z</time>
      </trkpt>
      <trkpt lat="48.08564" lon="7.27833">
        <ele>235.2</ele>
        <time>2021-06-21T10:48:04Z</time>
      </trkpt>
      <trkpt lat="48.08562" lon="7.2781">
        <ele>235.2</ele>
        <time>2021-06-21T10:48:07Z</time>
      </trkpt>
      <trkpt lat="48.08556" lon="7.27755">
        <ele>235.4</ele>
        <time>2021-06-21T10:48:14Z</time>
      </trkpt>
      <trkpt lat="48.08549" lon="7.27696">
        <ele>235.4</ele>
        <time>2021-06-21T10:48:22Z</time>
      </trkpt>
      <trkpt lat="48.08543" lon="7.27619">
        <ele>235.6</ele>
        <time>2021-06-21T10:48:32Z</time>
      </trkpt>
      <trkpt lat="48.0854" lon="7.27552">
        <ele>235.8</ele>
        <time>2021-06-21T10:48:41Z</time>
      </trkpt>
      <trkpt lat="48.08539" lon="7.2753">
        <ele>236.2</ele>
        <time>2021-06-21T10:48:44Z</time>
      </trkpt>
      <trkpt lat="48.08539" lon="7.27508">
        <ele>236.4</ele>
        <time>2021-06-21T10:48:47Z</time>
      </trkpt>
      <trkpt lat="48.08537" lon="7.27433">
        <ele>236.8</ele>
        <time>2021-06-21T10:48:56Z</time>
      </trkpt>
      <trkpt lat="48.08536" lon="7.27351">
        <ele>236.8</ele>
        <time>2021-06-21T10:49:06Z</time>
      </trkpt>
      <trkpt lat="48.08536" lon="7.27343">
        <ele>236.6</ele>
        <time>2021-06-21T10:49:07Z</time>
      </trkpt>
      <trkpt lat="48.08537" lon="7.27307">
        <ele>236.8</ele>
        <time>2021-06-21T10:49:12Z</time>
      </trkpt>
      <trkpt lat="48.08536" lon="7.27289">
        <ele>236.8</ele>
        <time>2021-06-21T10:49:15Z</time>
      </trkpt>
      <trkpt lat="48.08534" lon="7.27262">
        <ele>237</ele>
        <time>2021-06-21T10:49:20Z</time>
      </trkpt>
      <trkpt lat="48.08532" lon="7.27256">
        <ele>237.2</ele>
        <time>2021-06-21T10:49:22Z</time>
      </trkpt>
      <trkpt lat="48.08527" lon="7.27248">
        <ele>237.4</ele>
        <time>2021-06-21T10:49:25Z</time>
      </trkpt>
      <trkpt lat="48.08515" lon="7.27235">
        <ele>237.4</ele>
        <time>2021-06-21T10:49:30Z</time>
      </trkpt>
      <trkpt lat="48.08513" lon="7.27235">
        <ele>237.4</ele>
        <time>2021-06-21T10:49:31Z</time>
      </trkpt>
      <trkpt lat="48.08506" lon="7.27234">
        <ele>237.4</ele>
        <time>2021-06-21T10:49:33Z</time>
      </trkpt>
      <trkpt lat="48.08495" lon="7.27229">
        <ele>237.4</ele>
        <time>2021-06-21T10:49:36Z</time>
      </trkpt>
      <trkpt lat="48.08478" lon="7.27218">
        <ele>237.2</ele>
        <time>2021-06-21T10:49:40Z</time>
      </trkpt>
      <trkpt lat="48.08474" lon="7.27214">
        <ele>237.4</ele>
        <time>2021-06-21T10:49:41Z</time>
      </trkpt>
      <trkpt lat="48.08473" lon="7.27208">
        <ele>237.6</ele>
        <time>2021-06-21T10:49:42Z</time>
      </trkpt>
      <trkpt lat="48.08472" lon="7.27194">
        <ele>237.6</ele>
        <time>2021-06-21T10:49:44Z</time>
      </trkpt>
      <trkpt lat="48.08481" lon="7.27151">
        <ele>237.8</ele>
        <time>2021-06-21T10:49:50Z</time>
      </trkpt>
      <trkpt lat="48.08496" lon="7.27099">
        <ele>238</ele>
        <time>2021-06-21T10:49:58Z</time>
      </trkpt>
      <trkpt lat="48.085" lon="7.27082">
        <ele>238</ele>
        <time>2021-06-21T10:50:01Z</time>
      </trkpt>
      <trkpt lat="48.08499" lon="7.27076">
        <ele>238</ele>
        <time>2021-06-21T10:50:02Z</time>
      </trkpt>
      <trkpt lat="48.08498" lon="7.27072">
        <ele>238.2</ele>
        <time>2021-06-21T10:50:03Z</time>
      </trkpt>
      <trkpt lat="48.08492" lon="7.27067">
        <ele>238.2</ele>
        <time>2021-06-21T10:50:05Z</time>
      </trkpt>
      <trkpt lat="48.08482" lon="7.27059">
        <ele>238.4</ele>
        <time>2021-06-21T10:50:08Z</time>
      </trkpt>
      <trkpt lat="48.08481" lon="7.27055">
        <ele>238.6</ele>
        <time>2021-06-21T10:50:09Z</time>
      </trkpt>
      <trkpt lat="48.08479" lon="7.2705">
        <ele>238.6</ele>
        <time>2021-06-21T10:50:10Z</time>
      </trkpt>
      <trkpt lat="48.08477" lon="7.27047">
        <ele>238.8</ele>
        <time>2021-06-21T10:50:11Z</time>
      </trkpt>
      <trkpt lat="48.08469" lon="7.27045">
        <ele>239</ele>
        <time>2021-06-21T10:50:13Z</time>
      </trkpt>
      <trkpt lat="48.08444" lon="7.27045">
        <ele>239.4</ele>
        <time>2021-06-21T10:50:20Z</time>
      </trkpt>
      <trkpt lat="48.08437" lon="7.27045">
        <ele>239.4</ele>
        <time>2021-06-21T10:50:25Z</time>
      </trkpt>
      <trkpt lat="48.08437" lon="7.27045">
        <ele>239.6</ele>
        <time>2021-06-21T10:50:26Z</time>
      </trkpt>
    </trkseg>
  </trk>
</gpx>